﻿<?xml version="1.0" encoding="utf-8"?><gpx creator="Garmin Desktop App" version="1.1" xsi:schemaLocation="http://www.topografix.com/GPX/1/1 http://www.topografix.com/GPX/1/1/gpx.xsd http://www.garmin.com/xmlschemas/WaypointExtension/v1 http://www8.garmin.com/xmlschemas/WaypointExtensionv1.xsd http://www.garmin.com/xmlschemas/TrackPointExtension/v1 http://www.garmin.com/xmlschemas/TrackPointExtensionv1.xsd http://www.garmin.com/xmlschemas/GpxExtensions/v3 http://www8.garmin.com/xmlschemas/GpxExtensionsv3.xsd http://www.garmin.com/xmlschemas/ActivityExtension/v1 http://www8.garmin.com/xmlschemas/ActivityExtensionv1.xsd http://www.garmin.com/xmlschemas/AdventuresExtensions/v1 http://www8.garmin.com/xmlschemas/AdventuresExtensionv1.xsd http://www.garmin.com/xmlschemas/PressureExtension/v1 http://www.garmin.com/xmlschemas/PressureExtensionv1.xsd http://www.garmin.com/xmlschemas/TripExtensions/v1 http://www.garmin.com/xmlschemas/TripExtensionsv1.xsd http://www.garmin.com/xmlschemas/TripMetaDataExtensions/v1 http://www.garmin.com/xmlschemas/TripMetaDataExtensionsv1.xsd http://www.garmin.com/xmlschemas/ViaPointTransportationModeExtensions/v1 http://www.garmin.com/xmlschemas/ViaPointTransportationModeExtensionsv1.xsd http://www.garmin.com/xmlschemas/CreationTimeExtension/v1 http://www.garmin.com/xmlschemas/CreationTimeExtensionsv1.xsd http://www.garmin.com/xmlschemas/AccelerationExtension/v1 http://www.garmin.com/xmlschemas/AccelerationExtensionv1.xsd http://www.garmin.com/xmlschemas/PowerExtension/v1 http://www.garmin.com/xmlschemas/PowerExtensionv1.xsd http://www.garmin.com/xmlschemas/VideoExtension/v1 http://www.garmin.com/xmlschemas/VideoExtensionv1.xsd" xmlns="http://www.topografix.com/GPX/1/1" xmlns:xsi="http://www.w3.org/2001/XMLSchema-instance" xmlns:wptx1="http://www.garmin.com/xmlschemas/WaypointExtension/v1" xmlns:gpxtrx="http://www.garmin.com/xmlschemas/GpxExtensions/v3" xmlns:gpxtpx="http://www.garmin.com/xmlschemas/TrackPointExtension/v1" xmlns:gpxx="http://www.garmin.com/xmlschemas/GpxExtensions/v3" xmlns:trp="http://www.garmin.com/xmlschemas/TripExtensions/v1" xmlns:adv="http://www.garmin.com/xmlschemas/AdventuresExtensions/v1" xmlns:prs="http://www.garmin.com/xmlschemas/PressureExtension/v1" xmlns:tmd="http://www.garmin.com/xmlschemas/TripMetaDataExtensions/v1" xmlns:vptm="http://www.garmin.com/xmlschemas/ViaPointTransportationModeExtensions/v1" xmlns:ctx="http://www.garmin.com/xmlschemas/CreationTimeExtension/v1" xmlns:gpxacc="http://www.garmin.com/xmlschemas/AccelerationExtension/v1" xmlns:gpxpx="http://www.garmin.com/xmlschemas/PowerExtension/v1" xmlns:vidx1="http://www.garmin.com/xmlschemas/VideoExtension/v1">

  <metadata>
    <link href="http://www.garmin.com">
      <text>Garmin International</text>
    </link>
    <time>2022-09-08T04:29:41Z</time>
    <bounds maxlat="44.107982190325856" maxlon="10.236075790598989" minlat="44.089519958943129" minlon="10.20967916585505" />
  </metadata>

  <trk>
    <name>resceto-rif-conti2022-09-06</name>
    <extensions>
      <gpxx:TrackExtension>
        <gpxx:DisplayColor>Yellow</gpxx:DisplayColor>
      </gpxx:TrackExtension>
      <gpxtrkx:TrackStatsExtension xmlns:gpxtrkx="http://www.garmin.com/xmlschemas/TrackStatsExtension/v1">
        <gpxtrkx:Distance>4450</gpxtrkx:Distance>
        <gpxtrkx:TotalElapsedTime>12513</gpxtrkx:TotalElapsedTime>
        <gpxtrkx:MovingTime>8875</gpxtrkx:MovingTime>
        <gpxtrkx:StoppedTime>3632</gpxtrkx:StoppedTime>
        <gpxtrkx:MovingSpeed>0.501</gpxtrkx:MovingSpeed>
        <gpxtrkx:MaxSpeed>3.239</gpxtrkx:MaxSpeed>
        <gpxtrkx:MaxElevation>1417.571</gpxtrkx:MaxElevation>
        <gpxtrkx:MinElevation>475.08</gpxtrkx:MinElevation>
        <gpxtrkx:Ascent>950</gpxtrkx:Ascent>
        <gpxtrkx:Descent>38.273</gpxtrkx:Descent>
        <gpxtrkx:AvgAscentRate>0.093</gpxtrkx:AvgAscentRate>
        <gpxtrkx:MaxAscentRate>0.261</gpxtrkx:MaxAscentRate>
        <gpxtrkx:AvgDescentRate>0.051</gpxtrkx:AvgDescentRate>
        <gpxtrkx:MaxDescentRate>-0.246</gpxtrkx:MaxDescentRate>
      </gpxtrkx:TrackStatsExtension>
    </extensions>
    <trkseg>
      <trkpt lat="44.090309450402856" lon="10.210152408108115">
        <ele>504.13</ele>
        <time>2022-09-06T07:55:03Z</time>
      </trkpt>
      <trkpt lat="44.090309282764792" lon="10.21015265956521">
        <ele>504.13</ele>
        <time>2022-09-06T07:55:04Z</time>
      </trkpt>
      <trkpt lat="44.090306516736746" lon="10.210153078660369">
        <ele>503.25</ele>
        <time>2022-09-06T07:55:17Z</time>
      </trkpt>
      <trkpt lat="44.090303415432572" lon="10.210145283490419">
        <ele>503.10000000000002</ele>
        <time>2022-09-06T07:55:39Z</time>
      </trkpt>
      <trkpt lat="44.090300481766462" lon="10.210137404501438">
        <ele>503.17000000000002</ele>
        <time>2022-09-06T07:56:08Z</time>
      </trkpt>
      <trkpt lat="44.090295536443591" lon="10.21012675948441">
        <ele>504.00999999999999</ele>
        <time>2022-09-06T07:56:39Z</time>
      </trkpt>
      <trkpt lat="44.090282376855612" lon="10.210115779191256">
        <ele>504.44999999999999</ele>
        <time>2022-09-06T07:56:56Z</time>
      </trkpt>
      <trkpt lat="44.090275838971138" lon="10.210114941000938">
        <ele>504.74000000000001</ele>
        <time>2022-09-06T07:57:09Z</time>
      </trkpt>
      <trkpt lat="44.090274414047599" lon="10.210133045911789">
        <ele>504.94</ele>
        <time>2022-09-06T07:57:24Z</time>
      </trkpt>
      <trkpt lat="44.09027592279017" lon="10.210150228813291">
        <ele>504.89999999999998</ele>
        <time>2022-09-06T07:57:46Z</time>
      </trkpt>
      <trkpt lat="44.090272821485996" lon="10.210145702585578">
        <ele>504.37</ele>
        <time>2022-09-06T07:58:03Z</time>
      </trkpt>
      <trkpt lat="44.090277347713709" lon="10.210145032033324">
        <ele>504.79000000000002</ele>
        <time>2022-09-06T07:58:20Z</time>
      </trkpt>
      <trkpt lat="44.090277934446931" lon="10.210153330117464">
        <ele>504.38</ele>
        <time>2022-09-06T07:58:48Z</time>
      </trkpt>
      <trkpt lat="44.090279946103692" lon="10.210159700363874">
        <ele>504.57999999999998</ele>
        <time>2022-09-06T07:59:07Z</time>
      </trkpt>
      <trkpt lat="44.090280365198851" lon="10.210159868001938">
        <ele>504.64999999999998</ele>
        <time>2022-09-06T07:59:32Z</time>
      </trkpt>
      <trkpt lat="44.090282628312707" lon="10.210159532725811">
        <ele>504.75</ele>
        <time>2022-09-06T07:59:55Z</time>
      </trkpt>
      <trkpt lat="44.090284388512373" lon="10.210157437250018">
        <ele>504.97000000000003</ele>
        <time>2022-09-06T08:00:24Z</time>
      </trkpt>
      <trkpt lat="44.090284304693341" lon="10.210159532725811">
        <ele>505.02999999999997</ele>
        <time>2022-09-06T08:00:48Z</time>
      </trkpt>
      <trkpt lat="44.090249100700021" lon="10.210113516077399">
        <ele>505.07999999999998</ele>
        <time>2022-09-06T08:01:01Z</time>
      </trkpt>
      <trkpt lat="44.090193696320057" lon="10.210064649581909">
        <ele>505.29000000000002</ele>
        <time>2022-09-06T08:01:13Z</time>
      </trkpt>
      <trkpt lat="44.090185230597854" lon="10.210052579641342">
        <ele>505.45999999999998</ele>
        <time>2022-09-06T08:01:26Z</time>
      </trkpt>
      <trkpt lat="44.090069979429245" lon="10.210016202181578">
        <ele>504.88999999999999</ele>
        <time>2022-09-06T08:01:40Z</time>
      </trkpt>
      <trkpt lat="44.089919188991189" lon="10.209988122805953">
        <ele>503.89999999999998</ele>
        <time>2022-09-06T08:01:57Z</time>
      </trkpt>
      <trkpt lat="44.089839057996869" lon="10.209962725639343">
        <ele>503.01999999999998</ele>
        <time>2022-09-06T08:02:06Z</time>
      </trkpt>
      <trkpt lat="44.089682400226593" lon="10.209910003468394">
        <ele>500.50999999999999</ele>
        <time>2022-09-06T08:02:22Z</time>
      </trkpt>
      <trkpt lat="44.089546697214246" lon="10.209877397865057">
        <ele>498.02999999999997</ele>
        <time>2022-09-06T08:02:37Z</time>
      </trkpt>
      <trkpt lat="44.089542087167501" lon="10.209926096722484">
        <ele>496.07999999999998</ele>
        <time>2022-09-06T08:02:48Z</time>
      </trkpt>
      <trkpt lat="44.089622553437948" lon="10.210006395354867">
        <ele>493.85000000000002</ele>
        <time>2022-09-06T08:03:00Z</time>
      </trkpt>
      <trkpt lat="44.089669492095709" lon="10.210096081718802">
        <ele>492.33999999999997</ele>
        <time>2022-09-06T08:03:12Z</time>
      </trkpt>
      <trkpt lat="44.089661110192537" lon="10.21011795848608">
        <ele>490.87</ele>
        <time>2022-09-06T08:03:15Z</time>
      </trkpt>
      <trkpt lat="44.089616602286696" lon="10.210106475278735">
        <ele>489.55000000000001</ele>
        <time>2022-09-06T08:03:27Z</time>
      </trkpt>
      <trkpt lat="44.089593132957816" lon="10.210141511633992">
        <ele>486.92000000000002</ele>
        <time>2022-09-06T08:03:33Z</time>
      </trkpt>
      <trkpt lat="44.089573351666331" lon="10.210156096145511">
        <ele>486.25999999999999</ele>
        <time>2022-09-06T08:03:35Z</time>
      </trkpt>
      <trkpt lat="44.089553486555815" lon="10.21017705090344">
        <ele>486.05000000000001</ele>
        <time>2022-09-06T08:03:49Z</time>
      </trkpt>
      <trkpt lat="44.089519958943129" lon="10.210141176357865">
        <ele>485.91000000000003</ele>
        <time>2022-09-06T08:04:02Z</time>
      </trkpt>
      <trkpt lat="44.089523144066334" lon="10.210123993456364">
        <ele>485.56</ele>
        <time>2022-09-06T08:04:18Z</time>
      </trkpt>
      <trkpt lat="44.089562287554145" lon="10.21019859239459">
        <ele>485.79000000000002</ele>
        <time>2022-09-06T08:04:30Z</time>
      </trkpt>
      <trkpt lat="44.089598078280687" lon="10.210257265716791">
        <ele>484.58999999999997</ele>
        <time>2022-09-06T08:04:44Z</time>
      </trkpt>
      <trkpt lat="44.089630516245961" lon="10.210322309285402">
        <ele>482.75</ele>
        <time>2022-09-06T08:04:56Z</time>
      </trkpt>
      <trkpt lat="44.089632276445627" lon="10.210369499400258">
        <ele>479.60000000000002</ele>
        <time>2022-09-06T08:05:07Z</time>
      </trkpt>
      <trkpt lat="44.089665720239282" lon="10.210414594039321">
        <ele>479.43000000000001</ele>
        <time>2022-09-06T08:05:25Z</time>
      </trkpt>
      <trkpt lat="44.089656583964825" lon="10.2105020172894">
        <ele>477.38999999999999</ele>
        <time>2022-09-06T08:05:37Z</time>
      </trkpt>
      <trkpt lat="44.08966806717217" lon="10.210515176877379">
        <ele>476.67000000000002</ele>
        <time>2022-09-06T08:05:40Z</time>
      </trkpt>
      <trkpt lat="44.089693715795875" lon="10.210560020059347">
        <ele>476.83999999999997</ele>
        <time>2022-09-06T08:05:52Z</time>
      </trkpt>
      <trkpt lat="44.089744677767158" lon="10.210577705875039">
        <ele>476.55000000000001</ele>
        <time>2022-09-06T08:06:00Z</time>
      </trkpt>
      <trkpt lat="44.089837716892362" lon="10.210695555433631">
        <ele>476.02999999999997</ele>
        <time>2022-09-06T08:06:13Z</time>
      </trkpt>
      <trkpt lat="44.089943328872323" lon="10.210752384737134">
        <ele>476.49000000000001</ele>
        <time>2022-09-06T08:06:27Z</time>
      </trkpt>
      <trkpt lat="44.089958751574159" lon="10.21076244302094">
        <ele>476.29000000000002</ele>
        <time>2022-09-06T08:06:29Z</time>
      </trkpt>
      <trkpt lat="44.090015664696693" lon="10.210836874321103">
        <ele>476.44999999999999</ele>
        <time>2022-09-06T08:06:38Z</time>
      </trkpt>
      <trkpt lat="44.090055478736758" lon="10.210895715281367">
        <ele>477.20999999999998</ele>
        <time>2022-09-06T08:06:50Z</time>
      </trkpt>
      <trkpt lat="44.090057658031583" lon="10.210920860990882">
        <ele>477.44</ele>
        <time>2022-09-06T08:07:08Z</time>
      </trkpt>
      <trkpt lat="44.090086324140429" lon="10.210902672261">
        <ele>477.91000000000003</ele>
        <time>2022-09-06T08:07:27Z</time>
      </trkpt>
      <trkpt lat="44.090111050754786" lon="10.210922118276358">
        <ele>477.76999999999998</ele>
        <time>2022-09-06T08:07:39Z</time>
      </trkpt>
      <trkpt lat="44.090189421549439" lon="10.21102094091475">
        <ele>478.73000000000002</ele>
        <time>2022-09-06T08:07:51Z</time>
      </trkpt>
      <trkpt lat="44.090216243639588" lon="10.211048936471343">
        <ele>478.81</ele>
        <time>2022-09-06T08:08:03Z</time>
      </trkpt>
      <trkpt lat="44.090320933610201" lon="10.211136527359486">
        <ele>479.20999999999998</ele>
        <time>2022-09-06T08:08:18Z</time>
      </trkpt>
      <trkpt lat="44.090340714901686" lon="10.211187656968832">
        <ele>479.55000000000001</ele>
        <time>2022-09-06T08:08:24Z</time>
      </trkpt>
      <trkpt lat="44.090345660224557" lon="10.211344230920076">
        <ele>479.72000000000003</ele>
        <time>2022-09-06T08:08:38Z</time>
      </trkpt>
      <trkpt lat="44.090344738215208" lon="10.211429391056299">
        <ele>481.54000000000002</ele>
        <time>2022-09-06T08:08:50Z</time>
      </trkpt>
      <trkpt lat="44.090397041290998" lon="10.211530057713389">
        <ele>483.87</ele>
        <time>2022-09-06T08:09:04Z</time>
      </trkpt>
      <trkpt lat="44.090424031019211" lon="10.21159753203392">
        <ele>485.81999999999999</ele>
        <time>2022-09-06T08:09:22Z</time>
      </trkpt>
      <trkpt lat="44.090459402650595" lon="10.211703479290009">
        <ele>487.23000000000002</ele>
        <time>2022-09-06T08:09:37Z</time>
      </trkpt>
      <trkpt lat="44.090543640777469" lon="10.211804732680321">
        <ele>489.36000000000001</ele>
        <time>2022-09-06T08:09:52Z</time>
      </trkpt>
      <trkpt lat="44.090576162561774" lon="10.211903639137745">
        <ele>490.69</ele>
        <time>2022-09-06T08:10:03Z</time>
      </trkpt>
      <trkpt lat="44.090581275522709" lon="10.211935238912702">
        <ele>491.20999999999998</ele>
        <time>2022-09-06T08:10:07Z</time>
      </trkpt>
      <trkpt lat="44.090629303827882" lon="10.212033893913031">
        <ele>493.37</ele>
        <time>2022-09-06T08:10:23Z</time>
      </trkpt>
      <trkpt lat="44.090704992413521" lon="10.212164232507348">
        <ele>496.30000000000001</ele>
        <time>2022-09-06T08:10:40Z</time>
      </trkpt>
      <trkpt lat="44.090756708756089" lon="10.21225567907095">
        <ele>497.88999999999999</ele>
        <time>2022-09-06T08:10:51Z</time>
      </trkpt>
      <trkpt lat="44.090818399563432" lon="10.212338995188475">
        <ele>499.95999999999998</ele>
        <time>2022-09-06T08:11:05Z</time>
      </trkpt>
      <trkpt lat="44.090859973803163" lon="10.212479392066598">
        <ele>502.89999999999998</ele>
        <time>2022-09-06T08:11:24Z</time>
      </trkpt>
      <trkpt lat="44.090872379019856" lon="10.212599337100983">
        <ele>504.93000000000001</ele>
        <time>2022-09-06T08:11:37Z</time>
      </trkpt>
      <trkpt lat="44.090885454788804" lon="10.212726993486285">
        <ele>507.04000000000002</ele>
        <time>2022-09-06T08:11:52Z</time>
      </trkpt>
      <trkpt lat="44.090945469215512" lon="10.212848698720336">
        <ele>509.02999999999997</ele>
        <time>2022-09-06T08:12:07Z</time>
      </trkpt>
      <trkpt lat="44.091025684028864" lon="10.212948024272919">
        <ele>511.25999999999999</ele>
        <time>2022-09-06T08:12:20Z</time>
      </trkpt>
      <trkpt lat="44.091055355966091" lon="10.21305707283318">
        <ele>513.38999999999999</ele>
        <time>2022-09-06T08:12:34Z</time>
      </trkpt>
      <trkpt lat="44.091108748689294" lon="10.213110130280256">
        <ele>515.14999999999998</ele>
        <time>2022-09-06T08:12:49Z</time>
      </trkpt>
      <trkpt lat="44.091127775609493" lon="10.213200822472572">
        <ele>515.5</ele>
        <time>2022-09-06T08:13:11Z</time>
      </trkpt>
      <trkpt lat="44.091163482517004" lon="10.213394528254867">
        <ele>518.71000000000004</ele>
        <time>2022-09-06T08:13:29Z</time>
      </trkpt>
      <trkpt lat="44.091153340414166" lon="10.21352712996304">
        <ele>521.52999999999997</ele>
        <time>2022-09-06T08:13:45Z</time>
      </trkpt>
      <trkpt lat="44.091173121705651" lon="10.213661575689912">
        <ele>524.15999999999997</ele>
        <time>2022-09-06T08:14:02Z</time>
      </trkpt>
      <trkpt lat="44.091155100613832" lon="10.213823094964027">
        <ele>527.37</ele>
        <time>2022-09-06T08:14:23Z</time>
      </trkpt>
      <trkpt lat="44.091152083128691" lon="10.213930970057845">
        <ele>529.58000000000004</ele>
        <time>2022-09-06T08:14:38Z</time>
      </trkpt>
      <trkpt lat="44.091192986816168" lon="10.214053597301245">
        <ele>532.51999999999998</ele>
        <time>2022-09-06T08:14:54Z</time>
      </trkpt>
      <trkpt lat="44.091190053150058" lon="10.21415987983346">
        <ele>534.63999999999999</ele>
        <time>2022-09-06T08:15:10Z</time>
      </trkpt>
      <trkpt lat="44.091097516939044" lon="10.214259373024106">
        <ele>537.50999999999999</ele>
        <time>2022-09-06T08:15:29Z</time>
      </trkpt>
      <trkpt lat="44.09110514447093" lon="10.214332966133952">
        <ele>539.59000000000003</ele>
        <time>2022-09-06T08:15:42Z</time>
      </trkpt>
      <trkpt lat="44.091090308502316" lon="10.214469339698553">
        <ele>542.37</ele>
        <time>2022-09-06T08:16:01Z</time>
      </trkpt>
      <trkpt lat="44.091111263260245" lon="10.214557349681854">
        <ele>544.22000000000003</ele>
        <time>2022-09-06T08:16:18Z</time>
      </trkpt>
      <trkpt lat="44.09109877422452" lon="10.21463287062943">
        <ele>545.96000000000004</ele>
        <time>2022-09-06T08:16:31Z</time>
      </trkpt>
      <trkpt lat="44.091069102287292" lon="10.214738482609391">
        <ele>548.35000000000002</ele>
        <time>2022-09-06T08:16:46Z</time>
      </trkpt>
      <trkpt lat="44.0910963434726" lon="10.214886926114559">
        <ele>551.36000000000001</ele>
        <time>2022-09-06T08:17:04Z</time>
      </trkpt>
      <trkpt lat="44.091111095622182" lon="10.214976696297526">
        <ele>553.28999999999996</ele>
        <time>2022-09-06T08:17:17Z</time>
      </trkpt>
      <trkpt lat="44.091158369556069" lon="10.215065963566303">
        <ele>555.10000000000002</ele>
        <time>2022-09-06T08:17:32Z</time>
      </trkpt>
      <trkpt lat="44.091155352070928" lon="10.215166378766298">
        <ele>557.48000000000002</ele>
        <time>2022-09-06T08:17:45Z</time>
      </trkpt>
      <trkpt lat="44.091163566336036" lon="10.215256987139583">
        <ele>559.44000000000005</ele>
        <time>2022-09-06T08:17:58Z</time>
      </trkpt>
      <trkpt lat="44.091173876076937" lon="10.215349942445755">
        <ele>561.73000000000002</ele>
        <time>2022-09-06T08:18:14Z</time>
      </trkpt>
      <trkpt lat="44.091179491952062" lon="10.215393276885152">
        <ele>563.5</ele>
        <time>2022-09-06T08:18:28Z</time>
      </trkpt>
      <trkpt lat="44.091167002916336" lon="10.215429570525885">
        <ele>564.35000000000002</ele>
        <time>2022-09-06T08:18:43Z</time>
      </trkpt>
      <trkpt lat="44.0911930706352" lon="10.215518502518535">
        <ele>566.67999999999995</ele>
        <time>2022-09-06T08:18:57Z</time>
      </trkpt>
      <trkpt lat="44.091186532750726" lon="10.215537864714861">
        <ele>567.09000000000003</ele>
        <time>2022-09-06T08:18:59Z</time>
      </trkpt>
      <trkpt lat="44.091159123927355" lon="10.215572230517864">
        <ele>567.98000000000002</ele>
        <time>2022-09-06T08:19:06Z</time>
      </trkpt>
      <trkpt lat="44.091218635439873" lon="10.215698294341564">
        <ele>570.71000000000004</ele>
        <time>2022-09-06T08:19:22Z</time>
      </trkpt>
      <trkpt lat="44.091241266578436" lon="10.215740036219358">
        <ele>571.99000000000001</ele>
        <time>2022-09-06T08:19:29Z</time>
      </trkpt>
      <trkpt lat="44.091270184144378" lon="10.215800050646067">
        <ele>573.03999999999996</ele>
        <time>2022-09-06T08:19:36Z</time>
      </trkpt>
      <trkpt lat="44.091306058689952" lon="10.215916642919183">
        <ele>575.36000000000001</ele>
        <time>2022-09-06T08:19:49Z</time>
      </trkpt>
      <trkpt lat="44.091312428936362" lon="10.216025775298476">
        <ele>577.30999999999995</ele>
        <time>2022-09-06T08:20:03Z</time>
      </trkpt>
      <trkpt lat="44.091314943507314" lon="10.216124765574932">
        <ele>578.92999999999995</ele>
        <time>2022-09-06T08:20:17Z</time>
      </trkpt>
      <trkpt lat="44.091276386752725" lon="10.216178828850389">
        <ele>581.00999999999999</ele>
        <time>2022-09-06T08:20:31Z</time>
      </trkpt>
      <trkpt lat="44.091289294883609" lon="10.21626097150147">
        <ele>583.57000000000005</ele>
        <time>2022-09-06T08:20:47Z</time>
      </trkpt>
      <trkpt lat="44.091293904930353" lon="10.216300198808312">
        <ele>585.13</ele>
        <time>2022-09-06T08:20:55Z</time>
      </trkpt>
      <trkpt lat="44.091287953779101" lon="10.216311849653721">
        <ele>585.77999999999997</ele>
        <time>2022-09-06T08:20:59Z</time>
      </trkpt>
      <trkpt lat="44.091317122802138" lon="10.216351831331849">
        <ele>586.38999999999999</ele>
        <time>2022-09-06T08:21:05Z</time>
      </trkpt>
      <trkpt lat="44.091332964599133" lon="10.216425508260727">
        <ele>588.57000000000005</ele>
        <time>2022-09-06T08:21:16Z</time>
      </trkpt>
      <trkpt lat="44.091290971264243" lon="10.216413186863065">
        <ele>588.63</ele>
        <time>2022-09-06T08:21:19Z</time>
      </trkpt>
      <trkpt lat="44.091287199407816" lon="10.21642810665071">
        <ele>588.65999999999997</ele>
        <time>2022-09-06T08:21:26Z</time>
      </trkpt>
      <trkpt lat="44.09127471037209" lon="10.216508908197284">
        <ele>590.49000000000001</ele>
        <time>2022-09-06T08:21:39Z</time>
      </trkpt>
      <trkpt lat="44.091278398409486" lon="10.216595828533173">
        <ele>592.22000000000003</ele>
        <time>2022-09-06T08:21:51Z</time>
      </trkpt>
      <trkpt lat="44.091212684288621" lon="10.21660253405571">
        <ele>593.55999999999995</ele>
        <time>2022-09-06T08:21:58Z</time>
      </trkpt>
      <trkpt lat="44.09122827462852" lon="10.216683587059379">
        <ele>595.25999999999999</ele>
        <time>2022-09-06T08:22:10Z</time>
      </trkpt>
      <trkpt lat="44.091249397024512" lon="10.216792048886418">
        <ele>597.30999999999995</ele>
        <time>2022-09-06T08:22:26Z</time>
      </trkpt>
      <trkpt lat="44.09123414196074" lon="10.216849381104112">
        <ele>598.86000000000001</ele>
        <time>2022-09-06T08:22:38Z</time>
      </trkpt>
      <trkpt lat="44.091222072020173" lon="10.216942252591252">
        <ele>600.73000000000002</ele>
        <time>2022-09-06T08:22:50Z</time>
      </trkpt>
      <trkpt lat="44.09121997654438" lon="10.216981396079063">
        <ele>601.19000000000005</ele>
        <time>2022-09-06T08:22:53Z</time>
      </trkpt>
      <trkpt lat="44.091236237436533" lon="10.217093713581562">
        <ele>602.47000000000003</ele>
        <time>2022-09-06T08:23:01Z</time>
      </trkpt>
      <trkpt lat="44.091233303770423" lon="10.217184657230973">
        <ele>604.62</ele>
        <time>2022-09-06T08:23:14Z</time>
      </trkpt>
      <trkpt lat="44.091224754229188" lon="10.217298232018948">
        <ele>606.78999999999996</ele>
        <time>2022-09-06T08:23:26Z</time>
      </trkpt>
      <trkpt lat="44.091207990422845" lon="10.217345505952835">
        <ele>608.84000000000003</ele>
        <time>2022-09-06T08:23:41Z</time>
      </trkpt>
      <trkpt lat="44.091205978766084" lon="10.217350032180548">
        <ele>609.74000000000001</ele>
        <time>2022-09-06T08:23:47Z</time>
      </trkpt>
      <trkpt lat="44.09121067263186" lon="10.217416668310761">
        <ele>610.73000000000002</ele>
        <time>2022-09-06T08:23:54Z</time>
      </trkpt>
      <trkpt lat="44.091182257980108" lon="10.217517670243979">
        <ele>613.47000000000003</ele>
        <time>2022-09-06T08:24:12Z</time>
      </trkpt>
      <trkpt lat="44.091137750074267" lon="10.217572068795562">
        <ele>615.50999999999999</ele>
        <time>2022-09-06T08:24:25Z</time>
      </trkpt>
      <trkpt lat="44.09109927713871" lon="10.217637531459332">
        <ele>617.74000000000001</ele>
        <time>2022-09-06T08:24:39Z</time>
      </trkpt>
      <trkpt lat="44.091056697070599" lon="10.217703580856323">
        <ele>619.88</ele>
        <time>2022-09-06T08:24:54Z</time>
      </trkpt>
      <trkpt lat="44.091020654886961" lon="10.217789746820927">
        <ele>621.98000000000002</ele>
        <time>2022-09-06T08:25:08Z</time>
      </trkpt>
      <trkpt lat="44.09102794714272" lon="10.217861076816916">
        <ele>624.00999999999999</ele>
        <time>2022-09-06T08:25:21Z</time>
      </trkpt>
      <trkpt lat="44.091010764241219" lon="10.217951182276011">
        <ele>626.47000000000003</ele>
        <time>2022-09-06T08:25:35Z</time>
      </trkpt>
      <trkpt lat="44.091032976284623" lon="10.218044053763151">
        <ele>628.59000000000003</ele>
        <time>2022-09-06T08:25:49Z</time>
      </trkpt>
      <trkpt lat="44.091043369844556" lon="10.21805863827467">
        <ele>628.71000000000004</ele>
        <time>2022-09-06T08:25:51Z</time>
      </trkpt>
      <trkpt lat="44.091038089245558" lon="10.218122927471995">
        <ele>630.38</ele>
        <time>2022-09-06T08:26:02Z</time>
      </trkpt>
      <trkpt lat="44.091047225520015" lon="10.218183025717735">
        <ele>631.96000000000004</ele>
        <time>2022-09-06T08:26:15Z</time>
      </trkpt>
      <trkpt lat="44.09105921164155" lon="10.218238765373826">
        <ele>633.63999999999999</ele>
        <time>2022-09-06T08:26:29Z</time>
      </trkpt>
      <trkpt lat="44.091083938255906" lon="10.218283273279667">
        <ele>634.53999999999996</ele>
        <time>2022-09-06T08:26:47Z</time>
      </trkpt>
      <trkpt lat="44.091127440333366" lon="10.218343958258629">
        <ele>636.33000000000004</ele>
        <time>2022-09-06T08:26:58Z</time>
      </trkpt>
      <trkpt lat="44.0911447070539" lon="10.218424592167139">
        <ele>638.70000000000005</ele>
        <time>2022-09-06T08:27:12Z</time>
      </trkpt>
      <trkpt lat="44.091167086735368" lon="10.218447558581829">
        <ele>639.25</ele>
        <time>2022-09-06T08:27:15Z</time>
      </trkpt>
      <trkpt lat="44.091180497780442" lon="10.218454264104366">
        <ele>639.38999999999999</ele>
        <time>2022-09-06T08:27:16Z</time>
      </trkpt>
      <trkpt lat="44.091171277686954" lon="10.218525677919388">
        <ele>641.76999999999998</ele>
        <time>2022-09-06T08:27:31Z</time>
      </trkpt>
      <trkpt lat="44.091181084513664" lon="10.218532551079988">
        <ele>641.97000000000003</ele>
        <time>2022-09-06T08:27:32Z</time>
      </trkpt>
      <trkpt lat="44.091200949624181" lon="10.218602791428566">
        <ele>644.04999999999995</ele>
        <time>2022-09-06T08:27:45Z</time>
      </trkpt>
      <trkpt lat="44.091249397024512" lon="10.218653669580817">
        <ele>646.01999999999998</ele>
        <time>2022-09-06T08:27:59Z</time>
      </trkpt>
      <trkpt lat="44.091309914365411" lon="10.218695998191833">
        <ele>646.62</ele>
        <time>2022-09-06T08:28:03Z</time>
      </trkpt>
      <trkpt lat="44.091278146952391" lon="10.218724999576807">
        <ele>647.53999999999996</ele>
        <time>2022-09-06T08:28:09Z</time>
      </trkpt>
      <trkpt lat="44.091247972100973" lon="10.21874176338315">
        <ele>648.04999999999995</ele>
        <time>2022-09-06T08:28:24Z</time>
      </trkpt>
      <trkpt lat="44.091193238273263" lon="10.218751989305019">
        <ele>648.29999999999995</ele>
        <time>2022-09-06T08:28:41Z</time>
      </trkpt>
      <trkpt lat="44.091180581599474" lon="10.218798592686653">
        <ele>651</ele>
        <time>2022-09-06T08:28:57Z</time>
      </trkpt>
      <trkpt lat="44.091183934360743" lon="10.218800352886319">
        <ele>651.64999999999998</ele>
        <time>2022-09-06T08:29:04Z</time>
      </trkpt>
      <trkpt lat="44.091225760057569" lon="10.218846620991826">
        <ele>651.99000000000001</ele>
        <time>2022-09-06T08:29:27Z</time>
      </trkpt>
      <trkpt lat="44.091276219114661" lon="10.218909233808517">
        <ele>654.13999999999999</ele>
        <time>2022-09-06T08:29:38Z</time>
      </trkpt>
      <trkpt lat="44.09136557020247" lon="10.219070166349411">
        <ele>656.95000000000005</ele>
        <time>2022-09-06T08:29:53Z</time>
      </trkpt>
      <trkpt lat="44.091355595737696" lon="10.219154991209507">
        <ele>659.14999999999998</ele>
        <time>2022-09-06T08:30:05Z</time>
      </trkpt>
      <trkpt lat="44.09134067595005" lon="10.219206539914012">
        <ele>660.11000000000001</ele>
        <time>2022-09-06T08:30:18Z</time>
      </trkpt>
      <trkpt lat="44.091337826102972" lon="10.219216849654913">
        <ele>660.30999999999995</ele>
        <time>2022-09-06T08:30:27Z</time>
      </trkpt>
      <trkpt lat="44.091359032317996" lon="10.219223471358418">
        <ele>660.20000000000005</ele>
        <time>2022-09-06T08:30:59Z</time>
      </trkpt>
      <trkpt lat="44.091318128630519" lon="10.219221292063594">
        <ele>660.46000000000004</ele>
        <time>2022-09-06T08:31:12Z</time>
      </trkpt>
      <trkpt lat="44.09128837287426" lon="10.219209473580122">
        <ele>660.47000000000003</ele>
        <time>2022-09-06T08:31:24Z</time>
      </trkpt>
      <trkpt lat="44.091285187751055" lon="10.219179466366768">
        <ele>659.78999999999996</ele>
        <time>2022-09-06T08:31:38Z</time>
      </trkpt>
      <trkpt lat="44.091241350397468" lon="10.219126660376787">
        <ele>659.46000000000004</ele>
        <time>2022-09-06T08:31:54Z</time>
      </trkpt>
      <trkpt lat="44.091248642653227" lon="10.219137640669942">
        <ele>659.62</ele>
        <time>2022-09-06T08:31:59Z</time>
      </trkpt>
      <trkpt lat="44.091249229386449" lon="10.219153733924031">
        <ele>659.75</ele>
        <time>2022-09-06T08:32:02Z</time>
      </trkpt>
      <trkpt lat="44.091238752007484" lon="10.219174772500992">
        <ele>659.37</ele>
        <time>2022-09-06T08:32:11Z</time>
      </trkpt>
      <trkpt lat="44.091239674016833" lon="10.219183070585132">
        <ele>659.79999999999995</ele>
        <time>2022-09-06T08:32:19Z</time>
      </trkpt>
      <trkpt lat="44.091249313205481" lon="10.219188770279288">
        <ele>660.35000000000002</ele>
        <time>2022-09-06T08:32:28Z</time>
      </trkpt>
      <trkpt lat="44.091252414509654" lon="10.219202684238553">
        <ele>660.55999999999995</ele>
        <time>2022-09-06T08:32:38Z</time>
      </trkpt>
      <trkpt lat="44.091307986527681" lon="10.219198493286967">
        <ele>660.5</ele>
        <time>2022-09-06T08:32:49Z</time>
      </trkpt>
      <trkpt lat="44.091321146115661" lon="10.21918248385191">
        <ele>660.63999999999999</ele>
        <time>2022-09-06T08:32:55Z</time>
      </trkpt>
      <trkpt lat="44.091323325410485" lon="10.219191117212176">
        <ele>661.01999999999998</ele>
        <time>2022-09-06T08:33:19Z</time>
      </trkpt>
      <trkpt lat="44.091312848031521" lon="10.219170833006501">
        <ele>661.21000000000004</ele>
        <time>2022-09-06T08:33:39Z</time>
      </trkpt>
      <trkpt lat="44.091287953779101" lon="10.219241073355079">
        <ele>662.40999999999997</ele>
        <time>2022-09-06T08:33:52Z</time>
      </trkpt>
      <trkpt lat="44.091259120032191" lon="10.219323467463255">
        <ele>663.75999999999999</ele>
        <time>2022-09-06T08:34:04Z</time>
      </trkpt>
      <trkpt lat="44.091242775321007" lon="10.219343332573771">
        <ele>664.65999999999997</ele>
        <time>2022-09-06T08:34:17Z</time>
      </trkpt>
      <trkpt lat="44.091260293498635" lon="10.219382392242551">
        <ele>665.16999999999996</ele>
        <time>2022-09-06T08:34:33Z</time>
      </trkpt>
      <trkpt lat="44.091233387589455" lon="10.219373255968094">
        <ele>665.51999999999998</ele>
        <time>2022-09-06T08:34:44Z</time>
      </trkpt>
      <trkpt lat="44.091231124475598" lon="10.219406615942717">
        <ele>666.20000000000005</ele>
        <time>2022-09-06T08:35:03Z</time>
      </trkpt>
      <trkpt lat="44.091247888281941" lon="10.219488004222512">
        <ele>668.19000000000005</ele>
        <time>2022-09-06T08:35:17Z</time>
      </trkpt>
      <trkpt lat="44.09124244004488" lon="10.219572829082608">
        <ele>670.07000000000005</ele>
        <time>2022-09-06T08:35:36Z</time>
      </trkpt>
      <trkpt lat="44.091225173324347" lon="10.219603758305311">
        <ele>670.75999999999999</ele>
        <time>2022-09-06T08:35:52Z</time>
      </trkpt>
      <trkpt lat="44.091177647933364" lon="10.219607027247548">
        <ele>671.54999999999995</ele>
        <time>2022-09-06T08:36:08Z</time>
      </trkpt>
      <trkpt lat="44.091189382597804" lon="10.219646338373423">
        <ele>672.17999999999995</ele>
        <time>2022-09-06T08:36:23Z</time>
      </trkpt>
      <trkpt lat="44.091200362890959" lon="10.219719763845205">
        <ele>673.90999999999997</ele>
        <time>2022-09-06T08:36:36Z</time>
      </trkpt>
      <trkpt lat="44.091209582984447" lon="10.219818921759725">
        <ele>676.49000000000001</ele>
        <time>2022-09-06T08:36:51Z</time>
      </trkpt>
      <trkpt lat="44.091231292113662" lon="10.219922102987766">
        <ele>678.78999999999996</ele>
        <time>2022-09-06T08:37:06Z</time>
      </trkpt>
      <trkpt lat="44.091219892725348" lon="10.220038695260882">
        <ele>681.75999999999999</ele>
        <time>2022-09-06T08:37:24Z</time>
      </trkpt>
      <trkpt lat="44.091225089505315" lon="10.220125196501613">
        <ele>683.95000000000005</ele>
        <time>2022-09-06T08:37:38Z</time>
      </trkpt>
      <trkpt lat="44.091220647096634" lon="10.220225024968386">
        <ele>686.58000000000004</ele>
        <time>2022-09-06T08:37:54Z</time>
      </trkpt>
      <trkpt lat="44.091251324862242" lon="10.220349077135324">
        <ele>689.40999999999997</ele>
        <time>2022-09-06T08:38:12Z</time>
      </trkpt>
      <trkpt lat="44.091280661523342" lon="10.220445217564702">
        <ele>691.90999999999997</ele>
        <time>2022-09-06T08:38:26Z</time>
      </trkpt>
      <trkpt lat="44.091284181922674" lon="10.220518810674548">
        <ele>693</ele>
        <time>2022-09-06T08:38:39Z</time>
      </trkpt>
      <trkpt lat="44.091281080618501" lon="10.220558289438486">
        <ele>693.07000000000005</ele>
        <time>2022-09-06T08:38:52Z</time>
      </trkpt>
      <trkpt lat="44.091277811676264" lon="10.220583351328969">
        <ele>693.00999999999999</ele>
        <time>2022-09-06T08:39:10Z</time>
      </trkpt>
      <trkpt lat="44.091277224943042" lon="10.220586536452174">
        <ele>693.16999999999996</ele>
        <time>2022-09-06T08:39:29Z</time>
      </trkpt>
      <trkpt lat="44.091272028163075" lon="10.220583938062191">
        <ele>692.80999999999995</ele>
        <time>2022-09-06T08:39:51Z</time>
      </trkpt>
      <trkpt lat="44.091265238821507" lon="10.220606988295913">
        <ele>692.83000000000004</ele>
        <time>2022-09-06T08:40:08Z</time>
      </trkpt>
      <trkpt lat="44.091259706765413" lon="10.220621824264526">
        <ele>692.89999999999998</ele>
        <time>2022-09-06T08:40:24Z</time>
      </trkpt>
      <trkpt lat="44.091254509985447" lon="10.220754006877542">
        <ele>691.13999999999999</ele>
        <time>2022-09-06T08:40:37Z</time>
      </trkpt>
      <trkpt lat="44.091257276013494" lon="10.220790635794401">
        <ele>690.63</ele>
        <time>2022-09-06T08:40:49Z</time>
      </trkpt>
      <trkpt lat="44.091239674016833" lon="10.220822067931294">
        <ele>689.84000000000003</ele>
        <time>2022-09-06T08:41:01Z</time>
      </trkpt>
      <trkpt lat="44.091245122253895" lon="10.22084386087954">
        <ele>689.07000000000005</ele>
        <time>2022-09-06T08:41:17Z</time>
      </trkpt>
      <trkpt lat="44.091299436986446" lon="10.220883507281542">
        <ele>689.47000000000003</ele>
        <time>2022-09-06T08:41:30Z</time>
      </trkpt>
      <trkpt lat="44.091314859688282" lon="10.220855344086885">
        <ele>689.41999999999996</ele>
        <time>2022-09-06T08:41:42Z</time>
      </trkpt>
      <trkpt lat="44.091293988749385" lon="10.220884010195732">
        <ele>688.47000000000003</ele>
        <time>2022-09-06T08:41:54Z</time>
      </trkpt>
      <trkpt lat="44.091288289055228" lon="10.220918627455831">
        <ele>688.90999999999997</ele>
        <time>2022-09-06T08:42:07Z</time>
      </trkpt>
      <trkpt lat="44.091250319033861" lon="10.220921225845814">
        <ele>689.80999999999995</ele>
        <time>2022-09-06T08:42:27Z</time>
      </trkpt>
      <trkpt lat="44.091269094496965" lon="10.220927428454161">
        <ele>690.19000000000005</ele>
        <time>2022-09-06T08:42:45Z</time>
      </trkpt>
      <trkpt lat="44.091304298490286" lon="10.220932876691222">
        <ele>690.45000000000005</ele>
        <time>2022-09-06T08:42:59Z</time>
      </trkpt>
      <trkpt lat="44.091316116973758" lon="10.220904294401407">
        <ele>691.84000000000003</ele>
        <time>2022-09-06T08:43:12Z</time>
      </trkpt>
      <trkpt lat="44.091306393966079" lon="10.220950311049819">
        <ele>693.69000000000005</ele>
        <time>2022-09-06T08:43:31Z</time>
      </trkpt>
      <trkpt lat="44.091337323188782" lon="10.220954082906246">
        <ele>696.88</ele>
        <time>2022-09-06T08:43:44Z</time>
      </trkpt>
      <trkpt lat="44.091362468898296" lon="10.220973864197731">
        <ele>697.46000000000004</ele>
        <time>2022-09-06T08:43:54Z</time>
      </trkpt>
      <trkpt lat="44.091351991519332" lon="10.221006218343973">
        <ele>698.87</ele>
        <time>2022-09-06T08:44:06Z</time>
      </trkpt>
      <trkpt lat="44.091359116137028" lon="10.221063466742635">
        <ele>701.14999999999998</ele>
        <time>2022-09-06T08:44:18Z</time>
      </trkpt>
      <trkpt lat="44.091347381472588" lon="10.221123648807406">
        <ele>702.55999999999995</ele>
        <time>2022-09-06T08:44:28Z</time>
      </trkpt>
      <trkpt lat="44.091386776417494" lon="10.221151560544968">
        <ele>704.88</ele>
        <time>2022-09-06T08:44:42Z</time>
      </trkpt>
      <trkpt lat="44.091418124735355" lon="10.22123521193862">
        <ele>707.57000000000005</ele>
        <time>2022-09-06T08:45:00Z</time>
      </trkpt>
      <trkpt lat="44.091448048129678" lon="10.221340237185359">
        <ele>710.13</ele>
        <time>2022-09-06T08:45:16Z</time>
      </trkpt>
      <trkpt lat="44.091445365920663" lon="10.221406789496541">
        <ele>712.70000000000005</ele>
        <time>2022-09-06T08:45:31Z</time>
      </trkpt>
      <trkpt lat="44.091365486383438" lon="10.221456661820412">
        <ele>715.62</ele>
        <time>2022-09-06T08:45:50Z</time>
      </trkpt>
      <trkpt lat="44.091364061459899" lon="10.22150301374495">
        <ele>717.58000000000004</ele>
        <time>2022-09-06T08:46:03Z</time>
      </trkpt>
      <trkpt lat="44.091377556324005" lon="10.221539055928588">
        <ele>719.26999999999998</ele>
        <time>2022-09-06T08:46:15Z</time>
      </trkpt>
      <trkpt lat="44.091372108086944" lon="10.221557999029756">
        <ele>719.90999999999997</ele>
        <time>2022-09-06T08:46:30Z</time>
      </trkpt>
      <trkpt lat="44.091352745890617" lon="10.221619522199035">
        <ele>722.05999999999995</ele>
        <time>2022-09-06T08:46:42Z</time>
      </trkpt>
      <trkpt lat="44.091304717585444" lon="10.221606781706214">
        <ele>723.33000000000004</ele>
        <time>2022-09-06T08:46:55Z</time>
      </trkpt>
      <trkpt lat="44.091306226328015" lon="10.221607033163309">
        <ele>723.22000000000003</ele>
        <time>2022-09-06T08:47:14Z</time>
      </trkpt>
      <trkpt lat="44.091273536905646" lon="10.221580043435097">
        <ele>723.39999999999998</ele>
        <time>2022-09-06T08:47:34Z</time>
      </trkpt>
      <trkpt lat="44.091253839433193" lon="10.221562022343278">
        <ele>724.24000000000001</ele>
        <time>2022-09-06T08:47:46Z</time>
      </trkpt>
      <trkpt lat="44.091251408681273" lon="10.221536038443446">
        <ele>724.10000000000002</ele>
        <time>2022-09-06T08:48:05Z</time>
      </trkpt>
      <trkpt lat="44.091256856918335" lon="10.221538469195366">
        <ele>724.00999999999999</ele>
        <time>2022-09-06T08:48:20Z</time>
      </trkpt>
      <trkpt lat="44.091260125860572" lon="10.221557496115565">
        <ele>724.08000000000004</ele>
        <time>2022-09-06T08:48:37Z</time>
      </trkpt>
      <trkpt lat="44.091247133910656" lon="10.221504187211394">
        <ele>724.12</ele>
        <time>2022-09-06T08:48:44Z</time>
      </trkpt>
      <trkpt lat="44.091236824169755" lon="10.221498236060143">
        <ele>724.05999999999995</ele>
        <time>2022-09-06T08:48:59Z</time>
      </trkpt>
      <trkpt lat="44.091229196637869" lon="10.221492787823081">
        <ele>728.85000000000002</ele>
        <time>2022-09-06T08:49:20Z</time>
      </trkpt>
      <trkpt lat="44.091229783371091" lon="10.221493374556303">
        <ele>724.85000000000002</ele>
        <time>2022-09-06T08:49:22Z</time>
      </trkpt>
      <trkpt lat="44.091224251314998" lon="10.2214849088341">
        <ele>724.12</ele>
        <time>2022-09-06T08:49:32Z</time>
      </trkpt>
      <trkpt lat="44.091213857755065" lon="10.221471162512898">
        <ele>724.63</ele>
        <time>2022-09-06T08:49:57Z</time>
      </trkpt>
      <trkpt lat="44.091229028999805" lon="10.221455739811063">
        <ele>724.60000000000002</ele>
        <time>2022-09-06T08:50:18Z</time>
      </trkpt>
      <trkpt lat="44.091235483065248" lon="10.221483903005719">
        <ele>724.30999999999995</ele>
        <time>2022-09-06T08:50:45Z</time>
      </trkpt>
      <trkpt lat="44.091246044263244" lon="10.221493458375335">
        <ele>724.36000000000001</ele>
        <time>2022-09-06T08:51:04Z</time>
      </trkpt>
      <trkpt lat="44.091248475015163" lon="10.221514580771327">
        <ele>724.32000000000005</ele>
        <time>2022-09-06T08:51:24Z</time>
      </trkpt>
      <trkpt lat="44.091250319033861" lon="10.221507288515568">
        <ele>724.51999999999998</ele>
        <time>2022-09-06T08:51:45Z</time>
      </trkpt>
      <trkpt lat="44.091299436986446" lon="10.221549114212394">
        <ele>723.27999999999997</ele>
        <time>2022-09-06T08:51:57Z</time>
      </trkpt>
      <trkpt lat="44.09135140478611" lon="10.221612900495529">
        <ele>724.75999999999999</ele>
        <time>2022-09-06T08:52:12Z</time>
      </trkpt>
      <trkpt lat="44.091384345665574" lon="10.221689930185676">
        <ele>727.88999999999999</ele>
        <time>2022-09-06T08:52:27Z</time>
      </trkpt>
      <trkpt lat="44.091434385627508" lon="10.221738293766975">
        <ele>729.58000000000004</ele>
        <time>2022-09-06T08:52:41Z</time>
      </trkpt>
      <trkpt lat="44.09145156852901" lon="10.221793027594686">
        <ele>731</ele>
        <time>2022-09-06T08:52:53Z</time>
      </trkpt>
      <trkpt lat="44.091471266001463" lon="10.22183527238667">
        <ele>732.91999999999996</ele>
        <time>2022-09-06T08:53:06Z</time>
      </trkpt>
      <trkpt lat="44.091484425589442" lon="10.221886318176985">
        <ele>734.86000000000001</ele>
        <time>2022-09-06T08:53:18Z</time>
      </trkpt>
      <trkpt lat="44.091481491923332" lon="10.221947338432074">
        <ele>737.02999999999997</ele>
        <time>2022-09-06T08:53:32Z</time>
      </trkpt>
      <trkpt lat="44.091497585177422" lon="10.221981452777982">
        <ele>738.55999999999995</ele>
        <time>2022-09-06T08:53:44Z</time>
      </trkpt>
      <trkpt lat="44.09150973893702" lon="10.222035851329565">
        <ele>740.54999999999995</ele>
        <time>2022-09-06T08:53:57Z</time>
      </trkpt>
      <trkpt lat="44.091513175517321" lon="10.222091758623719">
        <ele>742.59000000000003</ele>
        <time>2022-09-06T08:54:10Z</time>
      </trkpt>
      <trkpt lat="44.091514181345701" lon="10.222140792757273">
        <ele>744.21000000000004</ele>
        <time>2022-09-06T08:54:28Z</time>
      </trkpt>
      <trkpt lat="44.091497585177422" lon="10.222144732251763">
        <ele>744.24000000000001</ele>
        <time>2022-09-06T08:54:47Z</time>
      </trkpt>
      <trkpt lat="44.091503033414483" lon="10.222139954566956">
        <ele>744.49000000000001</ele>
        <time>2022-09-06T08:55:07Z</time>
      </trkpt>
      <trkpt lat="44.091511080041528" lon="10.222134171053767">
        <ele>744.58000000000004</ele>
        <time>2022-09-06T08:55:24Z</time>
      </trkpt>
      <trkpt lat="44.091491885483265" lon="10.222124280408025">
        <ele>744.21000000000004</ele>
        <time>2022-09-06T08:55:41Z</time>
      </trkpt>
      <trkpt lat="44.091455759480596" lon="10.22209519520402">
        <ele>746.39999999999998</ele>
        <time>2022-09-06T08:55:55Z</time>
      </trkpt>
      <trkpt lat="44.091448551043868" lon="10.222091423347592">
        <ele>747.25</ele>
        <time>2022-09-06T08:56:10Z</time>
      </trkpt>
      <trkpt lat="44.091427428647876" lon="10.222094776108861">
        <ele>748.45000000000005</ele>
        <time>2022-09-06T08:56:27Z</time>
      </trkpt>
      <trkpt lat="44.091394571587443" lon="10.222105840221047">
        <ele>750.51999999999998</ele>
        <time>2022-09-06T08:56:45Z</time>
      </trkpt>
      <trkpt lat="44.09133967012167" lon="10.222123190760612">
        <ele>753.5</ele>
        <time>2022-09-06T08:57:01Z</time>
      </trkpt>
      <trkpt lat="44.091290552169085" lon="10.222148252651095">
        <ele>755.44000000000005</ele>
        <time>2022-09-06T08:57:15Z</time>
      </trkpt>
      <trkpt lat="44.091253923252225" lon="10.222144899889827">
        <ele>757.47000000000003</ele>
        <time>2022-09-06T08:57:32Z</time>
      </trkpt>
      <trkpt lat="44.091209834441543" lon="10.222151940688491">
        <ele>760.30999999999995</ele>
        <time>2022-09-06T08:57:53Z</time>
      </trkpt>
      <trkpt lat="44.091176725924015" lon="10.222172308713198">
        <ele>762.37</ele>
        <time>2022-09-06T08:58:07Z</time>
      </trkpt>
      <trkpt lat="44.09115644171834" lon="10.222196280956268">
        <ele>763.64999999999998</ele>
        <time>2022-09-06T08:58:24Z</time>
      </trkpt>
      <trkpt lat="44.091126685962081" lon="10.222207428887486">
        <ele>766.66999999999996</ele>
        <time>2022-09-06T08:58:38Z</time>
      </trkpt>
      <trkpt lat="44.091064995154738" lon="10.222217570990324">
        <ele>769.82000000000005</ele>
        <time>2022-09-06T08:58:55Z</time>
      </trkpt>
      <trkpt lat="44.091027779504657" lon="10.222217403352261">
        <ele>770.86000000000001</ele>
        <time>2022-09-06T08:59:12Z</time>
      </trkpt>
      <trkpt lat="44.091019397601485" lon="10.222222432494164">
        <ele>772.25999999999999</ele>
        <time>2022-09-06T08:59:30Z</time>
      </trkpt>
      <trkpt lat="44.091024845838547" lon="10.22221053019166">
        <ele>772.21000000000004</ele>
        <time>2022-09-06T08:59:48Z</time>
      </trkpt>
      <trkpt lat="44.091024175286293" lon="10.222165938466787">
        <ele>772.28999999999996</ele>
        <time>2022-09-06T09:00:10Z</time>
      </trkpt>
      <trkpt lat="44.091017218306661" lon="10.222165770828724">
        <ele>772.20000000000005</ele>
        <time>2022-09-06T09:00:32Z</time>
      </trkpt>
      <trkpt lat="44.090952845290303" lon="10.222156634554267">
        <ele>773.96000000000004</ele>
        <time>2022-09-06T09:00:47Z</time>
      </trkpt>
      <trkpt lat="44.090892663225532" lon="10.22216216661036">
        <ele>777.29999999999995</ele>
        <time>2022-09-06T09:01:02Z</time>
      </trkpt>
      <trkpt lat="44.09084471873939" lon="10.222181947901845">
        <ele>780.28999999999996</ele>
        <time>2022-09-06T09:01:14Z</time>
      </trkpt>
      <trkpt lat="44.090794259682298" lon="10.222168453037739">
        <ele>783.02999999999997</ele>
        <time>2022-09-06T09:01:30Z</time>
      </trkpt>
      <trkpt lat="44.090778836980462" lon="10.222151940688491">
        <ele>785.75999999999999</ele>
        <time>2022-09-06T09:01:47Z</time>
      </trkpt>
      <trkpt lat="44.090782441198826" lon="10.222193850204349">
        <ele>787.86000000000001</ele>
        <time>2022-09-06T09:02:02Z</time>
      </trkpt>
      <trkpt lat="44.090753775089979" lon="10.222134673967957">
        <ele>790.61000000000001</ele>
        <time>2022-09-06T09:02:21Z</time>
      </trkpt>
      <trkpt lat="44.090715469792485" lon="10.222112461924553">
        <ele>792.74000000000001</ele>
        <time>2022-09-06T09:02:36Z</time>
      </trkpt>
      <trkpt lat="44.090702896937728" lon="10.222090668976307">
        <ele>792.53999999999996</ele>
        <time>2022-09-06T09:02:54Z</time>
      </trkpt>
      <trkpt lat="44.090704489499331" lon="10.222076084464788">
        <ele>792.59000000000003</ele>
        <time>2022-09-06T09:03:12Z</time>
      </trkpt>
      <trkpt lat="44.090704405680299" lon="10.222078850492835">
        <ele>792.63999999999999</ele>
        <time>2022-09-06T09:03:35Z</time>
      </trkpt>
      <trkpt lat="44.090705746784806" lon="10.222087986767292">
        <ele>792.52999999999997</ele>
        <time>2022-09-06T09:03:51Z</time>
      </trkpt>
      <trkpt lat="44.090708261355758" lon="10.222108857706189">
        <ele>794.34000000000003</ele>
        <time>2022-09-06T09:04:04Z</time>
      </trkpt>
      <trkpt lat="44.090689737349749" lon="10.222134422510862">
        <ele>797.42999999999995</ele>
        <time>2022-09-06T09:04:17Z</time>
      </trkpt>
      <trkpt lat="44.09065755084157" lon="10.222149677574635">
        <ele>799.97000000000003</ele>
        <time>2022-09-06T09:04:31Z</time>
      </trkpt>
      <trkpt lat="44.090664256364107" lon="10.222195107489824">
        <ele>801.40999999999997</ele>
        <time>2022-09-06T09:04:42Z</time>
      </trkpt>
      <trkpt lat="44.090660903602839" lon="10.222269371151924">
        <ele>803.40999999999997</ele>
        <time>2022-09-06T09:04:54Z</time>
      </trkpt>
      <trkpt lat="44.090655539184809" lon="10.222331900149584">
        <ele>804.5</ele>
        <time>2022-09-06T09:05:08Z</time>
      </trkpt>
      <trkpt lat="44.090654952451587" lon="10.222344221547246">
        <ele>804.75</ele>
        <time>2022-09-06T09:05:26Z</time>
      </trkpt>
      <trkpt lat="44.090683702379465" lon="10.222423346713185">
        <ele>806.61000000000001</ele>
        <time>2022-09-06T09:05:41Z</time>
      </trkpt>
      <trkpt lat="44.090710775926709" lon="10.222430806607008">
        <ele>809.17999999999995</ele>
        <time>2022-09-06T09:05:56Z</time>
      </trkpt>
      <trkpt lat="44.090736005455256" lon="10.222491659224033">
        <ele>811.47000000000003</ele>
        <time>2022-09-06T09:06:13Z</time>
      </trkpt>
      <trkpt lat="44.090745225548744" lon="10.222551254555583">
        <ele>812.91999999999996</ele>
        <time>2022-09-06T09:06:29Z</time>
      </trkpt>
      <trkpt lat="44.09074648283422" lon="10.222604479640722">
        <ele>812.45000000000005</ele>
        <time>2022-09-06T09:06:49Z</time>
      </trkpt>
      <trkpt lat="44.090746818110347" lon="10.222685448825359">
        <ele>814.47000000000003</ele>
        <time>2022-09-06T09:07:03Z</time>
      </trkpt>
      <trkpt lat="44.090741537511349" lon="10.222749821841717">
        <ele>816</ele>
        <time>2022-09-06T09:07:17Z</time>
      </trkpt>
      <trkpt lat="44.090732233598828" lon="10.222822995856404">
        <ele>818.08000000000004</ele>
        <time>2022-09-06T09:07:31Z</time>
      </trkpt>
      <trkpt lat="44.090701220557094" lon="10.22291611880064">
        <ele>816.53999999999996</ele>
        <time>2022-09-06T09:07:45Z</time>
      </trkpt>
      <trkpt lat="44.090674566105008" lon="10.223000021651387">
        <ele>816.95000000000005</ele>
        <time>2022-09-06T09:07:58Z</time>
      </trkpt>
      <trkpt lat="44.090646151453257" lon="10.223084343597293">
        <ele>817.13</ele>
        <time>2022-09-06T09:08:13Z</time>
      </trkpt>
      <trkpt lat="44.090636847540736" lon="10.223148968070745">
        <ele>816.94000000000005</ele>
        <time>2022-09-06T09:08:26Z</time>
      </trkpt>
      <trkpt lat="44.090616144239902" lon="10.223209150135517">
        <ele>819.54999999999995</ele>
        <time>2022-09-06T09:08:38Z</time>
      </trkpt>
      <trkpt lat="44.090616060420871" lon="10.223325826227665">
        <ele>822.08000000000004</ele>
        <time>2022-09-06T09:08:50Z</time>
      </trkpt>
      <trkpt lat="44.090616814792156" lon="10.223440658301115">
        <ele>824.40999999999997</ele>
        <time>2022-09-06T09:09:04Z</time>
      </trkpt>
      <trkpt lat="44.09061404876411" lon="10.223449040204287">
        <ele>824.62</ele>
        <time>2022-09-06T09:09:05Z</time>
      </trkpt>
      <trkpt lat="44.090611115098" lon="10.223457925021648">
        <ele>824.60000000000002</ele>
        <time>2022-09-06T09:09:11Z</time>
      </trkpt>
      <trkpt lat="44.090605331584811" lon="10.223445519804955">
        <ele>823.66999999999996</ele>
        <time>2022-09-06T09:09:21Z</time>
      </trkpt>
      <trkpt lat="44.090608516708016" lon="10.223448369652033">
        <ele>823.70000000000005</ele>
        <time>2022-09-06T09:09:23Z</time>
      </trkpt>
      <trkpt lat="44.090611953288317" lon="10.223456500098109">
        <ele>823.48000000000002</ele>
        <time>2022-09-06T09:09:27Z</time>
      </trkpt>
      <trkpt lat="44.090610444545746" lon="10.223447699099779">
        <ele>823.38999999999999</ele>
        <time>2022-09-06T09:09:57Z</time>
      </trkpt>
      <trkpt lat="44.090600805357099" lon="10.223441328853369">
        <ele>823.5</ele>
        <time>2022-09-06T09:10:01Z</time>
      </trkpt>
      <trkpt lat="44.090602649375796" lon="10.223425403237343">
        <ele>824.64999999999998</ele>
        <time>2022-09-06T09:10:38Z</time>
      </trkpt>
      <trkpt lat="44.090593261644244" lon="10.223420793190598">
        <ele>824.64999999999998</ele>
        <time>2022-09-06T09:10:42Z</time>
      </trkpt>
      <trkpt lat="44.090591836720705" lon="10.223429929465055">
        <ele>824.58000000000004</ele>
        <time>2022-09-06T09:10:57Z</time>
      </trkpt>
      <trkpt lat="44.090591417625546" lon="10.22343403659761">
        <ele>824.51999999999998</ele>
        <time>2022-09-06T09:10:59Z</time>
      </trkpt>
      <trkpt lat="44.09058328717947" lon="10.22343504242599">
        <ele>824.40999999999997</ele>
        <time>2022-09-06T09:11:08Z</time>
      </trkpt>
      <trkpt lat="44.090588064864278" lon="10.223439233377576">
        <ele>824.40999999999997</ele>
        <time>2022-09-06T09:11:15Z</time>
      </trkpt>
      <trkpt lat="44.090578844770789" lon="10.223434707149863">
        <ele>824.53999999999996</ele>
        <time>2022-09-06T09:11:19Z</time>
      </trkpt>
      <trkpt lat="44.090584460645914" lon="10.223431941121817">
        <ele>824.79999999999995</ele>
        <time>2022-09-06T09:11:30Z</time>
      </trkpt>
      <trkpt lat="44.090578593313694" lon="10.223427163437009">
        <ele>824.80999999999995</ele>
        <time>2022-09-06T09:11:35Z</time>
      </trkpt>
      <trkpt lat="44.090587729588151" lon="10.223431019112468">
        <ele>824.83000000000004</ele>
        <time>2022-09-06T09:11:46Z</time>
      </trkpt>
      <trkpt lat="44.0905886515975" lon="10.223431857302785">
        <ele>824.54999999999995</ele>
        <time>2022-09-06T09:11:51Z</time>
      </trkpt>
      <trkpt lat="44.090585298836231" lon="10.223415764048696">
        <ele>823.84000000000003</ele>
        <time>2022-09-06T09:12:04Z</time>
      </trkpt>
      <trkpt lat="44.090590663254261" lon="10.223412998020649">
        <ele>824.72000000000003</ele>
        <time>2022-09-06T09:12:19Z</time>
      </trkpt>
      <trkpt lat="44.090611115098" lon="10.223433030769229">
        <ele>824.64999999999998</ele>
        <time>2022-09-06T09:12:32Z</time>
      </trkpt>
      <trkpt lat="44.09062922000885" lon="10.22343403659761">
        <ele>825.07000000000005</ele>
        <time>2022-09-06T09:12:43Z</time>
      </trkpt>
      <trkpt lat="44.090594183653593" lon="10.223458595573902">
        <ele>825.96000000000004</ele>
        <time>2022-09-06T09:12:58Z</time>
      </trkpt>
      <trkpt lat="44.090587897226214" lon="10.223451219499111">
        <ele>826.61000000000001</ele>
        <time>2022-09-06T09:13:14Z</time>
      </trkpt>
      <trkpt lat="44.090577084571123" lon="10.223439317196608">
        <ele>826.73000000000002</ele>
        <time>2022-09-06T09:13:33Z</time>
      </trkpt>
      <trkpt lat="44.090586472302675" lon="10.223490530624986">
        <ele>828.03999999999996</ele>
        <time>2022-09-06T09:13:48Z</time>
      </trkpt>
      <trkpt lat="44.090608349069953" lon="10.223573176190257">
        <ele>829.88</ele>
        <time>2022-09-06T09:14:00Z</time>
      </trkpt>
      <trkpt lat="44.090618155896664" lon="10.223602009937167">
        <ele>831.03999999999996</ele>
        <time>2022-09-06T09:14:07Z</time>
      </trkpt>
      <trkpt lat="44.090650174766779" lon="10.223740981891751">
        <ele>833.82000000000005</ele>
        <time>2022-09-06T09:14:23Z</time>
      </trkpt>
      <trkpt lat="44.090638775378466" lon="10.223794123157859">
        <ele>835.19000000000005</ele>
        <time>2022-09-06T09:14:32Z</time>
      </trkpt>
      <trkpt lat="44.090638272464275" lon="10.223890095949173">
        <ele>837.34000000000003</ele>
        <time>2022-09-06T09:14:46Z</time>
      </trkpt>
      <trkpt lat="44.090667273849249" lon="10.223975423723459">
        <ele>839.76999999999998</ele>
        <time>2022-09-06T09:15:02Z</time>
      </trkpt>
      <trkpt lat="44.090672554448247" lon="10.224054800346494">
        <ele>840.46000000000004</ele>
        <time>2022-09-06T09:15:17Z</time>
      </trkpt>
      <trkpt lat="44.090676410123706" lon="10.224062846973538">
        <ele>840.98000000000002</ele>
        <time>2022-09-06T09:15:23Z</time>
      </trkpt>
      <trkpt lat="44.090687558054924" lon="10.224092015996575">
        <ele>841.75</ele>
        <time>2022-09-06T09:15:38Z</time>
      </trkpt>
      <trkpt lat="44.090684372931719" lon="10.224095536395907">
        <ele>841.82000000000005</ele>
        <time>2022-09-06T09:15:52Z</time>
      </trkpt>
      <trkpt lat="44.090680852532387" lon="10.224100397899747">
        <ele>841.69000000000005</ele>
        <time>2022-09-06T09:16:11Z</time>
      </trkpt>
      <trkpt lat="44.090695939958096" lon="10.224129986017942">
        <ele>841.70000000000005</ele>
        <time>2022-09-06T09:16:27Z</time>
      </trkpt>
      <trkpt lat="44.090705998241901" lon="10.224148174747825">
        <ele>841.34000000000003</ele>
        <time>2022-09-06T09:16:38Z</time>
      </trkpt>
      <trkpt lat="44.090719493106008" lon="10.22417776286602">
        <ele>839.83000000000004</ele>
        <time>2022-09-06T09:16:54Z</time>
      </trkpt>
      <trkpt lat="44.090695101767778" lon="10.224239705130458">
        <ele>840.09000000000003</ele>
        <time>2022-09-06T09:17:05Z</time>
      </trkpt>
      <trkpt lat="44.09068001434207" lon="10.224305167794228">
        <ele>842.64999999999998</ele>
        <time>2022-09-06T09:17:20Z</time>
      </trkpt>
      <trkpt lat="44.090637266635895" lon="10.224362500011921">
        <ele>844.27999999999997</ele>
        <time>2022-09-06T09:17:32Z</time>
      </trkpt>
      <trkpt lat="44.090598458424211" lon="10.224391585215926">
        <ele>845.96000000000004</ele>
        <time>2022-09-06T09:17:43Z</time>
      </trkpt>
      <trkpt lat="44.090598542243242" lon="10.22443575784564">
        <ele>848.10000000000002</ele>
        <time>2022-09-06T09:17:59Z</time>
      </trkpt>
      <trkpt lat="44.090627627447248" lon="10.224480517208576">
        <ele>850.55999999999995</ele>
        <time>2022-09-06T09:18:14Z</time>
      </trkpt>
      <trkpt lat="44.09067221917212" lon="10.224495017901063">
        <ele>853.22000000000003</ele>
        <time>2022-09-06T09:18:31Z</time>
      </trkpt>
      <trkpt lat="44.090723097324371" lon="10.224538017064333">
        <ele>855.62</ele>
        <time>2022-09-06T09:18:49Z</time>
      </trkpt>
      <trkpt lat="44.090758888050914" lon="10.224607419222593">
        <ele>857.98000000000002</ele>
        <time>2022-09-06T09:19:05Z</time>
      </trkpt>
      <trkpt lat="44.090790655463934" lon="10.22468252107501">
        <ele>860.71000000000004</ele>
        <time>2022-09-06T09:19:23Z</time>
      </trkpt>
      <trkpt lat="44.090782441198826" lon="10.22472501732409">
        <ele>862.24000000000001</ele>
        <time>2022-09-06T09:19:37Z</time>
      </trkpt>
      <trkpt lat="44.090787973254919" lon="10.22476558573544">
        <ele>863.54999999999995</ele>
        <time>2022-09-06T09:19:50Z</time>
      </trkpt>
      <trkpt lat="44.090819321572781" lon="10.224832557141781">
        <ele>865.27999999999997</ele>
        <time>2022-09-06T09:20:02Z</time>
      </trkpt>
      <trkpt lat="44.090817729011178" lon="10.22486038506031">
        <ele>866.21000000000004</ele>
        <time>2022-09-06T09:20:16Z</time>
      </trkpt>
      <trkpt lat="44.090796941891313" lon="10.224873041734099">
        <ele>865.90999999999997</ele>
        <time>2022-09-06T09:20:34Z</time>
      </trkpt>
      <trkpt lat="44.090794343501329" lon="10.224910927936435">
        <ele>868.24000000000001</ele>
        <time>2022-09-06T09:20:50Z</time>
      </trkpt>
      <trkpt lat="44.090801803395152" lon="10.224975803866982">
        <ele>870.85000000000002</ele>
        <time>2022-09-06T09:21:04Z</time>
      </trkpt>
      <trkpt lat="44.090813957154751" lon="10.225033890455961">
        <ele>872.99000000000001</ele>
        <time>2022-09-06T09:21:15Z</time>
      </trkpt>
      <trkpt lat="44.090848322957754" lon="10.225084852427244">
        <ele>874.67999999999995</ele>
        <time>2022-09-06T09:21:26Z</time>
      </trkpt>
      <trkpt lat="44.090880258008838" lon="10.225160624831915">
        <ele>877.34000000000003</ele>
        <time>2022-09-06T09:21:39Z</time>
      </trkpt>
      <trkpt lat="44.090901548042893" lon="10.225188201293349">
        <ele>879.16999999999996</ele>
        <time>2022-09-06T09:21:53Z</time>
      </trkpt>
      <trkpt lat="44.090924011543393" lon="10.225248215720057">
        <ele>880.54999999999995</ele>
        <time>2022-09-06T09:22:07Z</time>
      </trkpt>
      <trkpt lat="44.090958964079618" lon="10.225315019488335">
        <ele>882.44000000000005</ele>
        <time>2022-09-06T09:22:19Z</time>
      </trkpt>
      <trkpt lat="44.09098788164556" lon="10.225374614819884">
        <ele>885.25</ele>
        <time>2022-09-06T09:22:32Z</time>
      </trkpt>
      <trkpt lat="44.091013446450233" lon="10.225423146039248">
        <ele>887.51999999999998</ele>
        <time>2022-09-06T09:22:45Z</time>
      </trkpt>
      <trkpt lat="44.091028366237879" lon="10.225496990606189">
        <ele>889.52999999999997</ele>
        <time>2022-09-06T09:22:58Z</time>
      </trkpt>
      <trkpt lat="44.091046638786793" lon="10.225587263703346">
        <ele>891.63999999999999</ele>
        <time>2022-09-06T09:23:12Z</time>
      </trkpt>
      <trkpt lat="44.091059295460582" lon="10.225658174604177">
        <ele>893.08000000000004</ele>
        <time>2022-09-06T09:23:23Z</time>
      </trkpt>
      <trkpt lat="44.091059127822518" lon="10.225718691945076">
        <ele>894.97000000000003</ele>
        <time>2022-09-06T09:23:35Z</time>
      </trkpt>
      <trkpt lat="44.09103867597878" lon="10.22578340023756">
        <ele>896.42999999999995</ele>
        <time>2022-09-06T09:23:53Z</time>
      </trkpt>
      <trkpt lat="44.09101914614439" lon="10.225863447412848">
        <ele>898.50999999999999</ele>
        <time>2022-09-06T09:24:09Z</time>
      </trkpt>
      <trkpt lat="44.091026438400149" lon="10.225978279486299">
        <ele>901.19000000000005</ele>
        <time>2022-09-06T09:24:25Z</time>
      </trkpt>
      <trkpt lat="44.091033730655909" lon="10.226026643067598">
        <ele>902.03999999999996</ele>
        <time>2022-09-06T09:24:36Z</time>
      </trkpt>
      <trkpt lat="44.091060971841216" lon="10.226057907566428">
        <ele>902.46000000000004</ele>
        <time>2022-09-06T09:24:53Z</time>
      </trkpt>
      <trkpt lat="44.091032221913338" lon="10.226125465705991">
        <ele>904</ele>
        <time>2022-09-06T09:25:03Z</time>
      </trkpt>
      <trkpt lat="44.091012440621853" lon="10.226239124312997">
        <ele>906.82000000000005</ele>
        <time>2022-09-06T09:25:20Z</time>
      </trkpt>
      <trkpt lat="44.091006992384791" lon="10.226256139576435">
        <ele>907.24000000000001</ele>
        <time>2022-09-06T09:25:25Z</time>
      </trkpt>
      <trkpt lat="44.091031802818179" lon="10.226361500099301">
        <ele>908.38</ele>
        <time>2022-09-06T09:25:35Z</time>
      </trkpt>
      <trkpt lat="44.091047812253237" lon="10.226415395736694">
        <ele>909.78999999999996</ele>
        <time>2022-09-06T09:25:44Z</time>
      </trkpt>
      <trkpt lat="44.091090140864253" lon="10.226467279717326">
        <ele>912.08000000000004</ele>
        <time>2022-09-06T09:25:59Z</time>
      </trkpt>
      <trkpt lat="44.09111000597477" lon="10.226518576964736">
        <ele>913.20000000000005</ele>
        <time>2022-09-06T09:26:09Z</time>
      </trkpt>
      <trkpt lat="44.091113861650229" lon="10.226556630805135">
        <ele>914.57000000000005</ele>
        <time>2022-09-06T09:26:18Z</time>
      </trkpt>
      <trkpt lat="44.091141102835536" lon="10.226617567241192">
        <ele>915.83000000000004</ele>
        <time>2022-09-06T09:26:28Z</time>
      </trkpt>
      <trkpt lat="44.091162476688623" lon="10.226670540869236">
        <ele>917.45000000000005</ele>
        <time>2022-09-06T09:26:36Z</time>
      </trkpt>
      <trkpt lat="44.091186951845884" lon="10.226720916107297">
        <ele>918.80999999999995</ele>
        <time>2022-09-06T09:26:55Z</time>
      </trkpt>
      <trkpt lat="44.091178150847554" lon="10.226719072088599">
        <ele>919.09000000000003</ele>
        <time>2022-09-06T09:27:13Z</time>
      </trkpt>
      <trkpt lat="44.091183012351394" lon="10.226736674085259">
        <ele>919.25999999999999</ele>
        <time>2022-09-06T09:27:30Z</time>
      </trkpt>
      <trkpt lat="44.09118871204555" lon="10.226746900007129">
        <ele>919.23000000000002</ele>
        <time>2022-09-06T09:27:48Z</time>
      </trkpt>
      <trkpt lat="44.091142946854234" lon="10.226745894178748">
        <ele>920.16999999999996</ele>
        <time>2022-09-06T09:28:06Z</time>
      </trkpt>
      <trkpt lat="44.091170439496636" lon="10.226738266646862">
        <ele>919.50999999999999</ele>
        <time>2022-09-06T09:28:27Z</time>
      </trkpt>
      <trkpt lat="44.091162644326687" lon="10.226744301617146">
        <ele>919.59000000000003</ele>
        <time>2022-09-06T09:28:47Z</time>
      </trkpt>
      <trkpt lat="44.091160548850894" lon="10.226726196706295">
        <ele>919.80999999999995</ele>
        <time>2022-09-06T09:29:08Z</time>
      </trkpt>
      <trkpt lat="44.091148478910327" lon="10.226814625784755">
        <ele>921.63</ele>
        <time>2022-09-06T09:29:20Z</time>
      </trkpt>
      <trkpt lat="44.091120650991797" lon="10.226906491443515">
        <ele>923.51999999999998</ele>
        <time>2022-09-06T09:29:31Z</time>
      </trkpt>
      <trkpt lat="44.091115454211831" lon="10.226961225271225">
        <ele>924.42999999999995</ele>
        <time>2022-09-06T09:29:39Z</time>
      </trkpt>
      <trkpt lat="44.091107491403818" lon="10.226979581639171">
        <ele>924.92999999999995</ele>
        <time>2022-09-06T09:29:42Z</time>
      </trkpt>
      <trkpt lat="44.091116962954402" lon="10.227022999897599">
        <ele>925.77999999999997</ele>
        <time>2022-09-06T09:29:51Z</time>
      </trkpt>
      <trkpt lat="44.091126685962081" lon="10.227039596065879">
        <ele>926.16999999999996</ele>
        <time>2022-09-06T09:30:04Z</time>
      </trkpt>
      <trkpt lat="44.091115538030863" lon="10.227028783410788">
        <ele>926.27999999999997</ele>
        <time>2022-09-06T09:30:16Z</time>
      </trkpt>
      <trkpt lat="44.091115789487958" lon="10.22702794522047">
        <ele>926.10000000000002</ele>
        <time>2022-09-06T09:30:23Z</time>
      </trkpt>
      <trkpt lat="44.091123668476939" lon="10.22703087888658">
        <ele>926.23000000000002</ele>
        <time>2022-09-06T09:30:35Z</time>
      </trkpt>
      <trkpt lat="44.091107323765755" lon="10.227023838087916">
        <ele>926.30999999999995</ele>
        <time>2022-09-06T09:31:02Z</time>
      </trkpt>
      <trkpt lat="44.091112185269594" lon="10.227038087323308">
        <ele>926.75</ele>
        <time>2022-09-06T09:31:28Z</time>
      </trkpt>
      <trkpt lat="44.091083183884621" lon="10.227009924128652">
        <ele>926.52999999999997</ele>
        <time>2022-09-06T09:31:47Z</time>
      </trkpt>
      <trkpt lat="44.091089386492968" lon="10.227029789239168">
        <ele>926.58000000000004</ele>
        <time>2022-09-06T09:32:03Z</time>
      </trkpt>
      <trkpt lat="44.091085949912667" lon="10.227028867229819">
        <ele>926.5</ele>
        <time>2022-09-06T09:32:07Z</time>
      </trkpt>
      <trkpt lat="44.091081004589796" lon="10.227026017382741">
        <ele>926.57000000000005</ele>
        <time>2022-09-06T09:32:14Z</time>
      </trkpt>
      <trkpt lat="44.091073041781783" lon="10.227023754268885">
        <ele>926.75</ele>
        <time>2022-09-06T09:32:17Z</time>
      </trkpt>
      <trkpt lat="44.091063654050231" lon="10.227020652964711">
        <ele>926.87</ele>
        <time>2022-09-06T09:32:25Z</time>
      </trkpt>
      <trkpt lat="44.091050578281283" lon="10.227024676278234">
        <ele>926.76999999999998</ele>
        <time>2022-09-06T09:32:32Z</time>
      </trkpt>
      <trkpt lat="44.091059127822518" lon="10.227027358487248">
        <ele>926.75999999999999</ele>
        <time>2022-09-06T09:32:45Z</time>
      </trkpt>
      <trkpt lat="44.091062396764755" lon="10.227021658793092">
        <ele>926.89999999999998</ele>
        <time>2022-09-06T09:32:53Z</time>
      </trkpt>
      <trkpt lat="44.091068431735039" lon="10.227037919685245">
        <ele>926.78999999999996</ele>
        <time>2022-09-06T09:33:03Z</time>
      </trkpt>
      <trkpt lat="44.091075556352735" lon="10.227039260789752">
        <ele>926.85000000000002</ele>
        <time>2022-09-06T09:33:13Z</time>
      </trkpt>
      <trkpt lat="44.091047560796142" lon="10.22710120305419">
        <ele>927.77999999999997</ele>
        <time>2022-09-06T09:33:28Z</time>
      </trkpt>
      <trkpt lat="44.091037418693304" lon="10.227220477536321">
        <ele>930.14999999999998</ele>
        <time>2022-09-06T09:33:42Z</time>
      </trkpt>
      <trkpt lat="44.091030629351735" lon="10.227239336818457">
        <ele>930.65999999999997</ele>
        <time>2022-09-06T09:33:45Z</time>
      </trkpt>
      <trkpt lat="44.091027360409498" lon="10.227301781997085">
        <ele>931.92999999999995</ele>
        <time>2022-09-06T09:33:54Z</time>
      </trkpt>
      <trkpt lat="44.091028533875942" lon="10.22740907035768">
        <ele>934.14999999999998</ele>
        <time>2022-09-06T09:34:07Z</time>
      </trkpt>
      <trkpt lat="44.091031216084957" lon="10.227501606568694">
        <ele>936.09000000000003</ele>
        <time>2022-09-06T09:34:21Z</time>
      </trkpt>
      <trkpt lat="44.091055439785123" lon="10.227575451135635">
        <ele>937.88</ele>
        <time>2022-09-06T09:34:33Z</time>
      </trkpt>
      <trkpt lat="44.091073460876942" lon="10.227618031203747">
        <ele>938.85000000000002</ele>
        <time>2022-09-06T09:34:39Z</time>
      </trkpt>
      <trkpt lat="44.091078322380781" lon="10.227676369249821">
        <ele>940.13999999999999</ele>
        <time>2022-09-06T09:34:47Z</time>
      </trkpt>
      <trkpt lat="44.091076059266925" lon="10.227702436968684">
        <ele>940.69000000000005</ele>
        <time>2022-09-06T09:34:50Z</time>
      </trkpt>
      <trkpt lat="44.091070191934705" lon="10.227744430303574">
        <ele>941.71000000000004</ele>
        <time>2022-09-06T09:34:56Z</time>
      </trkpt>
      <trkpt lat="44.091055272147059" lon="10.227776532992721">
        <ele>942.39999999999998</ele>
        <time>2022-09-06T09:35:02Z</time>
      </trkpt>
      <trkpt lat="44.091052925214171" lon="10.227844594046474">
        <ele>944.38999999999999</ele>
        <time>2022-09-06T09:35:13Z</time>
      </trkpt>
      <trkpt lat="44.091045884415507" lon="10.22791525349021">
        <ele>945.98000000000002</ele>
        <time>2022-09-06T09:35:23Z</time>
      </trkpt>
      <trkpt lat="44.091073712334037" lon="10.228043245151639">
        <ele>948.70000000000005</ele>
        <time>2022-09-06T09:35:41Z</time>
      </trkpt>
      <trkpt lat="44.091063318774104" lon="10.228060344234109">
        <ele>949.39999999999998</ele>
        <time>2022-09-06T09:35:44Z</time>
      </trkpt>
      <trkpt lat="44.091073125600815" lon="10.228132177144289">
        <ele>951.20000000000005</ele>
        <time>2022-09-06T09:35:55Z</time>
      </trkpt>
      <trkpt lat="44.09110413864255" lon="10.228176014497876">
        <ele>952.40999999999997</ele>
        <time>2022-09-06T09:36:04Z</time>
      </trkpt>
      <trkpt lat="44.091120231896639" lon="10.228230832144618">
        <ele>953.52999999999997</ele>
        <time>2022-09-06T09:36:13Z</time>
      </trkpt>
      <trkpt lat="44.091143952682614" lon="10.228324709460139">
        <ele>956.11000000000001</ele>
        <time>2022-09-06T09:36:30Z</time>
      </trkpt>
      <trkpt lat="44.091132553294301" lon="10.228346167132258">
        <ele>956.65999999999997</ele>
        <time>2022-09-06T09:36:34Z</time>
      </trkpt>
      <trkpt lat="44.091139929369092" lon="10.228377766907215">
        <ele>957.70000000000005</ele>
        <time>2022-09-06T09:36:44Z</time>
      </trkpt>
      <trkpt lat="44.091123417019844" lon="10.228420598432422">
        <ele>959.28999999999996</ele>
        <time>2022-09-06T09:36:54Z</time>
      </trkpt>
      <trkpt lat="44.091114280745387" lon="10.228505423292518">
        <ele>960.70000000000005</ele>
        <time>2022-09-06T09:37:05Z</time>
      </trkpt>
      <trkpt lat="44.091114783659577" lon="10.22856954485178">
        <ele>961.94000000000005</ele>
        <time>2022-09-06T09:37:15Z</time>
      </trkpt>
      <trkpt lat="44.091114783659577" lon="10.228587398305535">
        <ele>962.32000000000005</ele>
        <time>2022-09-06T09:37:17Z</time>
      </trkpt>
      <trkpt lat="44.091103887185454" lon="10.228633331134915">
        <ele>963.66999999999996</ele>
        <time>2022-09-06T09:37:26Z</time>
      </trkpt>
      <trkpt lat="44.091099025681615" lon="10.228691501542926">
        <ele>964.69000000000005</ele>
        <time>2022-09-06T09:37:38Z</time>
      </trkpt>
      <trkpt lat="44.091077903285623" lon="10.228775320574641">
        <ele>965.86000000000001</ele>
        <time>2022-09-06T09:37:49Z</time>
      </trkpt>
      <trkpt lat="44.09109148196876" lon="10.228852266445756">
        <ele>967.63</ele>
        <time>2022-09-06T09:38:00Z</time>
      </trkpt>
      <trkpt lat="44.091091062873602" lon="10.228877915069461">
        <ele>968.27999999999997</ele>
        <time>2022-09-06T09:38:05Z</time>
      </trkpt>
      <trkpt lat="44.091127021238208" lon="10.228925524279475">
        <ele>969.09000000000003</ele>
        <time>2022-09-06T09:38:12Z</time>
      </trkpt>
      <trkpt lat="44.091127440333366" lon="10.22898000665009">
        <ele>970.55999999999995</ele>
        <time>2022-09-06T09:38:23Z</time>
      </trkpt>
      <trkpt lat="44.091108413413167" lon="10.229000961408019">
        <ele>971.36000000000001</ele>
        <time>2022-09-06T09:38:29Z</time>
      </trkpt>
      <trkpt lat="44.091097936034203" lon="10.229033064097166">
        <ele>972.38999999999999</ele>
        <time>2022-09-06T09:38:34Z</time>
      </trkpt>
      <trkpt lat="44.091127440333366" lon="10.229097437113523">
        <ele>973.15999999999997</ele>
        <time>2022-09-06T09:38:43Z</time>
      </trkpt>
      <trkpt lat="44.09113984555006" lon="10.229153428226709">
        <ele>974.63999999999999</ele>
        <time>2022-09-06T09:38:56Z</time>
      </trkpt>
      <trkpt lat="44.091158034279943" lon="10.229181507602334">
        <ele>974.77999999999997</ele>
        <time>2022-09-06T09:39:14Z</time>
      </trkpt>
      <trkpt lat="44.091184269636869" lon="10.229206318035722">
        <ele>974.48000000000002</ele>
        <time>2022-09-06T09:39:28Z</time>
      </trkpt>
      <trkpt lat="44.091182928532362" lon="10.229209335520864">
        <ele>974.83000000000004</ele>
        <time>2022-09-06T09:39:40Z</time>
      </trkpt>
      <trkpt lat="44.091189801692963" lon="10.229199528694153">
        <ele>974.82000000000005</ele>
        <time>2022-09-06T09:39:54Z</time>
      </trkpt>
      <trkpt lat="44.091198435053229" lon="10.229209922254086">
        <ele>975.62</ele>
        <time>2022-09-06T09:40:09Z</time>
      </trkpt>
      <trkpt lat="44.09119357354939" lon="10.229213023558259">
        <ele>975.53999999999996</ele>
        <time>2022-09-06T09:40:24Z</time>
      </trkpt>
      <trkpt lat="44.091200362890959" lon="10.229207826778293">
        <ele>975.78999999999996</ele>
        <time>2022-09-06T09:40:43Z</time>
      </trkpt>
      <trkpt lat="44.0912224072963" lon="10.22921453230083">
        <ele>975.69000000000005</ele>
        <time>2022-09-06T09:40:59Z</time>
      </trkpt>
      <trkpt lat="44.091214863583446" lon="10.229173041880131">
        <ele>976.03999999999996</ele>
        <time>2022-09-06T09:41:25Z</time>
      </trkpt>
      <trkpt lat="44.091146299615502" lon="10.229156780987978">
        <ele>975.86000000000001</ele>
        <time>2022-09-06T09:41:49Z</time>
      </trkpt>
      <trkpt lat="44.091144036501646" lon="10.229187458753586">
        <ele>975.85000000000002</ele>
        <time>2022-09-06T09:42:08Z</time>
      </trkpt>
      <trkpt lat="44.091166919097304" lon="10.229192823171616">
        <ele>976.15999999999997</ele>
        <time>2022-09-06T09:42:24Z</time>
      </trkpt>
      <trkpt lat="44.091154932975769" lon="10.229265075176954">
        <ele>976.88999999999999</ele>
        <time>2022-09-06T09:42:38Z</time>
      </trkpt>
      <trkpt lat="44.091178150847554" lon="10.229375213384628">
        <ele>978.57000000000005</ele>
        <time>2022-09-06T09:42:53Z</time>
      </trkpt>
      <trkpt lat="44.09118820913136" lon="10.229396419599652">
        <ele>981.10000000000002</ele>
        <time>2022-09-06T09:43:08Z</time>
      </trkpt>
      <trkpt lat="44.091236656531692" lon="10.229345206171274">
        <ele>982.98000000000002</ele>
        <time>2022-09-06T09:43:22Z</time>
      </trkpt>
      <trkpt lat="44.091303208842874" lon="10.229348726570606">
        <ele>983.46000000000004</ele>
        <time>2022-09-06T09:43:34Z</time>
      </trkpt>
      <trkpt lat="44.091346375644207" lon="10.22934302687645">
        <ele>984.46000000000004</ele>
        <time>2022-09-06T09:43:44Z</time>
      </trkpt>
      <trkpt lat="44.091361379250884" lon="10.229343110695481">
        <ele>984.92999999999995</ele>
        <time>2022-09-06T09:43:57Z</time>
      </trkpt>
      <trkpt lat="44.091378394514322" lon="10.229305475950241">
        <ele>984.77999999999997</ele>
        <time>2022-09-06T09:44:17Z</time>
      </trkpt>
      <trkpt lat="44.091411586850882" lon="10.229211766272783">
        <ele>986.02999999999997</ele>
        <time>2022-09-06T09:44:33Z</time>
      </trkpt>
      <trkpt lat="44.0914486348629" lon="10.229161055758595">
        <ele>987.78999999999996</ele>
        <time>2022-09-06T09:44:49Z</time>
      </trkpt>
      <trkpt lat="44.091432373970747" lon="10.229109087958932">
        <ele>989.83000000000004</ele>
        <time>2022-09-06T09:45:05Z</time>
      </trkpt>
      <trkpt lat="44.091400187462568" lon="10.229112356901169">
        <ele>989.79999999999995</ele>
        <time>2022-09-06T09:45:15Z</time>
      </trkpt>
      <trkpt lat="44.091412089765072" lon="10.229070950299501">
        <ele>991.09000000000003</ele>
        <time>2022-09-06T09:45:31Z</time>
      </trkpt>
      <trkpt lat="44.091400103643537" lon="10.229034824296832">
        <ele>993.76999999999998</ele>
        <time>2022-09-06T09:45:48Z</time>
      </trkpt>
      <trkpt lat="44.091408317908645" lon="10.229005319997668">
        <ele>993.78999999999996</ele>
        <time>2022-09-06T09:46:08Z</time>
      </trkpt>
      <trkpt lat="44.091397002339363" lon="10.228982856497169">
        <ele>994.82000000000005</ele>
        <time>2022-09-06T09:46:22Z</time>
      </trkpt>
      <trkpt lat="44.091418208554387" lon="10.228976318612695">
        <ele>994.48000000000002</ele>
        <time>2022-09-06T09:46:35Z</time>
      </trkpt>
      <trkpt lat="44.091419884935021" lon="10.228955280035734">
        <ele>995.16999999999996</ele>
        <time>2022-09-06T09:46:48Z</time>
      </trkpt>
      <trkpt lat="44.091461123898625" lon="10.228989478200674">
        <ele>996.95000000000005</ele>
        <time>2022-09-06T09:47:01Z</time>
      </trkpt>
      <trkpt lat="44.091485431417823" lon="10.229010097682476">
        <ele>998.00999999999999</ele>
        <time>2022-09-06T09:47:16Z</time>
      </trkpt>
      <trkpt lat="44.09149850718677" lon="10.229035075753927">
        <ele>1000.1900000000001</ele>
        <time>2022-09-06T09:47:36Z</time>
      </trkpt>
      <trkpt lat="44.091538153588772" lon="10.229055611416698">
        <ele>1001.85</ele>
        <time>2022-09-06T09:47:45Z</time>
      </trkpt>
      <trkpt lat="44.091533794999123" lon="10.229110177606344">
        <ele>1003.47</ele>
        <time>2022-09-06T09:47:55Z</time>
      </trkpt>
      <trkpt lat="44.091563802212477" lon="10.229136077687144">
        <ele>1005.55</ele>
        <time>2022-09-06T09:48:07Z</time>
      </trkpt>
      <trkpt lat="44.091587942093611" lon="10.229156613349915">
        <ele>1007.23</ele>
        <time>2022-09-06T09:48:19Z</time>
      </trkpt>
      <trkpt lat="44.091605544090271" lon="10.229185530915856">
        <ele>1009.4400000000001</ele>
        <time>2022-09-06T09:48:31Z</time>
      </trkpt>
      <trkpt lat="44.091629767790437" lon="10.229209838435054">
        <ele>1010.73</ele>
        <time>2022-09-06T09:48:42Z</time>
      </trkpt>
      <trkpt lat="44.091655416414142" lon="10.229235989972949">
        <ele>1012.1</ele>
        <time>2022-09-06T09:48:55Z</time>
      </trkpt>
      <trkpt lat="44.091689782217145" lon="10.229261219501495">
        <ele>1014.13</ele>
        <time>2022-09-06T09:49:08Z</time>
      </trkpt>
      <trkpt lat="44.091685172170401" lon="10.229315366595984">
        <ele>1015.66</ele>
        <time>2022-09-06T09:49:20Z</time>
      </trkpt>
      <trkpt lat="44.091726411134005" lon="10.229357108473778">
        <ele>1017.1799999999999</ele>
        <time>2022-09-06T09:49:33Z</time>
      </trkpt>
      <trkpt lat="44.091756753623486" lon="10.229368424043059">
        <ele>1018.95</ele>
        <time>2022-09-06T09:49:47Z</time>
      </trkpt>
      <trkpt lat="44.091786090284586" lon="10.22939532995224">
        <ele>1020.89</ele>
        <time>2022-09-06T09:50:00Z</time>
      </trkpt>
      <trkpt lat="44.091821629554033" lon="10.229405472055078">
        <ele>1022.38</ele>
        <time>2022-09-06T09:50:12Z</time>
      </trkpt>
      <trkpt lat="44.091849960386753" lon="10.229414273053408">
        <ele>1021.92</ele>
        <time>2022-09-06T09:50:25Z</time>
      </trkpt>
      <trkpt lat="44.091833028942347" lon="10.229412596672773">
        <ele>1022.62</ele>
        <time>2022-09-06T09:50:42Z</time>
      </trkpt>
      <trkpt lat="44.091841327026486" lon="10.229421062394977">
        <ele>1023.5</ele>
        <time>2022-09-06T09:51:00Z</time>
      </trkpt>
      <trkpt lat="44.091885918751359" lon="10.229472443461418">
        <ele>1026.6500000000001</ele>
        <time>2022-09-06T09:51:16Z</time>
      </trkpt>
      <trkpt lat="44.091957416385412" lon="10.229505803436041">
        <ele>1029.53</ele>
        <time>2022-09-06T09:51:32Z</time>
      </trkpt>
      <trkpt lat="44.091990608721972" lon="10.229528183117509">
        <ele>1031.28</ele>
        <time>2022-09-06T09:51:45Z</time>
      </trkpt>
      <trkpt lat="44.092012317851186" lon="10.229529105126858">
        <ele>1033.7</ele>
        <time>2022-09-06T09:51:59Z</time>
      </trkpt>
      <trkpt lat="44.092041905969381" lon="10.229542516171932">
        <ele>1035.02</ele>
        <time>2022-09-06T09:52:14Z</time>
      </trkpt>
      <trkpt lat="44.09209462814033" lon="10.229548802599311">
        <ele>1036.9000000000001</ele>
        <time>2022-09-06T09:52:31Z</time>
      </trkpt>
      <trkpt lat="44.09211415797472" lon="10.229576462879777">
        <ele>1038.8699999999999</ele>
        <time>2022-09-06T09:52:50Z</time>
      </trkpt>
      <trkpt lat="44.092114996165037" lon="10.229602614417672">
        <ele>1040.5999999999999</ele>
        <time>2022-09-06T09:53:05Z</time>
      </trkpt>
      <trkpt lat="44.092129161581397" lon="10.229634381830692">
        <ele>1042.8399999999999</ele>
        <time>2022-09-06T09:53:21Z</time>
      </trkpt>
      <trkpt lat="44.092182721942663" lon="10.229607475921512">
        <ele>1044.9100000000001</ele>
        <time>2022-09-06T09:53:38Z</time>
      </trkpt>
      <trkpt lat="44.092210130766034" lon="10.229592220857739">
        <ele>1046.99</ele>
        <time>2022-09-06T09:53:53Z</time>
      </trkpt>
      <trkpt lat="44.092245083302259" lon="10.229621808975935">
        <ele>1050.23</ele>
        <time>2022-09-06T09:54:11Z</time>
      </trkpt>
      <trkpt lat="44.092264445498586" lon="10.229654582217336">
        <ele>1052.25</ele>
        <time>2022-09-06T09:54:26Z</time>
      </trkpt>
      <trkpt lat="44.092270648106933" lon="10.229646870866418">
        <ele>1052.3199999999999</ele>
        <time>2022-09-06T09:54:46Z</time>
      </trkpt>
      <trkpt lat="44.092290764674544" lon="10.229701437056065">
        <ele>1053.5699999999999</ele>
        <time>2022-09-06T09:55:07Z</time>
      </trkpt>
      <trkpt lat="44.092298643663526" lon="10.229791542515159">
        <ele>1056.71</ele>
        <time>2022-09-06T09:55:21Z</time>
      </trkpt>
      <trkpt lat="44.092321861535311" lon="10.229853400960565">
        <ele>1059.8599999999999</ele>
        <time>2022-09-06T09:55:35Z</time>
      </trkpt>
      <trkpt lat="44.092341307550669" lon="10.229839151725173">
        <ele>1062.9300000000001</ele>
        <time>2022-09-06T09:55:54Z</time>
      </trkpt>
      <trkpt lat="44.092364441603422" lon="10.229838481172919">
        <ele>1064.5899999999999</ele>
        <time>2022-09-06T09:56:08Z</time>
      </trkpt>
      <trkpt lat="44.092403836548328" lon="10.229875110089779">
        <ele>1067.1800000000001</ele>
        <time>2022-09-06T09:56:26Z</time>
      </trkpt>
      <trkpt lat="44.092418672516942" lon="10.229851473122835">
        <ele>1069.8199999999999</ele>
        <time>2022-09-06T09:56:45Z</time>
      </trkpt>
      <trkpt lat="44.092440968379378" lon="10.229825405403972">
        <ele>1070.22</ele>
        <time>2022-09-06T09:57:02Z</time>
      </trkpt>
      <trkpt lat="44.092422192916274" lon="10.22978525608778">
        <ele>1070.3099999999999</ele>
        <time>2022-09-06T09:57:20Z</time>
      </trkpt>
      <trkpt lat="44.092441471293569" lon="10.229773186147213">
        <ele>1071.95</ele>
        <time>2022-09-06T09:57:38Z</time>
      </trkpt>
      <trkpt lat="44.0924605820328" lon="10.229774275794625">
        <ele>1071.98</ele>
        <time>2022-09-06T09:57:54Z</time>
      </trkpt>
      <trkpt lat="44.092462928965688" lon="10.229785339906812">
        <ele>1071.9000000000001</ele>
        <time>2022-09-06T09:58:18Z</time>
      </trkpt>
      <trkpt lat="44.092441722750664" lon="10.229796236380935">
        <ele>1071.24</ele>
        <time>2022-09-06T09:58:35Z</time>
      </trkpt>
      <trkpt lat="44.092403249815106" lon="10.229799756780267">
        <ele>1069.96</ele>
        <time>2022-09-06T09:58:53Z</time>
      </trkpt>
      <trkpt lat="44.092399980872869" lon="10.229804283007979">
        <ele>1070.1700000000001</ele>
        <time>2022-09-06T09:59:17Z</time>
      </trkpt>
      <trkpt lat="44.092429401353002" lon="10.229807049036026">
        <ele>1070.5699999999999</ele>
        <time>2022-09-06T09:59:34Z</time>
      </trkpt>
      <trkpt lat="44.092452703043818" lon="10.229790369048715">
        <ele>1072.0799999999999</ele>
        <time>2022-09-06T09:59:51Z</time>
      </trkpt>
      <trkpt lat="44.092456810176373" lon="10.229802690446377">
        <ele>1071.3599999999999</ele>
        <time>2022-09-06T10:00:00Z</time>
      </trkpt>
      <trkpt lat="44.092461001127958" lon="10.229816604405642">
        <ele>1072.3699999999999</ele>
        <time>2022-09-06T10:00:24Z</time>
      </trkpt>
      <trkpt lat="44.092458067461848" lon="10.229777628555894">
        <ele>1072.49</ele>
        <time>2022-09-06T10:00:43Z</time>
      </trkpt>
      <trkpt lat="44.092457396909595" lon="10.229780478402972">
        <ele>1072.6300000000001</ele>
        <time>2022-09-06T10:01:00Z</time>
      </trkpt>
      <trkpt lat="44.092460162937641" lon="10.229778215289116">
        <ele>1072.4400000000001</ele>
        <time>2022-09-06T10:01:17Z</time>
      </trkpt>
      <trkpt lat="44.092454127967358" lon="10.229786429554224">
        <ele>1072.8800000000001</ele>
        <time>2022-09-06T10:01:44Z</time>
      </trkpt>
      <trkpt lat="44.092460414394736" lon="10.229775616899133">
        <ele>1073.1400000000001</ele>
        <time>2022-09-06T10:02:03Z</time>
      </trkpt>
      <trkpt lat="44.092470305040479" lon="10.229770001024008">
        <ele>1072.9400000000001</ele>
        <time>2022-09-06T10:02:23Z</time>
      </trkpt>
      <trkpt lat="44.092476675286889" lon="10.229761954396963">
        <ele>1073.04</ele>
        <time>2022-09-06T10:02:39Z</time>
      </trkpt>
      <trkpt lat="44.09247474744916" lon="10.229773437604308">
        <ele>1073.5</ele>
        <time>2022-09-06T10:02:54Z</time>
      </trkpt>
      <trkpt lat="44.09246988594532" lon="10.229771425947547">
        <ele>1073.9200000000001</ele>
        <time>2022-09-06T10:03:14Z</time>
      </trkpt>
      <trkpt lat="44.092463180422783" lon="10.229761200025678">
        <ele>1074.01</ele>
        <time>2022-09-06T10:03:24Z</time>
      </trkpt>
      <trkpt lat="44.09249285236001" lon="10.229790788143873">
        <ele>1075.03</ele>
        <time>2022-09-06T10:03:49Z</time>
      </trkpt>
      <trkpt lat="44.092563427984715" lon="10.22980771958828">
        <ele>1078.1099999999999</ele>
        <time>2022-09-06T10:04:04Z</time>
      </trkpt>
      <trkpt lat="44.092637524008751" lon="10.229847282171249">
        <ele>1080.99</ele>
        <time>2022-09-06T10:04:21Z</time>
      </trkpt>
      <trkpt lat="44.092683708295226" lon="10.229867482557893">
        <ele>1083.95</ele>
        <time>2022-09-06T10:04:36Z</time>
      </trkpt>
      <trkpt lat="44.092739447951317" lon="10.229892292991281">
        <ele>1086.52</ele>
        <time>2022-09-06T10:04:51Z</time>
      </trkpt>
      <trkpt lat="44.092781189829111" lon="10.229935795068741">
        <ele>1088.74</ele>
        <time>2022-09-06T10:05:07Z</time>
      </trkpt>
      <trkpt lat="44.092812705785036" lon="10.229965550825">
        <ele>1090.4300000000001</ele>
        <time>2022-09-06T10:05:24Z</time>
      </trkpt>
      <trkpt lat="44.092855956405401" lon="10.230025313794613">
        <ele>1093.1600000000001</ele>
        <time>2022-09-06T10:05:39Z</time>
      </trkpt>
      <trkpt lat="44.092904906719923" lon="10.230056075379252">
        <ele>1095.01</ele>
        <time>2022-09-06T10:05:53Z</time>
      </trkpt>
      <trkpt lat="44.092937177047133" lon="10.230063451454043">
        <ele>1096.72</ele>
        <time>2022-09-06T10:06:07Z</time>
      </trkpt>
      <trkpt lat="44.092976739630103" lon="10.230097314342856">
        <ele>1097.75</ele>
        <time>2022-09-06T10:06:21Z</time>
      </trkpt>
      <trkpt lat="44.093020912259817" lon="10.230126148089767">
        <ele>1099.76</ele>
        <time>2022-09-06T10:06:34Z</time>
      </trkpt>
      <trkpt lat="44.093071287497878" lon="10.230163782835007">
        <ele>1102.45</ele>
        <time>2022-09-06T10:06:52Z</time>
      </trkpt>
      <trkpt lat="44.093096433207393" lon="10.230198819190264">
        <ele>1104.4200000000001</ele>
        <time>2022-09-06T10:07:08Z</time>
      </trkpt>
      <trkpt lat="44.093126188963652" lon="10.23022698238492">
        <ele>1106.8900000000001</ele>
        <time>2022-09-06T10:07:28Z</time>
      </trkpt>
      <trkpt lat="44.093151250854135" lon="10.230255397036672">
        <ele>1109.05</ele>
        <time>2022-09-06T10:07:44Z</time>
      </trkpt>
      <trkpt lat="44.093162398785353" lon="10.230282302945852">
        <ele>1110.1400000000001</ele>
        <time>2022-09-06T10:08:01Z</time>
      </trkpt>
      <trkpt lat="44.093178324401379" lon="10.230290349572897">
        <ele>1112.1700000000001</ele>
        <time>2022-09-06T10:08:17Z</time>
      </trkpt>
      <trkpt lat="44.093193663284183" lon="10.230297138914466">
        <ele>1113.9000000000001</ele>
        <time>2022-09-06T10:08:32Z</time>
      </trkpt>
      <trkpt lat="44.093232387676835" lon="10.23029588162899">
        <ele>1115.75</ele>
        <time>2022-09-06T10:08:46Z</time>
      </trkpt>
      <trkpt lat="44.093248145654798" lon="10.230279956012964">
        <ele>1115.4400000000001</ele>
        <time>2022-09-06T10:08:58Z</time>
      </trkpt>
      <trkpt lat="44.093256192281842" lon="10.230272244662046">
        <ele>1115.3399999999999</ele>
        <time>2022-09-06T10:09:10Z</time>
      </trkpt>
      <trkpt lat="44.093264155089855" lon="10.230271071195602">
        <ele>1115.74</ele>
        <time>2022-09-06T10:09:24Z</time>
      </trkpt>
      <trkpt lat="44.09325853921473" lon="10.230266125872731">
        <ele>1115.6500000000001</ele>
        <time>2022-09-06T10:09:42Z</time>
      </trkpt>
      <trkpt lat="44.093256359919906" lon="10.230275513604283">
        <ele>1115.8199999999999</ele>
        <time>2022-09-06T10:10:06Z</time>
      </trkpt>
      <trkpt lat="44.093250827863812" lon="10.230291774496436">
        <ele>1115.8199999999999</ele>
        <time>2022-09-06T10:10:42Z</time>
      </trkpt>
      <trkpt lat="44.093264993280172" lon="10.230269143357873">
        <ele>1116.1300000000001</ele>
        <time>2022-09-06T10:10:55Z</time>
      </trkpt>
      <trkpt lat="44.093265077099204" lon="10.230261851102114">
        <ele>1115.1800000000001</ele>
        <time>2022-09-06T10:11:04Z</time>
      </trkpt>
      <trkpt lat="44.093264155089855" lon="10.230257576331496">
        <ele>1115.0699999999999</ele>
        <time>2022-09-06T10:11:21Z</time>
      </trkpt>
      <trkpt lat="44.09324579872191" lon="10.230267215520144">
        <ele>1116.04</ele>
        <time>2022-09-06T10:12:01Z</time>
      </trkpt>
      <trkpt lat="44.093247978016734" lon="10.230250284075737">
        <ele>1115.98</ele>
        <time>2022-09-06T10:12:15Z</time>
      </trkpt>
      <trkpt lat="44.093255437910557" lon="10.230245254933834">
        <ele>1116.3199999999999</ele>
        <time>2022-09-06T10:12:37Z</time>
      </trkpt>
      <trkpt lat="44.093304052948952" lon="10.23023821413517">
        <ele>1117.74</ele>
        <time>2022-09-06T10:12:53Z</time>
      </trkpt>
      <trkpt lat="44.093319643288851" lon="10.230232095345855">
        <ele>1119.0999999999999</ele>
        <time>2022-09-06T10:13:11Z</time>
      </trkpt>
      <trkpt lat="44.093328360468149" lon="10.230252798646688">
        <ele>1118.5699999999999</ele>
        <time>2022-09-06T10:13:29Z</time>
      </trkpt>
      <trkpt lat="44.09334403462708" lon="10.230267299339175">
        <ele>1118.3499999999999</ele>
        <time>2022-09-06T10:14:00Z</time>
      </trkpt>
      <trkpt lat="44.093331377953291" lon="10.230261432006955">
        <ele>1119.5899999999999</ele>
        <time>2022-09-06T10:14:37Z</time>
      </trkpt>
      <trkpt lat="44.093348644673824" lon="10.230240728706121">
        <ele>1119.01</ele>
        <time>2022-09-06T10:14:59Z</time>
      </trkpt>
      <trkpt lat="44.093354092910886" lon="10.230239722877741">
        <ele>1119.8699999999999</ele>
        <time>2022-09-06T10:15:26Z</time>
      </trkpt>
      <trkpt lat="44.093407904729247" lon="10.230279285460711">
        <ele>1122.8800000000001</ele>
        <time>2022-09-06T10:15:44Z</time>
      </trkpt>
      <trkpt lat="44.093458782881498" lon="10.230292361229658">
        <ele>1124.8099999999999</ele>
        <time>2022-09-06T10:15:59Z</time>
      </trkpt>
      <trkpt lat="44.093489125370979" lon="10.230291355401278">
        <ele>1125.95</ele>
        <time>2022-09-06T10:16:16Z</time>
      </trkpt>
      <trkpt lat="44.093537572771311" lon="10.230294205248356">
        <ele>1128.8099999999999</ele>
        <time>2022-09-06T10:16:34Z</time>
      </trkpt>
      <trkpt lat="44.093565652146935" lon="10.230277106165886">
        <ele>1129.51</ele>
        <time>2022-09-06T10:16:48Z</time>
      </trkpt>
      <trkpt lat="44.093583505600691" lon="10.230296468362212">
        <ele>1130.5599999999999</ele>
        <time>2022-09-06T10:17:11Z</time>
      </trkpt>
      <trkpt lat="44.093623654916883" lon="10.23029001429677">
        <ele>1133.5699999999999</ele>
        <time>2022-09-06T10:17:27Z</time>
      </trkpt>
      <trkpt lat="44.093661289662123" lon="10.230307281017303">
        <ele>1135.8900000000001</ele>
        <time>2022-09-06T10:17:40Z</time>
      </trkpt>
      <trkpt lat="44.0936762932688" lon="10.230318177491426">
        <ele>1136.9100000000001</ele>
        <time>2022-09-06T10:17:54Z</time>
      </trkpt>
      <trkpt lat="44.09367386251688" lon="10.23028951138258">
        <ele>1136.8699999999999</ele>
        <time>2022-09-06T10:18:10Z</time>
      </trkpt>
      <trkpt lat="44.093708731234074" lon="10.230282973498106">
        <ele>1137.26</ele>
        <time>2022-09-06T10:18:21Z</time>
      </trkpt>
      <trkpt lat="44.09374225884676" lon="10.230289930477738">
        <ele>1139.54</ele>
        <time>2022-09-06T10:18:37Z</time>
      </trkpt>
      <trkpt lat="44.093779223039746" lon="10.230286996811628">
        <ele>1140.8800000000001</ele>
        <time>2022-09-06T10:18:51Z</time>
      </trkpt>
      <trkpt lat="44.0938057936728" lon="10.230324966832995">
        <ele>1141.8900000000001</ele>
        <time>2022-09-06T10:19:12Z</time>
      </trkpt>
      <trkpt lat="44.09388592466712" lon="10.230365870520473">
        <ele>1144.74</ele>
        <time>2022-09-06T10:19:28Z</time>
      </trkpt>
      <trkpt lat="44.09394065849483" lon="10.230376934632659">
        <ele>1145.3599999999999</ele>
        <time>2022-09-06T10:19:46Z</time>
      </trkpt>
      <trkpt lat="44.093989357352257" lon="10.230390597134829">
        <ele>1146.51</ele>
        <time>2022-09-06T10:19:58Z</time>
      </trkpt>
      <trkpt lat="44.094040654599667" lon="10.230461675673723">
        <ele>1148.4200000000001</ele>
        <time>2022-09-06T10:20:14Z</time>
      </trkpt>
      <trkpt lat="44.094066554680467" lon="10.23046787828207">
        <ele>1149.6500000000001</ele>
        <time>2022-09-06T10:20:28Z</time>
      </trkpt>
      <trkpt lat="44.094106703996658" lon="10.230483133345842">
        <ele>1151.8599999999999</ele>
        <time>2022-09-06T10:20:42Z</time>
      </trkpt>
      <trkpt lat="44.094144254922867" lon="10.230491179972887">
        <ele>1154.74</ele>
        <time>2022-09-06T10:20:56Z</time>
      </trkpt>
      <trkpt lat="44.094152972102165" lon="10.230490174144506">
        <ele>1157.5</ele>
        <time>2022-09-06T10:21:13Z</time>
      </trkpt>
      <trkpt lat="44.094136962667108" lon="10.230502160266042">
        <ele>1158.78</ele>
        <time>2022-09-06T10:21:25Z</time>
      </trkpt>
      <trkpt lat="44.094156827777624" lon="10.230491934344172">
        <ele>1160.8699999999999</ele>
        <time>2022-09-06T10:21:44Z</time>
      </trkpt>
      <trkpt lat="44.094172082841396" lon="10.230528982356191">
        <ele>1163.27</ele>
        <time>2022-09-06T10:22:00Z</time>
      </trkpt>
      <trkpt lat="44.094188427552581" lon="10.230583045631647">
        <ele>1165.4100000000001</ele>
        <time>2022-09-06T10:22:15Z</time>
      </trkpt>
      <trkpt lat="44.094207119196653" lon="10.230669882148504">
        <ele>1167.6500000000001</ele>
        <time>2022-09-06T10:22:31Z</time>
      </trkpt>
      <trkpt lat="44.09421625547111" lon="10.2307253703475">
        <ele>1168.8699999999999</ele>
        <time>2022-09-06T10:22:47Z</time>
      </trkpt>
      <trkpt lat="44.094244251027703" lon="10.230767615139484">
        <ele>1170.21</ele>
        <time>2022-09-06T10:23:03Z</time>
      </trkpt>
      <trkpt lat="44.094246346503496" lon="10.230805333703756">
        <ele>1172.5999999999999</ele>
        <time>2022-09-06T10:23:17Z</time>
      </trkpt>
      <trkpt lat="44.094258835539222" lon="10.230829054489732">
        <ele>1174.2</ele>
        <time>2022-09-06T10:23:32Z</time>
      </trkpt>
      <trkpt lat="44.094239389523864" lon="10.230841794982553">
        <ele>1174.54</ele>
        <time>2022-09-06T10:23:48Z</time>
      </trkpt>
      <trkpt lat="44.09422748722136" lon="10.230845483019948">
        <ele>1174.21</ele>
        <time>2022-09-06T10:24:01Z</time>
      </trkpt>
      <trkpt lat="44.094229247421026" lon="10.230856547132134">
        <ele>1173.4400000000001</ele>
        <time>2022-09-06T10:24:08Z</time>
      </trkpt>
      <trkpt lat="44.094234276562929" lon="10.230858055874705">
        <ele>1174.9300000000001</ele>
        <time>2022-09-06T10:24:13Z</time>
      </trkpt>
      <trkpt lat="44.094243161380291" lon="10.230870628729463">
        <ele>1174.29</ele>
        <time>2022-09-06T10:24:27Z</time>
      </trkpt>
      <trkpt lat="44.094244167208672" lon="10.230875238776207">
        <ele>1174.4200000000001</ele>
        <time>2022-09-06T10:24:35Z</time>
      </trkpt>
      <trkpt lat="44.094250034540892" lon="10.230906000360847">
        <ele>1175.54</ele>
        <time>2022-09-06T10:24:44Z</time>
      </trkpt>
      <trkpt lat="44.094323124736547" lon="10.230957632884383">
        <ele>1178.6099999999999</ele>
        <time>2022-09-06T10:25:00Z</time>
      </trkpt>
      <trkpt lat="44.094358580186963" lon="10.231047235429287">
        <ele>1181.77</ele>
        <time>2022-09-06T10:25:15Z</time>
      </trkpt>
      <trkpt lat="44.094392862170935" lon="10.231071123853326">
        <ele>1184.99</ele>
        <time>2022-09-06T10:25:29Z</time>
      </trkpt>
      <trkpt lat="44.094427144154906" lon="10.231102472171187">
        <ele>1186.6400000000001</ele>
        <time>2022-09-06T10:25:40Z</time>
      </trkpt>
      <trkpt lat="44.094450697302818" lon="10.231175646185875">
        <ele>1188.79</ele>
        <time>2022-09-06T10:25:54Z</time>
      </trkpt>
      <trkpt lat="44.094473998993635" lon="10.231225183233619">
        <ele>1189.8</ele>
        <time>2022-09-06T10:26:08Z</time>
      </trkpt>
      <trkpt lat="44.094481710344553" lon="10.231232978403568">
        <ele>1189.6700000000001</ele>
        <time>2022-09-06T10:26:14Z</time>
      </trkpt>
      <trkpt lat="44.094497552141547" lon="10.231254184618592">
        <ele>1189.9100000000001</ele>
        <time>2022-09-06T10:26:28Z</time>
      </trkpt>
      <trkpt lat="44.094551783055067" lon="10.231400784105062">
        <ele>1191.4100000000001</ele>
        <time>2022-09-06T10:26:42Z</time>
      </trkpt>
      <trkpt lat="44.094565277919173" lon="10.231411596760154">
        <ele>1193.51</ele>
        <time>2022-09-06T10:26:57Z</time>
      </trkpt>
      <trkpt lat="44.094537366181612" lon="10.23140799254179">
        <ele>1193.4400000000001</ele>
        <time>2022-09-06T10:27:23Z</time>
      </trkpt>
      <trkpt lat="44.094555806368589" lon="10.23140212520957">
        <ele>1195.1099999999999</ele>
        <time>2022-09-06T10:27:40Z</time>
      </trkpt>
      <trkpt lat="44.094565445557237" lon="10.231417967006564">
        <ele>1197.21</ele>
        <time>2022-09-06T10:27:53Z</time>
      </trkpt>
      <trkpt lat="44.094578772783279" lon="10.231429701671004">
        <ele>1199.5999999999999</ele>
        <time>2022-09-06T10:28:09Z</time>
      </trkpt>
      <trkpt lat="44.094587489962578" lon="10.231448393315077">
        <ele>1200.5899999999999</ele>
        <time>2022-09-06T10:28:21Z</time>
      </trkpt>
      <trkpt lat="44.094595368951559" lon="10.231435736641288">
        <ele>1201.5</ele>
        <time>2022-09-06T10:28:37Z</time>
      </trkpt>
      <trkpt lat="44.09462227486074" lon="10.231457864865661">
        <ele>1203.8199999999999</ele>
        <time>2022-09-06T10:28:54Z</time>
      </trkpt>
      <trkpt lat="44.094619005918503" lon="10.231477729976177">
        <ele>1205.8</ele>
        <time>2022-09-06T10:29:08Z</time>
      </trkpt>
      <trkpt lat="44.094613641500473" lon="10.231496337801218">
        <ele>1207.6099999999999</ele>
        <time>2022-09-06T10:29:23Z</time>
      </trkpt>
      <trkpt lat="44.094621185213327" lon="10.231540845707059">
        <ele>1209.46</ele>
        <time>2022-09-06T10:29:38Z</time>
      </trkpt>
      <trkpt lat="44.094623448327184" lon="10.231552412733436">
        <ele>1209.8399999999999</ele>
        <time>2022-09-06T10:29:41Z</time>
      </trkpt>
      <trkpt lat="44.09464918076992" lon="10.231558699160814">
        <ele>1210.7</ele>
        <time>2022-09-06T10:29:54Z</time>
      </trkpt>
      <trkpt lat="44.094634344801307" lon="10.231528943404555">
        <ele>1210.1900000000001</ele>
        <time>2022-09-06T10:30:15Z</time>
      </trkpt>
      <trkpt lat="44.094646582379937" lon="10.23153455927968">
        <ele>1210.1700000000001</ele>
        <time>2022-09-06T10:30:34Z</time>
      </trkpt>
      <trkpt lat="44.094640715047717" lon="10.231564566493034">
        <ele>1210.4400000000001</ele>
        <time>2022-09-06T10:30:52Z</time>
      </trkpt>
      <trkpt lat="44.094656724482775" lon="10.231555681675673">
        <ele>1209.8699999999999</ele>
        <time>2022-09-06T10:31:10Z</time>
      </trkpt>
      <trkpt lat="44.094653371721506" lon="10.231574876233935">
        <ele>1209.76</ele>
        <time>2022-09-06T10:31:29Z</time>
      </trkpt>
      <trkpt lat="44.094643481075764" lon="10.231579570099711">
        <ele>1209.97</ele>
        <time>2022-09-06T10:31:35Z</time>
      </trkpt>
      <trkpt lat="44.094628058373928" lon="10.231559369713068">
        <ele>1209.6600000000001</ele>
        <time>2022-09-06T10:31:52Z</time>
      </trkpt>
      <trkpt lat="44.094618586823344" lon="10.231602368876338">
        <ele>1210.74</ele>
        <time>2022-09-06T10:32:10Z</time>
      </trkpt>
      <trkpt lat="44.094660663977265" lon="10.231700269505382">
        <ele>1213.8099999999999</ele>
        <time>2022-09-06T10:32:25Z</time>
      </trkpt>
      <trkpt lat="44.094667118042707" lon="10.2317373175174">
        <ele>1214.49</ele>
        <time>2022-09-06T10:32:40Z</time>
      </trkpt>
      <trkpt lat="44.09462277777493" lon="10.231712926179171">
        <ele>1214.76</ele>
        <time>2022-09-06T10:33:00Z</time>
      </trkpt>
      <trkpt lat="44.09463057294488" lon="10.231714183464646">
        <ele>1214.6800000000001</ele>
        <time>2022-09-06T10:33:20Z</time>
      </trkpt>
      <trkpt lat="44.094641804695129" lon="10.231715943664312">
        <ele>1214.4200000000001</ele>
        <time>2022-09-06T10:33:37Z</time>
      </trkpt>
      <trkpt lat="44.094610037282109" lon="10.231711501255631">
        <ele>1214.8199999999999</ele>
        <time>2022-09-06T10:33:55Z</time>
      </trkpt>
      <trkpt lat="44.094612719491124" lon="10.23170898668468">
        <ele>1214.46</ele>
        <time>2022-09-06T10:34:10Z</time>
      </trkpt>
      <trkpt lat="44.094611713662744" lon="10.231690797954798">
        <ele>1214.3599999999999</ele>
        <time>2022-09-06T10:34:29Z</time>
      </trkpt>
      <trkpt lat="44.094640715047717" lon="10.231707980856299">
        <ele>1214.3900000000001</ele>
        <time>2022-09-06T10:34:43Z</time>
      </trkpt>
      <trkpt lat="44.094644905999303" lon="10.231712171807885">
        <ele>1214.3900000000001</ele>
        <time>2022-09-06T10:34:59Z</time>
      </trkpt>
      <trkpt lat="44.094624705612659" lon="10.231692641973495">
        <ele>1214.3299999999999</ele>
        <time>2022-09-06T10:35:16Z</time>
      </trkpt>
      <trkpt lat="44.094622358679771" lon="10.231702532619238">
        <ele>1214.3499999999999</ele>
        <time>2022-09-06T10:35:34Z</time>
      </trkpt>
      <trkpt lat="44.094644319266081" lon="10.231679901480675">
        <ele>1214.22</ele>
        <time>2022-09-06T10:35:54Z</time>
      </trkpt>
      <trkpt lat="44.094669297337532" lon="10.231730109080672">
        <ele>1214.3099999999999</ele>
        <time>2022-09-06T10:36:10Z</time>
      </trkpt>
      <trkpt lat="44.094689078629017" lon="10.231705717742443">
        <ele>1214.5</ele>
        <time>2022-09-06T10:36:29Z</time>
      </trkpt>
      <trkpt lat="44.094697628170252" lon="10.231725499033928">
        <ele>1214.4400000000001</ele>
        <time>2022-09-06T10:36:50Z</time>
      </trkpt>
      <trkpt lat="44.094696119427681" lon="10.23173782043159">
        <ele>1214.3299999999999</ele>
        <time>2022-09-06T10:37:10Z</time>
      </trkpt>
      <trkpt lat="44.094667285680771" lon="10.231759529560804">
        <ele>1214.3199999999999</ele>
        <time>2022-09-06T10:37:29Z</time>
      </trkpt>
      <trkpt lat="44.094670051708817" lon="10.231746705248952">
        <ele>1214.3399999999999</ele>
        <time>2022-09-06T10:37:46Z</time>
      </trkpt>
      <trkpt lat="44.094675164669752" lon="10.231724074110389">
        <ele>1214.4300000000001</ele>
        <time>2022-09-06T10:38:04Z</time>
      </trkpt>
      <trkpt lat="44.094671057537198" lon="10.231798002496362">
        <ele>1213.8499999999999</ele>
        <time>2022-09-06T10:38:20Z</time>
      </trkpt>
      <trkpt lat="44.094674158841372" lon="10.231807557865977">
        <ele>1213.71</ele>
        <time>2022-09-06T10:38:22Z</time>
      </trkpt>
      <trkpt lat="44.094764934852719" lon="10.231909649446607">
        <ele>1211.72</ele>
        <time>2022-09-06T10:38:38Z</time>
      </trkpt>
      <trkpt lat="44.094825619831681" lon="10.231983913108706">
        <ele>1211.78</ele>
        <time>2022-09-06T10:38:50Z</time>
      </trkpt>
      <trkpt lat="44.094793768599629" lon="10.23199531249702">
        <ele>1212.1199999999999</ele>
        <time>2022-09-06T10:39:03Z</time>
      </trkpt>
      <trkpt lat="44.094797959551215" lon="10.232042167335749">
        <ele>1211.53</ele>
        <time>2022-09-06T10:39:14Z</time>
      </trkpt>
      <trkpt lat="44.094827547669411" lon="10.23207544349134">
        <ele>1212.4100000000001</ele>
        <time>2022-09-06T10:39:25Z</time>
      </trkpt>
      <trkpt lat="44.094841461628675" lon="10.232076868414879">
        <ele>1212.8299999999999</ele>
        <time>2022-09-06T10:39:36Z</time>
      </trkpt>
      <trkpt lat="44.09487247467041" lon="10.232075359672308">
        <ele>1214.71</ele>
        <time>2022-09-06T10:39:46Z</time>
      </trkpt>
      <trkpt lat="44.094914551824331" lon="10.232025403529406">
        <ele>1215.9200000000001</ele>
        <time>2022-09-06T10:39:59Z</time>
      </trkpt>
      <trkpt lat="44.094957131892443" lon="10.231991121545434">
        <ele>1217.6600000000001</ele>
        <time>2022-09-06T10:40:11Z</time>
      </trkpt>
      <trkpt lat="44.095001053065062" lon="10.231996905058622">
        <ele>1218.4400000000001</ele>
        <time>2022-09-06T10:40:26Z</time>
      </trkpt>
      <trkpt lat="44.095019744709134" lon="10.231978045776486">
        <ele>1217.9200000000001</ele>
        <time>2022-09-06T10:40:47Z</time>
      </trkpt>
      <trkpt lat="44.095054948702455" lon="10.231973687186837">
        <ele>1218.1199999999999</ele>
        <time>2022-09-06T10:41:01Z</time>
      </trkpt>
      <trkpt lat="44.09507523290813" lon="10.23196941241622">
        <ele>1218.79</ele>
        <time>2022-09-06T10:41:12Z</time>
      </trkpt>
      <trkpt lat="44.095083028078079" lon="10.231924653053284">
        <ele>1217.9400000000001</ele>
        <time>2022-09-06T10:41:23Z</time>
      </trkpt>
      <trkpt lat="44.095091242343187" lon="10.231852484866977">
        <ele>1220.51</ele>
        <time>2022-09-06T10:41:36Z</time>
      </trkpt>
      <trkpt lat="44.095091242343187" lon="10.231814179569483">
        <ele>1222.2</ele>
        <time>2022-09-06T10:41:46Z</time>
      </trkpt>
      <trkpt lat="44.095111610367894" lon="10.231816023588181">
        <ele>1223.73</ele>
        <time>2022-09-06T10:42:00Z</time>
      </trkpt>
      <trkpt lat="44.095134241506457" lon="10.23181744851172">
        <ele>1224.76</ele>
        <time>2022-09-06T10:42:20Z</time>
      </trkpt>
      <trkpt lat="44.095185454934835" lon="10.231791799888015">
        <ele>1226.4200000000001</ele>
        <time>2022-09-06T10:42:32Z</time>
      </trkpt>
      <trkpt lat="44.095223592594266" lon="10.231764139607549">
        <ele>1228.3499999999999</ele>
        <time>2022-09-06T10:42:46Z</time>
      </trkpt>
      <trkpt lat="44.095260053873062" lon="10.231756595894694">
        <ele>1230.2</ele>
        <time>2022-09-06T10:42:57Z</time>
      </trkpt>
      <trkpt lat="44.095297688618302" lon="10.231766570359468">
        <ele>1232.55</ele>
        <time>2022-09-06T10:43:10Z</time>
      </trkpt>
      <trkpt lat="44.095301376655698" lon="10.231768749654293">
        <ele>1232.77</ele>
        <time>2022-09-06T10:43:11Z</time>
      </trkpt>
      <trkpt lat="44.095326438546181" lon="10.231746872887015">
        <ele>1234.3299999999999</ele>
        <time>2022-09-06T10:43:22Z</time>
      </trkpt>
      <trkpt lat="44.095338089391589" lon="10.231743771582842">
        <ele>1235.1600000000001</ele>
        <time>2022-09-06T10:43:35Z</time>
      </trkpt>
      <trkpt lat="44.095356278121471" lon="10.231783166527748">
        <ele>1236.79</ele>
        <time>2022-09-06T10:43:47Z</time>
      </trkpt>
      <trkpt lat="44.095386872068048" lon="10.231792889535427">
        <ele>1238.5799999999999</ele>
        <time>2022-09-06T10:44:00Z</time>
      </trkpt>
      <trkpt lat="44.095410006120801" lon="10.231785010546446">
        <ele>1240.1500000000001</ele>
        <time>2022-09-06T10:44:12Z</time>
      </trkpt>
      <trkpt lat="44.095435738563538" lon="10.23177495226264">
        <ele>1241.9100000000001</ele>
        <time>2022-09-06T10:44:23Z</time>
      </trkpt>
      <trkpt lat="44.095458118245006" lon="10.231782412156463">
        <ele>1243.1800000000001</ele>
        <time>2022-09-06T10:44:32Z</time>
      </trkpt>
      <trkpt lat="44.09547789953649" lon="10.231774616986513">
        <ele>1244.3499999999999</ele>
        <time>2022-09-06T10:44:45Z</time>
      </trkpt>
      <trkpt lat="44.095478905364871" lon="10.231760116294026">
        <ele>1244.5899999999999</ele>
        <time>2022-09-06T10:45:00Z</time>
      </trkpt>
      <trkpt lat="44.095475049689412" lon="10.231729438528419">
        <ele>1244.52</ele>
        <time>2022-09-06T10:45:24Z</time>
      </trkpt>
      <trkpt lat="44.095500111579895" lon="10.231705298647285">
        <ele>1245.96</ele>
        <time>2022-09-06T10:45:36Z</time>
      </trkpt>
      <trkpt lat="44.095537159591913" lon="10.231683170422912">
        <ele>1247.8800000000001</ele>
        <time>2022-09-06T10:45:47Z</time>
      </trkpt>
      <trkpt lat="44.09553942270577" lon="10.231694402173162">
        <ele>1248.3699999999999</ele>
        <time>2022-09-06T10:45:51Z</time>
      </trkpt>
      <trkpt lat="44.095540847629309" lon="10.231755841523409">
        <ele>1250.02</ele>
        <time>2022-09-06T10:46:02Z</time>
      </trkpt>
      <trkpt lat="44.095594491809607" lon="10.231775706633925">
        <ele>1252.6400000000001</ele>
        <time>2022-09-06T10:46:16Z</time>
      </trkpt>
      <trkpt lat="44.095630031079054" lon="10.231743017211556">
        <ele>1254.8699999999999</ele>
        <time>2022-09-06T10:46:30Z</time>
      </trkpt>
      <trkpt lat="44.095636904239655" lon="10.231753662228584">
        <ele>1256.0799999999999</ele>
        <time>2022-09-06T10:46:39Z</time>
      </trkpt>
      <trkpt lat="44.095647716894746" lon="10.231758188456297">
        <ele>1256.6500000000001</ele>
        <time>2022-09-06T10:46:50Z</time>
      </trkpt>
      <trkpt lat="44.09564696252346" lon="10.231783501803875">
        <ele>1256.8900000000001</ele>
        <time>2022-09-06T10:47:01Z</time>
      </trkpt>
      <trkpt lat="44.095687447115779" lon="10.231775371357799">
        <ele>1259.04</ele>
        <time>2022-09-06T10:47:15Z</time>
      </trkpt>
      <trkpt lat="44.095692727714777" lon="10.231775036081672">
        <ele>1259.52</ele>
        <time>2022-09-06T10:47:28Z</time>
      </trkpt>
      <trkpt lat="44.09573145210743" lon="10.231735892593861">
        <ele>1262.0599999999999</ele>
        <time>2022-09-06T10:47:42Z</time>
      </trkpt>
      <trkpt lat="44.095757268369198" lon="10.23171678185463">
        <ele>1264.1099999999999</ele>
        <time>2022-09-06T10:47:52Z</time>
      </trkpt>
      <trkpt lat="44.095766823738813" lon="10.231718709692359">
        <ele>1264.98</ele>
        <time>2022-09-06T10:48:08Z</time>
      </trkpt>
      <trkpt lat="44.095761124044657" lon="10.231716111302376">
        <ele>1265.4300000000001</ele>
        <time>2022-09-06T10:48:32Z</time>
      </trkpt>
      <trkpt lat="44.095787778496742" lon="10.231727007776499">
        <ele>1266.8299999999999</ele>
        <time>2022-09-06T10:48:46Z</time>
      </trkpt>
      <trkpt lat="44.095841506496072" lon="10.231742262840271">
        <ele>1269.0699999999999</ele>
        <time>2022-09-06T10:49:03Z</time>
      </trkpt>
      <trkpt lat="44.095890372991562" lon="10.231758942827582">
        <ele>1270.6300000000001</ele>
        <time>2022-09-06T10:49:15Z</time>
      </trkpt>
      <trkpt lat="44.095904706045985" lon="10.231769671663642">
        <ele>1272.25</ele>
        <time>2022-09-06T10:49:27Z</time>
      </trkpt>
      <trkpt lat="44.095915351063013" lon="10.231779897585511">
        <ele>1273.8399999999999</ele>
        <time>2022-09-06T10:49:43Z</time>
      </trkpt>
      <trkpt lat="44.095943849533796" lon="10.231781238690019">
        <ele>1275.5599999999999</ele>
        <time>2022-09-06T10:49:57Z</time>
      </trkpt>
      <trkpt lat="44.095965726301074" lon="10.231777802109718">
        <ele>1277.02</ele>
        <time>2022-09-06T10:50:12Z</time>
      </trkpt>
      <trkpt lat="44.095987100154161" lon="10.231775287538767">
        <ele>1278.27</ele>
        <time>2022-09-06T10:50:25Z</time>
      </trkpt>
      <trkpt lat="44.096002271398902" lon="10.231759697198868">
        <ele>1279.45</ele>
        <time>2022-09-06T10:50:39Z</time>
      </trkpt>
      <trkpt lat="44.096004031598568" lon="10.231769504025578">
        <ele>1280.3</ele>
        <time>2022-09-06T10:50:53Z</time>
      </trkpt>
      <trkpt lat="44.096001433208585" lon="10.231787106022239">
        <ele>1280.54</ele>
        <time>2022-09-06T10:51:07Z</time>
      </trkpt>
      <trkpt lat="44.096038145944476" lon="10.231834212318063">
        <ele>1280.98</ele>
        <time>2022-09-06T10:51:32Z</time>
      </trkpt>
      <trkpt lat="44.096021801233292" lon="10.231826500967145">
        <ele>1280.6199999999999</ele>
        <time>2022-09-06T10:51:49Z</time>
      </trkpt>
      <trkpt lat="44.096013167873025" lon="10.231784507632256">
        <ele>1280.6199999999999</ele>
        <time>2022-09-06T10:52:07Z</time>
      </trkpt>
      <trkpt lat="44.096000846475363" lon="10.231794649735093">
        <ele>1280.45</ele>
        <time>2022-09-06T10:52:32Z</time>
      </trkpt>
      <trkpt lat="44.095983663573861" lon="10.231801606714725">
        <ele>1280.76</ele>
        <time>2022-09-06T10:52:53Z</time>
      </trkpt>
      <trkpt lat="44.09597679041326" lon="10.231811497360468">
        <ele>1280.8900000000001</ele>
        <time>2022-09-06T10:53:12Z</time>
      </trkpt>
      <trkpt lat="44.095968073233962" lon="10.231827087700367">
        <ele>1280.9300000000001</ele>
        <time>2022-09-06T10:53:29Z</time>
      </trkpt>
      <trkpt lat="44.095993218943477" lon="10.23178425617516">
        <ele>1282.29</ele>
        <time>2022-09-06T10:53:44Z</time>
      </trkpt>
      <trkpt lat="44.096033116802573" lon="10.231736060231924">
        <ele>1284.99</ele>
        <time>2022-09-06T10:53:57Z</time>
      </trkpt>
      <trkpt lat="44.096064632758498" lon="10.231703286990523">
        <ele>1288.2</ele>
        <time>2022-09-06T10:54:11Z</time>
      </trkpt>
      <trkpt lat="44.096060190349817" lon="10.231666658073664">
        <ele>1290.25</ele>
        <time>2022-09-06T10:54:25Z</time>
      </trkpt>
      <trkpt lat="44.09605055116117" lon="10.231659784913063">
        <ele>1290.9200000000001</ele>
        <time>2022-09-06T10:54:39Z</time>
      </trkpt>
      <trkpt lat="44.096054909750819" lon="10.231673195958138">
        <ele>1291.3</ele>
        <time>2022-09-06T10:55:00Z</time>
      </trkpt>
      <trkpt lat="44.096055412665009" lon="10.231672441586852">
        <ele>1290.6700000000001</ele>
        <time>2022-09-06T10:55:01Z</time>
      </trkpt>
      <trkpt lat="44.096045270562172" lon="10.231685349717736">
        <ele>1291.21</ele>
        <time>2022-09-06T10:55:20Z</time>
      </trkpt>
      <trkpt lat="44.096031775698066" lon="10.231710411608219">
        <ele>1291.1600000000001</ele>
        <time>2022-09-06T10:55:46Z</time>
      </trkpt>
      <trkpt lat="44.096008725464344" lon="10.231697168201208">
        <ele>1291.95</ele>
        <time>2022-09-06T10:56:19Z</time>
      </trkpt>
      <trkpt lat="44.095985926687717" lon="10.231707813218236">
        <ele>1292.3099999999999</ele>
        <time>2022-09-06T10:56:47Z</time>
      </trkpt>
      <trkpt lat="44.096007887274027" lon="10.231696078553796">
        <ele>1292.26</ele>
        <time>2022-09-06T10:57:08Z</time>
      </trkpt>
      <trkpt lat="44.096000930294394" lon="10.231698425486684">
        <ele>1292.6900000000001</ele>
        <time>2022-09-06T10:57:35Z</time>
      </trkpt>
      <trkpt lat="44.096004366874695" lon="10.231692139059305">
        <ele>1293.3399999999999</ele>
        <time>2022-09-06T10:57:47Z</time>
      </trkpt>
      <trkpt lat="44.095996990799904" lon="10.231685684993863">
        <ele>1292.6700000000001</ele>
        <time>2022-09-06T10:58:11Z</time>
      </trkpt>
      <trkpt lat="44.095990201458335" lon="10.231690378859639">
        <ele>1292.8900000000001</ele>
        <time>2022-09-06T10:58:30Z</time>
      </trkpt>
      <trkpt lat="44.096002941951156" lon="10.231677135452628">
        <ele>1293</ele>
        <time>2022-09-06T10:58:40Z</time>
      </trkpt>
      <trkpt lat="44.096019873395562" lon="10.231630867347121">
        <ele>1292.8599999999999</ele>
        <time>2022-09-06T10:59:05Z</time>
      </trkpt>
      <trkpt lat="44.096011407673359" lon="10.231655426323414">
        <ele>1293.26</ele>
        <time>2022-09-06T10:59:18Z</time>
      </trkpt>
      <trkpt lat="44.095991961658001" lon="10.231659281998873">
        <ele>1293.52</ele>
        <time>2022-09-06T10:59:39Z</time>
      </trkpt>
      <trkpt lat="44.096003444865346" lon="10.231627179309726">
        <ele>1295.78</ele>
        <time>2022-09-06T10:59:52Z</time>
      </trkpt>
      <trkpt lat="44.096021885052323" lon="10.231633298099041">
        <ele>1297.0899999999999</ele>
        <time>2022-09-06T10:59:59Z</time>
      </trkpt>
      <trkpt lat="44.096078211441636" lon="10.231582671403885">
        <ele>1298.9400000000001</ele>
        <time>2022-09-06T11:00:16Z</time>
      </trkpt>
      <trkpt lat="44.096097657456994" lon="10.231567835435271">
        <ele>1300.47</ele>
        <time>2022-09-06T11:00:23Z</time>
      </trkpt>
      <trkpt lat="44.096152139827609" lon="10.231484184041619">
        <ele>1303.1600000000001</ele>
        <time>2022-09-06T11:00:40Z</time>
      </trkpt>
      <trkpt lat="44.096182649955153" lon="10.23143146187067">
        <ele>1305.51</ele>
        <time>2022-09-06T11:00:57Z</time>
      </trkpt>
      <trkpt lat="44.09618591889739" lon="10.23142215795815">
        <ele>1306.54</ele>
        <time>2022-09-06T11:01:15Z</time>
      </trkpt>
      <trkpt lat="44.096203772351146" lon="10.231419643387198">
        <ele>1308.48</ele>
        <time>2022-09-06T11:01:28Z</time>
      </trkpt>
      <trkpt lat="44.096219697967172" lon="10.231408579275012">
        <ele>1310.8599999999999</ele>
        <time>2022-09-06T11:01:43Z</time>
      </trkpt>
      <trkpt lat="44.096215423196554" lon="10.23138745687902">
        <ele>1311.49</ele>
        <time>2022-09-06T11:01:52Z</time>
      </trkpt>
      <trkpt lat="44.096223972737789" lon="10.231364406645298">
        <ele>1312.72</ele>
        <time>2022-09-06T11:02:03Z</time>
      </trkpt>
      <trkpt lat="44.096236126497388" lon="10.231355438008904">
        <ele>1313.71</ele>
        <time>2022-09-06T11:02:12Z</time>
      </trkpt>
      <trkpt lat="44.096269318833947" lon="10.231345631182194">
        <ele>1315.1700000000001</ele>
        <time>2022-09-06T11:02:22Z</time>
      </trkpt>
      <trkpt lat="44.096269737929106" lon="10.231340182945132">
        <ele>1316.0999999999999</ele>
        <time>2022-09-06T11:02:33Z</time>
      </trkpt>
      <trkpt lat="44.096252806484699" lon="10.231303051114082">
        <ele>1317.6600000000001</ele>
        <time>2022-09-06T11:02:44Z</time>
      </trkpt>
      <trkpt lat="44.09625674597919" lon="10.231275642290711">
        <ele>1319.3499999999999</ele>
        <time>2022-09-06T11:02:55Z</time>
      </trkpt>
      <trkpt lat="44.096262529492378" lon="10.231281258165836">
        <ele>1318.99</ele>
        <time>2022-09-06T11:03:07Z</time>
      </trkpt>
      <trkpt lat="44.096255656331778" lon="10.231275223195553">
        <ele>1318.8399999999999</ele>
        <time>2022-09-06T11:03:17Z</time>
      </trkpt>
      <trkpt lat="44.096254482865334" lon="10.231275726109743">
        <ele>1318.9000000000001</ele>
        <time>2022-09-06T11:03:30Z</time>
      </trkpt>
      <trkpt lat="44.096257416531444" lon="10.231276815757155">
        <ele>1318.8599999999999</ele>
        <time>2022-09-06T11:03:47Z</time>
      </trkpt>
      <trkpt lat="44.096251213923097" lon="10.231242701411247">
        <ele>1319.3499999999999</ele>
        <time>2022-09-06T11:03:56Z</time>
      </trkpt>
      <trkpt lat="44.096237886697054" lon="10.231208922341466">
        <ele>1319.05</ele>
        <time>2022-09-06T11:04:08Z</time>
      </trkpt>
      <trkpt lat="44.096237467601895" lon="10.231194673106074">
        <ele>1319.3099999999999</ele>
        <time>2022-09-06T11:04:21Z</time>
      </trkpt>
      <trkpt lat="44.096238473430276" lon="10.231196936219931">
        <ele>1319.4400000000001</ele>
        <time>2022-09-06T11:04:34Z</time>
      </trkpt>
      <trkpt lat="44.096229588612914" lon="10.231191823258996">
        <ele>1319.2</ele>
        <time>2022-09-06T11:04:51Z</time>
      </trkpt>
      <trkpt lat="44.096224140375853" lon="10.231197942048311">
        <ele>1319.7</ele>
        <time>2022-09-06T11:05:06Z</time>
      </trkpt>
      <trkpt lat="44.096232019364834" lon="10.231189308688045">
        <ele>1319.46</ele>
        <time>2022-09-06T11:05:28Z</time>
      </trkpt>
      <trkpt lat="44.096262194216251" lon="10.231196684762836">
        <ele>1319.6500000000001</ele>
        <time>2022-09-06T11:05:46Z</time>
      </trkpt>
      <trkpt lat="44.096298571676016" lon="10.231236163526773">
        <ele>1320.2</ele>
        <time>2022-09-06T11:05:59Z</time>
      </trkpt>
      <trkpt lat="44.096282562240958" lon="10.231252927333117">
        <ele>1319.76</ele>
        <time>2022-09-06T11:06:16Z</time>
      </trkpt>
      <trkpt lat="44.096281472593546" lon="10.231238678097725">
        <ele>1319.8599999999999</ele>
        <time>2022-09-06T11:06:40Z</time>
      </trkpt>
      <trkpt lat="44.096288932487369" lon="10.231233984231949">
        <ele>1319.8699999999999</ele>
        <time>2022-09-06T11:06:58Z</time>
      </trkpt>
      <trkpt lat="44.096289686858654" lon="10.231229709461331">
        <ele>1319.95</ele>
        <time>2022-09-06T11:07:21Z</time>
      </trkpt>
      <trkpt lat="44.096280634403229" lon="10.231226524338126">
        <ele>1320.21</ele>
        <time>2022-09-06T11:07:43Z</time>
      </trkpt>
      <trkpt lat="44.09628071822226" lon="10.231228368356824">
        <ele>1320.25</ele>
        <time>2022-09-06T11:08:10Z</time>
      </trkpt>
      <trkpt lat="44.096276946365833" lon="10.231236666440964">
        <ele>1320.46</ele>
        <time>2022-09-06T11:08:34Z</time>
      </trkpt>
      <trkpt lat="44.096259595826268" lon="10.231220321729779">
        <ele>1320.46</ele>
        <time>2022-09-06T11:09:04Z</time>
      </trkpt>
      <trkpt lat="44.096294967457652" lon="10.231229374185205">
        <ele>1321.03</ele>
        <time>2022-09-06T11:09:27Z</time>
      </trkpt>
      <trkpt lat="44.096362441778183" lon="10.231229877099395">
        <ele>1323.8299999999999</ele>
        <time>2022-09-06T11:09:40Z</time>
      </trkpt>
      <trkpt lat="44.096409967169166" lon="10.231265584006906">
        <ele>1326.1600000000001</ele>
        <time>2022-09-06T11:09:52Z</time>
      </trkpt>
      <trkpt lat="44.096479620784521" lon="10.231305146589875">
        <ele>1329.3</ele>
        <time>2022-09-06T11:10:09Z</time>
      </trkpt>
      <trkpt lat="44.096535528078675" lon="10.231304978951812">
        <ele>1331.6900000000001</ele>
        <time>2022-09-06T11:10:21Z</time>
      </trkpt>
      <trkpt lat="44.096588836982846" lon="10.23136549629271">
        <ele>1334.79</ele>
        <time>2022-09-06T11:10:36Z</time>
      </trkpt>
      <trkpt lat="44.096599230542779" lon="10.231431294232607">
        <ele>1336.8099999999999</ele>
        <time>2022-09-06T11:10:49Z</time>
      </trkpt>
      <trkpt lat="44.096617922186852" lon="10.231456188485026">
        <ele>1338.48</ele>
        <time>2022-09-06T11:11:02Z</time>
      </trkpt>
      <trkpt lat="44.096636530011892" lon="10.231498349457979">
        <ele>1340.8699999999999</ele>
        <time>2022-09-06T11:11:15Z</time>
      </trkpt>
      <trkpt lat="44.096657484769821" lon="10.231519220396876">
        <ele>1342.72</ele>
        <time>2022-09-06T11:11:27Z</time>
      </trkpt>
      <trkpt lat="44.09668724052608" lon="10.231520477682352">
        <ele>1344.8</ele>
        <time>2022-09-06T11:11:38Z</time>
      </trkpt>
      <trkpt lat="44.096714314073324" lon="10.231532379984856">
        <ele>1346.75</ele>
        <time>2022-09-06T11:11:50Z</time>
      </trkpt>
      <trkpt lat="44.096744572743773" lon="10.231558950617909">
        <ele>1348.73</ele>
        <time>2022-09-06T11:12:02Z</time>
      </trkpt>
      <trkpt lat="44.096777010709047" lon="10.231589376926422">
        <ele>1350.25</ele>
        <time>2022-09-06T11:12:14Z</time>
      </trkpt>
      <trkpt lat="44.096816489472985" lon="10.231600776314735">
        <ele>1352.23</ele>
        <time>2022-09-06T11:12:28Z</time>
      </trkpt>
      <trkpt lat="44.096822692081332" lon="10.231552748009562">
        <ele>1354.03</ele>
        <time>2022-09-06T11:12:41Z</time>
      </trkpt>
      <trkpt lat="44.096833672374487" lon="10.231504803523421">
        <ele>1356.9100000000001</ele>
        <time>2022-09-06T11:12:56Z</time>
      </trkpt>
      <trkpt lat="44.096872732043266" lon="10.231515029445291">
        <ele>1359.4300000000001</ele>
        <time>2022-09-06T11:13:12Z</time>
      </trkpt>
      <trkpt lat="44.096909193322062" lon="10.231540510430932">
        <ele>1361.55</ele>
        <time>2022-09-06T11:13:26Z</time>
      </trkpt>
      <trkpt lat="44.096910618245602" lon="10.231552664190531">
        <ele>1361.9200000000001</ele>
        <time>2022-09-06T11:13:40Z</time>
      </trkpt>
      <trkpt lat="44.096940206363797" lon="10.231536906212568">
        <ele>1363.45</ele>
        <time>2022-09-06T11:14:01Z</time>
      </trkpt>
      <trkpt lat="44.096983792260289" lon="10.231526764109731">
        <ele>1366.6400000000001</ele>
        <time>2022-09-06T11:14:14Z</time>
      </trkpt>
      <trkpt lat="44.097012374550104" lon="10.231565153226256">
        <ele>1369.01</ele>
        <time>2022-09-06T11:14:29Z</time>
      </trkpt>
      <trkpt lat="44.097047494724393" lon="10.231612175703049">
        <ele>1371.5599999999999</ele>
        <time>2022-09-06T11:14:43Z</time>
      </trkpt>
      <trkpt lat="44.097080435603857" lon="10.231621563434601">
        <ele>1373.7</ele>
        <time>2022-09-06T11:14:54Z</time>
      </trkpt>
      <trkpt lat="44.097108766436577" lon="10.231653582304716">
        <ele>1374.47</ele>
        <time>2022-09-06T11:15:06Z</time>
      </trkpt>
      <trkpt lat="44.097135756164789" lon="10.231646038591862">
        <ele>1376.3800000000001</ele>
        <time>2022-09-06T11:15:21Z</time>
      </trkpt>
      <trkpt lat="44.097171211615205" lon="10.231661042198539">
        <ele>1378.6900000000001</ele>
        <time>2022-09-06T11:15:34Z</time>
      </trkpt>
      <trkpt lat="44.097218653187156" lon="10.231696330010891">
        <ele>1379.9100000000001</ele>
        <time>2022-09-06T11:15:50Z</time>
      </trkpt>
      <trkpt lat="44.097261317074299" lon="10.231723906472325">
        <ele>1382.1400000000001</ele>
        <time>2022-09-06T11:16:04Z</time>
      </trkpt>
      <trkpt lat="44.097295934334397" lon="10.231755925342441">
        <ele>1384.48</ele>
        <time>2022-09-06T11:16:19Z</time>
      </trkpt>
      <trkpt lat="44.097311524674296" lon="10.23178132250905">
        <ele>1385.1800000000001</ele>
        <time>2022-09-06T11:16:32Z</time>
      </trkpt>
      <trkpt lat="44.097315799444914" lon="10.231776628643274">
        <ele>1385.8399999999999</ele>
        <time>2022-09-06T11:16:45Z</time>
      </trkpt>
      <trkpt lat="44.097328120842576" lon="10.231766402721405">
        <ele>1387.25</ele>
        <time>2022-09-06T11:17:04Z</time>
      </trkpt>
      <trkpt lat="44.097338179126382" lon="10.231793643906713">
        <ele>1387.4100000000001</ele>
        <time>2022-09-06T11:17:20Z</time>
      </trkpt>
      <trkpt lat="44.097343208268285" lon="10.231802361086011">
        <ele>1388.45</ele>
        <time>2022-09-06T11:17:39Z</time>
      </trkpt>
      <trkpt lat="44.097346141934395" lon="10.231838654726744">
        <ele>1388.8</ele>
        <time>2022-09-06T11:17:54Z</time>
      </trkpt>
      <trkpt lat="44.097361396998167" lon="10.231890371069312">
        <ele>1390.3299999999999</ele>
        <time>2022-09-06T11:18:11Z</time>
      </trkpt>
      <trkpt lat="44.097359636798501" lon="10.231934878975153">
        <ele>1392.1400000000001</ele>
        <time>2022-09-06T11:18:28Z</time>
      </trkpt>
      <trkpt lat="44.097388805821538" lon="10.231966897845268">
        <ele>1395.24</ele>
        <time>2022-09-06T11:18:44Z</time>
      </trkpt>
      <trkpt lat="44.09740012139082" lon="10.232011908665299">
        <ele>1397.3800000000001</ele>
        <time>2022-09-06T11:18:55Z</time>
      </trkpt>
      <trkpt lat="44.097426356747746" lon="10.232006125152111">
        <ele>1398.8800000000001</ele>
        <time>2022-09-06T11:19:08Z</time>
      </trkpt>
      <trkpt lat="44.097445132210851" lon="10.232026828452945">
        <ele>1401.01</ele>
        <time>2022-09-06T11:19:22Z</time>
      </trkpt>
      <trkpt lat="44.097452843561769" lon="10.232069911435246">
        <ele>1402.27</ele>
        <time>2022-09-06T11:19:35Z</time>
      </trkpt>
      <trkpt lat="44.097482012584805" lon="10.232062367722392">
        <ele>1403.9200000000001</ele>
        <time>2022-09-06T11:19:49Z</time>
      </trkpt>
      <trkpt lat="44.09752082079649" lon="10.231994893401861">
        <ele>1404.45</ele>
        <time>2022-09-06T11:20:01Z</time>
      </trkpt>
      <trkpt lat="44.097558371722698" lon="10.231961784884334">
        <ele>1406.3499999999999</ele>
        <time>2022-09-06T11:20:14Z</time>
      </trkpt>
      <trkpt lat="44.097589636221528" lon="10.231977626681328">
        <ele>1408.48</ele>
        <time>2022-09-06T11:20:29Z</time>
      </trkpt>
      <trkpt lat="44.097604053094983" lon="10.231963042169809">
        <ele>1409.78</ele>
        <time>2022-09-06T11:20:40Z</time>
      </trkpt>
      <trkpt lat="44.097606316208839" lon="10.231947954744101">
        <ele>1410.9300000000001</ele>
        <time>2022-09-06T11:20:56Z</time>
      </trkpt>
      <trkpt lat="44.097617883235216" lon="10.232012998312712">
        <ele>1412.2</ele>
        <time>2022-09-06T11:21:14Z</time>
      </trkpt>
      <trkpt lat="44.097648477181792" lon="10.231987182050943">
        <ele>1414.6900000000001</ele>
        <time>2022-09-06T11:21:29Z</time>
      </trkpt>
      <trkpt lat="44.097662810236216" lon="10.232029929757118">
        <ele>1416.8599999999999</ele>
        <time>2022-09-06T11:21:43Z</time>
      </trkpt>
      <trkpt lat="44.097599694505334" lon="10.232105702161789">
        <ele>1416.75</ele>
        <time>2022-09-06T11:21:56Z</time>
      </trkpt>
      <trkpt lat="44.09760095179081" lon="10.232115257531404">
        <ele>1416.55</ele>
        <time>2022-09-06T11:22:07Z</time>
      </trkpt>
      <trkpt lat="44.097594330087304" lon="10.232129506766796">
        <ele>1416.5799999999999</ele>
        <time>2022-09-06T11:22:17Z</time>
      </trkpt>
      <trkpt lat="44.097598437219858" lon="10.232124393805861">
        <ele>1416.75</ele>
        <time>2022-09-06T11:22:35Z</time>
      </trkpt>
      <trkpt lat="44.097583014518023" lon="10.232141492888331">
        <ele>1417.3399999999999</ele>
        <time>2022-09-06T11:23:03Z</time>
      </trkpt>
      <trkpt lat="44.097588378936052" lon="10.23213068023324">
        <ele>1417.28</ele>
        <time>2022-09-06T11:23:21Z</time>
      </trkpt>
    </trkseg>
  </trk>

  <trk>
    <name>rif-conti-acqua-fredda-passo-tambura2022-09-06</name>
    <extensions>
      <gpxx:TrackExtension>
        <gpxx:DisplayColor>Yellow</gpxx:DisplayColor>
      </gpxx:TrackExtension>
      <gpxtrkx:TrackStatsExtension xmlns:gpxtrkx="http://www.garmin.com/xmlschemas/TrackStatsExtension/v1">
        <gpxtrkx:Distance>2712</gpxtrkx:Distance>
        <gpxtrkx:TotalElapsedTime>6377</gpxtrkx:TotalElapsedTime>
        <gpxtrkx:MovingTime>4298</gpxtrkx:MovingTime>
        <gpxtrkx:StoppedTime>2077</gpxtrkx:StoppedTime>
        <gpxtrkx:MovingSpeed>0.631</gpxtrkx:MovingSpeed>
        <gpxtrkx:MaxSpeed>3.24</gpxtrkx:MaxSpeed>
        <gpxtrkx:MaxElevation>1637.986</gpxtrkx:MaxElevation>
        <gpxtrkx:MinElevation>1425.256</gpxtrkx:MinElevation>
        <gpxtrkx:Ascent>259</gpxtrkx:Ascent>
        <gpxtrkx:Descent>253.199</gpxtrkx:Descent>
        <gpxtrkx:AvgAscentRate>0.068</gpxtrkx:AvgAscentRate>
        <gpxtrkx:MaxAscentRate>0.282</gpxtrkx:MaxAscentRate>
        <gpxtrkx:AvgDescentRate>0.075</gpxtrkx:AvgDescentRate>
        <gpxtrkx:MaxDescentRate>-0.286</gpxtrkx:MaxDescentRate>
      </gpxtrkx:TrackStatsExtension>
    </extensions>
    <trkseg>
      <trkpt lat="44.097612099722028" lon="10.232120705768466">
        <ele>1432.0599999999999</ele>
        <time>2022-09-06T13:59:07Z</time>
      </trkpt>
      <trkpt lat="44.097611764445901" lon="10.232120035216212">
        <ele>1432.0599999999999</ele>
        <time>2022-09-06T13:59:08Z</time>
      </trkpt>
      <trkpt lat="44.09761562012136" lon="10.232159765437245">
        <ele>1431.1500000000001</ele>
        <time>2022-09-06T13:59:40Z</time>
      </trkpt>
      <trkpt lat="44.097647136077285" lon="10.232139816507697">
        <ele>1431.1099999999999</ele>
        <time>2022-09-06T13:59:57Z</time>
      </trkpt>
      <trkpt lat="44.097645124420524" lon="10.232155239209533">
        <ele>1431.5799999999999</ele>
        <time>2022-09-06T14:00:13Z</time>
      </trkpt>
      <trkpt lat="44.09759659320116" lon="10.232110228389502">
        <ele>1431.4400000000001</ele>
        <time>2022-09-06T14:00:27Z</time>
      </trkpt>
      <trkpt lat="44.097609333693981" lon="10.232119951397181">
        <ele>1431.48</ele>
        <time>2022-09-06T14:00:43Z</time>
      </trkpt>
      <trkpt lat="44.097651829943061" lon="10.232098577544093">
        <ele>1432.1600000000001</ele>
        <time>2022-09-06T14:01:09Z</time>
      </trkpt>
      <trkpt lat="44.09766205586493" lon="10.231938567012548">
        <ele>1434.95</ele>
        <time>2022-09-06T14:01:25Z</time>
      </trkpt>
      <trkpt lat="44.097634982317686" lon="10.231758439913392">
        <ele>1435.49</ele>
        <time>2022-09-06T14:01:40Z</time>
      </trkpt>
      <trkpt lat="44.097629701718688" lon="10.231751566752791">
        <ele>1434.9400000000001</ele>
        <time>2022-09-06T14:01:56Z</time>
      </trkpt>
      <trkpt lat="44.097643615677953" lon="10.231827925890684">
        <ele>1435.3800000000001</ele>
        <time>2022-09-06T14:02:13Z</time>
      </trkpt>
      <trkpt lat="44.097706228494644" lon="10.231906548142433">
        <ele>1437.6700000000001</ele>
        <time>2022-09-06T14:02:28Z</time>
      </trkpt>
      <trkpt lat="44.097740929573774" lon="10.231985840946436">
        <ele>1438.48</ele>
        <time>2022-09-06T14:02:43Z</time>
      </trkpt>
      <trkpt lat="44.097760794684291" lon="10.232023391872644">
        <ele>1439.76</ele>
        <time>2022-09-06T14:02:53Z</time>
      </trkpt>
      <trkpt lat="44.097797758877277" lon="10.232128584757447">
        <ele>1441.52</ele>
        <time>2022-09-06T14:03:09Z</time>
      </trkpt>
      <trkpt lat="44.097857689484954" lon="10.232241405174136">
        <ele>1443.26</ele>
        <time>2022-09-06T14:03:25Z</time>
      </trkpt>
      <trkpt lat="44.097911082208157" lon="10.23240233771503">
        <ele>1443.02</ele>
        <time>2022-09-06T14:03:40Z</time>
      </trkpt>
      <trkpt lat="44.097988028079271" lon="10.232552625238895">
        <ele>1444.5</ele>
        <time>2022-09-06T14:03:56Z</time>
      </trkpt>
      <trkpt lat="44.098005713894963" lon="10.232581626623869">
        <ele>1445.3</ele>
        <time>2022-09-06T14:04:10Z</time>
      </trkpt>
      <trkpt lat="44.098024908453226" lon="10.232640216127038">
        <ele>1446.1900000000001</ele>
        <time>2022-09-06T14:04:28Z</time>
      </trkpt>
      <trkpt lat="44.098070003092289" lon="10.232698721811175">
        <ele>1449.1400000000001</ele>
        <time>2022-09-06T14:04:45Z</time>
      </trkpt>
      <trkpt lat="44.09810084849596" lon="10.232751024886966">
        <ele>1452.0599999999999</ele>
        <time>2022-09-06T14:05:00Z</time>
      </trkpt>
      <trkpt lat="44.098130771890283" lon="10.232799891382456">
        <ele>1454.1300000000001</ele>
        <time>2022-09-06T14:05:15Z</time>
      </trkpt>
      <trkpt lat="44.098146110773087" lon="10.232855547219515">
        <ele>1455.5</ele>
        <time>2022-09-06T14:05:29Z</time>
      </trkpt>
      <trkpt lat="44.098144602030516" lon="10.232864851132035">
        <ele>1455.6400000000001</ele>
        <time>2022-09-06T14:05:46Z</time>
      </trkpt>
      <trkpt lat="44.098171759396791" lon="10.232972223311663">
        <ele>1456.3800000000001</ele>
        <time>2022-09-06T14:06:01Z</time>
      </trkpt>
      <trkpt lat="44.098153989762068" lon="10.233082277700305">
        <ele>1459.0899999999999</ele>
        <time>2022-09-06T14:06:16Z</time>
      </trkpt>
      <trkpt lat="44.098132364451885" lon="10.233143549412489">
        <ele>1461.1800000000001</ele>
        <time>2022-09-06T14:06:27Z</time>
      </trkpt>
      <trkpt lat="44.098139991983771" lon="10.233211861923337">
        <ele>1464.05</ele>
        <time>2022-09-06T14:06:43Z</time>
      </trkpt>
      <trkpt lat="44.098118953406811" lon="10.233281599357724">
        <ele>1465.98</ele>
        <time>2022-09-06T14:06:56Z</time>
      </trkpt>
      <trkpt lat="44.098117193207145" lon="10.233293166384101">
        <ele>1467.0899999999999</ele>
        <time>2022-09-06T14:07:14Z</time>
      </trkpt>
      <trkpt lat="44.098102860152721" lon="10.233333399519324">
        <ele>1468.4200000000001</ele>
        <time>2022-09-06T14:07:26Z</time>
      </trkpt>
      <trkpt lat="44.098059358075261" lon="10.233334992080927">
        <ele>1469.3800000000001</ele>
        <time>2022-09-06T14:07:40Z</time>
      </trkpt>
      <trkpt lat="44.0980573464185" lon="10.23337815888226">
        <ele>1471.76</ele>
        <time>2022-09-06T14:07:53Z</time>
      </trkpt>
      <trkpt lat="44.098062543198466" lon="10.233426941558719">
        <ele>1474.3299999999999</ele>
        <time>2022-09-06T14:08:07Z</time>
      </trkpt>
      <trkpt lat="44.098048293963075" lon="10.233495337888598">
        <ele>1475.1600000000001</ele>
        <time>2022-09-06T14:08:23Z</time>
      </trkpt>
      <trkpt lat="44.098057094961405" lon="10.233517633751035">
        <ele>1477.97</ele>
        <time>2022-09-06T14:08:38Z</time>
      </trkpt>
      <trkpt lat="44.098039828240871" lon="10.233567338436842">
        <ele>1480.3199999999999</ele>
        <time>2022-09-06T14:08:53Z</time>
      </trkpt>
      <trkpt lat="44.098030272871256" lon="10.23363271728158">
        <ele>1483.45</ele>
        <time>2022-09-06T14:09:07Z</time>
      </trkpt>
      <trkpt lat="44.098002528771758" lon="10.233683176338673">
        <ele>1486.22</ele>
        <time>2022-09-06T14:09:23Z</time>
      </trkpt>
      <trkpt lat="44.097981238737702" lon="10.233696503564715">
        <ele>1486.4400000000001</ele>
        <time>2022-09-06T14:09:45Z</time>
      </trkpt>
      <trkpt lat="44.097944609820843" lon="10.233772024512291">
        <ele>1488.52</ele>
        <time>2022-09-06T14:09:57Z</time>
      </trkpt>
      <trkpt lat="44.097895491868258" lon="10.233824411407113">
        <ele>1490.99</ele>
        <time>2022-09-06T14:10:13Z</time>
      </trkpt>
      <trkpt lat="44.097844446077943" lon="10.233849305659533">
        <ele>1493.6700000000001</ele>
        <time>2022-09-06T14:10:29Z</time>
      </trkpt>
      <trkpt lat="44.097783174365759" lon="10.233853412792087">
        <ele>1495.6400000000001</ele>
        <time>2022-09-06T14:10:45Z</time>
      </trkpt>
      <trkpt lat="44.097795579582453" lon="10.233885180205107">
        <ele>1497.4000000000001</ele>
        <time>2022-09-06T14:10:58Z</time>
      </trkpt>
      <trkpt lat="44.097831035032868" lon="10.233943937346339">
        <ele>1500.51</ele>
        <time>2022-09-06T14:11:16Z</time>
      </trkpt>
      <trkpt lat="44.097841177135706" lon="10.233998587355018">
        <ele>1502.4000000000001</ele>
        <time>2022-09-06T14:11:29Z</time>
      </trkpt>
      <trkpt lat="44.097824580967426" lon="10.234065223485231">
        <ele>1504.4100000000001</ele>
        <time>2022-09-06T14:11:43Z</time>
      </trkpt>
      <trkpt lat="44.097807062789798" lon="10.234094727784395">
        <ele>1505.47</ele>
        <time>2022-09-06T14:11:58Z</time>
      </trkpt>
      <trkpt lat="44.097774541005492" lon="10.234149126335979">
        <ele>1508.5599999999999</ele>
        <time>2022-09-06T14:12:15Z</time>
      </trkpt>
      <trkpt lat="44.097781581804156" lon="10.234218360856175">
        <ele>1510.5599999999999</ele>
        <time>2022-09-06T14:12:31Z</time>
      </trkpt>
      <trkpt lat="44.09780572168529" lon="10.234245853498578">
        <ele>1512.8900000000001</ele>
        <time>2022-09-06T14:12:44Z</time>
      </trkpt>
      <trkpt lat="44.097826424986124" lon="10.234255576506257">
        <ele>1514.99</ele>
        <time>2022-09-06T14:13:01Z</time>
      </trkpt>
      <trkpt lat="44.097811924293637" lon="10.234256582334638">
        <ele>1514.9400000000001</ele>
        <time>2022-09-06T14:13:22Z</time>
      </trkpt>
      <trkpt lat="44.09785752184689" lon="10.234285416081548">
        <ele>1516.52</ele>
        <time>2022-09-06T14:13:37Z</time>
      </trkpt>
      <trkpt lat="44.097909238189459" lon="10.234327241778374">
        <ele>1519.55</ele>
        <time>2022-09-06T14:13:50Z</time>
      </trkpt>
      <trkpt lat="44.097975371405482" lon="10.234409552067518">
        <ele>1522.25</ele>
        <time>2022-09-06T14:14:06Z</time>
      </trkpt>
      <trkpt lat="44.098001355305314" lon="10.234479121863842">
        <ele>1523.6099999999999</ele>
        <time>2022-09-06T14:14:23Z</time>
      </trkpt>
      <trkpt lat="44.097971934825182" lon="10.234510218724608">
        <ele>1525.1900000000001</ele>
        <time>2022-09-06T14:14:38Z</time>
      </trkpt>
      <trkpt lat="44.097947375848889" lon="10.234561348333955">
        <ele>1527.7</ele>
        <time>2022-09-06T14:14:52Z</time>
      </trkpt>
      <trkpt lat="44.097886523231864" lon="10.234560761600733">
        <ele>1530.22</ele>
        <time>2022-09-06T14:15:08Z</time>
      </trkpt>
      <trkpt lat="44.097896665334702" lon="10.234611136838794">
        <ele>1531.4100000000001</ele>
        <time>2022-09-06T14:15:22Z</time>
      </trkpt>
      <trkpt lat="44.097890043631196" lon="10.234650783240795">
        <ele>1533.9300000000001</ele>
        <time>2022-09-06T14:15:35Z</time>
      </trkpt>
      <trkpt lat="44.097892809659243" lon="10.2346798684448">
        <ele>1535.49</ele>
        <time>2022-09-06T14:15:49Z</time>
      </trkpt>
      <trkpt lat="44.097892725840211" lon="10.23471649736166">
        <ele>1537.5999999999999</ele>
        <time>2022-09-06T14:16:06Z</time>
      </trkpt>
      <trkpt lat="44.097837740555406" lon="10.234684478491545">
        <ele>1538.6500000000001</ele>
        <time>2022-09-06T14:16:23Z</time>
      </trkpt>
      <trkpt lat="44.097835225984454" lon="10.234680958092213">
        <ele>1538.6300000000001</ele>
        <time>2022-09-06T14:16:47Z</time>
      </trkpt>
      <trkpt lat="44.097845703363419" lon="10.234696883708239">
        <ele>1539.78</ele>
        <time>2022-09-06T14:17:12Z</time>
      </trkpt>
      <trkpt lat="44.097838243469596" lon="10.23473896086216">
        <ele>1542.1300000000001</ele>
        <time>2022-09-06T14:17:27Z</time>
      </trkpt>
      <trkpt lat="44.097824245691299" lon="10.234759328886867">
        <ele>1542.53</ele>
        <time>2022-09-06T14:17:42Z</time>
      </trkpt>
      <trkpt lat="44.097808990627527" lon="10.234780451282859">
        <ele>1543</ele>
        <time>2022-09-06T14:18:00Z</time>
      </trkpt>
      <trkpt lat="44.097790382802486" lon="10.234816744923592">
        <ele>1545.05</ele>
        <time>2022-09-06T14:18:16Z</time>
      </trkpt>
      <trkpt lat="44.097778731957078" lon="10.2348508592695">
        <ele>1547.04</ele>
        <time>2022-09-06T14:18:30Z</time>
      </trkpt>
      <trkpt lat="44.097766913473606" lon="10.234915651381016">
        <ele>1548.4400000000001</ele>
        <time>2022-09-06T14:18:45Z</time>
      </trkpt>
      <trkpt lat="44.097759872674942" lon="10.234936354681849">
        <ele>1548.53</ele>
        <time>2022-09-06T14:18:59Z</time>
      </trkpt>
      <trkpt lat="44.097748892381787" lon="10.234985975548625">
        <ele>1548.26</ele>
        <time>2022-09-06T14:19:10Z</time>
      </trkpt>
      <trkpt lat="44.097743947058916" lon="10.2350096963346">
        <ele>1548.3</ele>
        <time>2022-09-06T14:19:28Z</time>
      </trkpt>
      <trkpt lat="44.097744533792138" lon="10.23501263000071">
        <ele>1548.8299999999999</ele>
        <time>2022-09-06T14:19:47Z</time>
      </trkpt>
      <trkpt lat="44.09774168394506" lon="10.235041296109557">
        <ele>1548.6199999999999</ele>
        <time>2022-09-06T14:20:04Z</time>
      </trkpt>
      <trkpt lat="44.097725003957748" lon="10.235075997188687">
        <ele>1548.51</ele>
        <time>2022-09-06T14:20:21Z</time>
      </trkpt>
      <trkpt lat="44.097726764157414" lon="10.235102316364646">
        <ele>1548.73</ele>
        <time>2022-09-06T14:20:38Z</time>
      </trkpt>
      <trkpt lat="44.097709581255913" lon="10.235116565600038">
        <ele>1549.74</ele>
        <time>2022-09-06T14:20:56Z</time>
      </trkpt>
      <trkpt lat="44.097716873511672" lon="10.23512352257967">
        <ele>1549.1800000000001</ele>
        <time>2022-09-06T14:21:16Z</time>
      </trkpt>
      <trkpt lat="44.097724165767431" lon="10.235126037150621">
        <ele>1548.7</ele>
        <time>2022-09-06T14:21:34Z</time>
      </trkpt>
      <trkpt lat="44.097731038928032" lon="10.235165683552623">
        <ele>1548.72</ele>
        <time>2022-09-06T14:21:50Z</time>
      </trkpt>
      <trkpt lat="44.097724752500653" lon="10.235182279720902">
        <ele>1548.3699999999999</ele>
        <time>2022-09-06T14:22:06Z</time>
      </trkpt>
      <trkpt lat="44.097713185474277" lon="10.235207844525576">
        <ele>1547.5799999999999</ele>
        <time>2022-09-06T14:22:23Z</time>
      </trkpt>
      <trkpt lat="44.097702456638217" lon="10.235238019376993">
        <ele>1547.0799999999999</ele>
        <time>2022-09-06T14:22:35Z</time>
      </trkpt>
      <trkpt lat="44.097698433324695" lon="10.235285209491849">
        <ele>1547.46</ele>
        <time>2022-09-06T14:22:53Z</time>
      </trkpt>
      <trkpt lat="44.097729697823524" lon="10.235347738489509">
        <ele>1549.6800000000001</ele>
        <time>2022-09-06T14:23:09Z</time>
      </trkpt>
      <trkpt lat="44.097727602347732" lon="10.235389648005366">
        <ele>1552.0899999999999</ele>
        <time>2022-09-06T14:23:28Z</time>
      </trkpt>
      <trkpt lat="44.09770262427628" lon="10.235427618026733">
        <ele>1553.6500000000001</ele>
        <time>2022-09-06T14:23:42Z</time>
      </trkpt>
      <trkpt lat="44.097647303715348" lon="10.235487800091505">
        <ele>1553.96</ele>
        <time>2022-09-06T14:23:57Z</time>
      </trkpt>
      <trkpt lat="44.09763372503221" lon="10.235511939972639">
        <ele>1554.25</ele>
        <time>2022-09-06T14:24:12Z</time>
      </trkpt>
      <trkpt lat="44.097580835223198" lon="10.23555644787848">
        <ele>1552.0799999999999</ele>
        <time>2022-09-06T14:24:26Z</time>
      </trkpt>
      <trkpt lat="44.097535656765103" lon="10.235586455091834">
        <ele>1550.0999999999999</ele>
        <time>2022-09-06T14:24:41Z</time>
      </trkpt>
      <trkpt lat="44.097502129152417" lon="10.235660383477807">
        <ele>1548.74</ele>
        <time>2022-09-06T14:24:55Z</time>
      </trkpt>
      <trkpt lat="44.097464913502336" lon="10.235737832263112">
        <ele>1549.5</ele>
        <time>2022-09-06T14:25:08Z</time>
      </trkpt>
      <trkpt lat="44.097412275150418" lon="10.235819220542908">
        <ele>1549.6099999999999</ele>
        <time>2022-09-06T14:25:25Z</time>
      </trkpt>
      <trkpt lat="44.09735569730401" lon="10.235886694863439">
        <ele>1551.3800000000001</ele>
        <time>2022-09-06T14:25:37Z</time>
      </trkpt>
      <trkpt lat="44.097307585179806" lon="10.235916282981634">
        <ele>1552.4300000000001</ele>
        <time>2022-09-06T14:25:51Z</time>
      </trkpt>
      <trkpt lat="44.097315045073628" lon="10.235887365415692">
        <ele>1552.75</ele>
        <time>2022-09-06T14:26:07Z</time>
      </trkpt>
      <trkpt lat="44.097320744767785" lon="10.235857525840402">
        <ele>1552.4400000000001</ele>
        <time>2022-09-06T14:26:29Z</time>
      </trkpt>
      <trkpt lat="44.097363157197833" lon="10.235873032361269">
        <ele>1552.28</ele>
        <time>2022-09-06T14:27:09Z</time>
      </trkpt>
      <trkpt lat="44.097399786114693" lon="10.235867081210017">
        <ele>1552.0699999999999</ele>
        <time>2022-09-06T14:27:30Z</time>
      </trkpt>
      <trkpt lat="44.097418561577797" lon="10.235866662114859">
        <ele>1551.6600000000001</ele>
        <time>2022-09-06T14:28:11Z</time>
      </trkpt>
      <trkpt lat="44.097421830520034" lon="10.235929442569613">
        <ele>1551.52</ele>
        <time>2022-09-06T14:28:34Z</time>
      </trkpt>
      <trkpt lat="44.097413867712021" lon="10.235921312123537">
        <ele>1551.52</ele>
        <time>2022-09-06T14:29:10Z</time>
      </trkpt>
      <trkpt lat="44.097395930439234" lon="10.235929358750582">
        <ele>1551.74</ele>
        <time>2022-09-06T14:29:28Z</time>
      </trkpt>
      <trkpt lat="44.097412191331387" lon="10.235900608822703">
        <ele>1551.1900000000001</ele>
        <time>2022-09-06T14:29:43Z</time>
      </trkpt>
      <trkpt lat="44.097478743642569" lon="10.235794242471457">
        <ele>1548.9000000000001</ele>
        <time>2022-09-06T14:29:58Z</time>
      </trkpt>
      <trkpt lat="44.09751889295876" lon="10.23571914061904">
        <ele>1548.6500000000001</ele>
        <time>2022-09-06T14:30:09Z</time>
      </trkpt>
      <trkpt lat="44.097549822181463" lon="10.235638925805688">
        <ele>1548.5799999999999</ele>
        <time>2022-09-06T14:30:21Z</time>
      </trkpt>
      <trkpt lat="44.097561053931713" lon="10.235578827559948">
        <ele>1549.49</ele>
        <time>2022-09-06T14:30:33Z</time>
      </trkpt>
      <trkpt lat="44.097607741132379" lon="10.235546641051769">
        <ele>1552.1500000000001</ele>
        <time>2022-09-06T14:30:46Z</time>
      </trkpt>
      <trkpt lat="44.097683345898986" lon="10.235460894182324">
        <ele>1554.6800000000001</ele>
        <time>2022-09-06T14:31:02Z</time>
      </trkpt>
      <trkpt lat="44.097753502428532" lon="10.235393336042762">
        <ele>1554.47</ele>
        <time>2022-09-06T14:31:17Z</time>
      </trkpt>
      <trkpt lat="44.097767416387796" lon="10.235382774844766">
        <ele>1555.96</ele>
        <time>2022-09-06T14:31:32Z</time>
      </trkpt>
      <trkpt lat="44.097775798290968" lon="10.235437089577317">
        <ele>1558.77</ele>
        <time>2022-09-06T14:31:48Z</time>
      </trkpt>
      <trkpt lat="44.097813600674272" lon="10.23548218421638">
        <ele>1561.8800000000001</ele>
        <time>2022-09-06T14:32:03Z</time>
      </trkpt>
      <trkpt lat="44.097852325066924" lon="10.235478663817048">
        <ele>1564.04</ele>
        <time>2022-09-06T14:32:20Z</time>
      </trkpt>
      <trkpt lat="44.097847798839211" lon="10.23555988445878">
        <ele>1565.96</ele>
        <time>2022-09-06T14:32:35Z</time>
      </trkpt>
      <trkpt lat="44.097863892093301" lon="10.235584946349263">
        <ele>1568.1900000000001</ele>
        <time>2022-09-06T14:32:47Z</time>
      </trkpt>
      <trkpt lat="44.097858779132366" lon="10.235644541680813">
        <ele>1569.75</ele>
        <time>2022-09-06T14:33:00Z</time>
      </trkpt>
      <trkpt lat="44.097836064174771" lon="10.235707489773631">
        <ele>1571.8699999999999</ele>
        <time>2022-09-06T14:33:14Z</time>
      </trkpt>
      <trkpt lat="44.09782474860549" lon="10.235744621604681">
        <ele>1573.53</ele>
        <time>2022-09-06T14:33:28Z</time>
      </trkpt>
      <trkpt lat="44.097772445529699" lon="10.235795667394996">
        <ele>1575.47</ele>
        <time>2022-09-06T14:33:43Z</time>
      </trkpt>
      <trkpt lat="44.097769511863589" lon="10.235849814489484">
        <ele>1578.53</ele>
        <time>2022-09-06T14:33:57Z</time>
      </trkpt>
      <trkpt lat="44.097791807726026" lon="10.235883006826043">
        <ele>1580.6600000000001</ele>
        <time>2022-09-06T14:34:12Z</time>
      </trkpt>
      <trkpt lat="44.097823826596141" lon="10.235895914956927">
        <ele>1583.3499999999999</ele>
        <time>2022-09-06T14:34:27Z</time>
      </trkpt>
      <trkpt lat="44.097838997840881" lon="10.23593807592988">
        <ele>1586.3299999999999</ele>
        <time>2022-09-06T14:34:47Z</time>
      </trkpt>
      <trkpt lat="44.097821228206158" lon="10.235982416197658">
        <ele>1588.0799999999999</ele>
        <time>2022-09-06T14:35:03Z</time>
      </trkpt>
      <trkpt lat="44.09778174944222" lon="10.236037401482463">
        <ele>1589.52</ele>
        <time>2022-09-06T14:35:23Z</time>
      </trkpt>
      <trkpt lat="44.097791891545057" lon="10.236022984609008">
        <ele>1589.46</ele>
        <time>2022-09-06T14:35:47Z</time>
      </trkpt>
      <trkpt lat="44.097783342003822" lon="10.236029857769608">
        <ele>1589.8</ele>
        <time>2022-09-06T14:36:06Z</time>
      </trkpt>
      <trkpt lat="44.097784347832203" lon="10.236022984609008">
        <ele>1590.1099999999999</ele>
        <time>2022-09-06T14:36:28Z</time>
      </trkpt>
      <trkpt lat="44.097800608724356" lon="10.236046621575952">
        <ele>1591.4100000000001</ele>
        <time>2022-09-06T14:36:49Z</time>
      </trkpt>
      <trkpt lat="44.097812511026859" lon="10.236053746193647">
        <ele>1591.6099999999999</ele>
        <time>2022-09-06T14:37:22Z</time>
      </trkpt>
      <trkpt lat="44.097815863788128" lon="10.236051985993981">
        <ele>1591.9400000000001</ele>
        <time>2022-09-06T14:37:54Z</time>
      </trkpt>
      <trkpt lat="44.097842937335372" lon="10.236039748415351">
        <ele>1591.6700000000001</ele>
        <time>2022-09-06T14:38:19Z</time>
      </trkpt>
      <trkpt lat="44.097840255126357" lon="10.236035222187638">
        <ele>1591.8599999999999</ele>
        <time>2022-09-06T14:38:38Z</time>
      </trkpt>
      <trkpt lat="44.097846457734704" lon="10.236045448109508">
        <ele>1591.71</ele>
        <time>2022-09-06T14:39:00Z</time>
      </trkpt>
      <trkpt lat="44.097837656736374" lon="10.236031785607338">
        <ele>1591.95</ele>
        <time>2022-09-06T14:39:21Z</time>
      </trkpt>
      <trkpt lat="44.097815109416842" lon="10.236049387603998">
        <ele>1591.6700000000001</ele>
        <time>2022-09-06T14:39:38Z</time>
      </trkpt>
      <trkpt lat="44.097815612331033" lon="10.236043939366937">
        <ele>1591.71</ele>
        <time>2022-09-06T14:40:00Z</time>
      </trkpt>
      <trkpt lat="44.097832376137376" lon="10.236048549413681">
        <ele>1592.23</ele>
        <time>2022-09-06T14:40:31Z</time>
      </trkpt>
      <trkpt lat="44.097827095538378" lon="10.236043436452746">
        <ele>1591.99</ele>
        <time>2022-09-06T14:40:55Z</time>
      </trkpt>
      <trkpt lat="44.097801446914673" lon="10.236038155853748">
        <ele>1591.21</ele>
        <time>2022-09-06T14:41:12Z</time>
      </trkpt>
      <trkpt lat="44.09773388877511" lon="10.236062295734882">
        <ele>1590.23</ele>
        <time>2022-09-06T14:41:27Z</time>
      </trkpt>
      <trkpt lat="44.097733218222857" lon="10.236065313220024">
        <ele>1590.23</ele>
        <time>2022-09-06T14:41:45Z</time>
      </trkpt>
      <trkpt lat="44.097727183252573" lon="10.236075790598989">
        <ele>1590.46</ele>
        <time>2022-09-06T14:42:03Z</time>
      </trkpt>
      <trkpt lat="44.097783761098981" lon="10.236038574948907">
        <ele>1591.1900000000001</ele>
        <time>2022-09-06T14:42:16Z</time>
      </trkpt>
      <trkpt lat="44.097887445241213" lon="10.236020302399993">
        <ele>1592.74</ele>
        <time>2022-09-06T14:42:33Z</time>
      </trkpt>
      <trkpt lat="44.097962295636535" lon="10.235981326550245">
        <ele>1592.24</ele>
        <time>2022-09-06T14:42:44Z</time>
      </trkpt>
      <trkpt lat="44.098047371953726" lon="10.235933633521199">
        <ele>1592.72</ele>
        <time>2022-09-06T14:42:56Z</time>
      </trkpt>
      <trkpt lat="44.09811501391232" lon="10.235816789790988">
        <ele>1593.97</ele>
        <time>2022-09-06T14:43:11Z</time>
      </trkpt>
      <trkpt lat="44.098149966448545" lon="10.235808407887816">
        <ele>1595.5899999999999</ele>
        <time>2022-09-06T14:43:23Z</time>
      </trkpt>
      <trkpt lat="44.098184583708644" lon="10.235815113410354">
        <ele>1597.5999999999999</ele>
        <time>2022-09-06T14:43:37Z</time>
      </trkpt>
      <trkpt lat="44.098218530416489" lon="10.23575141094625">
        <ele>1599.1900000000001</ele>
        <time>2022-09-06T14:43:53Z</time>
      </trkpt>
      <trkpt lat="44.098269576206803" lon="10.235776137560606">
        <ele>1600.05</ele>
        <time>2022-09-06T14:44:07Z</time>
      </trkpt>
      <trkpt lat="44.098307630047202" lon="10.23576800711453">
        <ele>1599.3800000000001</ele>
        <time>2022-09-06T14:44:22Z</time>
      </trkpt>
      <trkpt lat="44.098370410501957" lon="10.235711596906185">
        <ele>1599.5899999999999</ele>
        <time>2022-09-06T14:44:35Z</time>
      </trkpt>
      <trkpt lat="44.098390443250537" lon="10.235671615228057">
        <ele>1601.3900000000001</ele>
        <time>2022-09-06T14:44:50Z</time>
      </trkpt>
      <trkpt lat="44.098447021096945" lon="10.235633729025722">
        <ele>1603.79</ele>
        <time>2022-09-06T14:45:05Z</time>
      </trkpt>
      <trkpt lat="44.098508208990097" lon="10.235604727640748">
        <ele>1606.5</ele>
        <time>2022-09-06T14:45:21Z</time>
      </trkpt>
      <trkpt lat="44.098516423255205" lon="10.235567763447762">
        <ele>1608.1700000000001</ele>
        <time>2022-09-06T14:45:35Z</time>
      </trkpt>
      <trkpt lat="44.098518770188093" lon="10.235587041825056">
        <ele>1607.51</ele>
        <time>2022-09-06T14:45:56Z</time>
      </trkpt>
      <trkpt lat="44.098517848178744" lon="10.235591065138578">
        <ele>1603.8099999999999</ele>
        <time>2022-09-06T14:46:13Z</time>
      </trkpt>
      <trkpt lat="44.098517680540681" lon="10.235591903328896">
        <ele>1603.8099999999999</ele>
        <time>2022-09-06T14:46:14Z</time>
      </trkpt>
      <trkpt lat="44.098511142656207" lon="10.235595675185323">
        <ele>1609.01</ele>
        <time>2022-09-06T14:46:20Z</time>
      </trkpt>
      <trkpt lat="44.098509969189763" lon="10.235596094280481">
        <ele>1608.4400000000001</ele>
        <time>2022-09-06T14:46:21Z</time>
      </trkpt>
      <trkpt lat="44.098510723561049" lon="10.235596094280481">
        <ele>1607.8399999999999</ele>
        <time>2022-09-06T14:46:40Z</time>
      </trkpt>
      <trkpt lat="44.098516255617142" lon="10.235599530860782">
        <ele>1607.8900000000001</ele>
        <time>2022-09-06T14:47:09Z</time>
      </trkpt>
      <trkpt lat="44.098553722724319" lon="10.235585533082485">
        <ele>1608.9000000000001</ele>
        <time>2022-09-06T14:47:25Z</time>
      </trkpt>
      <trkpt lat="44.098599655553699" lon="10.23557597771287">
        <ele>1612.2</ele>
        <time>2022-09-06T14:47:40Z</time>
      </trkpt>
      <trkpt lat="44.098631255328655" lon="10.235576229169965">
        <ele>1613.6900000000001</ele>
        <time>2022-09-06T14:47:54Z</time>
      </trkpt>
      <trkpt lat="44.098687665537" lon="10.235587963834405">
        <ele>1616.04</ele>
        <time>2022-09-06T14:48:10Z</time>
      </trkpt>
      <trkpt lat="44.098747009411454" lon="10.235628196969628">
        <ele>1616.6500000000001</ele>
        <time>2022-09-06T14:48:24Z</time>
      </trkpt>
      <trkpt lat="44.098813310265541" lon="10.23567371070385">
        <ele>1617.04</ele>
        <time>2022-09-06T14:48:35Z</time>
      </trkpt>
      <trkpt lat="44.098910205066204" lon="10.235686870291829">
        <ele>1617.5999999999999</ele>
        <time>2022-09-06T14:48:49Z</time>
      </trkpt>
      <trkpt lat="44.098979691043496" lon="10.235674967989326">
        <ele>1617.8900000000001</ele>
        <time>2022-09-06T14:48:59Z</time>
      </trkpt>
      <trkpt lat="44.099075412377715" lon="10.235626185312867">
        <ele>1617.79</ele>
        <time>2022-09-06T14:49:13Z</time>
      </trkpt>
      <trkpt lat="44.099157890304923" lon="10.235580252483487">
        <ele>1618.0899999999999</ele>
        <time>2022-09-06T14:49:26Z</time>
      </trkpt>
      <trkpt lat="44.099170882254839" lon="10.23557354696095">
        <ele>1617.76</ele>
        <time>2022-09-06T14:49:38Z</time>
      </trkpt>
      <trkpt lat="44.099172977730632" lon="10.235580671578646">
        <ele>1617.6800000000001</ele>
        <time>2022-09-06T14:49:58Z</time>
      </trkpt>
      <trkpt lat="44.09917582757771" lon="10.235593412071466">
        <ele>1617.79</ele>
        <time>2022-09-06T14:50:26Z</time>
      </trkpt>
      <trkpt lat="44.099226789548993" lon="10.235570361837745">
        <ele>1618.3599999999999</ele>
        <time>2022-09-06T14:50:47Z</time>
      </trkpt>
      <trkpt lat="44.099264172837138" lon="10.235516717657447">
        <ele>1621.48</ele>
        <time>2022-09-06T14:51:04Z</time>
      </trkpt>
      <trkpt lat="44.099323600530624" lon="10.235458882525563">
        <ele>1624.1300000000001</ele>
        <time>2022-09-06T14:51:19Z</time>
      </trkpt>
      <trkpt lat="44.099355284124613" lon="10.235414961352944">
        <ele>1626.27</ele>
        <time>2022-09-06T14:51:30Z</time>
      </trkpt>
      <trkpt lat="44.099407838657498" lon="10.235429713502526">
        <ele>1628.1700000000001</ele>
        <time>2022-09-06T14:51:43Z</time>
      </trkpt>
      <trkpt lat="44.099484952166677" lon="10.235423846170306">
        <ele>1629.6500000000001</ele>
        <time>2022-09-06T14:51:58Z</time>
      </trkpt>
      <trkpt lat="44.099527867510915" lon="10.235377242788672">
        <ele>1631.95</ele>
        <time>2022-09-06T14:52:12Z</time>
      </trkpt>
      <trkpt lat="44.099605064839125" lon="10.235363412648439">
        <ele>1633.8099999999999</ele>
        <time>2022-09-06T14:52:27Z</time>
      </trkpt>
      <trkpt lat="44.099668683484197" lon="10.235403729602695">
        <ele>1634.5699999999999</ele>
        <time>2022-09-06T14:52:39Z</time>
      </trkpt>
      <trkpt lat="44.099755687639117" lon="10.235457457602024">
        <ele>1636.1800000000001</ele>
        <time>2022-09-06T14:52:54Z</time>
      </trkpt>
      <trkpt lat="44.099767087027431" lon="10.235472461208701">
        <ele>1636.5999999999999</ele>
        <time>2022-09-06T14:53:07Z</time>
      </trkpt>
      <trkpt lat="44.099770439788699" lon="10.235475562512875">
        <ele>1636.28</ele>
        <time>2022-09-06T14:53:28Z</time>
      </trkpt>
      <trkpt lat="44.099772786721587" lon="10.235479585826397">
        <ele>1636.4400000000001</ele>
        <time>2022-09-06T14:53:51Z</time>
      </trkpt>
      <trkpt lat="44.099766667932272" lon="10.235482351854444">
        <ele>1636.6400000000001</ele>
        <time>2022-09-06T14:54:13Z</time>
      </trkpt>
      <trkpt lat="44.099775133654475" lon="10.235489308834076">
        <ele>1636.3699999999999</ele>
        <time>2022-09-06T14:54:36Z</time>
      </trkpt>
      <trkpt lat="44.099779576063156" lon="10.2354880515486">
        <ele>1636.6099999999999</ele>
        <time>2022-09-06T14:54:56Z</time>
      </trkpt>
      <trkpt lat="44.099782928824425" lon="10.235489560291171">
        <ele>1636.48</ele>
        <time>2022-09-06T14:55:17Z</time>
      </trkpt>
      <trkpt lat="44.099768176674843" lon="10.235489308834076">
        <ele>1636.3099999999999</ele>
        <time>2022-09-06T14:55:35Z</time>
      </trkpt>
      <trkpt lat="44.099759459495544" lon="10.235482770949602">
        <ele>1637.1800000000001</ele>
        <time>2022-09-06T14:55:55Z</time>
      </trkpt>
      <trkpt lat="44.099761890247464" lon="10.235481346026063">
        <ele>1637.1500000000001</ele>
        <time>2022-09-06T14:56:08Z</time>
      </trkpt>
      <trkpt lat="44.099772116169333" lon="10.2354846149683">
        <ele>1636.9300000000001</ele>
        <time>2022-09-06T14:56:24Z</time>
      </trkpt>
      <trkpt lat="44.099776055663824" lon="10.23548855446279">
        <ele>1637.05</ele>
        <time>2022-09-06T14:56:48Z</time>
      </trkpt>
      <trkpt lat="44.099776558578014" lon="10.235499031841755">
        <ele>1637.1199999999999</ele>
        <time>2022-09-06T14:57:01Z</time>
      </trkpt>
      <trkpt lat="44.099774211645126" lon="10.235491320490837">
        <ele>1637.53</ele>
        <time>2022-09-06T14:57:25Z</time>
      </trkpt>
      <trkpt lat="44.099777480587363" lon="10.235490817576647">
        <ele>1637.6300000000001</ele>
        <time>2022-09-06T14:57:57Z</time>
      </trkpt>
      <trkpt lat="44.099775552749634" lon="10.235498528927565">
        <ele>1637.76</ele>
        <time>2022-09-06T14:58:18Z</time>
      </trkpt>
      <trkpt lat="44.099772870540619" lon="10.235489308834076">
        <ele>1637.7</ele>
        <time>2022-09-06T14:58:34Z</time>
      </trkpt>
      <trkpt lat="44.099773708730936" lon="10.235485285520554">
        <ele>1637.5799999999999</ele>
        <time>2022-09-06T14:58:52Z</time>
      </trkpt>
      <trkpt lat="44.099773205816746" lon="10.23548168130219">
        <ele>1637.48</ele>
        <time>2022-09-06T14:59:11Z</time>
      </trkpt>
      <trkpt lat="44.099820228293538" lon="10.235465671867132">
        <ele>1636.5</ele>
        <time>2022-09-06T14:59:28Z</time>
      </trkpt>
      <trkpt lat="44.099847637116909" lon="10.235549407079816">
        <ele>1635.01</ele>
        <time>2022-09-06T14:59:41Z</time>
      </trkpt>
      <trkpt lat="44.099899856373668" lon="10.235588382929564">
        <ele>1633.0899999999999</ele>
        <time>2022-09-06T14:59:54Z</time>
      </trkpt>
      <trkpt lat="44.099941682070494" lon="10.235498948022723">
        <ele>1631.0799999999999</ele>
        <time>2022-09-06T15:00:07Z</time>
      </trkpt>
      <trkpt lat="44.099998092278838" lon="10.235435161739588">
        <ele>1628.24</ele>
        <time>2022-09-06T15:00:21Z</time>
      </trkpt>
      <trkpt lat="44.10004410892725" lon="10.235330974683166">
        <ele>1625.52</ele>
        <time>2022-09-06T15:00:35Z</time>
      </trkpt>
      <trkpt lat="44.100103871896863" lon="10.235314797610044">
        <ele>1623.45</ele>
        <time>2022-09-06T15:00:48Z</time>
      </trkpt>
      <trkpt lat="44.100163299590349" lon="10.235331309959292">
        <ele>1621.1099999999999</ele>
        <time>2022-09-06T15:01:01Z</time>
      </trkpt>
      <trkpt lat="44.10017897374928" lon="10.235449159517884">
        <ele>1618.9300000000001</ele>
        <time>2022-09-06T15:01:13Z</time>
      </trkpt>
      <trkpt lat="44.100195067003369" lon="10.235574636608362">
        <ele>1617.0799999999999</ele>
        <time>2022-09-06T15:01:26Z</time>
      </trkpt>
      <trkpt lat="44.100256422534585" lon="10.235491823405027">
        <ele>1614.9400000000001</ele>
        <time>2022-09-06T15:01:38Z</time>
      </trkpt>
      <trkpt lat="44.100323729217052" lon="10.235375566408038">
        <ele>1612.3399999999999</ele>
        <time>2022-09-06T15:01:53Z</time>
      </trkpt>
      <trkpt lat="44.100363794714212" lon="10.235330974683166">
        <ele>1609.8299999999999</ele>
        <time>2022-09-06T15:02:03Z</time>
      </trkpt>
      <trkpt lat="44.100438393652439" lon="10.235229972749949">
        <ele>1608.0799999999999</ele>
        <time>2022-09-06T15:02:16Z</time>
      </trkpt>
      <trkpt lat="44.100483655929565" lon="10.235145064070821">
        <ele>1608.27</ele>
        <time>2022-09-06T15:02:27Z</time>
      </trkpt>
      <trkpt lat="44.100500419735909" lon="10.235129557549953">
        <ele>1607.9200000000001</ele>
        <time>2022-09-06T15:02:29Z</time>
      </trkpt>
      <trkpt lat="44.100561272352934" lon="10.235017156228423">
        <ele>1608.8299999999999</ele>
        <time>2022-09-06T15:02:42Z</time>
      </trkpt>
      <trkpt lat="44.100618017837405" lon="10.23495202884078">
        <ele>1609.5699999999999</ele>
        <time>2022-09-06T15:02:51Z</time>
      </trkpt>
      <trkpt lat="44.10069789737463" lon="10.234839459881186">
        <ele>1608.6300000000001</ele>
        <time>2022-09-06T15:03:05Z</time>
      </trkpt>
      <trkpt lat="44.100794456899166" lon="10.234721777960658">
        <ele>1609.78</ele>
        <time>2022-09-06T15:03:21Z</time>
      </trkpt>
      <trkpt lat="44.100833348929882" lon="10.234702415764332">
        <ele>1609.97</ele>
        <time>2022-09-06T15:03:26Z</time>
      </trkpt>
      <trkpt lat="44.100870061665773" lon="10.234696632251143">
        <ele>1609.1700000000001</ele>
        <time>2022-09-06T15:03:37Z</time>
      </trkpt>
      <trkpt lat="44.10088749602437" lon="10.234672408550978">
        <ele>1609.3499999999999</ele>
        <time>2022-09-06T15:03:52Z</time>
      </trkpt>
      <trkpt lat="44.100959580391645" lon="10.234636953100562">
        <ele>1611.7</ele>
        <time>2022-09-06T15:04:06Z</time>
      </trkpt>
      <trkpt lat="44.101022612303495" lon="10.234534358605742">
        <ele>1613.8399999999999</ele>
        <time>2022-09-06T15:04:21Z</time>
      </trkpt>
      <trkpt lat="44.101123195141554" lon="10.234486162662506">
        <ele>1616.6800000000001</ele>
        <time>2022-09-06T15:04:38Z</time>
      </trkpt>
      <trkpt lat="44.101193435490131" lon="10.234394799917936">
        <ele>1618.9400000000001</ele>
        <time>2022-09-06T15:04:54Z</time>
      </trkpt>
      <trkpt lat="44.101197458803654" lon="10.234390525147319">
        <ele>1619.0999999999999</ele>
        <time>2022-09-06T15:04:55Z</time>
      </trkpt>
      <trkpt lat="44.101273315027356" lon="10.234319278970361">
        <ele>1619.8900000000001</ele>
        <time>2022-09-06T15:05:08Z</time>
      </trkpt>
      <trkpt lat="44.101343723013997" lon="10.234277034178376">
        <ele>1623.04</ele>
        <time>2022-09-06T15:05:23Z</time>
      </trkpt>
      <trkpt lat="44.101374819874763" lon="10.234263455495238">
        <ele>1623.8599999999999</ele>
        <time>2022-09-06T15:05:37Z</time>
      </trkpt>
      <trkpt lat="44.10138588398695" lon="10.234263455495238">
        <ele>1623.9000000000001</ele>
        <time>2022-09-06T15:06:04Z</time>
      </trkpt>
      <trkpt lat="44.10138638690114" lon="10.23426597006619">
        <ele>1623.8199999999999</ele>
        <time>2022-09-06T15:06:31Z</time>
      </trkpt>
      <trkpt lat="44.101361995562911" lon="10.234257588163018">
        <ele>1623.8599999999999</ele>
        <time>2022-09-06T15:06:48Z</time>
      </trkpt>
      <trkpt lat="44.101360151544213" lon="10.234258091077209">
        <ele>1624.0999999999999</ele>
        <time>2022-09-06T15:07:02Z</time>
      </trkpt>
      <trkpt lat="44.101355038583279" lon="10.234204027801752">
        <ele>1624.8699999999999</ele>
        <time>2022-09-06T15:07:20Z</time>
      </trkpt>
      <trkpt lat="44.101320505142212" lon="10.234084501862526">
        <ele>1627.0999999999999</ele>
        <time>2022-09-06T15:07:37Z</time>
      </trkpt>
      <trkpt lat="44.10133458673954" lon="10.234086848795414">
        <ele>1627.1199999999999</ele>
        <time>2022-09-06T15:07:56Z</time>
      </trkpt>
      <trkpt lat="44.101345902308822" lon="10.234075952321291">
        <ele>1627.05</ele>
        <time>2022-09-06T15:08:19Z</time>
      </trkpt>
      <trkpt lat="44.101348081603646" lon="10.233995905146003">
        <ele>1626.8199999999999</ele>
        <time>2022-09-06T15:08:34Z</time>
      </trkpt>
      <trkpt lat="44.101348081603646" lon="10.23397671058774">
        <ele>1626.1700000000001</ele>
        <time>2022-09-06T15:08:51Z</time>
      </trkpt>
      <trkpt lat="44.101321343332529" lon="10.233935052528977">
        <ele>1625.3900000000001</ele>
        <time>2022-09-06T15:09:09Z</time>
      </trkpt>
      <trkpt lat="44.101284127682447" lon="10.233904793858528">
        <ele>1624.8699999999999</ele>
        <time>2022-09-06T15:09:14Z</time>
      </trkpt>
      <trkpt lat="44.101191675290465" lon="10.233837654814124">
        <ele>1625.5899999999999</ele>
        <time>2022-09-06T15:09:26Z</time>
      </trkpt>
      <trkpt lat="44.101162422448397" lon="10.233772527426481">
        <ele>1625.3199999999999</ele>
        <time>2022-09-06T15:09:40Z</time>
      </trkpt>
      <trkpt lat="44.101157896220684" lon="10.233770348131657">
        <ele>1625.51</ele>
        <time>2022-09-06T15:09:57Z</time>
      </trkpt>
      <trkpt lat="44.101176671683788" lon="10.23374117910862">
        <ele>1624.6800000000001</ele>
        <time>2022-09-06T15:10:17Z</time>
      </trkpt>
      <trkpt lat="44.101167367771268" lon="10.233653588220477">
        <ele>1622.3900000000001</ele>
        <time>2022-09-06T15:10:27Z</time>
      </trkpt>
      <trkpt lat="44.101193184033036" lon="10.233613941818476">
        <ele>1620.8099999999999</ele>
        <time>2022-09-06T15:10:40Z</time>
      </trkpt>
      <trkpt lat="44.101206846535206" lon="10.233629113063216">
        <ele>1620.96</ele>
        <time>2022-09-06T15:10:55Z</time>
      </trkpt>
      <trkpt lat="44.101196452975273" lon="10.233633890748024">
        <ele>1621.3</ele>
        <time>2022-09-06T15:11:34Z</time>
      </trkpt>
      <trkpt lat="44.101205337792635" lon="10.23365618661046">
        <ele>1620.0699999999999</ele>
        <time>2022-09-06T15:12:10Z</time>
      </trkpt>
      <trkpt lat="44.101286893710494" lon="10.233762301504612">
        <ele>1618.3</ele>
        <time>2022-09-06T15:12:25Z</time>
      </trkpt>
      <trkpt lat="44.10139124840498" lon="10.233715195208788">
        <ele>1616.51</ele>
        <time>2022-09-06T15:12:39Z</time>
      </trkpt>
      <trkpt lat="44.101460231468081" lon="10.23368108086288">
        <ele>1614.3199999999999</ele>
        <time>2022-09-06T15:12:53Z</time>
      </trkpt>
      <trkpt lat="44.101504571735859" lon="10.233674207702279">
        <ele>1613.49</ele>
        <time>2022-09-06T15:13:09Z</time>
      </trkpt>
      <trkpt lat="44.101587971672416" lon="10.233597094193101">
        <ele>1611.0799999999999</ele>
        <time>2022-09-06T15:13:22Z</time>
      </trkpt>
      <trkpt lat="44.101667096838355" lon="10.233471030369401">
        <ele>1609.3699999999999</ele>
        <time>2022-09-06T15:13:35Z</time>
      </trkpt>
      <trkpt lat="44.101748317480087" lon="10.233412021771073">
        <ele>1606.9200000000001</ele>
        <time>2022-09-06T15:13:46Z</time>
      </trkpt>
      <trkpt lat="44.101849319413304" lon="10.233381344005466">
        <ele>1604.4200000000001</ele>
        <time>2022-09-06T15:14:00Z</time>
      </trkpt>
      <trkpt lat="44.101900029927492" lon="10.233313450589776">
        <ele>1602.3499999999999</ele>
        <time>2022-09-06T15:14:08Z</time>
      </trkpt>
      <trkpt lat="44.101981753483415" lon="10.233188392594457">
        <ele>1599.6800000000001</ele>
        <time>2022-09-06T15:14:21Z</time>
      </trkpt>
      <trkpt lat="44.102054005488753" lon="10.233063837513328">
        <ele>1596.6300000000001</ele>
        <time>2022-09-06T15:14:34Z</time>
      </trkpt>
      <trkpt lat="44.102063728496432" lon="10.233013713732362">
        <ele>1595.8199999999999</ele>
        <time>2022-09-06T15:14:48Z</time>
      </trkpt>
      <trkpt lat="44.102078732103109" lon="10.23297306150198">
        <ele>1595.3399999999999</ele>
        <time>2022-09-06T15:14:52Z</time>
      </trkpt>
      <trkpt lat="44.10210320726037" lon="10.232834927737713">
        <ele>1592.72</ele>
        <time>2022-09-06T15:15:05Z</time>
      </trkpt>
      <trkpt lat="44.102107817307115" lon="10.232773153111339">
        <ele>1591.5899999999999</ele>
        <time>2022-09-06T15:15:18Z</time>
      </trkpt>
      <trkpt lat="44.102118881419301" lon="10.232714144513011">
        <ele>1589.8399999999999</ele>
        <time>2022-09-06T15:15:30Z</time>
      </trkpt>
      <trkpt lat="44.102128269150853" lon="10.232663182541728">
        <ele>1588.6700000000001</ele>
        <time>2022-09-06T15:15:41Z</time>
      </trkpt>
      <trkpt lat="44.102155761793256" lon="10.232587242498994">
        <ele>1586.8900000000001</ele>
        <time>2022-09-06T15:15:55Z</time>
      </trkpt>
      <trkpt lat="44.102181494235992" lon="10.232496717944741">
        <ele>1584.8</ele>
        <time>2022-09-06T15:16:06Z</time>
      </trkpt>
      <trkpt lat="44.102206723764539" lon="10.23238624446094">
        <ele>1582.6600000000001</ele>
        <time>2022-09-06T15:16:17Z</time>
      </trkpt>
      <trkpt lat="44.102235725149512" lon="10.232244590297341">
        <ele>1580.0699999999999</ele>
        <time>2022-09-06T15:16:30Z</time>
      </trkpt>
      <trkpt lat="44.102242346853018" lon="10.232199747115374">
        <ele>1579.3900000000001</ele>
        <time>2022-09-06T15:16:34Z</time>
      </trkpt>
      <trkpt lat="44.102253830060363" lon="10.232045855373144">
        <ele>1576.3399999999999</ele>
        <time>2022-09-06T15:16:48Z</time>
      </trkpt>
      <trkpt lat="44.102256847545505" lon="10.231895567849278">
        <ele>1573.1400000000001</ele>
        <time>2022-09-06T15:17:01Z</time>
      </trkpt>
      <trkpt lat="44.102266738191247" lon="10.231809318065643">
        <ele>1572.0599999999999</ele>
        <time>2022-09-06T15:17:11Z</time>
      </trkpt>
      <trkpt lat="44.102280233055353" lon="10.231678644195199">
        <ele>1569.4400000000001</ele>
        <time>2022-09-06T15:17:24Z</time>
      </trkpt>
      <trkpt lat="44.102289201691747" lon="10.231556016951799">
        <ele>1568.0599999999999</ele>
        <time>2022-09-06T15:17:36Z</time>
      </trkpt>
      <trkpt lat="44.102290794253349" lon="10.231481837108731">
        <ele>1566.95</ele>
        <time>2022-09-06T15:17:43Z</time>
      </trkpt>
      <trkpt lat="44.102282244712114" lon="10.231324760243297">
        <ele>1564.99</ele>
        <time>2022-09-06T15:17:55Z</time>
      </trkpt>
      <trkpt lat="44.102261792868376" lon="10.231290059164166">
        <ele>1564.51</ele>
        <time>2022-09-06T15:17:59Z</time>
      </trkpt>
      <trkpt lat="44.102236479520798" lon="10.231386283412576">
        <ele>1562.3</ele>
        <time>2022-09-06T15:18:10Z</time>
      </trkpt>
      <trkpt lat="44.102236898615956" lon="10.231410339474678">
        <ele>1561.99</ele>
        <time>2022-09-06T15:18:12Z</time>
      </trkpt>
      <trkpt lat="44.102217787876725" lon="10.231518968939781">
        <ele>1561.1600000000001</ele>
        <time>2022-09-06T15:18:21Z</time>
      </trkpt>
      <trkpt lat="44.102192223072052" lon="10.231561381369829">
        <ele>1560.3399999999999</ele>
        <time>2022-09-06T15:18:25Z</time>
      </trkpt>
      <trkpt lat="44.102103961631656" lon="10.231687612831593">
        <ele>1557.5999999999999</ele>
        <time>2022-09-06T15:18:38Z</time>
      </trkpt>
      <trkpt lat="44.102036152034998" lon="10.231776293367147">
        <ele>1555.1400000000001</ele>
        <time>2022-09-06T15:18:48Z</time>
      </trkpt>
      <trkpt lat="44.101995583623648" lon="10.231850808486342">
        <ele>1553.3299999999999</ele>
        <time>2022-09-06T15:18:55Z</time>
      </trkpt>
      <trkpt lat="44.101928025484085" lon="10.231958348304033">
        <ele>1550.6099999999999</ele>
        <time>2022-09-06T15:19:07Z</time>
      </trkpt>
      <trkpt lat="44.101845463737845" lon="10.232058009132743">
        <ele>1548.96</ele>
        <time>2022-09-06T15:19:19Z</time>
      </trkpt>
      <trkpt lat="44.101765919476748" lon="10.232138894498348">
        <ele>1546.3800000000001</ele>
        <time>2022-09-06T15:19:32Z</time>
      </trkpt>
      <trkpt lat="44.101699534803629" lon="10.232226988300681">
        <ele>1543.25</ele>
        <time>2022-09-06T15:19:44Z</time>
      </trkpt>
      <trkpt lat="44.101680088788271" lon="10.232262695208192">
        <ele>1542.5799999999999</ele>
        <time>2022-09-06T15:19:47Z</time>
      </trkpt>
      <trkpt lat="44.10162040963769" lon="10.23232220672071">
        <ele>1541.3699999999999</ele>
        <time>2022-09-06T15:19:55Z</time>
      </trkpt>
      <trkpt lat="44.101482443511486" lon="10.232345089316368">
        <ele>1539.04</ele>
        <time>2022-09-06T15:20:09Z</time>
      </trkpt>
      <trkpt lat="44.1013746522367" lon="10.232352884486318">
        <ele>1536.51</ele>
        <time>2022-09-06T15:20:20Z</time>
      </trkpt>
      <trkpt lat="44.101314721629024" lon="10.232318770140409">
        <ele>1534.97</ele>
        <time>2022-09-06T15:20:27Z</time>
      </trkpt>
      <trkpt lat="44.101252444088459" lon="10.232271077111363">
        <ele>1534.0899999999999</ele>
        <time>2022-09-06T15:20:35Z</time>
      </trkpt>
      <trkpt lat="44.101185472682118" lon="10.232231011614203">
        <ele>1532.4000000000001</ele>
        <time>2022-09-06T15:20:43Z</time>
      </trkpt>
      <trkpt lat="44.101157477125525" lon="10.232231011614203">
        <ele>1531.8900000000001</ele>
        <time>2022-09-06T15:20:46Z</time>
      </trkpt>
      <trkpt lat="44.101108778268099" lon="10.232191951945424">
        <ele>1531.1900000000001</ele>
        <time>2022-09-06T15:20:54Z</time>
      </trkpt>
      <trkpt lat="44.101092601194978" lon="10.232183653861284">
        <ele>1531.0999999999999</ele>
        <time>2022-09-06T15:20:56Z</time>
      </trkpt>
      <trkpt lat="44.101072736084461" lon="10.232173595577478">
        <ele>1530.6800000000001</ele>
        <time>2022-09-06T15:20:58Z</time>
      </trkpt>
      <trkpt lat="44.101000903174281" lon="10.23206664249301">
        <ele>1528.3199999999999</ele>
        <time>2022-09-06T15:21:11Z</time>
      </trkpt>
      <trkpt lat="44.100940972566605" lon="10.232006292790174">
        <ele>1526.3299999999999</ele>
        <time>2022-09-06T15:21:22Z</time>
      </trkpt>
      <trkpt lat="44.100887160748243" lon="10.231982823461294">
        <ele>1524.28</ele>
        <time>2022-09-06T15:21:32Z</time>
      </trkpt>
      <trkpt lat="44.100808370858431" lon="10.23194057866931">
        <ele>1522.1400000000001</ele>
        <time>2022-09-06T15:21:44Z</time>
      </trkpt>
      <trkpt lat="44.100766545161605" lon="10.231917193159461">
        <ele>1520.71</ele>
        <time>2022-09-06T15:21:50Z</time>
      </trkpt>
      <trkpt lat="44.100683564320207" lon="10.231904536485672">
        <ele>1519.8800000000001</ele>
        <time>2022-09-06T15:22:01Z</time>
      </trkpt>
      <trkpt lat="44.100656909868121" lon="10.231923144310713">
        <ele>1518.3199999999999</ele>
        <time>2022-09-06T15:22:06Z</time>
      </trkpt>
      <trkpt lat="44.100604606792331" lon="10.231959437951446">
        <ele>1516.8599999999999</ele>
        <time>2022-09-06T15:22:16Z</time>
      </trkpt>
      <trkpt lat="44.100544927641749" lon="10.231963293626904">
        <ele>1514.6400000000001</ele>
        <time>2022-09-06T15:22:24Z</time>
      </trkpt>
      <trkpt lat="44.100488182157278" lon="10.231976369395852">
        <ele>1514.1199999999999</ele>
        <time>2022-09-06T15:22:30Z</time>
      </trkpt>
      <trkpt lat="44.100408051162958" lon="10.231962287798524">
        <ele>1512.1500000000001</ele>
        <time>2022-09-06T15:22:39Z</time>
      </trkpt>
      <trkpt lat="44.100301014259458" lon="10.232009897008538">
        <ele>1510.47</ele>
        <time>2022-09-06T15:22:53Z</time>
      </trkpt>
      <trkpt lat="44.10030310973525" lon="10.232112742960453">
        <ele>1508.45</ele>
        <time>2022-09-06T15:23:04Z</time>
      </trkpt>
      <trkpt lat="44.10027913749218" lon="10.23216973990202">
        <ele>1507.3</ele>
        <time>2022-09-06T15:23:18Z</time>
      </trkpt>
      <trkpt lat="44.100246531888843" lon="10.232220618054271">
        <ele>1506.3800000000001</ele>
        <time>2022-09-06T15:23:36Z</time>
      </trkpt>
      <trkpt lat="44.100172854959965" lon="10.2321482822299">
        <ele>1505.6500000000001</ele>
        <time>2022-09-06T15:23:50Z</time>
      </trkpt>
      <trkpt lat="44.100164724513888" lon="10.232133027166128">
        <ele>1504.9200000000001</ele>
        <time>2022-09-06T15:24:03Z</time>
      </trkpt>
      <trkpt lat="44.100167574360967" lon="10.232129925861955">
        <ele>1505.0999999999999</ele>
        <time>2022-09-06T15:24:09Z</time>
      </trkpt>
      <trkpt lat="44.100158186629415" lon="10.232128333300352">
        <ele>1505.2</ele>
        <time>2022-09-06T15:24:20Z</time>
      </trkpt>
      <trkpt lat="44.100162712857127" lon="10.232137469574809">
        <ele>1504.9400000000001</ele>
        <time>2022-09-06T15:24:33Z</time>
      </trkpt>
      <trkpt lat="44.100131532177329" lon="10.232077287510037">
        <ele>1503.4400000000001</ele>
        <time>2022-09-06T15:24:46Z</time>
      </trkpt>
      <trkpt lat="44.100112756714225" lon="10.232071923092008">
        <ele>1503.1500000000001</ele>
        <time>2022-09-06T15:24:56Z</time>
      </trkpt>
      <trkpt lat="44.100015945732594" lon="10.232035042718053">
        <ele>1501.02</ele>
        <time>2022-09-06T15:25:10Z</time>
      </trkpt>
      <trkpt lat="44.100000187754631" lon="10.232017356902361">
        <ele>1500.4100000000001</ele>
        <time>2022-09-06T15:25:14Z</time>
      </trkpt>
      <trkpt lat="44.09999230876565" lon="10.231989864259958">
        <ele>1499.29</ele>
        <time>2022-09-06T15:25:19Z</time>
      </trkpt>
      <trkpt lat="44.099973365664482" lon="10.231989864259958">
        <ele>1498.6199999999999</ele>
        <time>2022-09-06T15:25:22Z</time>
      </trkpt>
      <trkpt lat="44.099966492503881" lon="10.231987182050943">
        <ele>1498.28</ele>
        <time>2022-09-06T15:25:23Z</time>
      </trkpt>
      <trkpt lat="44.099954087287188" lon="10.231950469315052">
        <ele>1497.9300000000001</ele>
        <time>2022-09-06T15:25:25Z</time>
      </trkpt>
      <trkpt lat="44.099940676242113" lon="10.231941752135754">
        <ele>1497.72</ele>
        <time>2022-09-06T15:25:28Z</time>
      </trkpt>
      <trkpt lat="44.09991754218936" lon="10.231904955580831">
        <ele>1497</ele>
        <time>2022-09-06T15:25:33Z</time>
      </trkpt>
      <trkpt lat="44.099896000698209" lon="10.231868661940098">
        <ele>1496.3</ele>
        <time>2022-09-06T15:25:38Z</time>
      </trkpt>
      <trkpt lat="44.099890887737274" lon="10.231877379119396">
        <ele>1496.1500000000001</ele>
        <time>2022-09-06T15:25:39Z</time>
      </trkpt>
      <trkpt lat="44.099889798089862" lon="10.231884587556124">
        <ele>1495.96</ele>
        <time>2022-09-06T15:25:40Z</time>
      </trkpt>
      <trkpt lat="44.099881583824754" lon="10.231882994994521">
        <ele>1495.77</ele>
        <time>2022-09-06T15:25:41Z</time>
      </trkpt>
      <trkpt lat="44.099823916330934" lon="10.231951894238591">
        <ele>1494.5899999999999</ele>
        <time>2022-09-06T15:25:52Z</time>
      </trkpt>
      <trkpt lat="44.099777564406395" lon="10.231914846226573">
        <ele>1493.51</ele>
        <time>2022-09-06T15:26:00Z</time>
      </trkpt>
      <trkpt lat="44.09977144561708" lon="10.231904536485672">
        <ele>1493.0899999999999</ele>
        <time>2022-09-06T15:26:02Z</time>
      </trkpt>
      <trkpt lat="44.099743785336614" lon="10.231853574514389">
        <ele>1492.1400000000001</ele>
        <time>2022-09-06T15:26:08Z</time>
      </trkpt>
      <trkpt lat="44.099713359028101" lon="10.231793979182839">
        <ele>1491.1500000000001</ele>
        <time>2022-09-06T15:26:14Z</time>
      </trkpt>
      <trkpt lat="44.099688129499555" lon="10.231733378022909">
        <ele>1490.0699999999999</ele>
        <time>2022-09-06T15:26:21Z</time>
      </trkpt>
      <trkpt lat="44.099680837243795" lon="10.231692977249622">
        <ele>1489.3299999999999</ele>
        <time>2022-09-06T15:26:25Z</time>
      </trkpt>
      <trkpt lat="44.099661977961659" lon="10.231655342504382">
        <ele>1488.6199999999999</ele>
        <time>2022-09-06T15:26:39Z</time>
      </trkpt>
      <trkpt lat="44.099643705412745" lon="10.23162935860455">
        <ele>1488.0899999999999</ele>
        <time>2022-09-06T15:26:54Z</time>
      </trkpt>
      <trkpt lat="44.099621661007404" lon="10.231625251471996">
        <ele>1487.2</ele>
        <time>2022-09-06T15:27:10Z</time>
      </trkpt>
      <trkpt lat="44.099581008777022" lon="10.231594741344452">
        <ele>1486.1600000000001</ele>
        <time>2022-09-06T15:27:23Z</time>
      </trkpt>
      <trkpt lat="44.099501799792051" lon="10.23152332752943">
        <ele>1483.6199999999999</ele>
        <time>2022-09-06T15:27:36Z</time>
      </trkpt>
      <trkpt lat="44.099427284672856" lon="10.231438502669334">
        <ele>1480.8800000000001</ele>
        <time>2022-09-06T15:27:49Z</time>
      </trkpt>
      <trkpt lat="44.099341370165348" lon="10.231420649215579">
        <ele>1477.72</ele>
        <time>2022-09-06T15:28:05Z</time>
      </trkpt>
      <trkpt lat="44.099268782883883" lon="10.231453003361821">
        <ele>1474.6700000000001</ele>
        <time>2022-09-06T15:28:20Z</time>
      </trkpt>
      <trkpt lat="44.099172726273537" lon="10.231512766331434">
        <ele>1471.72</ele>
        <time>2022-09-06T15:28:37Z</time>
      </trkpt>
      <trkpt lat="44.099076921120286" lon="10.2315145265311">
        <ele>1469.4000000000001</ele>
        <time>2022-09-06T15:28:51Z</time>
      </trkpt>
      <trkpt lat="44.098993353545666" lon="10.23154629394412">
        <ele>1467.47</ele>
        <time>2022-09-06T15:29:04Z</time>
      </trkpt>
      <trkpt lat="44.098944403231144" lon="10.231501953676343">
        <ele>1465.8900000000001</ele>
        <time>2022-09-06T15:29:13Z</time>
      </trkpt>
      <trkpt lat="44.09887969493866" lon="10.231479657813907">
        <ele>1463.8499999999999</ele>
        <time>2022-09-06T15:29:23Z</time>
      </trkpt>
      <trkpt lat="44.098817165941" lon="10.231415452435613">
        <ele>1462</ele>
        <time>2022-09-06T15:29:36Z</time>
      </trkpt>
      <trkpt lat="44.098818590864539" lon="10.231403214856982">
        <ele>1461.74</ele>
        <time>2022-09-06T15:29:57Z</time>
      </trkpt>
      <trkpt lat="44.098815741017461" lon="10.231413608416915">
        <ele>1461.1500000000001</ele>
        <time>2022-09-06T15:30:24Z</time>
      </trkpt>
      <trkpt lat="44.098809873685241" lon="10.231411512941122">
        <ele>1461.3499999999999</ele>
        <time>2022-09-06T15:30:47Z</time>
      </trkpt>
      <trkpt lat="44.09874189645052" lon="10.231388630345464">
        <ele>1459.25</ele>
        <time>2022-09-06T15:31:05Z</time>
      </trkpt>
      <trkpt lat="44.098659586161375" lon="10.231376811861992">
        <ele>1457.22</ele>
        <time>2022-09-06T15:31:19Z</time>
      </trkpt>
      <trkpt lat="44.098571576178074" lon="10.231335740536451">
        <ele>1455.04</ele>
        <time>2022-09-06T15:31:34Z</time>
      </trkpt>
      <trkpt lat="44.09848683513701" lon="10.231283269822598">
        <ele>1452.7</ele>
        <time>2022-09-06T15:31:48Z</time>
      </trkpt>
      <trkpt lat="44.098404608666897" lon="10.231207078322768">
        <ele>1450.1800000000001</ele>
        <time>2022-09-06T15:32:02Z</time>
      </trkpt>
      <trkpt lat="44.098317939788103" lon="10.231140442192554">
        <ele>1448.4300000000001</ele>
        <time>2022-09-06T15:32:15Z</time>
      </trkpt>
      <trkpt lat="44.098236300051212" lon="10.231042793020606">
        <ele>1446.0699999999999</ele>
        <time>2022-09-06T15:32:29Z</time>
      </trkpt>
      <trkpt lat="44.098160108551383" lon="10.230960147455335">
        <ele>1443.8599999999999</ele>
        <time>2022-09-06T15:32:42Z</time>
      </trkpt>
      <trkpt lat="44.098079055547714" lon="10.230910107493401">
        <ele>1441.27</ele>
        <time>2022-09-06T15:32:56Z</time>
      </trkpt>
      <trkpt lat="44.098019041121006" lon="10.230786139145494">
        <ele>1439.1500000000001</ele>
        <time>2022-09-06T15:33:11Z</time>
      </trkpt>
      <trkpt lat="44.097995152696967" lon="10.230747833848">
        <ele>1438.8800000000001</ele>
        <time>2022-09-06T15:33:15Z</time>
      </trkpt>
      <trkpt lat="44.097945280373096" lon="10.23063350468874">
        <ele>1437.48</ele>
        <time>2022-09-06T15:33:26Z</time>
      </trkpt>
      <trkpt lat="44.097905382514" lon="10.230527138337493">
        <ele>1436.27</ele>
        <time>2022-09-06T15:33:37Z</time>
      </trkpt>
      <trkpt lat="44.097840338945389" lon="10.230456478893757">
        <ele>1434.5899999999999</ele>
        <time>2022-09-06T15:33:48Z</time>
      </trkpt>
      <trkpt lat="44.097774121910334" lon="10.230407109484076">
        <ele>1432.1400000000001</ele>
        <time>2022-09-06T15:33:58Z</time>
      </trkpt>
      <trkpt lat="44.097693488001823" lon="10.230356985703111">
        <ele>1429.8499999999999</ele>
        <time>2022-09-06T15:34:11Z</time>
      </trkpt>
      <trkpt lat="44.097598940134048" lon="10.230304263532162">
        <ele>1427.8599999999999</ele>
        <time>2022-09-06T15:34:24Z</time>
      </trkpt>
      <trkpt lat="44.097544457763433" lon="10.230227569118142">
        <ele>1426.54</ele>
        <time>2022-09-06T15:34:35Z</time>
      </trkpt>
      <trkpt lat="44.09743188880384" lon="10.230234609916806">
        <ele>1426.4400000000001</ele>
        <time>2022-09-06T15:34:54Z</time>
      </trkpt>
      <trkpt lat="44.097345387563109" lon="10.230208290740848">
        <ele>1428.3800000000001</ele>
        <time>2022-09-06T15:35:09Z</time>
      </trkpt>
      <trkpt lat="44.097326695919037" lon="10.230174008756876">
        <ele>1428.29</ele>
        <time>2022-09-06T15:35:25Z</time>
      </trkpt>
      <trkpt lat="44.097316218540072" lon="10.230155736207962">
        <ele>1428.3499999999999</ele>
        <time>2022-09-06T15:35:53Z</time>
      </trkpt>
      <trkpt lat="44.097315464168787" lon="10.230142325162888">
        <ele>1427.8900000000001</ele>
        <time>2022-09-06T15:36:17Z</time>
      </trkpt>
      <trkpt lat="44.097309596836567" lon="10.230137798935175">
        <ele>1427.99</ele>
        <time>2022-09-06T15:36:39Z</time>
      </trkpt>
      <trkpt lat="44.097294006496668" lon="10.230115503072739">
        <ele>1427.8900000000001</ele>
        <time>2022-09-06T15:37:00Z</time>
      </trkpt>
      <trkpt lat="44.097236422821879" lon="10.230091111734509">
        <ele>1427.8299999999999</ele>
        <time>2022-09-06T15:37:17Z</time>
      </trkpt>
      <trkpt lat="44.097199039533734" lon="10.230097649618983">
        <ele>1428.3099999999999</ele>
        <time>2022-09-06T15:37:33Z</time>
      </trkpt>
      <trkpt lat="44.097198788076639" lon="10.230095637962222">
        <ele>1428.3099999999999</ele>
        <time>2022-09-06T15:37:52Z</time>
      </trkpt>
      <trkpt lat="44.097221419215202" lon="10.230175852775574">
        <ele>1428.0799999999999</ele>
        <time>2022-09-06T15:38:09Z</time>
      </trkpt>
      <trkpt lat="44.097230639308691" lon="10.230214493349195">
        <ele>1428.4100000000001</ele>
        <time>2022-09-06T15:38:25Z</time>
      </trkpt>
      <trkpt lat="44.097228040918708" lon="10.230197813361883">
        <ele>1427.9000000000001</ele>
        <time>2022-09-06T15:38:39Z</time>
      </trkpt>
      <trkpt lat="44.097232650965452" lon="10.230247182771564">
        <ele>1427.78</ele>
        <time>2022-09-06T15:38:51Z</time>
      </trkpt>
      <trkpt lat="44.097245475277305" lon="10.230407025665045">
        <ele>1428.5899999999999</ele>
        <time>2022-09-06T15:39:06Z</time>
      </trkpt>
      <trkpt lat="44.097290402278304" lon="10.230508530512452">
        <ele>1430.45</ele>
        <time>2022-09-06T15:39:20Z</time>
      </trkpt>
      <trkpt lat="44.097286546602845" lon="10.230644149705768">
        <ele>1433.48</ele>
        <time>2022-09-06T15:39:37Z</time>
      </trkpt>
      <trkpt lat="44.097287971526384" lon="10.230776835232973">
        <ele>1435</ele>
        <time>2022-09-06T15:39:52Z</time>
      </trkpt>
      <trkpt lat="44.097319236025214" lon="10.230885213240981">
        <ele>1432.5599999999999</ele>
        <time>2022-09-06T15:40:02Z</time>
      </trkpt>
      <trkpt lat="44.097334239631891" lon="10.230901055037975">
        <ele>1431.98</ele>
        <time>2022-09-06T15:40:04Z</time>
      </trkpt>
      <trkpt lat="44.097349746152759" lon="10.230922847986221">
        <ele>1431.78</ele>
        <time>2022-09-06T15:40:06Z</time>
      </trkpt>
      <trkpt lat="44.097357708960772" lon="10.230934666469693">
        <ele>1431.52</ele>
        <time>2022-09-06T15:40:07Z</time>
      </trkpt>
      <trkpt lat="44.097365336492658" lon="10.230945395305753">
        <ele>1431.26</ele>
        <time>2022-09-06T15:40:08Z</time>
      </trkpt>
      <trkpt lat="44.097413197159767" lon="10.231051174923778">
        <ele>1431.6400000000001</ele>
        <time>2022-09-06T15:40:19Z</time>
      </trkpt>
      <trkpt lat="44.097375059500337" lon="10.231188386678696">
        <ele>1434.72</ele>
        <time>2022-09-06T15:40:33Z</time>
      </trkpt>
      <trkpt lat="44.097388302907348" lon="10.231233816593885">
        <ele>1436.7</ele>
        <time>2022-09-06T15:40:46Z</time>
      </trkpt>
      <trkpt lat="44.097387297078967" lon="10.231255777180195">
        <ele>1437.53</ele>
        <time>2022-09-06T15:40:50Z</time>
      </trkpt>
      <trkpt lat="44.09736106172204" lon="10.231327190995216">
        <ele>1439.5999999999999</ele>
        <time>2022-09-06T15:41:03Z</time>
      </trkpt>
      <trkpt lat="44.097376903519034" lon="10.231400616466999">
        <ele>1441.45</ele>
        <time>2022-09-06T15:41:17Z</time>
      </trkpt>
      <trkpt lat="44.097394170239568" lon="10.231425762176514">
        <ele>1442.3900000000001</ele>
        <time>2022-09-06T15:41:29Z</time>
      </trkpt>
      <trkpt lat="44.097380423918366" lon="10.231452751904726">
        <ele>1444.8499999999999</ele>
        <time>2022-09-06T15:41:41Z</time>
      </trkpt>
      <trkpt lat="44.097357792779803" lon="10.231490386649966">
        <ele>1446.3099999999999</ele>
        <time>2022-09-06T15:41:56Z</time>
      </trkpt>
      <trkpt lat="44.097367934882641" lon="10.231484770774841">
        <ele>1446.3900000000001</ele>
        <time>2022-09-06T15:42:13Z</time>
      </trkpt>
      <trkpt lat="44.097374305129051" lon="10.231469934806228">
        <ele>1446.3299999999999</ele>
        <time>2022-09-06T15:42:24Z</time>
      </trkpt>
      <trkpt lat="44.097387967631221" lon="10.231463061645627">
        <ele>1446.02</ele>
        <time>2022-09-06T15:42:41Z</time>
      </trkpt>
      <trkpt lat="44.097392410039902" lon="10.231433473527431">
        <ele>1444.1900000000001</ele>
        <time>2022-09-06T15:42:55Z</time>
      </trkpt>
      <trkpt lat="44.097418310120702" lon="10.231412351131439">
        <ele>1442.3399999999999</ele>
        <time>2022-09-06T15:43:07Z</time>
      </trkpt>
      <trkpt lat="44.097418477758765" lon="10.231416122987866">
        <ele>1441.8499999999999</ele>
        <time>2022-09-06T15:43:28Z</time>
      </trkpt>
      <trkpt lat="44.09745535813272" lon="10.231427019461989">
        <ele>1440.9200000000001</ele>
        <time>2022-09-06T15:43:32Z</time>
      </trkpt>
      <trkpt lat="44.097468769177794" lon="10.231430372223258">
        <ele>1440.8</ele>
        <time>2022-09-06T15:43:33Z</time>
      </trkpt>
      <trkpt lat="44.097480671480298" lon="10.23143975995481">
        <ele>1440.55</ele>
        <time>2022-09-06T15:43:34Z</time>
      </trkpt>
      <trkpt lat="44.097489723935723" lon="10.231448812410235">
        <ele>1440.3599999999999</ele>
        <time>2022-09-06T15:43:35Z</time>
      </trkpt>
      <trkpt lat="44.097525766119361" lon="10.23151938803494">
        <ele>1440.0599999999999</ele>
        <time>2022-09-06T15:43:41Z</time>
      </trkpt>
      <trkpt lat="44.097534650936723" lon="10.231600776314735">
        <ele>1439.98</ele>
        <time>2022-09-06T15:43:49Z</time>
      </trkpt>
      <trkpt lat="44.097542362287641" lon="10.231612427160144">
        <ele>1440.0699999999999</ele>
        <time>2022-09-06T15:43:50Z</time>
      </trkpt>
      <trkpt lat="44.097557701170444" lon="10.231644446030259">
        <ele>1440.0999999999999</ele>
        <time>2022-09-06T15:44:01Z</time>
      </trkpt>
      <trkpt lat="44.097610674798489" lon="10.231736646965146">
        <ele>1440.97</ele>
        <time>2022-09-06T15:44:12Z</time>
      </trkpt>
      <trkpt lat="44.097645292058587" lon="10.23188735358417">
        <ele>1440.5</ele>
        <time>2022-09-06T15:44:25Z</time>
      </trkpt>
      <trkpt lat="44.097653003409505" lon="10.231896489858627">
        <ele>1440.4200000000001</ele>
        <time>2022-09-06T15:44:26Z</time>
      </trkpt>
      <trkpt lat="44.09767672419548" lon="10.232013333588839">
        <ele>1439.0599999999999</ele>
        <time>2022-09-06T15:44:35Z</time>
      </trkpt>
      <trkpt lat="44.097654260694981" lon="10.232071168720722">
        <ele>1437.6600000000001</ele>
        <time>2022-09-06T15:44:40Z</time>
      </trkpt>
      <trkpt lat="44.097645543515682" lon="10.232086004689336">
        <ele>1437.3699999999999</ele>
        <time>2022-09-06T15:44:41Z</time>
      </trkpt>
      <trkpt lat="44.097632048651576" lon="10.232151299715042">
        <ele>1437.1800000000001</ele>
        <time>2022-09-06T15:44:52Z</time>
      </trkpt>
      <trkpt lat="44.097653590142727" lon="10.232179798185825">
        <ele>1437.3199999999999</ele>
        <time>2022-09-06T15:45:14Z</time>
      </trkpt>
    </trkseg>
  </trk>

  <trk>
    <name>rif-conti-monte-tambura-resceto2022-09-07</name>
    <extensions>
      <gpxx:TrackExtension>
        <gpxx:DisplayColor>Yellow</gpxx:DisplayColor>
      </gpxx:TrackExtension>
      <gpxtrkx:TrackStatsExtension xmlns:gpxtrkx="http://www.garmin.com/xmlschemas/TrackStatsExtension/v1">
        <gpxtrkx:Distance>9695</gpxtrkx:Distance>
        <gpxtrkx:TotalElapsedTime>18960</gpxtrkx:TotalElapsedTime>
        <gpxtrkx:MovingTime>13261</gpxtrkx:MovingTime>
        <gpxtrkx:StoppedTime>5692</gpxtrkx:StoppedTime>
        <gpxtrkx:MovingSpeed>0.731</gpxtrkx:MovingSpeed>
        <gpxtrkx:MaxSpeed>3.796</gpxtrkx:MaxSpeed>
        <gpxtrkx:MaxElevation>1885.375</gpxtrkx:MaxElevation>
        <gpxtrkx:MinElevation>514.913</gpxtrkx:MinElevation>
        <gpxtrkx:Ascent>486</gpxtrkx:Ascent>
        <gpxtrkx:Descent>1418.423</gpxtrkx:Descent>
        <gpxtrkx:AvgAscentRate>0.079</gpxtrkx:AvgAscentRate>
        <gpxtrkx:MaxAscentRate>0.299</gpxtrkx:MaxAscentRate>
        <gpxtrkx:AvgDescentRate>0.109</gpxtrkx:AvgDescentRate>
        <gpxtrkx:MaxDescentRate>-0.403</gpxtrkx:MaxDescentRate>
      </gpxtrkx:TrackStatsExtension>
    </extensions>
    <trkseg>
      <trkpt lat="44.097575806081295" lon="10.232015009969473">
        <ele>1451.72</ele>
        <time>2022-09-07T05:51:27Z</time>
      </trkpt>
      <trkpt lat="44.097575470805168" lon="10.232017021626234">
        <ele>1451.72</ele>
        <time>2022-09-07T05:51:28Z</time>
      </trkpt>
      <trkpt lat="44.097574213519692" lon="10.232024230062962">
        <ele>1447.28</ele>
        <time>2022-09-07T05:51:31Z</time>
      </trkpt>
      <trkpt lat="44.097574632614851" lon="10.232026996091008">
        <ele>1447.28</ele>
        <time>2022-09-07T05:51:32Z</time>
      </trkpt>
      <trkpt lat="44.097585529088974" lon="10.232075862586498">
        <ele>1445.8599999999999</ele>
        <time>2022-09-07T05:51:52Z</time>
      </trkpt>
      <trkpt lat="44.097605645656586" lon="10.232122801244259">
        <ele>1446.3900000000001</ele>
        <time>2022-09-07T05:52:11Z</time>
      </trkpt>
      <trkpt lat="44.097612518817186" lon="10.232157418504357">
        <ele>1446.3099999999999</ele>
        <time>2022-09-07T05:52:32Z</time>
      </trkpt>
      <trkpt lat="44.097620816901326" lon="10.232172086834908">
        <ele>1446.47</ele>
        <time>2022-09-07T05:52:45Z</time>
      </trkpt>
      <trkpt lat="44.09763322211802" lon="10.232152724638581">
        <ele>1446.1500000000001</ele>
        <time>2022-09-07T05:53:06Z</time>
      </trkpt>
      <trkpt lat="44.097613021731377" lon="10.232084495946765">
        <ele>1446.29</ele>
        <time>2022-09-07T05:53:35Z</time>
      </trkpt>
      <trkpt lat="44.097596174106002" lon="10.232056081295013">
        <ele>1446.0699999999999</ele>
        <time>2022-09-07T05:54:03Z</time>
      </trkpt>
      <trkpt lat="44.097610842436552" lon="10.232063625007868">
        <ele>1446.1400000000001</ele>
        <time>2022-09-07T05:54:22Z</time>
      </trkpt>
      <trkpt lat="44.097612854093313" lon="10.232063289731741">
        <ele>1446.1300000000001</ele>
        <time>2022-09-07T05:54:36Z</time>
      </trkpt>
      <trkpt lat="44.097614614292979" lon="10.232067313045263">
        <ele>1446.1800000000001</ele>
        <time>2022-09-07T05:55:10Z</time>
      </trkpt>
      <trkpt lat="44.097602125257254" lon="10.232050381600857">
        <ele>1446.0999999999999</ele>
        <time>2022-09-07T05:55:37Z</time>
      </trkpt>
      <trkpt lat="44.097601454705" lon="10.232067983597517">
        <ele>1446.4100000000001</ele>
        <time>2022-09-07T05:56:02Z</time>
      </trkpt>
      <trkpt lat="44.097604220733047" lon="10.232106121256948">
        <ele>1446.0999999999999</ele>
        <time>2022-09-07T05:56:24Z</time>
      </trkpt>
      <trkpt lat="44.097611596807837" lon="10.232086759060621">
        <ele>1446.22</ele>
        <time>2022-09-07T05:56:41Z</time>
      </trkpt>
      <trkpt lat="44.097612770274282" lon="10.232045017182827">
        <ele>1446.9200000000001</ele>
        <time>2022-09-07T05:56:58Z</time>
      </trkpt>
      <trkpt lat="44.097611177712679" lon="10.23206521756947">
        <ele>1447.22</ele>
        <time>2022-09-07T05:57:12Z</time>
      </trkpt>
      <trkpt lat="44.097598437219858" lon="10.232049794867635">
        <ele>1446.6500000000001</ele>
        <time>2022-09-07T05:57:27Z</time>
      </trkpt>
      <trkpt lat="44.097597096115351" lon="10.232064379379153">
        <ele>1446.8800000000001</ele>
        <time>2022-09-07T05:57:50Z</time>
      </trkpt>
      <trkpt lat="44.097597515210509" lon="10.23207007907331">
        <ele>1446.9100000000001</ele>
        <time>2022-09-07T05:58:14Z</time>
      </trkpt>
      <trkpt lat="44.097609166055918" lon="10.232091369107366">
        <ele>1446.8099999999999</ele>
        <time>2022-09-07T05:58:29Z</time>
      </trkpt>
      <trkpt lat="44.097620481625199" lon="10.232117101550102">
        <ele>1446.4000000000001</ele>
        <time>2022-09-07T05:58:40Z</time>
      </trkpt>
      <trkpt lat="44.097599778324366" lon="10.232084076851606">
        <ele>1446.78</ele>
        <time>2022-09-07T05:59:01Z</time>
      </trkpt>
      <trkpt lat="44.097606316208839" lon="10.232084831222892">
        <ele>1446.7</ele>
        <time>2022-09-07T05:59:16Z</time>
      </trkpt>
      <trkpt lat="44.097605897113681" lon="10.232081227004528">
        <ele>1446.6900000000001</ele>
        <time>2022-09-07T05:59:17Z</time>
      </trkpt>
      <trkpt lat="44.097597934305668" lon="10.232060020789504">
        <ele>1446.6800000000001</ele>
        <time>2022-09-07T05:59:33Z</time>
      </trkpt>
      <trkpt lat="44.097594330087304" lon="10.232062954455614">
        <ele>1446.54</ele>
        <time>2022-09-07T05:59:54Z</time>
      </trkpt>
      <trkpt lat="44.097593408077955" lon="10.232060691341758">
        <ele>1446.27</ele>
        <time>2022-09-07T06:00:15Z</time>
      </trkpt>
      <trkpt lat="44.09760732203722" lon="10.232027415186167">
        <ele>1446.0699999999999</ele>
        <time>2022-09-07T06:00:25Z</time>
      </trkpt>
      <trkpt lat="44.097627690061927" lon="10.231991540640593">
        <ele>1446.04</ele>
        <time>2022-09-07T06:00:40Z</time>
      </trkpt>
      <trkpt lat="44.097658703103662" lon="10.231960695236921">
        <ele>1447.8</ele>
        <time>2022-09-07T06:00:50Z</time>
      </trkpt>
      <trkpt lat="44.09764252603054" lon="10.231878384947777">
        <ele>1448.6500000000001</ele>
        <time>2022-09-07T06:00:59Z</time>
      </trkpt>
      <trkpt lat="44.097644705325365" lon="10.231855502352118">
        <ele>1448.8399999999999</ele>
        <time>2022-09-07T06:01:00Z</time>
      </trkpt>
      <trkpt lat="44.097639843821526" lon="10.23182038217783">
        <ele>1449.21</ele>
        <time>2022-09-07T06:01:09Z</time>
      </trkpt>
      <trkpt lat="44.097632803022861" lon="10.231781238690019">
        <ele>1449.1600000000001</ele>
        <time>2022-09-07T06:01:14Z</time>
      </trkpt>
      <trkpt lat="44.097630539909005" lon="10.231765396893024">
        <ele>1449.2</ele>
        <time>2022-09-07T06:01:15Z</time>
      </trkpt>
      <trkpt lat="44.097628612071276" lon="10.231749722734094">
        <ele>1449.1400000000001</ele>
        <time>2022-09-07T06:01:16Z</time>
      </trkpt>
      <trkpt lat="44.097625594586134" lon="10.231734802946448">
        <ele>1449.3199999999999</ele>
        <time>2022-09-07T06:01:17Z</time>
      </trkpt>
      <trkpt lat="44.097619894891977" lon="10.231719380244613">
        <ele>1449.3</ele>
        <time>2022-09-07T06:01:18Z</time>
      </trkpt>
      <trkpt lat="44.097613776102662" lon="10.231704963371158">
        <ele>1449.1500000000001</ele>
        <time>2022-09-07T06:01:19Z</time>
      </trkpt>
      <trkpt lat="44.097609166055918" lon="10.231692139059305">
        <ele>1449.24</ele>
        <time>2022-09-07T06:01:20Z</time>
      </trkpt>
      <trkpt lat="44.097603382542729" lon="10.231677889823914">
        <ele>1449.3800000000001</ele>
        <time>2022-09-07T06:01:21Z</time>
      </trkpt>
      <trkpt lat="44.097567088901997" lon="10.231632124632597">
        <ele>1448.77</ele>
        <time>2022-09-07T06:01:32Z</time>
      </trkpt>
      <trkpt lat="44.097562730312347" lon="10.231623323634267">
        <ele>1448.78</ele>
        <time>2022-09-07T06:01:33Z</time>
      </trkpt>
      <trkpt lat="44.097557701170444" lon="10.231607649475336">
        <ele>1448.48</ele>
        <time>2022-09-07T06:01:34Z</time>
      </trkpt>
      <trkpt lat="44.097551666200161" lon="10.23159071803093">
        <ele>1448.3800000000001</ele>
        <time>2022-09-07T06:01:35Z</time>
      </trkpt>
      <trkpt lat="44.097543451935053" lon="10.231573954224586">
        <ele>1448.3800000000001</ele>
        <time>2022-09-07T06:01:36Z</time>
      </trkpt>
      <trkpt lat="44.09753548912704" lon="10.231558699160814">
        <ele>1448.45</ele>
        <time>2022-09-07T06:01:37Z</time>
      </trkpt>
      <trkpt lat="44.097529789432883" lon="10.231544449925423">
        <ele>1448.3499999999999</ele>
        <time>2022-09-07T06:01:38Z</time>
      </trkpt>
      <trkpt lat="44.097517803311348" lon="10.231507988646626">
        <ele>1448.55</ele>
        <time>2022-09-07T06:01:42Z</time>
      </trkpt>
      <trkpt lat="44.097511516883969" lon="10.231492482125759">
        <ele>1448.46</ele>
        <time>2022-09-07T06:01:43Z</time>
      </trkpt>
      <trkpt lat="44.09751252271235" lon="10.231462810188532">
        <ele>1448.4200000000001</ele>
        <time>2022-09-07T06:01:44Z</time>
      </trkpt>
      <trkpt lat="44.097512355074286" lon="10.231433138251305">
        <ele>1448.54</ele>
        <time>2022-09-07T06:01:45Z</time>
      </trkpt>
      <trkpt lat="44.097503134980798" lon="10.231424001976848">
        <ele>1448.6099999999999</ele>
        <time>2022-09-07T06:01:46Z</time>
      </trkpt>
      <trkpt lat="44.097494250163436" lon="10.231414781883359">
        <ele>1448.72</ele>
        <time>2022-09-07T06:01:47Z</time>
      </trkpt>
      <trkpt lat="44.097470110282302" lon="10.231395335868001">
        <ele>1449.23</ele>
        <time>2022-09-07T06:01:55Z</time>
      </trkpt>
      <trkpt lat="44.097417639568448" lon="10.231383601203561">
        <ele>1449.99</ele>
        <time>2022-09-07T06:02:06Z</time>
      </trkpt>
      <trkpt lat="44.097397606819868" lon="10.23135962896049">
        <ele>1450.47</ele>
        <time>2022-09-07T06:02:16Z</time>
      </trkpt>
      <trkpt lat="44.09737765789032" lon="10.23132786154747">
        <ele>1449.8499999999999</ele>
        <time>2022-09-07T06:02:22Z</time>
      </trkpt>
      <trkpt lat="44.097344800829887" lon="10.231319312006235">
        <ele>1448.76</ele>
        <time>2022-09-07T06:02:36Z</time>
      </trkpt>
      <trkpt lat="44.097340190783143" lon="10.231283018365502">
        <ele>1447.77</ele>
        <time>2022-09-07T06:02:49Z</time>
      </trkpt>
      <trkpt lat="44.097345974296331" lon="10.231225769966841">
        <ele>1445.5899999999999</ele>
        <time>2022-09-07T06:03:02Z</time>
      </trkpt>
      <trkpt lat="44.097317643463612" lon="10.231203893199563">
        <ele>1443.3499999999999</ele>
        <time>2022-09-07T06:03:13Z</time>
      </trkpt>
      <trkpt lat="44.097322002053261" lon="10.231188889592886">
        <ele>1442.8699999999999</ele>
        <time>2022-09-07T06:03:26Z</time>
      </trkpt>
      <trkpt lat="44.097320241853595" lon="10.231154523789883">
        <ele>1441.8900000000001</ele>
        <time>2022-09-07T06:03:41Z</time>
      </trkpt>
      <trkpt lat="44.097328875213861" lon="10.231083948165178">
        <ele>1440.24</ele>
        <time>2022-09-07T06:03:53Z</time>
      </trkpt>
      <trkpt lat="44.097316553816199" lon="10.231020832434297">
        <ele>1438.9300000000001</ele>
        <time>2022-09-07T06:04:02Z</time>
      </trkpt>
      <trkpt lat="44.097311440855265" lon="10.230987472459674">
        <ele>1438.71</ele>
        <time>2022-09-07T06:04:04Z</time>
      </trkpt>
      <trkpt lat="44.097300292924047" lon="10.230938103049994">
        <ele>1439.1800000000001</ele>
        <time>2022-09-07T06:04:14Z</time>
      </trkpt>
      <trkpt lat="44.097290569916368" lon="10.230911280959845">
        <ele>1439.3900000000001</ele>
        <time>2022-09-07T06:04:16Z</time>
      </trkpt>
      <trkpt lat="44.097248241305351" lon="10.230764010921121">
        <ele>1442.48</ele>
        <time>2022-09-07T06:04:28Z</time>
      </trkpt>
      <trkpt lat="44.097230555489659" lon="10.2306252066046">
        <ele>1441.0699999999999</ele>
        <time>2022-09-07T06:04:41Z</time>
      </trkpt>
      <trkpt lat="44.09722032956779" lon="10.230545410886407">
        <ele>1438.3299999999999</ele>
        <time>2022-09-07T06:04:54Z</time>
      </trkpt>
      <trkpt lat="44.097198452800512" lon="10.230466620996594">
        <ele>1436.4100000000001</ele>
        <time>2022-09-07T06:05:08Z</time>
      </trkpt>
      <trkpt lat="44.09718370065093" lon="10.230453293770552">
        <ele>1435.6099999999999</ele>
        <time>2022-09-07T06:05:19Z</time>
      </trkpt>
      <trkpt lat="44.097191160544753" lon="10.230377856642008">
        <ele>1435.3699999999999</ele>
        <time>2022-09-07T06:05:36Z</time>
      </trkpt>
      <trkpt lat="44.09718805924058" lon="10.230348519980907">
        <ele>1435.1199999999999</ele>
        <time>2022-09-07T06:05:38Z</time>
      </trkpt>
      <trkpt lat="44.097187304869294" lon="10.230333348736167">
        <ele>1435.0799999999999</ele>
        <time>2022-09-07T06:05:39Z</time>
      </trkpt>
      <trkpt lat="44.097173642367125" lon="10.230219103395939">
        <ele>1435.0999999999999</ele>
        <time>2022-09-07T06:05:51Z</time>
      </trkpt>
      <trkpt lat="44.097177917137742" lon="10.230225306004286">
        <ele>1434.6600000000001</ele>
        <time>2022-09-07T06:06:10Z</time>
      </trkpt>
      <trkpt lat="44.097179509699345" lon="10.230237878859043">
        <ele>1434.5799999999999</ele>
        <time>2022-09-07T06:06:21Z</time>
      </trkpt>
      <trkpt lat="44.097176576033235" lon="10.230231927707791">
        <ele>1434.3900000000001</ele>
        <time>2022-09-07T06:06:33Z</time>
      </trkpt>
      <trkpt lat="44.097179006785154" lon="10.230238381773233">
        <ele>1433.96</ele>
        <time>2022-09-07T06:06:48Z</time>
      </trkpt>
      <trkpt lat="44.09718076698482" lon="10.230227150022984">
        <ele>1434.25</ele>
        <time>2022-09-07T06:06:59Z</time>
      </trkpt>
      <trkpt lat="44.097184538841248" lon="10.230211475864053">
        <ele>1434.2</ele>
        <time>2022-09-07T06:07:18Z</time>
      </trkpt>
      <trkpt lat="44.097183365374804" lon="10.230211056768894">
        <ele>1434.02</ele>
        <time>2022-09-07T06:07:29Z</time>
      </trkpt>
      <trkpt lat="44.097188645973802" lon="10.230200327932835">
        <ele>1433.9200000000001</ele>
        <time>2022-09-07T06:07:40Z</time>
      </trkpt>
      <trkpt lat="44.097250755876303" lon="10.230166632682085">
        <ele>1434.04</ele>
        <time>2022-09-07T06:07:51Z</time>
      </trkpt>
      <trkpt lat="44.097268022596836" lon="10.23015858605504">
        <ele>1433.9000000000001</ele>
        <time>2022-09-07T06:07:53Z</time>
      </trkpt>
      <trkpt lat="44.097285708412528" lon="10.23016395047307">
        <ele>1433.99</ele>
        <time>2022-09-07T06:08:01Z</time>
      </trkpt>
      <trkpt lat="44.097278751432896" lon="10.230163866654038">
        <ele>1433.6800000000001</ele>
        <time>2022-09-07T06:08:20Z</time>
      </trkpt>
      <trkpt lat="44.09733273088932" lon="10.230182055383921">
        <ele>1432.7</ele>
        <time>2022-09-07T06:08:36Z</time>
      </trkpt>
      <trkpt lat="44.097412023693323" lon="10.230210637673736">
        <ele>1431.0599999999999</ele>
        <time>2022-09-07T06:08:50Z</time>
      </trkpt>
      <trkpt lat="44.09748318605125" lon="10.230220276862383">
        <ele>1430.0999999999999</ele>
        <time>2022-09-07T06:09:02Z</time>
      </trkpt>
      <trkpt lat="44.097566250711679" lon="10.230318009853363">
        <ele>1432.1700000000001</ele>
        <time>2022-09-07T06:09:16Z</time>
      </trkpt>
      <trkpt lat="44.097622409462929" lon="10.230375761166215">
        <ele>1433.25</ele>
        <time>2022-09-07T06:09:25Z</time>
      </trkpt>
      <trkpt lat="44.097678316757083" lon="10.230396213009953">
        <ele>1434.6400000000001</ele>
        <time>2022-09-07T06:09:34Z</time>
      </trkpt>
      <trkpt lat="44.097758363932371" lon="10.230463687330484">
        <ele>1436.8900000000001</ele>
        <time>2022-09-07T06:09:48Z</time>
      </trkpt>
      <trkpt lat="44.097796669229865" lon="10.23050207644701">
        <ele>1437.5999999999999</ele>
        <time>2022-09-07T06:09:55Z</time>
      </trkpt>
      <trkpt lat="44.097864227369428" lon="10.230546668171883">
        <ele>1439.24</ele>
        <time>2022-09-07T06:10:07Z</time>
      </trkpt>
      <trkpt lat="44.097867915406823" lon="10.230554630979896">
        <ele>1439.6099999999999</ele>
        <time>2022-09-07T06:10:09Z</time>
      </trkpt>
      <trkpt lat="44.097893564030528" lon="10.230619171634316">
        <ele>1440.8800000000001</ele>
        <time>2022-09-07T06:10:18Z</time>
      </trkpt>
      <trkpt lat="44.097905633971095" lon="10.230643227696419">
        <ele>1440.8299999999999</ele>
        <time>2022-09-07T06:10:30Z</time>
      </trkpt>
      <trkpt lat="44.097978137433529" lon="10.230790665373206">
        <ele>1442.8900000000001</ele>
        <time>2022-09-07T06:10:45Z</time>
      </trkpt>
      <trkpt lat="44.09801091067493" lon="10.230845063924789">
        <ele>1443.5</ele>
        <time>2022-09-07T06:10:51Z</time>
      </trkpt>
      <trkpt lat="44.098062878474593" lon="10.230946484953165">
        <ele>1445.25</ele>
        <time>2022-09-07T06:11:05Z</time>
      </trkpt>
      <trkpt lat="44.098136303946376" lon="10.231005577370524">
        <ele>1447.0799999999999</ele>
        <time>2022-09-07T06:11:19Z</time>
      </trkpt>
      <trkpt lat="44.098208388313651" lon="10.231076739728451">
        <ele>1449.3299999999999</ele>
        <time>2022-09-07T06:11:35Z</time>
      </trkpt>
      <trkpt lat="44.098280137404799" lon="10.23116466589272">
        <ele>1451.4000000000001</ele>
        <time>2022-09-07T06:11:51Z</time>
      </trkpt>
      <trkpt lat="44.098389353603125" lon="10.231233984231949">
        <ele>1453.73</ele>
        <time>2022-09-07T06:12:08Z</time>
      </trkpt>
      <trkpt lat="44.098472585901618" lon="10.231307744979858">
        <ele>1456.2</ele>
        <time>2022-09-07T06:12:24Z</time>
      </trkpt>
      <trkpt lat="44.098552213981748" lon="10.231362981721759">
        <ele>1458.3900000000001</ele>
        <time>2022-09-07T06:12:42Z</time>
      </trkpt>
      <trkpt lat="44.098596470430493" lon="10.231371950358152">
        <ele>1459.54</ele>
        <time>2022-09-07T06:12:51Z</time>
      </trkpt>
      <trkpt lat="44.098651707172394" lon="10.231359880417585">
        <ele>1460.98</ele>
        <time>2022-09-07T06:13:01Z</time>
      </trkpt>
      <trkpt lat="44.09866277128458" lon="10.231360634788871">
        <ele>1461.29</ele>
        <time>2022-09-07T06:13:03Z</time>
      </trkpt>
      <trkpt lat="44.098706441000104" lon="10.231381086632609">
        <ele>1462.25</ele>
        <time>2022-09-07T06:13:10Z</time>
      </trkpt>
      <trkpt lat="44.098790679126978" lon="10.231419056653976">
        <ele>1464.97</ele>
        <time>2022-09-07T06:13:26Z</time>
      </trkpt>
      <trkpt lat="44.098796295002103" lon="10.231426768004894">
        <ele>1465.1300000000001</ele>
        <time>2022-09-07T06:13:27Z</time>
      </trkpt>
      <trkpt lat="44.098823620006442" lon="10.231477646157146">
        <ele>1466.0899999999999</ele>
        <time>2022-09-07T06:13:35Z</time>
      </trkpt>
      <trkpt lat="44.098838875070214" lon="10.231478232890368">
        <ele>1466.6500000000001</ele>
        <time>2022-09-07T06:13:39Z</time>
      </trkpt>
      <trkpt lat="44.098871648311615" lon="10.231484435498714">
        <ele>1467.1300000000001</ele>
        <time>2022-09-07T06:13:46Z</time>
      </trkpt>
      <trkpt lat="44.098926046863198" lon="10.231527937576175">
        <ele>1469.1099999999999</ele>
        <time>2022-09-07T06:14:00Z</time>
      </trkpt>
      <trkpt lat="44.098968040198088" lon="10.231538331136107">
        <ele>1470.0999999999999</ele>
        <time>2022-09-07T06:14:09Z</time>
      </trkpt>
      <trkpt lat="44.098985055461526" lon="10.231531457975507">
        <ele>1470.51</ele>
        <time>2022-09-07T06:14:12Z</time>
      </trkpt>
      <trkpt lat="44.099047081544995" lon="10.231493823230267">
        <ele>1471.4400000000001</ele>
        <time>2022-09-07T06:14:21Z</time>
      </trkpt>
      <trkpt lat="44.099087147042155" lon="10.231488291174173">
        <ele>1472.5999999999999</ele>
        <time>2022-09-07T06:14:30Z</time>
      </trkpt>
      <trkpt lat="44.099116232246161" lon="10.231477729976177">
        <ele>1473.5899999999999</ele>
        <time>2022-09-07T06:14:37Z</time>
      </trkpt>
      <trkpt lat="44.099160740152001" lon="10.231469599530101">
        <ele>1474.6500000000001</ele>
        <time>2022-09-07T06:14:45Z</time>
      </trkpt>
      <trkpt lat="44.09922419115901" lon="10.231429031118751">
        <ele>1476.5899999999999</ele>
        <time>2022-09-07T06:14:59Z</time>
      </trkpt>
      <trkpt lat="44.099262664094567" lon="10.231429198756814">
        <ele>1478.01</ele>
        <time>2022-09-07T06:15:12Z</time>
      </trkpt>
      <trkpt lat="44.099312871694565" lon="10.231434227898717">
        <ele>1479.1099999999999</ele>
        <time>2022-09-07T06:15:26Z</time>
      </trkpt>
      <trkpt lat="44.099394511431456" lon="10.231461217626929">
        <ele>1481.5599999999999</ele>
        <time>2022-09-07T06:15:43Z</time>
      </trkpt>
      <trkpt lat="44.099461566656828" lon="10.231525171548128">
        <ele>1483.4400000000001</ele>
        <time>2022-09-07T06:15:57Z</time>
      </trkpt>
      <trkpt lat="44.09953448921442" lon="10.231600441038609">
        <ele>1486.04</ele>
        <time>2022-09-07T06:16:13Z</time>
      </trkpt>
      <trkpt lat="44.099620319902897" lon="10.231663975864649">
        <ele>1488.49</ele>
        <time>2022-09-07T06:16:29Z</time>
      </trkpt>
      <trkpt lat="44.099653596058488" lon="10.231787944212556">
        <ele>1490.24</ele>
        <time>2022-09-07T06:16:44Z</time>
      </trkpt>
      <trkpt lat="44.099708497524261" lon="10.23190051317215">
        <ele>1492.1400000000001</ele>
        <time>2022-09-07T06:17:00Z</time>
      </trkpt>
      <trkpt lat="44.099773121997714" lon="10.231955582275987">
        <ele>1493.8599999999999</ele>
        <time>2022-09-07T06:17:13Z</time>
      </trkpt>
      <trkpt lat="44.099835148081183" lon="10.231926161795855">
        <ele>1495</ele>
        <time>2022-09-07T06:17:25Z</time>
      </trkpt>
      <trkpt lat="44.099899604916573" lon="10.231968658044934">
        <ele>1496.8800000000001</ele>
        <time>2022-09-07T06:17:36Z</time>
      </trkpt>
      <trkpt lat="44.099960457533598" lon="10.232021631672978">
        <ele>1498.8399999999999</ele>
        <time>2022-09-07T06:17:52Z</time>
      </trkpt>
      <trkpt lat="44.099965821951628" lon="10.232024984434247">
        <ele>1498.8399999999999</ele>
        <time>2022-09-07T06:17:53Z</time>
      </trkpt>
      <trkpt lat="44.099989039823413" lon="10.232080221176147">
        <ele>1499.71</ele>
        <time>2022-09-07T06:18:05Z</time>
      </trkpt>
      <trkpt lat="44.100053329020739" lon="10.232111569494009">
        <ele>1502.1300000000001</ele>
        <time>2022-09-07T06:18:20Z</time>
      </trkpt>
      <trkpt lat="44.100137734785676" lon="10.23215850815177">
        <ele>1504.1500000000001</ele>
        <time>2022-09-07T06:18:36Z</time>
      </trkpt>
      <trkpt lat="44.100186517462134" lon="10.23223034106195">
        <ele>1506.25</ele>
        <time>2022-09-07T06:18:50Z</time>
      </trkpt>
      <trkpt lat="44.100233120843768" lon="10.232231263071299">
        <ele>1506.28</ele>
        <time>2022-09-07T06:19:02Z</time>
      </trkpt>
      <trkpt lat="44.100264804437757" lon="10.232189185917377">
        <ele>1507.76</ele>
        <time>2022-09-07T06:19:16Z</time>
      </trkpt>
      <trkpt lat="44.100266145542264" lon="10.232094721868634">
        <ele>1508.98</ele>
        <time>2022-09-07T06:19:31Z</time>
      </trkpt>
      <trkpt lat="44.100267486646771" lon="10.232037808746099">
        <ele>1510.0699999999999</ele>
        <time>2022-09-07T06:19:46Z</time>
      </trkpt>
      <trkpt lat="44.100295146927238" lon="10.232010651379824">
        <ele>1510.0699999999999</ele>
        <time>2022-09-07T06:20:08Z</time>
      </trkpt>
      <trkpt lat="44.100391119718552" lon="10.232001515105367">
        <ele>1511.5699999999999</ele>
        <time>2022-09-07T06:20:21Z</time>
      </trkpt>
      <trkpt lat="44.100472424179316" lon="10.23200218565762">
        <ele>1512.8499999999999</ele>
        <time>2022-09-07T06:20:34Z</time>
      </trkpt>
      <trkpt lat="44.100474938750267" lon="10.231999922543764">
        <ele>1513.6500000000001</ele>
        <time>2022-09-07T06:20:51Z</time>
      </trkpt>
      <trkpt lat="44.100481141358614" lon="10.231991708278656">
        <ele>1513.45</ele>
        <time>2022-09-07T06:21:17Z</time>
      </trkpt>
      <trkpt lat="44.100506454706192" lon="10.23198064416647">
        <ele>1513.5799999999999</ele>
        <time>2022-09-07T06:21:20Z</time>
      </trkpt>
      <trkpt lat="44.100555656477809" lon="10.231976034119725">
        <ele>1514.6099999999999</ele>
        <time>2022-09-07T06:21:28Z</time>
      </trkpt>
      <trkpt lat="44.100621957331896" lon="10.231955917552114">
        <ele>1515.95</ele>
        <time>2022-09-07T06:21:37Z</time>
      </trkpt>
      <trkpt lat="44.100655820220709" lon="10.231925323605537">
        <ele>1517.2</ele>
        <time>2022-09-07T06:21:45Z</time>
      </trkpt>
      <trkpt lat="44.100703848525882" lon="10.231902860105038">
        <ele>1518.54</ele>
        <time>2022-09-07T06:21:54Z</time>
      </trkpt>
      <trkpt lat="44.100735113024712" lon="10.2318927180022">
        <ele>1519.3199999999999</ele>
        <time>2022-09-07T06:22:00Z</time>
      </trkpt>
      <trkpt lat="44.100781297311187" lon="10.231910068541765">
        <ele>1520.3399999999999</ele>
        <time>2022-09-07T06:22:10Z</time>
      </trkpt>
      <trkpt lat="44.100831337273121" lon="10.231957929208875">
        <ele>1521.99</ele>
        <time>2022-09-07T06:22:20Z</time>
      </trkpt>
      <trkpt lat="44.100873917341232" lon="10.232014758512378">
        <ele>1523.8</ele>
        <time>2022-09-07T06:22:33Z</time>
      </trkpt>
      <trkpt lat="44.100893279537559" lon="10.232018949463964">
        <ele>1524.0999999999999</ele>
        <time>2022-09-07T06:22:35Z</time>
      </trkpt>
      <trkpt lat="44.100918425247073" lon="10.232048034667969">
        <ele>1525.1199999999999</ele>
        <time>2022-09-07T06:22:43Z</time>
      </trkpt>
      <trkpt lat="44.100976595655084" lon="10.232137721031904">
        <ele>1527.2</ele>
        <time>2022-09-07T06:22:58Z</time>
      </trkpt>
      <trkpt lat="44.10105119459331" lon="10.232236040756106">
        <ele>1529.03</ele>
        <time>2022-09-07T06:23:15Z</time>
      </trkpt>
      <trkpt lat="44.10113669000566" lon="10.232277782633901">
        <ele>1530.77</ele>
        <time>2022-09-07T06:23:29Z</time>
      </trkpt>
      <trkpt lat="44.101240709424019" lon="10.23232514038682">
        <ele>1533.05</ele>
        <time>2022-09-07T06:23:46Z</time>
      </trkpt>
      <trkpt lat="44.101338274776936" lon="10.232390351593494">
        <ele>1534.48</ele>
        <time>2022-09-07T06:24:00Z</time>
      </trkpt>
      <trkpt lat="44.101436426863074" lon="10.232400493696332">
        <ele>1536.52</ele>
        <time>2022-09-07T06:24:17Z</time>
      </trkpt>
      <trkpt lat="44.101479928940535" lon="10.232393788173795">
        <ele>1537.3299999999999</ele>
        <time>2022-09-07T06:24:28Z</time>
      </trkpt>
      <trkpt lat="44.101589815691113" lon="10.232358081266284">
        <ele>1539.4100000000001</ele>
        <time>2022-09-07T06:24:45Z</time>
      </trkpt>
      <trkpt lat="44.101666761562228" lon="10.232262024655938">
        <ele>1541.1800000000001</ele>
        <time>2022-09-07T06:25:01Z</time>
      </trkpt>
      <trkpt lat="44.101716717705131" lon="10.232180971652269">
        <ele>1543.49</ele>
        <time>2022-09-07T06:25:19Z</time>
      </trkpt>
      <trkpt lat="44.101767595857382" lon="10.232126908376813">
        <ele>1545.5899999999999</ele>
        <time>2022-09-07T06:25:34Z</time>
      </trkpt>
      <trkpt lat="44.101828448474407" lon="10.232048705220222">
        <ele>1547.3499999999999</ele>
        <time>2022-09-07T06:25:47Z</time>
      </trkpt>
      <trkpt lat="44.101901287212968" lon="10.231963545084">
        <ele>1548.8399999999999</ele>
        <time>2022-09-07T06:26:01Z</time>
      </trkpt>
      <trkpt lat="44.101940095424652" lon="10.23189565166831">
        <ele>1551.1600000000001</ele>
        <time>2022-09-07T06:26:15Z</time>
      </trkpt>
      <trkpt lat="44.101972868666053" lon="10.231825159862638">
        <ele>1552.6199999999999</ele>
        <time>2022-09-07T06:26:28Z</time>
      </trkpt>
      <trkpt lat="44.101988626644015" lon="10.231814598664641">
        <ele>1552.75</ele>
        <time>2022-09-07T06:26:49Z</time>
      </trkpt>
      <trkpt lat="44.102047132328153" lon="10.23173438385129">
        <ele>1555.1099999999999</ele>
        <time>2022-09-07T06:27:03Z</time>
      </trkpt>
      <trkpt lat="44.102107230573893" lon="10.231651989743114">
        <ele>1557.1300000000001</ele>
        <time>2022-09-07T06:27:18Z</time>
      </trkpt>
      <trkpt lat="44.102165820077062" lon="10.231562638655305">
        <ele>1559.0899999999999</ele>
        <time>2022-09-07T06:27:33Z</time>
      </trkpt>
      <trkpt lat="44.102194486185908" lon="10.231473706662655">
        <ele>1560.5599999999999</ele>
        <time>2022-09-07T06:27:46Z</time>
      </trkpt>
      <trkpt lat="44.102207310497761" lon="10.231316043063998">
        <ele>1562.53</ele>
        <time>2022-09-07T06:28:02Z</time>
      </trkpt>
      <trkpt lat="44.10226246342063" lon="10.231366585940123">
        <ele>1564.03</ele>
        <time>2022-09-07T06:28:15Z</time>
      </trkpt>
      <trkpt lat="44.102271012961864" lon="10.231451075524092">
        <ele>1566.03</ele>
        <time>2022-09-07T06:28:27Z</time>
      </trkpt>
      <trkpt lat="44.102268666028976" lon="10.231558782979846">
        <ele>1567.4200000000001</ele>
        <time>2022-09-07T06:28:41Z</time>
      </trkpt>
      <trkpt lat="44.102259613573551" lon="10.231664311140776">
        <ele>1568.6500000000001</ele>
        <time>2022-09-07T06:28:53Z</time>
      </trkpt>
      <trkpt lat="44.102256512269378" lon="10.231744777411222">
        <ele>1570.02</ele>
        <time>2022-09-07T06:29:04Z</time>
      </trkpt>
      <trkpt lat="44.102245112881064" lon="10.231862459331751">
        <ele>1571.9200000000001</ele>
        <time>2022-09-07T06:29:18Z</time>
      </trkpt>
      <trkpt lat="44.10223999992013" lon="10.231977626681328">
        <ele>1574.0899999999999</ele>
        <time>2022-09-07T06:29:33Z</time>
      </trkpt>
      <trkpt lat="44.102236814796925" lon="10.232083993032575">
        <ele>1576</ele>
        <time>2022-09-07T06:29:48Z</time>
      </trkpt>
      <trkpt lat="44.102239329367876" lon="10.232188180088997">
        <ele>1578.1300000000001</ele>
        <time>2022-09-07T06:30:04Z</time>
      </trkpt>
      <trkpt lat="44.102221392095089" lon="10.232298737391829">
        <ele>1580.3199999999999</ele>
        <time>2022-09-07T06:30:19Z</time>
      </trkpt>
      <trkpt lat="44.102204795926809" lon="10.232402170076966">
        <ele>1581.96</ele>
        <time>2022-09-07T06:30:34Z</time>
      </trkpt>
      <trkpt lat="44.102173028513789" lon="10.232504764571786">
        <ele>1584.1700000000001</ele>
        <time>2022-09-07T06:30:49Z</time>
      </trkpt>
      <trkpt lat="44.102149810642004" lon="10.23258414119482">
        <ele>1585.6800000000001</ele>
        <time>2022-09-07T06:31:01Z</time>
      </trkpt>
      <trkpt lat="44.102132208645344" lon="10.232672737911344">
        <ele>1587.9000000000001</ele>
        <time>2022-09-07T06:31:14Z</time>
      </trkpt>
      <trkpt lat="44.102107482030988" lon="10.232745492830873">
        <ele>1589.4400000000001</ele>
        <time>2022-09-07T06:31:26Z</time>
      </trkpt>
      <trkpt lat="44.102096669375896" lon="10.232809446752071">
        <ele>1591</ele>
        <time>2022-09-07T06:31:38Z</time>
      </trkpt>
      <trkpt lat="44.102092226967216" lon="10.2329046651721">
        <ele>1592.8800000000001</ele>
        <time>2022-09-07T06:31:51Z</time>
      </trkpt>
      <trkpt lat="44.102071272209287" lon="10.23298823274672">
        <ele>1594.0899999999999</ele>
        <time>2022-09-07T06:32:04Z</time>
      </trkpt>
      <trkpt lat="44.102043863385916" lon="10.233088815584779">
        <ele>1596.0599999999999</ele>
        <time>2022-09-07T06:32:20Z</time>
      </trkpt>
      <trkpt lat="44.101991895586252" lon="10.233193337917328">
        <ele>1598.5699999999999</ele>
        <time>2022-09-07T06:32:37Z</time>
      </trkpt>
      <trkpt lat="44.101940849795938" lon="10.233280174434185">
        <ele>1601.04</ele>
        <time>2022-09-07T06:32:51Z</time>
      </trkpt>
      <trkpt lat="44.101902293041348" lon="10.233352426439524">
        <ele>1602.7</ele>
        <time>2022-09-07T06:33:03Z</time>
      </trkpt>
      <trkpt lat="44.101838590577245" lon="10.233419900760055">
        <ele>1604.8</ele>
        <time>2022-09-07T06:33:19Z</time>
      </trkpt>
      <trkpt lat="44.1017494071275" lon="10.233422834426165">
        <ele>1606.71</ele>
        <time>2022-09-07T06:33:34Z</time>
      </trkpt>
      <trkpt lat="44.101677238941193" lon="10.233463738113642">
        <ele>1608.8</ele>
        <time>2022-09-07T06:33:48Z</time>
      </trkpt>
      <trkpt lat="44.101622672751546" lon="10.233558788895607">
        <ele>1610.8900000000001</ele>
        <time>2022-09-07T06:34:02Z</time>
      </trkpt>
      <trkpt lat="44.101594593375921" lon="10.233597261831164">
        <ele>1611.5799999999999</ele>
        <time>2022-09-07T06:34:07Z</time>
      </trkpt>
      <trkpt lat="44.101515300571918" lon="10.233671609312296">
        <ele>1613</ele>
        <time>2022-09-07T06:34:21Z</time>
      </trkpt>
      <trkpt lat="44.101422009989619" lon="10.233701448887587">
        <ele>1615.3299999999999</ele>
        <time>2022-09-07T06:34:37Z</time>
      </trkpt>
      <trkpt lat="44.101332826539874" lon="10.233751740306616">
        <ele>1617.55</ele>
        <time>2022-09-07T06:34:54Z</time>
      </trkpt>
      <trkpt lat="44.101244816556573" lon="10.233714608475566">
        <ele>1619.5999999999999</ele>
        <time>2022-09-07T06:35:09Z</time>
      </trkpt>
      <trkpt lat="44.101199302822351" lon="10.233653923496604">
        <ele>1620.5999999999999</ele>
        <time>2022-09-07T06:35:22Z</time>
      </trkpt>
      <trkpt lat="44.101190585643053" lon="10.233655348420143">
        <ele>1621.04</ele>
        <time>2022-09-07T06:35:34Z</time>
      </trkpt>
      <trkpt lat="44.101216569542885" lon="10.233733467757702">
        <ele>1621.22</ele>
        <time>2022-09-07T06:35:46Z</time>
      </trkpt>
      <trkpt lat="44.101256132125854" lon="10.233845198526978">
        <ele>1622.75</ele>
        <time>2022-09-07T06:36:01Z</time>
      </trkpt>
      <trkpt lat="44.101260825991631" lon="10.233867410570383">
        <ele>1623.8800000000001</ele>
        <time>2022-09-07T06:36:15Z</time>
      </trkpt>
      <trkpt lat="44.101253785192966" lon="10.233864057809114">
        <ele>1623.76</ele>
        <time>2022-09-07T06:36:42Z</time>
      </trkpt>
      <trkpt lat="44.101273817941546" lon="10.233920300379395">
        <ele>1625.6500000000001</ele>
        <time>2022-09-07T06:36:53Z</time>
      </trkpt>
      <trkpt lat="44.10131648182869" lon="10.234003365039825">
        <ele>1628.0699999999999</ele>
        <time>2022-09-07T06:37:09Z</time>
      </trkpt>
      <trkpt lat="44.101328467950225" lon="10.234092883765697">
        <ele>1629.4200000000001</ele>
        <time>2022-09-07T06:37:22Z</time>
      </trkpt>
      <trkpt lat="44.101342549547553" lon="10.23415214382112">
        <ele>1628.8800000000001</ele>
        <time>2022-09-07T06:37:33Z</time>
      </trkpt>
      <trkpt lat="44.101360822096467" lon="10.23425524123013">
        <ele>1626.46</ele>
        <time>2022-09-07T06:37:45Z</time>
      </trkpt>
      <trkpt lat="44.101377502083778" lon="10.234278962016106">
        <ele>1625.26</ele>
        <time>2022-09-07T06:37:56Z</time>
      </trkpt>
      <trkpt lat="44.101373478770256" lon="10.234273765236139">
        <ele>1625.48</ele>
        <time>2022-09-07T06:38:12Z</time>
      </trkpt>
      <trkpt lat="44.101366270333529" lon="10.234272591769695">
        <ele>1625.6199999999999</ele>
        <time>2022-09-07T06:38:31Z</time>
      </trkpt>
      <trkpt lat="44.101365935057402" lon="10.234259851276875">
        <ele>1625.45</ele>
        <time>2022-09-07T06:38:50Z</time>
      </trkpt>
      <trkpt lat="44.101366437971592" lon="10.234251972287893">
        <ele>1625.48</ele>
        <time>2022-09-07T06:39:06Z</time>
      </trkpt>
      <trkpt lat="44.101373143494129" lon="10.234259683638811">
        <ele>1625.3199999999999</ele>
        <time>2022-09-07T06:39:25Z</time>
      </trkpt>
      <trkpt lat="44.101373143494129" lon="10.234260186553001">
        <ele>1625.51</ele>
        <time>2022-09-07T06:39:51Z</time>
      </trkpt>
      <trkpt lat="44.10138051956892" lon="10.234262030571699">
        <ele>1625.3199999999999</ele>
        <time>2022-09-07T06:40:10Z</time>
      </trkpt>
      <trkpt lat="44.101378424093127" lon="10.234258091077209">
        <ele>1625.8499999999999</ele>
        <time>2022-09-07T06:40:15Z</time>
      </trkpt>
      <trkpt lat="44.101377250626683" lon="10.234257588163018">
        <ele>1625.28</ele>
        <time>2022-09-07T06:40:20Z</time>
      </trkpt>
      <trkpt lat="44.101374316960573" lon="10.234258426353335">
        <ele>1625.6300000000001</ele>
        <time>2022-09-07T06:40:52Z</time>
      </trkpt>
      <trkpt lat="44.10137758590281" lon="10.234261443838477">
        <ele>1625.28</ele>
        <time>2022-09-07T06:41:15Z</time>
      </trkpt>
      <trkpt lat="44.101375071331859" lon="10.234259180724621">
        <ele>1625.3599999999999</ele>
        <time>2022-09-07T06:41:34Z</time>
      </trkpt>
      <trkpt lat="44.101376328617334" lon="10.23426060564816">
        <ele>1625.79</ele>
        <time>2022-09-07T06:41:55Z</time>
      </trkpt>
      <trkpt lat="44.101369036361575" lon="10.234265215694904">
        <ele>1625.0999999999999</ele>
        <time>2022-09-07T06:42:31Z</time>
      </trkpt>
      <trkpt lat="44.101374065503478" lon="10.234265299513936">
        <ele>1625.29</ele>
        <time>2022-09-07T06:43:05Z</time>
      </trkpt>
      <trkpt lat="44.10136928781867" lon="10.234267646446824">
        <ele>1624.96</ele>
        <time>2022-09-07T06:43:44Z</time>
      </trkpt>
      <trkpt lat="44.101375406607985" lon="10.234260186553001">
        <ele>1624.8299999999999</ele>
        <time>2022-09-07T06:44:25Z</time>
      </trkpt>
      <trkpt lat="44.101370293647051" lon="10.234264545142651">
        <ele>1624.6700000000001</ele>
        <time>2022-09-07T06:44:52Z</time>
      </trkpt>
      <trkpt lat="44.101361911743879" lon="10.234270077198744">
        <ele>1624.72</ele>
        <time>2022-09-07T06:45:17Z</time>
      </trkpt>
      <trkpt lat="44.101360235363245" lon="10.234266724437475">
        <ele>1625.04</ele>
        <time>2022-09-07T06:45:41Z</time>
      </trkpt>
      <trkpt lat="44.101393008604646" lon="10.234270831570029">
        <ele>1625.1600000000001</ele>
        <time>2022-09-07T06:45:59Z</time>
      </trkpt>
      <trkpt lat="44.101429637521505" lon="10.23427770473063">
        <ele>1625.45</ele>
        <time>2022-09-07T06:46:03Z</time>
      </trkpt>
      <trkpt lat="44.101529298350215" lon="10.234256833791733">
        <ele>1627.1500000000001</ele>
        <time>2022-09-07T06:46:16Z</time>
      </trkpt>
      <trkpt lat="44.101624684408307" lon="10.234232190996408">
        <ele>1628.75</ele>
        <time>2022-09-07T06:46:30Z</time>
      </trkpt>
      <trkpt lat="44.101667515933514" lon="10.234199082478881">
        <ele>1630.0699999999999</ele>
        <time>2022-09-07T06:46:44Z</time>
      </trkpt>
      <trkpt lat="44.101731637492776" lon="10.234177624806762">
        <ele>1631.8</ele>
        <time>2022-09-07T06:46:57Z</time>
      </trkpt>
      <trkpt lat="44.101783437654376" lon="10.234171254560351">
        <ele>1632.53</ele>
        <time>2022-09-07T06:47:14Z</time>
      </trkpt>
      <trkpt lat="44.101838674396276" lon="10.234156921505928">
        <ele>1634.5599999999999</ele>
        <time>2022-09-07T06:47:28Z</time>
      </trkpt>
      <trkpt lat="44.101874800398946" lon="10.234149880707264">
        <ele>1636.23</ele>
        <time>2022-09-07T06:47:45Z</time>
      </trkpt>
      <trkpt lat="44.101926684379578" lon="10.234124734997749">
        <ele>1638.4300000000001</ele>
        <time>2022-09-07T06:48:00Z</time>
      </trkpt>
      <trkpt lat="44.10195954144001" lon="10.234111240133643">
        <ele>1639.8599999999999</ele>
        <time>2022-09-07T06:48:12Z</time>
      </trkpt>
      <trkpt lat="44.102002624422312" lon="10.234107635915279">
        <ele>1639.49</ele>
        <time>2022-09-07T06:48:23Z</time>
      </trkpt>
      <trkpt lat="44.102057861164212" lon="10.234066648408771">
        <ele>1640.6400000000001</ele>
        <time>2022-09-07T06:48:37Z</time>
      </trkpt>
      <trkpt lat="44.102097172290087" lon="10.234002694487572">
        <ele>1642.5699999999999</ele>
        <time>2022-09-07T06:48:51Z</time>
      </trkpt>
      <trkpt lat="44.102146038785577" lon="10.233960533514619">
        <ele>1643.53</ele>
        <time>2022-09-07T06:49:04Z</time>
      </trkpt>
      <trkpt lat="44.102166490629315" lon="10.233944524079561">
        <ele>1643.8599999999999</ele>
        <time>2022-09-07T06:49:20Z</time>
      </trkpt>
      <trkpt lat="44.102186858654022" lon="10.233935974538326">
        <ele>1644.02</ele>
        <time>2022-09-07T06:49:23Z</time>
      </trkpt>
      <trkpt lat="44.102211585268378" lon="10.233921809121966">
        <ele>1643.8199999999999</ele>
        <time>2022-09-07T06:49:26Z</time>
      </trkpt>
      <trkpt lat="44.102221140637994" lon="10.233916696161032">
        <ele>1643.75</ele>
        <time>2022-09-07T06:49:27Z</time>
      </trkpt>
      <trkpt lat="44.102302277460694" lon="10.233848551288247">
        <ele>1642.4400000000001</ele>
        <time>2022-09-07T06:49:38Z</time>
      </trkpt>
      <trkpt lat="44.102336727082729" lon="10.233787363395095">
        <ele>1642.47</ele>
        <time>2022-09-07T06:49:48Z</time>
      </trkpt>
      <trkpt lat="44.102396657690406" lon="10.23377051576972">
        <ele>1644.8099999999999</ele>
        <time>2022-09-07T06:49:58Z</time>
      </trkpt>
      <trkpt lat="44.102468742057681" lon="10.23372801952064">
        <ele>1647.0799999999999</ele>
        <time>2022-09-07T06:50:10Z</time>
      </trkpt>
      <trkpt lat="44.10255080088973" lon="10.233676806092262">
        <ele>1649.04</ele>
        <time>2022-09-07T06:50:24Z</time>
      </trkpt>
      <trkpt lat="44.102562367916107" lon="10.233674962073565">
        <ele>1649.04</ele>
        <time>2022-09-07T06:50:25Z</time>
      </trkpt>
      <trkpt lat="44.102608971297741" lon="10.233623832464218">
        <ele>1650.04</ele>
        <time>2022-09-07T06:50:36Z</time>
      </trkpt>
      <trkpt lat="44.102651467546821" lon="10.233616791665554">
        <ele>1652.6300000000001</ele>
        <time>2022-09-07T06:50:49Z</time>
      </trkpt>
      <trkpt lat="44.102686839178205" lon="10.233580833300948">
        <ele>1654.8499999999999</ele>
        <time>2022-09-07T06:51:04Z</time>
      </trkpt>
      <trkpt lat="44.102729586884379" lon="10.233550993725657">
        <ele>1656.4100000000001</ele>
        <time>2022-09-07T06:51:16Z</time>
      </trkpt>
      <trkpt lat="44.102771915495396" lon="10.233551245182753">
        <ele>1658.6199999999999</ele>
        <time>2022-09-07T06:51:27Z</time>
      </trkpt>
      <trkpt lat="44.102800749242306" lon="10.233548311516643">
        <ele>1659.1500000000001</ele>
        <time>2022-09-07T06:51:44Z</time>
      </trkpt>
      <trkpt lat="44.102842072024941" lon="10.233520148321986">
        <ele>1660.5999999999999</ele>
        <time>2022-09-07T06:51:57Z</time>
      </trkpt>
      <trkpt lat="44.10287962295115" lon="10.233466671779752">
        <ele>1663.4000000000001</ele>
        <time>2022-09-07T06:52:11Z</time>
      </trkpt>
      <trkpt lat="44.102911725640297" lon="10.233431551605463">
        <ele>1665.3399999999999</ele>
        <time>2022-09-07T06:52:23Z</time>
      </trkpt>
      <trkpt lat="44.102936116978526" lon="10.233371453359723">
        <ele>1667.53</ele>
        <time>2022-09-07T06:52:36Z</time>
      </trkpt>
      <trkpt lat="44.102980121970177" lon="10.233358042314649">
        <ele>1670.55</ele>
        <time>2022-09-07T06:52:49Z</time>
      </trkpt>
      <trkpt lat="44.103023624047637" lon="10.233349660411477">
        <ele>1672.21</ele>
        <time>2022-09-07T06:53:02Z</time>
      </trkpt>
      <trkpt lat="44.103063941001892" lon="10.233347732573748">
        <ele>1674.5999999999999</ele>
        <time>2022-09-07T06:53:16Z</time>
      </trkpt>
      <trkpt lat="44.103125212714076" lon="10.23332392796874">
        <ele>1677.29</ele>
        <time>2022-09-07T06:53:31Z</time>
      </trkpt>
      <trkpt lat="44.103161841630936" lon="10.23332049138844">
        <ele>1678.6900000000001</ele>
        <time>2022-09-07T06:53:43Z</time>
      </trkpt>
      <trkpt lat="44.103189501911402" lon="10.2333121933043">
        <ele>1679.79</ele>
        <time>2022-09-07T06:53:54Z</time>
      </trkpt>
      <trkpt lat="44.103230321779847" lon="10.233312780037522">
        <ele>1680.96</ele>
        <time>2022-09-07T06:54:10Z</time>
      </trkpt>
      <trkpt lat="44.10326418466866" lon="10.233269697055221">
        <ele>1683.4000000000001</ele>
        <time>2022-09-07T06:54:26Z</time>
      </trkpt>
      <trkpt lat="44.103250689804554" lon="10.233246898278594">
        <ele>1684.5699999999999</ele>
        <time>2022-09-07T06:54:38Z</time>
      </trkpt>
      <trkpt lat="44.103256054222584" lon="10.233213705942035">
        <ele>1685.6900000000001</ele>
        <time>2022-09-07T06:54:58Z</time>
      </trkpt>
      <trkpt lat="44.103238033130765" lon="10.233140280470252">
        <ele>1688.8699999999999</ele>
        <time>2022-09-07T06:55:12Z</time>
      </trkpt>
      <trkpt lat="44.10322948358953" lon="10.233080266043544">
        <ele>1691.3399999999999</ele>
        <time>2022-09-07T06:55:26Z</time>
      </trkpt>
      <trkpt lat="44.103239374235272" lon="10.233027040958405">
        <ele>1693.5699999999999</ele>
        <time>2022-09-07T06:55:40Z</time>
      </trkpt>
      <trkpt lat="44.103274745866656" lon="10.233016479760408">
        <ele>1695.5599999999999</ele>
        <time>2022-09-07T06:55:53Z</time>
      </trkpt>
      <trkpt lat="44.103314308449626" lon="10.233003655448556">
        <ele>1697.3</ele>
        <time>2022-09-07T06:56:07Z</time>
      </trkpt>
      <trkpt lat="44.103352194651961" lon="10.232999883592129">
        <ele>1699.71</ele>
        <time>2022-09-07T06:56:22Z</time>
      </trkpt>
      <trkpt lat="44.103357559069991" lon="10.232941880822182">
        <ele>1702.3499999999999</ele>
        <time>2022-09-07T06:56:38Z</time>
      </trkpt>
      <trkpt lat="44.103383040055633" lon="10.232906760647893">
        <ele>1704.28</ele>
        <time>2022-09-07T06:56:52Z</time>
      </trkpt>
      <trkpt lat="44.103407599031925" lon="10.232886811718345">
        <ele>1705.79</ele>
        <time>2022-09-07T06:57:05Z</time>
      </trkpt>
      <trkpt lat="44.103451855480671" lon="10.232890751212835">
        <ele>1708.21</ele>
        <time>2022-09-07T06:57:20Z</time>
      </trkpt>
      <trkpt lat="44.103496111929417" lon="10.232889158651233">
        <ele>1710.3099999999999</ele>
        <time>2022-09-07T06:57:34Z</time>
      </trkpt>
      <trkpt lat="44.103534081950784" lon="10.232889410108328">
        <ele>1711.46</ele>
        <time>2022-09-07T06:57:45Z</time>
      </trkpt>
      <trkpt lat="44.1035764105618" lon="10.23288756608963">
        <ele>1713.1800000000001</ele>
        <time>2022-09-07T06:58:00Z</time>
      </trkpt>
      <trkpt lat="44.103611363098025" lon="10.232872730121017">
        <ele>1715</ele>
        <time>2022-09-07T06:58:14Z</time>
      </trkpt>
      <trkpt lat="44.10363458096981" lon="10.232851440086961">
        <ele>1716.5999999999999</ele>
        <time>2022-09-07T06:58:29Z</time>
      </trkpt>
      <trkpt lat="44.103652685880661" lon="10.232823612168431">
        <ele>1718.9400000000001</ele>
        <time>2022-09-07T06:58:44Z</time>
      </trkpt>
      <trkpt lat="44.103648159652948" lon="10.23279913701117">
        <ele>1719.6600000000001</ele>
        <time>2022-09-07T06:58:56Z</time>
      </trkpt>
      <trkpt lat="44.103650087490678" lon="10.232802405953407">
        <ele>1719.8599999999999</ele>
        <time>2022-09-07T06:59:13Z</time>
      </trkpt>
      <trkpt lat="44.10369660705328" lon="10.232797041535378">
        <ele>1722.6400000000001</ele>
        <time>2022-09-07T06:59:29Z</time>
      </trkpt>
      <trkpt lat="44.103738516569138" lon="10.232770387083292">
        <ele>1725.5699999999999</ele>
        <time>2022-09-07T06:59:43Z</time>
      </trkpt>
      <trkpt lat="44.103763829916716" lon="10.232764771208167">
        <ele>1726.3900000000001</ele>
        <time>2022-09-07T06:59:55Z</time>
      </trkpt>
      <trkpt lat="44.103765254840255" lon="10.232763681560755">
        <ele>1726.2</ele>
        <time>2022-09-07T07:00:16Z</time>
      </trkpt>
      <trkpt lat="44.103792747482657" lon="10.232768878340721">
        <ele>1726.98</ele>
        <time>2022-09-07T07:00:39Z</time>
      </trkpt>
      <trkpt lat="44.103848403319716" lon="10.232756976038218">
        <ele>1729.01</ele>
        <time>2022-09-07T07:00:52Z</time>
      </trkpt>
      <trkpt lat="44.103890899568796" lon="10.232745911926031">
        <ele>1730.76</ele>
        <time>2022-09-07T07:01:07Z</time>
      </trkpt>
      <trkpt lat="44.103919230401516" lon="10.232740715146065">
        <ele>1732.1099999999999</ele>
        <time>2022-09-07T07:01:19Z</time>
      </trkpt>
      <trkpt lat="44.103952590376139" lon="10.232724118977785">
        <ele>1733.72</ele>
        <time>2022-09-07T07:01:31Z</time>
      </trkpt>
      <trkpt lat="44.104006234556437" lon="10.232722526416183">
        <ele>1735.4400000000001</ele>
        <time>2022-09-07T07:01:45Z</time>
      </trkpt>
      <trkpt lat="44.104024590924382" lon="10.232681874185801">
        <ele>1737.5599999999999</ele>
        <time>2022-09-07T07:02:01Z</time>
      </trkpt>
      <trkpt lat="44.10402987152338" lon="10.232639294117689">
        <ele>1739.6600000000001</ele>
        <time>2022-09-07T07:02:14Z</time>
      </trkpt>
      <trkpt lat="44.104077396914363" lon="10.232619345188141">
        <ele>1741.55</ele>
        <time>2022-09-07T07:02:27Z</time>
      </trkpt>
      <trkpt lat="44.104122659191489" lon="10.232604928314686">
        <ele>1743.03</ele>
        <time>2022-09-07T07:02:41Z</time>
      </trkpt>
      <trkpt lat="44.104185020551085" lon="10.232582297176123">
        <ele>1746.0999999999999</ele>
        <time>2022-09-07T07:03:00Z</time>
      </trkpt>
      <trkpt lat="44.104212680831552" lon="10.232528652995825">
        <ele>1748.9400000000001</ele>
        <time>2022-09-07T07:03:19Z</time>
      </trkpt>
      <trkpt lat="44.104219553992152" lon="10.232494119554758">
        <ele>1751.8399999999999</ele>
        <time>2022-09-07T07:03:36Z</time>
      </trkpt>
      <trkpt lat="44.104194240644574" lon="10.232479702681303">
        <ele>1752.8599999999999</ele>
        <time>2022-09-07T07:03:48Z</time>
      </trkpt>
      <trkpt lat="44.104180578142405" lon="10.232478277757764">
        <ele>1753.3199999999999</ele>
        <time>2022-09-07T07:04:05Z</time>
      </trkpt>
      <trkpt lat="44.10416716709733" lon="10.232465788722038">
        <ele>1754</ele>
        <time>2022-09-07T07:04:20Z</time>
      </trkpt>
      <trkpt lat="44.104110170155764" lon="10.232438631355762">
        <ele>1753.6600000000001</ele>
        <time>2022-09-07T07:04:37Z</time>
      </trkpt>
      <trkpt lat="44.104074211791158" lon="10.232419017702341">
        <ele>1753.3299999999999</ele>
        <time>2022-09-07T07:04:46Z</time>
      </trkpt>
      <trkpt lat="44.104068176820874" lon="10.232409797608852">
        <ele>1753.1600000000001</ele>
        <time>2022-09-07T07:04:59Z</time>
      </trkpt>
      <trkpt lat="44.104068428277969" lon="10.232408121228218">
        <ele>1753.0599999999999</ele>
        <time>2022-09-07T07:05:22Z</time>
      </trkpt>
      <trkpt lat="44.104071781039238" lon="10.23241063579917">
        <ele>1753.6099999999999</ele>
        <time>2022-09-07T07:05:40Z</time>
      </trkpt>
      <trkpt lat="44.104097178205848" lon="10.232433350756764">
        <ele>1752.76</ele>
        <time>2022-09-07T07:05:54Z</time>
      </trkpt>
      <trkpt lat="44.104090556502342" lon="10.232434691861272">
        <ele>1753.3900000000001</ele>
        <time>2022-09-07T07:06:09Z</time>
      </trkpt>
      <trkpt lat="44.104090221226215" lon="10.232426226139069">
        <ele>1753.24</ele>
        <time>2022-09-07T07:06:25Z</time>
      </trkpt>
      <trkpt lat="44.104091227054596" lon="10.232424298301339">
        <ele>1753.1500000000001</ele>
        <time>2022-09-07T07:06:44Z</time>
      </trkpt>
      <trkpt lat="44.104094412177801" lon="10.232421532273293">
        <ele>1753.8399999999999</ele>
        <time>2022-09-07T07:07:08Z</time>
      </trkpt>
      <trkpt lat="44.104114109650254" lon="10.232424885034561">
        <ele>1753.26</ele>
        <time>2022-09-07T07:07:26Z</time>
      </trkpt>
      <trkpt lat="44.104214441031218" lon="10.232476266101003">
        <ele>1752.46</ele>
        <time>2022-09-07T07:07:40Z</time>
      </trkpt>
      <trkpt lat="44.104222990572453" lon="10.232482384890318">
        <ele>1753.3800000000001</ele>
        <time>2022-09-07T07:07:53Z</time>
      </trkpt>
      <trkpt lat="44.104222822934389" lon="10.232486156746745">
        <ele>1752.76</ele>
        <time>2022-09-07T07:08:18Z</time>
      </trkpt>
      <trkpt lat="44.104224666953087" lon="10.232486072927713">
        <ele>1752.9000000000001</ele>
        <time>2022-09-07T07:08:35Z</time>
      </trkpt>
      <trkpt lat="44.104229612275958" lon="10.232484731823206">
        <ele>1752.99</ele>
        <time>2022-09-07T07:08:52Z</time>
      </trkpt>
      <trkpt lat="44.10422676242888" lon="10.232492191717029">
        <ele>1753.24</ele>
        <time>2022-09-07T07:09:09Z</time>
      </trkpt>
      <trkpt lat="44.104222906753421" lon="10.232498897239566">
        <ele>1752.8</ele>
        <time>2022-09-07T07:09:24Z</time>
      </trkpt>
      <trkpt lat="44.104223074391484" lon="10.232505351305008">
        <ele>1752.71</ele>
        <time>2022-09-07T07:09:44Z</time>
      </trkpt>
      <trkpt lat="44.104227684438229" lon="10.23247953504324">
        <ele>1753.6199999999999</ele>
        <time>2022-09-07T07:10:03Z</time>
      </trkpt>
      <trkpt lat="44.104205388575792" lon="10.23248297162354">
        <ele>1753.73</ele>
        <time>2022-09-07T07:10:41Z</time>
      </trkpt>
      <trkpt lat="44.104224918410182" lon="10.232492024078965">
        <ele>1753.23</ele>
        <time>2022-09-07T07:10:52Z</time>
      </trkpt>
      <trkpt lat="44.104233551770449" lon="10.232493868097663">
        <ele>1753.72</ele>
        <time>2022-09-07T07:11:06Z</time>
      </trkpt>
      <trkpt lat="44.104236653074622" lon="10.232494035735726">
        <ele>1753.8800000000001</ele>
        <time>2022-09-07T07:11:25Z</time>
      </trkpt>
      <trkpt lat="44.104270348325372" lon="10.23249470628798">
        <ele>1753.99</ele>
        <time>2022-09-07T07:11:40Z</time>
      </trkpt>
      <trkpt lat="44.104284681379795" lon="10.232478864490986">
        <ele>1756</ele>
        <time>2022-09-07T07:11:53Z</time>
      </trkpt>
      <trkpt lat="44.104327093809843" lon="10.232491856440902">
        <ele>1757</ele>
        <time>2022-09-07T07:12:08Z</time>
      </trkpt>
      <trkpt lat="44.104358190670609" lon="10.232507782056928">
        <ele>1758.8399999999999</ele>
        <time>2022-09-07T07:12:22Z</time>
      </trkpt>
      <trkpt lat="44.104384174570441" lon="10.232511386275291">
        <ele>1759.6800000000001</ele>
        <time>2022-09-07T07:12:36Z</time>
      </trkpt>
      <trkpt lat="44.104430442675948" lon="10.232541561126709">
        <ele>1761.78</ele>
        <time>2022-09-07T07:12:48Z</time>
      </trkpt>
      <trkpt lat="44.104463551193476" lon="10.232510212808847">
        <ele>1762.3599999999999</ele>
        <time>2022-09-07T07:12:59Z</time>
      </trkpt>
      <trkpt lat="44.104485176503658" lon="10.232544997707009">
        <ele>1764.5799999999999</ele>
        <time>2022-09-07T07:13:10Z</time>
      </trkpt>
      <trkpt lat="44.104499174281955" lon="10.23254013620317">
        <ele>1765.4100000000001</ele>
        <time>2022-09-07T07:13:22Z</time>
      </trkpt>
      <trkpt lat="44.104542843997478" lon="10.232525719329715">
        <ele>1766.25</ele>
        <time>2022-09-07T07:13:37Z</time>
      </trkpt>
      <trkpt lat="44.104589195922017" lon="10.232564024627209">
        <ele>1768.78</ele>
        <time>2022-09-07T07:13:49Z</time>
      </trkpt>
      <trkpt lat="44.104656837880611" lon="10.232595792040229">
        <ele>1771.3499999999999</ele>
        <time>2022-09-07T07:14:06Z</time>
      </trkpt>
      <trkpt lat="44.104690533131361" lon="10.232595121487975">
        <ele>1774.1500000000001</ele>
        <time>2022-09-07T07:14:21Z</time>
      </trkpt>
      <trkpt lat="44.104722803458571" lon="10.232618926092982">
        <ele>1776.74</ele>
        <time>2022-09-07T07:14:38Z</time>
      </trkpt>
      <trkpt lat="44.104769742116332" lon="10.232635522261262">
        <ele>1778.3399999999999</ele>
        <time>2022-09-07T07:14:54Z</time>
      </trkpt>
      <trkpt lat="44.104810059070587" lon="10.232618171721697">
        <ele>1781.2</ele>
        <time>2022-09-07T07:15:10Z</time>
      </trkpt>
      <trkpt lat="44.104828583076596" lon="10.232587158679962">
        <ele>1784.21</ele>
        <time>2022-09-07T07:15:26Z</time>
      </trkpt>
      <trkpt lat="44.104894381016493" lon="10.232598474249244">
        <ele>1785.21</ele>
        <time>2022-09-07T07:15:40Z</time>
      </trkpt>
      <trkpt lat="44.10496068187058" lon="10.232621524482965">
        <ele>1785.28</ele>
        <time>2022-09-07T07:15:52Z</time>
      </trkpt>
      <trkpt lat="44.104988342151046" lon="10.232680700719357">
        <ele>1782.05</ele>
        <time>2022-09-07T07:16:04Z</time>
      </trkpt>
      <trkpt lat="44.104988593608141" lon="10.232684975489974">
        <ele>1781.1800000000001</ele>
        <time>2022-09-07T07:16:17Z</time>
      </trkpt>
      <trkpt lat="44.104986414313316" lon="10.232678521424532">
        <ele>1781.22</ele>
        <time>2022-09-07T07:16:45Z</time>
      </trkpt>
      <trkpt lat="44.104987336322665" lon="10.232673240825534">
        <ele>1781.8299999999999</ele>
        <time>2022-09-07T07:17:02Z</time>
      </trkpt>
      <trkpt lat="44.105052212253213" lon="10.232660751789808">
        <ele>1782.1600000000001</ele>
        <time>2022-09-07T07:17:21Z</time>
      </trkpt>
      <trkpt lat="44.105068640783429" lon="10.232654800638556">
        <ele>1782.1700000000001</ele>
        <time>2022-09-07T07:17:23Z</time>
      </trkpt>
      <trkpt lat="44.105077860876918" lon="10.232652202248573">
        <ele>1782.22</ele>
        <time>2022-09-07T07:17:24Z</time>
      </trkpt>
      <trkpt lat="44.105173666030169" lon="10.232678186148405">
        <ele>1782.72</ele>
        <time>2022-09-07T07:17:35Z</time>
      </trkpt>
      <trkpt lat="44.105278272181749" lon="10.232732249423862">
        <ele>1781.6600000000001</ele>
        <time>2022-09-07T07:17:48Z</time>
      </trkpt>
      <trkpt lat="44.105324372649193" lon="10.232763094827533">
        <ele>1782.49</ele>
        <time>2022-09-07T07:18:01Z</time>
      </trkpt>
      <trkpt lat="44.105322696268559" lon="10.232768291607499">
        <ele>1781.4400000000001</ele>
        <time>2022-09-07T07:18:20Z</time>
      </trkpt>
      <trkpt lat="44.105329234153032" lon="10.232744570821524">
        <ele>1780.9200000000001</ele>
        <time>2022-09-07T07:18:39Z</time>
      </trkpt>
      <trkpt lat="44.105332251638174" lon="10.232749516144395">
        <ele>1781.1700000000001</ele>
        <time>2022-09-07T07:19:01Z</time>
      </trkpt>
      <trkpt lat="44.105338202789426" lon="10.232754210010171">
        <ele>1780.79</ele>
        <time>2022-09-07T07:19:25Z</time>
      </trkpt>
      <trkpt lat="44.105343818664551" lon="10.232764100655913">
        <ele>1781.24</ele>
        <time>2022-09-07T07:19:42Z</time>
      </trkpt>
      <trkpt lat="44.105330407619476" lon="10.232756556943059">
        <ele>1781.9000000000001</ele>
        <time>2022-09-07T07:20:05Z</time>
      </trkpt>
      <trkpt lat="44.105377933010459" lon="10.232784552499652">
        <ele>1782.4200000000001</ele>
        <time>2022-09-07T07:20:23Z</time>
      </trkpt>
      <trkpt lat="44.105426799505949" lon="10.232810284942389">
        <ele>1785</ele>
        <time>2022-09-07T07:20:37Z</time>
      </trkpt>
      <trkpt lat="44.105449263006449" lon="10.232836101204157">
        <ele>1785.8900000000001</ele>
        <time>2022-09-07T07:20:50Z</time>
      </trkpt>
      <trkpt lat="44.105517659336329" lon="10.232877591624856">
        <ele>1787.3199999999999</ele>
        <time>2022-09-07T07:21:04Z</time>
      </trkpt>
      <trkpt lat="44.105488574132323" lon="10.232843225821853">
        <ele>1787.02</ele>
        <time>2022-09-07T07:21:19Z</time>
      </trkpt>
      <trkpt lat="44.105479689314961" lon="10.232842806726694">
        <ele>1786.8900000000001</ele>
        <time>2022-09-07T07:21:40Z</time>
      </trkpt>
      <trkpt lat="44.105473067611456" lon="10.2328494284302">
        <ele>1787.3</ele>
        <time>2022-09-07T07:22:07Z</time>
      </trkpt>
      <trkpt lat="44.1054708044976" lon="10.232852948829532">
        <ele>1787.3</ele>
        <time>2022-09-07T07:22:27Z</time>
      </trkpt>
      <trkpt lat="44.105461584404111" lon="10.232849344611168">
        <ele>1789.03</ele>
        <time>2022-09-07T07:22:52Z</time>
      </trkpt>
      <trkpt lat="44.105466529726982" lon="10.232841968536377">
        <ele>1787.9300000000001</ele>
        <time>2022-09-07T07:23:11Z</time>
      </trkpt>
      <trkpt lat="44.105473319068551" lon="10.232835682108998">
        <ele>1787.9400000000001</ele>
        <time>2022-09-07T07:23:48Z</time>
      </trkpt>
      <trkpt lat="44.105469044297934" lon="10.232843728736043">
        <ele>1788.22</ele>
        <time>2022-09-07T07:24:12Z</time>
      </trkpt>
      <trkpt lat="44.105467032641172" lon="10.232846913859248">
        <ele>1787.8399999999999</ele>
        <time>2022-09-07T07:24:34Z</time>
      </trkpt>
      <trkpt lat="44.10549083724618" lon="10.232863007113338">
        <ele>1787.25</ele>
        <time>2022-09-07T07:24:51Z</time>
      </trkpt>
      <trkpt lat="44.105533752590418" lon="10.232894858345389">
        <ele>1787.95</ele>
        <time>2022-09-07T07:25:02Z</time>
      </trkpt>
      <trkpt lat="44.105598544701934" lon="10.232928888872266">
        <ele>1787.99</ele>
        <time>2022-09-07T07:25:13Z</time>
      </trkpt>
      <trkpt lat="44.105670964345336" lon="10.23294716142118">
        <ele>1789.46</ele>
        <time>2022-09-07T07:25:28Z</time>
      </trkpt>
      <trkpt lat="44.105721842497587" lon="10.232947496697307">
        <ele>1791.71</ele>
        <time>2022-09-07T07:25:43Z</time>
      </trkpt>
      <trkpt lat="44.105750508606434" lon="10.232968283817172">
        <ele>1793.1400000000001</ele>
        <time>2022-09-07T07:25:57Z</time>
      </trkpt>
      <trkpt lat="44.105799123644829" lon="10.232987394556403">
        <ele>1794.74</ele>
        <time>2022-09-07T07:26:12Z</time>
      </trkpt>
      <trkpt lat="44.105828376486897" lon="10.233011366799474">
        <ele>1795.97</ele>
        <time>2022-09-07T07:26:26Z</time>
      </trkpt>
      <trkpt lat="44.105854276567698" lon="10.232975156977773">
        <ele>1798.1199999999999</ele>
        <time>2022-09-07T07:26:41Z</time>
      </trkpt>
      <trkpt lat="44.105888474732637" lon="10.232965014874935">
        <ele>1799.54</ele>
        <time>2022-09-07T07:26:54Z</time>
      </trkpt>
      <trkpt lat="44.105929210782051" lon="10.233002146705985">
        <ele>1801.7</ele>
        <time>2022-09-07T07:27:05Z</time>
      </trkpt>
      <trkpt lat="44.105959553271532" lon="10.233026118949056">
        <ele>1802.22</ele>
        <time>2022-09-07T07:27:18Z</time>
      </trkpt>
      <trkpt lat="44.106024513021111" lon="10.233040703460574">
        <ele>1803.55</ele>
        <time>2022-09-07T07:27:32Z</time>
      </trkpt>
      <trkpt lat="44.106113947927952" lon="10.233052773401141">
        <ele>1806.71</ele>
        <time>2022-09-07T07:27:47Z</time>
      </trkpt>
      <trkpt lat="44.106181841343641" lon="10.233066771179438">
        <ele>1808.95</ele>
        <time>2022-09-07T07:27:59Z</time>
      </trkpt>
      <trkpt lat="44.106217967346311" lon="10.233111698180437">
        <ele>1809.96</ele>
        <time>2022-09-07T07:28:10Z</time>
      </trkpt>
      <trkpt lat="44.106266079470515" lon="10.233115386217833">
        <ele>1813.1800000000001</ele>
        <time>2022-09-07T07:28:23Z</time>
      </trkpt>
      <trkpt lat="44.106304384768009" lon="10.233139358460903">
        <ele>1814.55</ele>
        <time>2022-09-07T07:28:35Z</time>
      </trkpt>
      <trkpt lat="44.106340426951647" lon="10.233147824183106">
        <ele>1816.04</ele>
        <time>2022-09-07T07:28:46Z</time>
      </trkpt>
      <trkpt lat="44.106355514377356" lon="10.233151009306312">
        <ele>1817.6400000000001</ele>
        <time>2022-09-07T07:29:00Z</time>
      </trkpt>
      <trkpt lat="44.106387281790376" lon="10.233168192207813">
        <ele>1819.78</ele>
        <time>2022-09-07T07:29:17Z</time>
      </trkpt>
      <trkpt lat="44.10641971975565" lon="10.233169114217162">
        <ele>1820.3699999999999</ele>
        <time>2022-09-07T07:29:38Z</time>
      </trkpt>
      <trkpt lat="44.106476800516248" lon="10.23317682556808">
        <ele>1822.76</ele>
        <time>2022-09-07T07:29:51Z</time>
      </trkpt>
      <trkpt lat="44.106581658124924" lon="10.23317489773035">
        <ele>1824.4200000000001</ele>
        <time>2022-09-07T07:30:06Z</time>
      </trkpt>
      <trkpt lat="44.106659358367324" lon="10.233178250491619">
        <ele>1825.8499999999999</ele>
        <time>2022-09-07T07:30:18Z</time>
      </trkpt>
      <trkpt lat="44.10674124956131" lon="10.233161821961403">
        <ele>1827.45</ele>
        <time>2022-09-07T07:30:33Z</time>
      </trkpt>
      <trkpt lat="44.106766143813729" lon="10.23316266015172">
        <ele>1828.28</ele>
        <time>2022-09-07T07:30:47Z</time>
      </trkpt>
      <trkpt lat="44.106760360300541" lon="10.233168192207813">
        <ele>1828.46</ele>
        <time>2022-09-07T07:31:10Z</time>
      </trkpt>
      <trkpt lat="44.106754073873162" lon="10.233161989599466">
        <ele>1828.8499999999999</ele>
        <time>2022-09-07T07:31:40Z</time>
      </trkpt>
      <trkpt lat="44.106828002259135" lon="10.23310792632401">
        <ele>1830.1500000000001</ele>
        <time>2022-09-07T07:31:52Z</time>
      </trkpt>
      <trkpt lat="44.106933362782001" lon="10.233067693188787">
        <ele>1832.8800000000001</ele>
        <time>2022-09-07T07:32:07Z</time>
      </trkpt>
      <trkpt lat="44.106982061639428" lon="10.233046822249889">
        <ele>1835.8499999999999</ele>
        <time>2022-09-07T07:32:20Z</time>
      </trkpt>
      <trkpt lat="44.107015505433083" lon="10.23304296657443">
        <ele>1837.9100000000001</ele>
        <time>2022-09-07T07:32:30Z</time>
      </trkpt>
      <trkpt lat="44.107064371928573" lon="10.233012288808823">
        <ele>1841.0599999999999</ele>
        <time>2022-09-07T07:32:43Z</time>
      </trkpt>
      <trkpt lat="44.107098570093513" lon="10.233015390112996">
        <ele>1842.8900000000001</ele>
        <time>2022-09-07T07:33:00Z</time>
      </trkpt>
      <trkpt lat="44.107120195403695" lon="10.233044642955065">
        <ele>1845.52</ele>
        <time>2022-09-07T07:33:12Z</time>
      </trkpt>
      <trkpt lat="44.107149448245764" lon="10.233081104233861">
        <ele>1848.5999999999999</ele>
        <time>2022-09-07T07:33:26Z</time>
      </trkpt>
      <trkpt lat="44.107180712744594" lon="10.233155619353056">
        <ele>1851.0799999999999</ele>
        <time>2022-09-07T07:33:42Z</time>
      </trkpt>
      <trkpt lat="44.107207534834743" lon="10.233153942972422">
        <ele>1853.6099999999999</ele>
        <time>2022-09-07T07:33:56Z</time>
      </trkpt>
      <trkpt lat="44.107246594503522" lon="10.233151176944375">
        <ele>1856.03</ele>
        <time>2022-09-07T07:34:10Z</time>
      </trkpt>
      <trkpt lat="44.107290767133236" lon="10.233201049268246">
        <ele>1857.9000000000001</ele>
        <time>2022-09-07T07:34:26Z</time>
      </trkpt>
      <trkpt lat="44.107331587001681" lon="10.233184285461903">
        <ele>1860.6400000000001</ele>
        <time>2022-09-07T07:34:41Z</time>
      </trkpt>
      <trkpt lat="44.107370898127556" lon="10.233206832781434">
        <ele>1863.4200000000001</ele>
        <time>2022-09-07T07:34:56Z</time>
      </trkpt>
      <trkpt lat="44.107407359406352" lon="10.233245389536023">
        <ele>1865.74</ele>
        <time>2022-09-07T07:35:09Z</time>
      </trkpt>
      <trkpt lat="44.107455303892493" lon="10.233286712318659">
        <ele>1868.22</ele>
        <time>2022-09-07T07:35:24Z</time>
      </trkpt>
      <trkpt lat="44.107515569776297" lon="10.233308086171746">
        <ele>1870.3800000000001</ele>
        <time>2022-09-07T07:35:37Z</time>
      </trkpt>
      <trkpt lat="44.107566783204675" lon="10.233312612399459">
        <ele>1871.9200000000001</ele>
        <time>2022-09-07T07:35:48Z</time>
      </trkpt>
      <trkpt lat="44.107623109593987" lon="10.233354521915317">
        <ele>1874.77</ele>
        <time>2022-09-07T07:36:03Z</time>
      </trkpt>
      <trkpt lat="44.107683543115854" lon="10.233396096155047">
        <ele>1877.1199999999999</ele>
        <time>2022-09-07T07:36:16Z</time>
      </trkpt>
      <trkpt lat="44.107712041586637" lon="10.233400203287601">
        <ele>1877.6400000000001</ele>
        <time>2022-09-07T07:36:31Z</time>
      </trkpt>
      <trkpt lat="44.107768870890141" lon="10.233408752828836">
        <ele>1878.45</ele>
        <time>2022-09-07T07:36:44Z</time>
      </trkpt>
      <trkpt lat="44.107803320512176" lon="10.233393916860223">
        <ele>1878.6600000000001</ele>
        <time>2022-09-07T07:36:57Z</time>
      </trkpt>
      <trkpt lat="44.107829304412007" lon="10.233402131125331">
        <ele>1879.4100000000001</ele>
        <time>2022-09-07T07:37:22Z</time>
      </trkpt>
      <trkpt lat="44.107831316068769" lon="10.233396515250206">
        <ele>1879.5799999999999</ele>
        <time>2022-09-07T07:37:34Z</time>
      </trkpt>
      <trkpt lat="44.107886804267764" lon="10.233370615169406">
        <ele>1880.28</ele>
        <time>2022-09-07T07:37:48Z</time>
      </trkpt>
      <trkpt lat="44.107904909178615" lon="10.233358461409807">
        <ele>1880.52</ele>
        <time>2022-09-07T07:37:50Z</time>
      </trkpt>
      <trkpt lat="44.107915218919516" lon="10.233350750058889">
        <ele>1880.6099999999999</ele>
        <time>2022-09-07T07:37:51Z</time>
      </trkpt>
      <trkpt lat="44.107926115393639" lon="10.233344715088606">
        <ele>1880.48</ele>
        <time>2022-09-07T07:37:52Z</time>
      </trkpt>
      <trkpt lat="44.107939442619681" lon="10.233334572985768">
        <ele>1880.3599999999999</ele>
        <time>2022-09-07T07:38:03Z</time>
      </trkpt>
      <trkpt lat="44.107941621914506" lon="10.233361478894949">
        <ele>1880.3299999999999</ele>
        <time>2022-09-07T07:38:17Z</time>
      </trkpt>
      <trkpt lat="44.107959056273103" lon="10.233358461409807">
        <ele>1880.22</ele>
        <time>2022-09-07T07:38:32Z</time>
      </trkpt>
      <trkpt lat="44.107941621914506" lon="10.233352677896619">
        <ele>1880.52</ele>
        <time>2022-09-07T07:38:47Z</time>
      </trkpt>
      <trkpt lat="44.107928713783622" lon="10.233352845534682">
        <ele>1880.75</ele>
        <time>2022-09-07T07:39:03Z</time>
      </trkpt>
      <trkpt lat="44.107943382114172" lon="10.233359467238188">
        <ele>1880.4000000000001</ele>
        <time>2022-09-07T07:39:27Z</time>
      </trkpt>
      <trkpt lat="44.107945058494806" lon="10.233362736180425">
        <ele>1880.0799999999999</ele>
        <time>2022-09-07T07:39:53Z</time>
      </trkpt>
      <trkpt lat="44.107932485640049" lon="10.233363909646869">
        <ele>1880.6600000000001</ele>
        <time>2022-09-07T07:40:14Z</time>
      </trkpt>
      <trkpt lat="44.107894767075777" lon="10.233396012336016">
        <ele>1881.71</ele>
        <time>2022-09-07T07:40:28Z</time>
      </trkpt>
      <trkpt lat="44.107899880036712" lon="10.233395928516984">
        <ele>1881.4100000000001</ele>
        <time>2022-09-07T07:40:47Z</time>
      </trkpt>
      <trkpt lat="44.107843302190304" lon="10.233425097540021">
        <ele>1880.71</ele>
        <time>2022-09-07T07:41:00Z</time>
      </trkpt>
      <trkpt lat="44.107758812606335" lon="10.233424007892609">
        <ele>1880.02</ele>
        <time>2022-09-07T07:41:11Z</time>
      </trkpt>
      <trkpt lat="44.107737438753247" lon="10.233415458351374">
        <ele>1879.75</ele>
        <time>2022-09-07T07:41:21Z</time>
      </trkpt>
      <trkpt lat="44.107767026871443" lon="10.23341478779912">
        <ele>1880.0899999999999</ele>
        <time>2022-09-07T07:41:33Z</time>
      </trkpt>
      <trkpt lat="44.107766859233379" lon="10.233416883274913">
        <ele>1874.6800000000001</ele>
        <time>2022-09-07T07:41:49Z</time>
      </trkpt>
      <trkpt lat="44.10776593722403" lon="10.233416883274913">
        <ele>1880.0599999999999</ele>
        <time>2022-09-07T07:41:50Z</time>
      </trkpt>
      <trkpt lat="44.10777029581368" lon="10.233410848304629">
        <ele>1865.6099999999999</ele>
        <time>2022-09-07T07:41:53Z</time>
      </trkpt>
      <trkpt lat="44.107771972194314" lon="10.233410093933344">
        <ele>1877.01</ele>
        <time>2022-09-07T07:41:54Z</time>
      </trkpt>
      <trkpt lat="44.107771636918187" lon="10.233409171923995">
        <ele>1882.8599999999999</ele>
        <time>2022-09-07T07:41:55Z</time>
      </trkpt>
      <trkpt lat="44.107770882546902" lon="10.233408166095614">
        <ele>1882.3399999999999</ele>
        <time>2022-09-07T07:41:56Z</time>
      </trkpt>
      <trkpt lat="44.107775827869773" lon="10.233408752828836">
        <ele>1880.4300000000001</ele>
        <time>2022-09-07T07:41:58Z</time>
      </trkpt>
      <trkpt lat="44.10777859389782" lon="10.233414955437183">
        <ele>1884.23</ele>
        <time>2022-09-07T07:42:01Z</time>
      </trkpt>
      <trkpt lat="44.107779180631042" lon="10.233417889103293">
        <ele>1882.9200000000001</ele>
        <time>2022-09-07T07:42:02Z</time>
      </trkpt>
      <trkpt lat="44.107782198116183" lon="10.233422415331006">
        <ele>1880.03</ele>
        <time>2022-09-07T07:42:05Z</time>
      </trkpt>
      <trkpt lat="44.107786640524864" lon="10.233421409502625">
        <ele>1873.78</ele>
        <time>2022-09-07T07:42:08Z</time>
      </trkpt>
      <trkpt lat="44.107786221429706" lon="10.233421325683594">
        <ele>1870.49</ele>
        <time>2022-09-07T07:42:09Z</time>
      </trkpt>
      <trkpt lat="44.107787059620023" lon="10.233422163873911">
        <ele>1874.6600000000001</ele>
        <time>2022-09-07T07:42:10Z</time>
      </trkpt>
      <trkpt lat="44.107787813991308" lon="10.233421996235847">
        <ele>1878.03</ele>
        <time>2022-09-07T07:42:11Z</time>
      </trkpt>
      <trkpt lat="44.107788484543562" lon="10.233422415331006">
        <ele>1881.1600000000001</ele>
        <time>2022-09-07T07:42:12Z</time>
      </trkpt>
      <trkpt lat="44.107777839526534" lon="10.233368435874581">
        <ele>1879.4000000000001</ele>
        <time>2022-09-07T07:42:21Z</time>
      </trkpt>
      <trkpt lat="44.107782281935215" lon="10.233358293771744">
        <ele>1875.3599999999999</ele>
        <time>2022-09-07T07:42:25Z</time>
      </trkpt>
      <trkpt lat="44.10778546705842" lon="10.233360221609473">
        <ele>1879.6400000000001</ele>
        <time>2022-09-07T07:42:26Z</time>
      </trkpt>
      <trkpt lat="44.107796279713511" lon="10.233368268236518">
        <ele>1880.8</ele>
        <time>2022-09-07T07:42:28Z</time>
      </trkpt>
      <trkpt lat="44.107795860618353" lon="10.233375392854214">
        <ele>1884.01</ele>
        <time>2022-09-07T07:42:31Z</time>
      </trkpt>
      <trkpt lat="44.107797704637051" lon="10.233379416167736">
        <ele>1884.01</ele>
        <time>2022-09-07T07:42:32Z</time>
      </trkpt>
      <trkpt lat="44.107810026034713" lon="10.233376398682594">
        <ele>1879.3499999999999</ele>
        <time>2022-09-07T07:42:33Z</time>
      </trkpt>
      <trkpt lat="44.107807762920856" lon="10.233383104205132">
        <ele>1880.3499999999999</ele>
        <time>2022-09-07T07:42:34Z</time>
      </trkpt>
      <trkpt lat="44.107771217823029" lon="10.233416464179754">
        <ele>1884.29</ele>
        <time>2022-09-07T07:42:45Z</time>
      </trkpt>
      <trkpt lat="44.107770631089807" lon="10.233415961265564">
        <ele>1882.29</ele>
        <time>2022-09-07T07:42:46Z</time>
      </trkpt>
      <trkpt lat="44.10776442848146" lon="10.233407914638519">
        <ele>1878.98</ele>
        <time>2022-09-07T07:42:49Z</time>
      </trkpt>
      <trkpt lat="44.107758896425366" lon="10.233395425602794">
        <ele>1877.96</ele>
        <time>2022-09-07T07:42:51Z</time>
      </trkpt>
      <trkpt lat="44.107751352712512" lon="10.233379919081926">
        <ele>1880.21</ele>
        <time>2022-09-07T07:42:55Z</time>
      </trkpt>
      <trkpt lat="44.107753532007337" lon="10.233370112255216">
        <ele>1878.9000000000001</ele>
        <time>2022-09-07T07:43:02Z</time>
      </trkpt>
      <trkpt lat="44.107755124568939" lon="10.233363658189774">
        <ele>1880.1199999999999</ele>
        <time>2022-09-07T07:43:04Z</time>
      </trkpt>
      <trkpt lat="44.10776300355792" lon="10.23337421938777">
        <ele>1881.9300000000001</ele>
        <time>2022-09-07T07:43:09Z</time>
      </trkpt>
      <trkpt lat="44.107758477330208" lon="10.233378410339355">
        <ele>1879.8900000000001</ele>
        <time>2022-09-07T07:43:44Z</time>
      </trkpt>
      <trkpt lat="44.107852187007666" lon="10.233415625989437">
        <ele>1880.1099999999999</ele>
        <time>2022-09-07T07:44:50Z</time>
      </trkpt>
      <trkpt lat="44.107849840074778" lon="10.233406741172075">
        <ele>1880.5699999999999</ele>
        <time>2022-09-07T07:44:51Z</time>
      </trkpt>
      <trkpt lat="44.107856964692473" lon="10.233408249914646">
        <ele>1880.71</ele>
        <time>2022-09-07T07:44:52Z</time>
      </trkpt>
      <trkpt lat="44.107864927500486" lon="10.233401628211141">
        <ele>1881.0899999999999</ele>
        <time>2022-09-07T07:44:53Z</time>
      </trkpt>
      <trkpt lat="44.107866268604994" lon="10.233402885496616">
        <ele>1880.74</ele>
        <time>2022-09-07T07:45:03Z</time>
      </trkpt>
      <trkpt lat="44.107804242521524" lon="10.233412608504295">
        <ele>1881.0799999999999</ele>
        <time>2022-09-07T07:45:13Z</time>
      </trkpt>
      <trkpt lat="44.107796950265765" lon="10.233417470008135">
        <ele>1881.0899999999999</ele>
        <time>2022-09-07T07:45:30Z</time>
      </trkpt>
      <trkpt lat="44.107824107632041" lon="10.233423253521323">
        <ele>1881.1600000000001</ele>
        <time>2022-09-07T07:45:39Z</time>
      </trkpt>
      <trkpt lat="44.107846654951572" lon="10.233416547998786">
        <ele>1881.54</ele>
        <time>2022-09-07T07:45:51Z</time>
      </trkpt>
      <trkpt lat="44.10786459222436" lon="10.233399029821157">
        <ele>1881.45</ele>
        <time>2022-09-07T07:46:07Z</time>
      </trkpt>
      <trkpt lat="44.107863754034042" lon="10.233405819162726">
        <ele>1881.4000000000001</ele>
        <time>2022-09-07T07:46:24Z</time>
      </trkpt>
      <trkpt lat="44.107870040461421" lon="10.23340699262917">
        <ele>1881.8699999999999</ele>
        <time>2022-09-07T07:46:43Z</time>
      </trkpt>
      <trkpt lat="44.107911614701152" lon="10.233396934345365">
        <ele>1882.24</ele>
        <time>2022-09-07T07:47:04Z</time>
      </trkpt>
      <trkpt lat="44.107928546145558" lon="10.233387798070908">
        <ele>1882.29</ele>
        <time>2022-09-07T07:47:30Z</time>
      </trkpt>
      <trkpt lat="44.107944471761584" lon="10.233381511643529">
        <ele>1882.22</ele>
        <time>2022-09-07T07:47:32Z</time>
      </trkpt>
      <trkpt lat="44.107981435954571" lon="10.233379499986768">
        <ele>1881.97</ele>
        <time>2022-09-07T07:47:42Z</time>
      </trkpt>
      <trkpt lat="44.107982190325856" lon="10.233376314863563">
        <ele>1881.5799999999999</ele>
        <time>2022-09-07T07:48:05Z</time>
      </trkpt>
      <trkpt lat="44.107959643006325" lon="10.233387378975749">
        <ele>1881.97</ele>
        <time>2022-09-07T07:48:17Z</time>
      </trkpt>
      <trkpt lat="44.107891833409667" lon="10.233412692323327">
        <ele>1882.22</ele>
        <time>2022-09-07T07:48:28Z</time>
      </trkpt>
      <trkpt lat="44.107818324118853" lon="10.233433898538351">
        <ele>1881.97</ele>
        <time>2022-09-07T07:48:39Z</time>
      </trkpt>
      <trkpt lat="44.107779935002327" lon="10.233433227986097">
        <ele>1881.1300000000001</ele>
        <time>2022-09-07T07:48:50Z</time>
      </trkpt>
      <trkpt lat="44.107732493430376" lon="10.233411937952042">
        <ele>1879.99</ele>
        <time>2022-09-07T07:49:14Z</time>
      </trkpt>
      <trkpt lat="44.107723943889141" lon="10.233407663181424">
        <ele>1879.8499999999999</ele>
        <time>2022-09-07T07:49:15Z</time>
      </trkpt>
      <trkpt lat="44.107700055465102" lon="10.233376231044531">
        <ele>1879.9400000000001</ele>
        <time>2022-09-07T07:49:19Z</time>
      </trkpt>
      <trkpt lat="44.107682537287474" lon="10.233359467238188">
        <ele>1879.3900000000001</ele>
        <time>2022-09-07T07:49:21Z</time>
      </trkpt>
      <trkpt lat="44.10765303298831" lon="10.233357287943363">
        <ele>1877.6099999999999</ele>
        <time>2022-09-07T07:49:27Z</time>
      </trkpt>
      <trkpt lat="44.107608692720532" lon="10.233345301821828">
        <ele>1876.4100000000001</ele>
        <time>2022-09-07T07:49:38Z</time>
      </trkpt>
      <trkpt lat="44.107566280290484" lon="10.233323257416487">
        <ele>1874.22</ele>
        <time>2022-09-07T07:49:50Z</time>
      </trkpt>
      <trkpt lat="44.107518000528216" lon="10.233328957110643">
        <ele>1872.4000000000001</ele>
        <time>2022-09-07T07:50:02Z</time>
      </trkpt>
      <trkpt lat="44.107461255043745" lon="10.233310265466571">
        <ele>1870.25</ele>
        <time>2022-09-07T07:50:12Z</time>
      </trkpt>
      <trkpt lat="44.107408365234733" lon="10.233259806409478">
        <ele>1867.24</ele>
        <time>2022-09-07T07:50:22Z</time>
      </trkpt>
      <trkpt lat="44.107363438233733" lon="10.233222926035523">
        <ele>1865.49</ele>
        <time>2022-09-07T07:50:34Z</time>
      </trkpt>
      <trkpt lat="44.107315912842751" lon="10.233198031783104">
        <ele>1864.7</ele>
        <time>2022-09-07T07:50:47Z</time>
      </trkpt>
      <trkpt lat="44.107290850952268" lon="10.23316609673202">
        <ele>1862.1500000000001</ele>
        <time>2022-09-07T07:50:53Z</time>
      </trkpt>
      <trkpt lat="44.10726117901504" lon="10.233214544132352">
        <ele>1860.79</ele>
        <time>2022-09-07T07:51:05Z</time>
      </trkpt>
      <trkpt lat="44.10723133943975" lon="10.23315385915339">
        <ele>1858.49</ele>
        <time>2022-09-07T07:51:18Z</time>
      </trkpt>
      <trkpt lat="44.107195548713207" lon="10.233171544969082">
        <ele>1856.23</ele>
        <time>2022-09-07T07:51:30Z</time>
      </trkpt>
      <trkpt lat="44.107166212052107" lon="10.233158050104976">
        <ele>1854.1199999999999</ele>
        <time>2022-09-07T07:51:43Z</time>
      </trkpt>
      <trkpt lat="44.107156069949269" lon="10.233142292127013">
        <ele>1852.71</ele>
        <time>2022-09-07T07:51:46Z</time>
      </trkpt>
      <trkpt lat="44.107135450467467" lon="10.233082445338368">
        <ele>1850.03</ele>
        <time>2022-09-07T07:51:56Z</time>
      </trkpt>
      <trkpt lat="44.107133857905865" lon="10.23299996741116">
        <ele>1848.1400000000001</ele>
        <time>2022-09-07T07:52:07Z</time>
      </trkpt>
      <trkpt lat="44.107103683054447" lon="10.233000135049224">
        <ele>1845.4200000000001</ele>
        <time>2022-09-07T07:52:16Z</time>
      </trkpt>
      <trkpt lat="44.10705640912056" lon="10.233037015423179">
        <ele>1843.1900000000001</ele>
        <time>2022-09-07T07:52:26Z</time>
      </trkpt>
      <trkpt lat="44.107037466019392" lon="10.23305612616241">
        <ele>1841.5899999999999</ele>
        <time>2022-09-07T07:52:31Z</time>
      </trkpt>
      <trkpt lat="44.107026234269142" lon="10.233049755915999">
        <ele>1841.53</ele>
        <time>2022-09-07T07:52:43Z</time>
      </trkpt>
      <trkpt lat="44.106999915093184" lon="10.233038188889623">
        <ele>1840.3299999999999</ele>
        <time>2022-09-07T07:52:55Z</time>
      </trkpt>
      <trkpt lat="44.106969404965639" lon="10.233069956302643">
        <ele>1837.7</ele>
        <time>2022-09-07T07:53:06Z</time>
      </trkpt>
      <trkpt lat="44.106914838775992" lon="10.233060400933027">
        <ele>1835.3199999999999</ele>
        <time>2022-09-07T07:53:16Z</time>
      </trkpt>
      <trkpt lat="44.106894470751286" lon="10.233056461438537">
        <ele>1834.76</ele>
        <time>2022-09-07T07:53:25Z</time>
      </trkpt>
      <trkpt lat="44.106883741915226" lon="10.233059395104647">
        <ele>1834.3499999999999</ele>
        <time>2022-09-07T07:53:31Z</time>
      </trkpt>
      <trkpt lat="44.106861865147948" lon="10.233086636289954">
        <ele>1833.3099999999999</ele>
        <time>2022-09-07T07:53:34Z</time>
      </trkpt>
      <trkpt lat="44.10685365088284" lon="10.233098957687616">
        <ele>1833.1900000000001</ele>
        <time>2022-09-07T07:53:35Z</time>
      </trkpt>
      <trkpt lat="44.1068453527987" lon="10.233113039284945">
        <ele>1833.1199999999999</ele>
        <time>2022-09-07T07:53:36Z</time>
      </trkpt>
      <trkpt lat="44.106786930933595" lon="10.233157798647881">
        <ele>1832.1700000000001</ele>
        <time>2022-09-07T07:53:43Z</time>
      </trkpt>
      <trkpt lat="44.106723396107554" lon="10.233167186379433">
        <ele>1831.47</ele>
        <time>2022-09-07T07:53:52Z</time>
      </trkpt>
      <trkpt lat="44.106636056676507" lon="10.23316802456975">
        <ele>1829.5699999999999</ele>
        <time>2022-09-07T07:54:02Z</time>
      </trkpt>
      <trkpt lat="44.106576293706894" lon="10.233186213299632">
        <ele>1828.47</ele>
        <time>2022-09-07T07:54:09Z</time>
      </trkpt>
      <trkpt lat="44.106515273451805" lon="10.233190739527345">
        <ele>1827.27</ele>
        <time>2022-09-07T07:54:17Z</time>
      </trkpt>
      <trkpt lat="44.10644955933094" lon="10.233194846659899">
        <ele>1825.47</ele>
        <time>2022-09-07T07:54:29Z</time>
      </trkpt>
      <trkpt lat="44.106373451650143" lon="10.233178166672587">
        <ele>1822.48</ele>
        <time>2022-09-07T07:54:41Z</time>
      </trkpt>
      <trkpt lat="44.106322405859828" lon="10.233175568282604">
        <ele>1820.1500000000001</ele>
        <time>2022-09-07T07:54:54Z</time>
      </trkpt>
      <trkpt lat="44.106270773336291" lon="10.233145393431187">
        <ele>1817.49</ele>
        <time>2022-09-07T07:55:03Z</time>
      </trkpt>
      <trkpt lat="44.106226181611419" lon="10.233108093962073">
        <ele>1815.9200000000001</ele>
        <time>2022-09-07T07:55:12Z</time>
      </trkpt>
      <trkpt lat="44.106205645948648" lon="10.233107088133693">
        <ele>1813.8199999999999</ele>
        <time>2022-09-07T07:55:16Z</time>
      </trkpt>
      <trkpt lat="44.106173627078533" lon="10.233092587441206">
        <ele>1812.46</ele>
        <time>2022-09-07T07:55:22Z</time>
      </trkpt>
      <trkpt lat="44.106143536046147" lon="10.233074901625514">
        <ele>1811.6600000000001</ele>
        <time>2022-09-07T07:55:26Z</time>
      </trkpt>
      <trkpt lat="44.106133310124278" lon="10.233065681532025">
        <ele>1811.3599999999999</ele>
        <time>2022-09-07T07:55:27Z</time>
      </trkpt>
      <trkpt lat="44.106121994554996" lon="10.23305419832468">
        <ele>1811.05</ele>
        <time>2022-09-07T07:55:28Z</time>
      </trkpt>
      <trkpt lat="44.106070026755333" lon="10.233034668490291">
        <ele>1809.3299999999999</ele>
        <time>2022-09-07T07:55:34Z</time>
      </trkpt>
      <trkpt lat="44.10599559545517" lon="10.233032153919339">
        <ele>1807.1099999999999</ele>
        <time>2022-09-07T07:55:44Z</time>
      </trkpt>
      <trkpt lat="44.105984698981047" lon="10.233028549700975">
        <ele>1807.01</ele>
        <time>2022-09-07T07:55:45Z</time>
      </trkpt>
      <trkpt lat="44.10597363486886" lon="10.233025867491961">
        <ele>1806.71</ele>
        <time>2022-09-07T07:55:46Z</time>
      </trkpt>
      <trkpt lat="44.105900293216109" lon="10.233000051230192">
        <ele>1805.47</ele>
        <time>2022-09-07T07:55:57Z</time>
      </trkpt>
      <trkpt lat="44.105849247425795" lon="10.232994351536036">
        <ele>1803.3900000000001</ele>
        <time>2022-09-07T07:56:09Z</time>
      </trkpt>
      <trkpt lat="44.105838518589735" lon="10.233017401769757">
        <ele>1801.4000000000001</ele>
        <time>2022-09-07T07:56:19Z</time>
      </trkpt>
      <trkpt lat="44.105827957391739" lon="10.233000470325351">
        <ele>1801.1300000000001</ele>
        <time>2022-09-07T07:56:22Z</time>
      </trkpt>
      <trkpt lat="44.105805074796081" lon="10.232981443405151">
        <ele>1801.01</ele>
        <time>2022-09-07T07:56:25Z</time>
      </trkpt>
      <trkpt lat="44.105754280462861" lon="10.232950514182448">
        <ele>1797.5899999999999</ele>
        <time>2022-09-07T07:56:33Z</time>
      </trkpt>
      <trkpt lat="44.105744725093246" lon="10.232944982126355">
        <ele>1797.47</ele>
        <time>2022-09-07T07:56:34Z</time>
      </trkpt>
      <trkpt lat="44.105714801698923" lon="10.232957554981112">
        <ele>1795.78</ele>
        <time>2022-09-07T07:56:38Z</time>
      </trkpt>
      <trkpt lat="44.105698624625802" lon="10.232939617708325">
        <ele>1795.6099999999999</ele>
        <time>2022-09-07T07:56:41Z</time>
      </trkpt>
      <trkpt lat="44.105686638504267" lon="10.232939701527357">
        <ele>1795.05</ele>
        <time>2022-09-07T07:56:42Z</time>
      </trkpt>
      <trkpt lat="44.105672976002097" lon="10.232939030975103">
        <ele>1794.6600000000001</ele>
        <time>2022-09-07T07:56:43Z</time>
      </trkpt>
      <trkpt lat="44.105644896626472" lon="10.232938025146723">
        <ele>1793.9400000000001</ele>
        <time>2022-09-07T07:56:46Z</time>
      </trkpt>
      <trkpt lat="44.105633581057191" lon="10.232941042631865">
        <ele>1793.97</ele>
        <time>2022-09-07T07:56:47Z</time>
      </trkpt>
      <trkpt lat="44.105622181668878" lon="10.232943641021848">
        <ele>1793.78</ele>
        <time>2022-09-07T07:56:48Z</time>
      </trkpt>
      <trkpt lat="44.105572979897261" lon="10.232944563031197">
        <ele>1792.55</ele>
        <time>2022-09-07T07:56:55Z</time>
      </trkpt>
      <trkpt lat="44.105508858337998" lon="10.232910448685288">
        <ele>1791.4300000000001</ele>
        <time>2022-09-07T07:57:05Z</time>
      </trkpt>
      <trkpt lat="44.105441886931658" lon="10.232880106195807">
        <ele>1789.8299999999999</ele>
        <time>2022-09-07T07:57:17Z</time>
      </trkpt>
      <trkpt lat="44.105422189459205" lon="10.232825623825192">
        <ele>1788.6300000000001</ele>
        <time>2022-09-07T07:57:30Z</time>
      </trkpt>
      <trkpt lat="44.105395954102278" lon="10.232796370983124">
        <ele>1786.8900000000001</ele>
        <time>2022-09-07T07:57:43Z</time>
      </trkpt>
      <trkpt lat="44.105338118970394" lon="10.232791844755411">
        <ele>1785.28</ele>
        <time>2022-09-07T07:57:54Z</time>
      </trkpt>
      <trkpt lat="44.105325629934669" lon="10.232777176424861">
        <ele>1784.9200000000001</ele>
        <time>2022-09-07T07:58:05Z</time>
      </trkpt>
      <trkpt lat="44.105310291051865" lon="10.232771812006831">
        <ele>1784.79</ele>
        <time>2022-09-07T07:58:24Z</time>
      </trkpt>
      <trkpt lat="44.105313224717975" lon="10.23278052918613">
        <ele>1784.3</ele>
        <time>2022-09-07T07:58:43Z</time>
      </trkpt>
      <trkpt lat="44.105317080393434" lon="10.232796622440219">
        <ele>1784.4000000000001</ele>
        <time>2022-09-07T07:59:11Z</time>
      </trkpt>
      <trkpt lat="44.105312135070562" lon="10.232782708480954">
        <ele>1784.29</ele>
        <time>2022-09-07T07:59:29Z</time>
      </trkpt>
      <trkpt lat="44.10531590692699" lon="10.232773823663592">
        <ele>1783.95</ele>
        <time>2022-09-07T07:59:46Z</time>
      </trkpt>
      <trkpt lat="44.105315739288926" lon="10.232780110090971">
        <ele>1783.9100000000001</ele>
        <time>2022-09-07T08:00:04Z</time>
      </trkpt>
      <trkpt lat="44.105313559994102" lon="10.232788240537047">
        <ele>1783.4000000000001</ele>
        <time>2022-09-07T08:00:31Z</time>
      </trkpt>
      <trkpt lat="44.105312135070562" lon="10.232788408175111">
        <ele>1783.48</ele>
        <time>2022-09-07T08:00:49Z</time>
      </trkpt>
      <trkpt lat="44.105313224717975" lon="10.232799220830202">
        <ele>1783.6199999999999</ele>
        <time>2022-09-07T08:01:08Z</time>
      </trkpt>
      <trkpt lat="44.105313140898943" lon="10.232796370983124">
        <ele>1783.6600000000001</ele>
        <time>2022-09-07T08:01:29Z</time>
      </trkpt>
      <trkpt lat="44.10531297326088" lon="10.232793772593141">
        <ele>1783.4000000000001</ele>
        <time>2022-09-07T08:01:49Z</time>
      </trkpt>
      <trkpt lat="44.105316996574402" lon="10.232790755107999">
        <ele>1783.9100000000001</ele>
        <time>2022-09-07T08:02:11Z</time>
      </trkpt>
      <trkpt lat="44.105324288830161" lon="10.232791090384126">
        <ele>1783.9400000000001</ele>
        <time>2022-09-07T08:02:31Z</time>
      </trkpt>
      <trkpt lat="44.105330994352698" lon="10.232791844755411">
        <ele>1783.5699999999999</ele>
        <time>2022-09-07T08:02:51Z</time>
      </trkpt>
      <trkpt lat="44.105333592742682" lon="10.232791006565094">
        <ele>1784.0699999999999</ele>
        <time>2022-09-07T08:03:11Z</time>
      </trkpt>
      <trkpt lat="44.105326635763049" lon="10.232785558328032">
        <ele>1784.4300000000001</ele>
        <time>2022-09-07T08:03:26Z</time>
      </trkpt>
      <trkpt lat="44.105320936068892" lon="10.232781283557415">
        <ele>1784.1500000000001</ele>
        <time>2022-09-07T08:03:49Z</time>
      </trkpt>
      <trkpt lat="44.105329988524318" lon="10.232773404568434">
        <ele>1784.6099999999999</ele>
        <time>2022-09-07T08:04:06Z</time>
      </trkpt>
      <trkpt lat="44.105335604399443" lon="10.232751946896315">
        <ele>1784.5899999999999</ele>
        <time>2022-09-07T08:04:28Z</time>
      </trkpt>
      <trkpt lat="44.105327893048525" lon="10.232764184474945">
        <ele>1784.24</ele>
        <time>2022-09-07T08:04:50Z</time>
      </trkpt>
      <trkpt lat="44.105319427326322" lon="10.232773823663592">
        <ele>1784.6199999999999</ele>
        <time>2022-09-07T08:05:09Z</time>
      </trkpt>
      <trkpt lat="44.105327976867557" lon="10.232764352113008">
        <ele>1783.71</ele>
        <time>2022-09-07T08:05:26Z</time>
      </trkpt>
      <trkpt lat="44.105327976867557" lon="10.232777344062924">
        <ele>1784.3499999999999</ele>
        <time>2022-09-07T08:05:48Z</time>
      </trkpt>
      <trkpt lat="44.1053257137537" lon="10.232783546671271">
        <ele>1784.71</ele>
        <time>2022-09-07T08:06:11Z</time>
      </trkpt>
      <trkpt lat="44.105327557772398" lon="10.232785725966096">
        <ele>1784.45</ele>
        <time>2022-09-07T08:06:35Z</time>
      </trkpt>
      <trkpt lat="44.105325797572732" lon="10.23278933018446">
        <ele>1784.0899999999999</ele>
        <time>2022-09-07T08:06:58Z</time>
      </trkpt>
      <trkpt lat="44.10532521083951" lon="10.232791760936379">
        <ele>1783.77</ele>
        <time>2022-09-07T08:07:21Z</time>
      </trkpt>
      <trkpt lat="44.105324624106288" lon="10.232792012393475">
        <ele>1784.02</ele>
        <time>2022-09-07T08:07:42Z</time>
      </trkpt>
      <trkpt lat="44.105323785915971" lon="10.232789246365428">
        <ele>1784.46</ele>
        <time>2022-09-07T08:08:03Z</time>
      </trkpt>
      <trkpt lat="44.105322528630495" lon="10.232793688774109">
        <ele>1784.5599999999999</ele>
        <time>2022-09-07T08:08:25Z</time>
      </trkpt>
      <trkpt lat="44.105325462296605" lon="10.232794862240553">
        <ele>1784.1600000000001</ele>
        <time>2022-09-07T08:08:46Z</time>
      </trkpt>
      <trkpt lat="44.105325294658542" lon="10.232797376811504">
        <ele>1784.3900000000001</ele>
        <time>2022-09-07T08:09:07Z</time>
      </trkpt>
      <trkpt lat="44.105327222496271" lon="10.232801148667932">
        <ele>1784.3099999999999</ele>
        <time>2022-09-07T08:09:28Z</time>
      </trkpt>
      <trkpt lat="44.105329317972064" lon="10.2328010648489">
        <ele>1785.0899999999999</ele>
        <time>2022-09-07T08:09:45Z</time>
      </trkpt>
      <trkpt lat="44.105332754552364" lon="10.232794359326363">
        <ele>1784.3800000000001</ele>
        <time>2022-09-07T08:10:05Z</time>
      </trkpt>
      <trkpt lat="44.10533107817173" lon="10.232787653803825">
        <ele>1784.24</ele>
        <time>2022-09-07T08:10:24Z</time>
      </trkpt>
      <trkpt lat="44.105327054858208" lon="10.232779774814844">
        <ele>1784.1199999999999</ele>
        <time>2022-09-07T08:10:47Z</time>
      </trkpt>
      <trkpt lat="44.105325462296605" lon="10.23278446868062">
        <ele>1784.48</ele>
        <time>2022-09-07T08:11:09Z</time>
      </trkpt>
      <trkpt lat="44.105325797572732" lon="10.232788491994143">
        <ele>1784.1600000000001</ele>
        <time>2022-09-07T08:11:31Z</time>
      </trkpt>
      <trkpt lat="44.105327222496271" lon="10.232803327962756">
        <ele>1785.0599999999999</ele>
        <time>2022-09-07T08:11:53Z</time>
      </trkpt>
      <trkpt lat="44.105328479781747" lon="10.232803160324693">
        <ele>1785.99</ele>
        <time>2022-09-07T08:12:15Z</time>
      </trkpt>
      <trkpt lat="44.105333425104618" lon="10.232812883332372">
        <ele>1786.6199999999999</ele>
        <time>2022-09-07T08:12:30Z</time>
      </trkpt>
      <trkpt lat="44.105350188910961" lon="10.232791425660253">
        <ele>1786.8399999999999</ele>
        <time>2022-09-07T08:12:44Z</time>
      </trkpt>
      <trkpt lat="44.105341890826821" lon="10.232786983251572">
        <ele>1787.4100000000001</ele>
        <time>2022-09-07T08:13:03Z</time>
      </trkpt>
      <trkpt lat="44.105327809229493" lon="10.2327786013484">
        <ele>1787.3699999999999</ele>
        <time>2022-09-07T08:13:31Z</time>
      </trkpt>
      <trkpt lat="44.105281457304955" lon="10.23276736959815">
        <ele>1786.78</ele>
        <time>2022-09-07T08:13:43Z</time>
      </trkpt>
      <trkpt lat="44.105242732912302" lon="10.23274633102119">
        <ele>1785.9100000000001</ele>
        <time>2022-09-07T08:13:49Z</time>
      </trkpt>
      <trkpt lat="44.10523284226656" lon="10.23274197243154">
        <ele>1785.8099999999999</ele>
        <time>2022-09-07T08:13:50Z</time>
      </trkpt>
      <trkpt lat="44.10513561218977" lon="10.2326974645257">
        <ele>1787.22</ele>
        <time>2022-09-07T08:14:03Z</time>
      </trkpt>
      <trkpt lat="44.105047015473247" lon="10.232724705711007">
        <ele>1786.6300000000001</ele>
        <time>2022-09-07T08:14:13Z</time>
      </trkpt>
      <trkpt lat="44.105008039623499" lon="10.23274339735508">
        <ele>1785.9200000000001</ele>
        <time>2022-09-07T08:14:23Z</time>
      </trkpt>
      <trkpt lat="44.104997729882598" lon="10.232744235545397">
        <ele>1785.9100000000001</ele>
        <time>2022-09-07T08:14:24Z</time>
      </trkpt>
      <trkpt lat="44.104986917227507" lon="10.232742894440889">
        <ele>1785.76</ele>
        <time>2022-09-07T08:14:25Z</time>
      </trkpt>
      <trkpt lat="44.1049216222018" lon="10.232721939682961">
        <ele>1785.3199999999999</ele>
        <time>2022-09-07T08:14:33Z</time>
      </trkpt>
      <trkpt lat="44.10491231828928" lon="10.232727136462927">
        <ele>1785.1400000000001</ele>
        <time>2022-09-07T08:14:34Z</time>
      </trkpt>
      <trkpt lat="44.104858422651887" lon="10.232734177261591">
        <ele>1784.73</ele>
        <time>2022-09-07T08:14:43Z</time>
      </trkpt>
      <trkpt lat="44.104820284992456" lon="10.232717413455248">
        <ele>1785.77</ele>
        <time>2022-09-07T08:14:51Z</time>
      </trkpt>
      <trkpt lat="44.104796564206481" lon="10.232715820893645">
        <ele>1785.7</ele>
        <time>2022-09-07T08:15:02Z</time>
      </trkpt>
      <trkpt lat="44.10477208904922" lon="10.23272437043488">
        <ele>1784.49</ele>
        <time>2022-09-07T08:15:13Z</time>
      </trkpt>
      <trkpt lat="44.104726826772094" lon="10.23271850310266">
        <ele>1781.8299999999999</ele>
        <time>2022-09-07T08:15:24Z</time>
      </trkpt>
      <trkpt lat="44.104686928912997" lon="10.232659662142396">
        <ele>1780.1300000000001</ele>
        <time>2022-09-07T08:15:34Z</time>
      </trkpt>
      <trkpt lat="44.104675864800811" lon="10.232659662142396">
        <ele>1778.29</ele>
        <time>2022-09-07T08:15:46Z</time>
      </trkpt>
      <trkpt lat="44.104645187035203" lon="10.232657985761762">
        <ele>1777.01</ele>
        <time>2022-09-07T08:15:53Z</time>
      </trkpt>
      <trkpt lat="44.104618364945054" lon="10.232655052095652">
        <ele>1776.04</ele>
        <time>2022-09-07T08:15:58Z</time>
      </trkpt>
      <trkpt lat="44.104566397145391" lon="10.232620434835553">
        <ele>1773.6900000000001</ele>
        <time>2022-09-07T08:16:08Z</time>
      </trkpt>
      <trkpt lat="44.104534042999148" lon="10.232590679079294">
        <ele>1772.5599999999999</ele>
        <time>2022-09-07T08:16:19Z</time>
      </trkpt>
      <trkpt lat="44.104514932259917" lon="10.232593109831214">
        <ele>1771.03</ele>
        <time>2022-09-07T08:16:29Z</time>
      </trkpt>
      <trkpt lat="44.104485344141722" lon="10.232564862817526">
        <ele>1769.8699999999999</ele>
        <time>2022-09-07T08:16:38Z</time>
      </trkpt>
      <trkpt lat="44.104441171512008" lon="10.232519768178463">
        <ele>1769.6700000000001</ele>
        <time>2022-09-07T08:17:00Z</time>
      </trkpt>
      <trkpt lat="44.10447453148663" lon="10.23253183811903">
        <ele>1769.3499999999999</ele>
        <time>2022-09-07T08:17:17Z</time>
      </trkpt>
      <trkpt lat="44.104461539536715" lon="10.232553631067276">
        <ele>1769.49</ele>
        <time>2022-09-07T08:17:31Z</time>
      </trkpt>
      <trkpt lat="44.104431783780456" lon="10.232527311891317">
        <ele>1767.54</ele>
        <time>2022-09-07T08:17:43Z</time>
      </trkpt>
      <trkpt lat="44.104380486533046" lon="10.232521863654256">
        <ele>1765.8399999999999</ele>
        <time>2022-09-07T08:17:56Z</time>
      </trkpt>
      <trkpt lat="44.104363638907671" lon="10.232511134818196">
        <ele>1765.1099999999999</ele>
        <time>2022-09-07T08:18:08Z</time>
      </trkpt>
      <trkpt lat="44.104334805160761" lon="10.232524713501334">
        <ele>1765.01</ele>
        <time>2022-09-07T08:18:19Z</time>
      </trkpt>
      <trkpt lat="44.104294739663601" lon="10.23252940736711">
        <ele>1762.24</ele>
        <time>2022-09-07T08:18:31Z</time>
      </trkpt>
      <trkpt lat="44.104240760207176" lon="10.232538627460599">
        <ele>1759.8699999999999</ele>
        <time>2022-09-07T08:18:42Z</time>
      </trkpt>
      <trkpt lat="44.104220224544406" lon="10.232560085132718">
        <ele>1757.3499999999999</ele>
        <time>2022-09-07T08:18:53Z</time>
      </trkpt>
      <trkpt lat="44.104193905368447" lon="10.232612555846572">
        <ele>1755.3800000000001</ele>
        <time>2022-09-07T08:19:06Z</time>
      </trkpt>
      <trkpt lat="44.104189546778798" lon="10.232635354623199">
        <ele>1754.24</ele>
        <time>2022-09-07T08:19:15Z</time>
      </trkpt>
      <trkpt lat="44.104177309200168" lon="10.232629654929042">
        <ele>1754.3299999999999</ele>
        <time>2022-09-07T08:19:27Z</time>
      </trkpt>
      <trkpt lat="44.104178650304675" lon="10.232616914436221">
        <ele>1754.6700000000001</ele>
        <time>2022-09-07T08:19:45Z</time>
      </trkpt>
      <trkpt lat="44.104186529293656" lon="10.232622027397156">
        <ele>1755</ele>
        <time>2022-09-07T08:20:11Z</time>
      </trkpt>
      <trkpt lat="44.104176722466946" lon="10.232633091509342">
        <ele>1754.54</ele>
        <time>2022-09-07T08:20:31Z</time>
      </trkpt>
      <trkpt lat="44.10411050543189" lon="10.232662847265601">
        <ele>1751.8699999999999</ele>
        <time>2022-09-07T08:20:46Z</time>
      </trkpt>
      <trkpt lat="44.10405283793807" lon="10.232691094279289">
        <ele>1748.6199999999999</ele>
        <time>2022-09-07T08:21:01Z</time>
      </trkpt>
      <trkpt lat="44.103987207636237" lon="10.232709115371108">
        <ele>1746.51</ele>
        <time>2022-09-07T08:21:16Z</time>
      </trkpt>
      <trkpt lat="44.104033643379807" lon="10.232754293829203">
        <ele>1744.23</ele>
        <time>2022-09-07T08:21:28Z</time>
      </trkpt>
      <trkpt lat="44.103990225121379" lon="10.232778266072273">
        <ele>1742.8499999999999</ele>
        <time>2022-09-07T08:21:37Z</time>
      </trkpt>
      <trkpt lat="44.103903975337744" lon="10.232795448973775">
        <ele>1740.4100000000001</ele>
        <time>2022-09-07T08:21:52Z</time>
      </trkpt>
      <trkpt lat="44.103856282308698" lon="10.232796454802155">
        <ele>1738.22</ele>
        <time>2022-09-07T08:22:03Z</time>
      </trkpt>
      <trkpt lat="44.103801464661956" lon="10.2328235283494">
        <ele>1735.8099999999999</ele>
        <time>2022-09-07T08:22:15Z</time>
      </trkpt>
      <trkpt lat="44.103740360587835" lon="10.232815146446228">
        <ele>1733.1800000000001</ele>
        <time>2022-09-07T08:22:26Z</time>
      </trkpt>
      <trkpt lat="44.103697529062629" lon="10.23284506984055">
        <ele>1731.26</ele>
        <time>2022-09-07T08:22:37Z</time>
      </trkpt>
      <trkpt lat="44.103656373918056" lon="10.232844734564424">
        <ele>1729.5899999999999</ele>
        <time>2022-09-07T08:22:49Z</time>
      </trkpt>
      <trkpt lat="44.103627791628242" lon="10.232851188629866">
        <ele>1727.3900000000001</ele>
        <time>2022-09-07T08:23:02Z</time>
      </trkpt>
      <trkpt lat="44.103628462180495" lon="10.2328528650105">
        <ele>1727.5899999999999</ele>
        <time>2022-09-07T08:23:22Z</time>
      </trkpt>
      <trkpt lat="44.10361890681088" lon="10.232900138944387">
        <ele>1724.9200000000001</ele>
        <time>2022-09-07T08:23:35Z</time>
      </trkpt>
      <trkpt lat="44.103583618998528" lon="10.232933415099978">
        <ele>1721.77</ele>
        <time>2022-09-07T08:23:48Z</time>
      </trkpt>
      <trkpt lat="44.103528968989849" lon="10.232943724840879">
        <ele>1719.1700000000001</ele>
        <time>2022-09-07T08:24:00Z</time>
      </trkpt>
      <trkpt lat="44.1035246104002" lon="10.232931403443217">
        <ele>1718.7</ele>
        <time>2022-09-07T08:24:12Z</time>
      </trkpt>
      <trkpt lat="44.103525951504707" lon="10.232930900529027">
        <ele>1718.78</ele>
        <time>2022-09-07T08:24:31Z</time>
      </trkpt>
      <trkpt lat="44.103513294830918" lon="10.232931906357408">
        <ele>1718.54</ele>
        <time>2022-09-07T08:24:48Z</time>
      </trkpt>
      <trkpt lat="44.103481946513057" lon="10.232938276603818">
        <ele>1717.1099999999999</ele>
        <time>2022-09-07T08:25:00Z</time>
      </trkpt>
      <trkpt lat="44.103443641215563" lon="10.232948334887624">
        <ele>1715.27</ele>
        <time>2022-09-07T08:25:12Z</time>
      </trkpt>
      <trkpt lat="44.103409862145782" lon="10.2329530287534">
        <ele>1714.01</ele>
        <time>2022-09-07T08:25:24Z</time>
      </trkpt>
      <trkpt lat="44.103378430008888" lon="10.232967613264918">
        <ele>1711.6099999999999</ele>
        <time>2022-09-07T08:25:38Z</time>
      </trkpt>
      <trkpt lat="44.103350769728422" lon="10.232998877763748">
        <ele>1709.3499999999999</ele>
        <time>2022-09-07T08:25:49Z</time>
      </trkpt>
      <trkpt lat="44.103346662595868" lon="10.233050091192126">
        <ele>1707.5</ele>
        <time>2022-09-07T08:26:00Z</time>
      </trkpt>
      <trkpt lat="44.103297209367156" lon="10.233054030686617">
        <ele>1705.4100000000001</ele>
        <time>2022-09-07T08:26:12Z</time>
      </trkpt>
      <trkpt lat="44.103261083364487" lon="10.233070878311992">
        <ele>1703.1300000000001</ele>
        <time>2022-09-07T08:26:23Z</time>
      </trkpt>
      <trkpt lat="44.103247253224254" lon="10.233079930767417">
        <ele>1701.6700000000001</ele>
        <time>2022-09-07T08:26:26Z</time>
      </trkpt>
      <trkpt lat="44.103210205212235" lon="10.233075236901641">
        <ele>1700.4000000000001</ele>
        <time>2022-09-07T08:26:37Z</time>
      </trkpt>
      <trkpt lat="44.103219676762819" lon="10.233100382611156">
        <ele>1699.9300000000001</ele>
        <time>2022-09-07T08:26:56Z</time>
      </trkpt>
      <trkpt lat="44.103227807208896" lon="10.23317196406424">
        <ele>1696.8</ele>
        <time>2022-09-07T08:27:05Z</time>
      </trkpt>
      <trkpt lat="44.103234764188528" lon="10.23319392465055">
        <ele>1696</ele>
        <time>2022-09-07T08:27:07Z</time>
      </trkpt>
      <trkpt lat="44.103242894634604" lon="10.233281264081597">
        <ele>1692.95</ele>
        <time>2022-09-07T08:27:16Z</time>
      </trkpt>
      <trkpt lat="44.103238619863987" lon="10.233343709260225">
        <ele>1689.72</ele>
        <time>2022-09-07T08:27:27Z</time>
      </trkpt>
      <trkpt lat="44.103189166635275" lon="10.233360724523664">
        <ele>1687.1500000000001</ele>
        <time>2022-09-07T08:27:38Z</time>
      </trkpt>
      <trkpt lat="44.103114819154143" lon="10.233363155275583">
        <ele>1684.1099999999999</ele>
        <time>2022-09-07T08:27:50Z</time>
      </trkpt>
      <trkpt lat="44.103067796677351" lon="10.23338251747191">
        <ele>1681.5899999999999</ele>
        <time>2022-09-07T08:27:59Z</time>
      </trkpt>
      <trkpt lat="44.103026809170842" lon="10.233361395075917">
        <ele>1680.26</ele>
        <time>2022-09-07T08:28:11Z</time>
      </trkpt>
      <trkpt lat="44.1029910184443" lon="10.233396012336016">
        <ele>1677.8399999999999</ele>
        <time>2022-09-07T08:28:23Z</time>
      </trkpt>
      <trkpt lat="44.102947684004903" lon="10.233414703980088">
        <ele>1675.4100000000001</ele>
        <time>2022-09-07T08:28:36Z</time>
      </trkpt>
      <trkpt lat="44.102917592972517" lon="10.233463486656547">
        <ele>1673.3299999999999</ele>
        <time>2022-09-07T08:28:48Z</time>
      </trkpt>
      <trkpt lat="44.102888256311417" lon="10.233503468334675">
        <ele>1671.3399999999999</ele>
        <time>2022-09-07T08:28:58Z</time>
      </trkpt>
      <trkpt lat="44.102848023176193" lon="10.233542192727327">
        <ele>1669.0599999999999</ele>
        <time>2022-09-07T08:29:10Z</time>
      </trkpt>
      <trkpt lat="44.102798737585545" lon="10.233569936826825">
        <ele>1666.8</ele>
        <time>2022-09-07T08:29:21Z</time>
      </trkpt>
      <trkpt lat="44.102761186659336" lon="10.233584940433502">
        <ele>1665.5899999999999</ele>
        <time>2022-09-07T08:29:31Z</time>
      </trkpt>
      <trkpt lat="44.102700334042311" lon="10.233614109456539">
        <ele>1663.0899999999999</ele>
        <time>2022-09-07T08:29:44Z</time>
      </trkpt>
      <trkpt lat="44.102672673761845" lon="10.233651325106621">
        <ele>1661.1600000000001</ele>
        <time>2022-09-07T08:29:57Z</time>
      </trkpt>
      <trkpt lat="44.102618861943483" lon="10.233665155246854">
        <ele>1658.3199999999999</ele>
        <time>2022-09-07T08:30:08Z</time>
      </trkpt>
      <trkpt lat="44.102559853345156" lon="10.233714943751693">
        <ele>1656.22</ele>
        <time>2022-09-07T08:30:19Z</time>
      </trkpt>
      <trkpt lat="44.102495396509767" lon="10.233757104724646">
        <ele>1654.53</ele>
        <time>2022-09-07T08:30:31Z</time>
      </trkpt>
      <trkpt lat="44.102431358769536" lon="10.233789123594761">
        <ele>1652.99</ele>
        <time>2022-09-07T08:30:44Z</time>
      </trkpt>
      <trkpt lat="44.102373942732811" lon="10.233817286789417">
        <ele>1651.1500000000001</ele>
        <time>2022-09-07T08:30:55Z</time>
      </trkpt>
      <trkpt lat="44.102345779538155" lon="10.233860705047846">
        <ele>1649.6099999999999</ele>
        <time>2022-09-07T08:31:04Z</time>
      </trkpt>
      <trkpt lat="44.10235826857388" lon="10.233880737796426">
        <ele>1649.6199999999999</ele>
        <time>2022-09-07T08:31:14Z</time>
      </trkpt>
      <trkpt lat="44.102363716810942" lon="10.233866991475224">
        <ele>1649.5999999999999</ele>
        <time>2022-09-07T08:31:40Z</time>
      </trkpt>
      <trkpt lat="44.102360280230641" lon="10.233869338408113">
        <ele>1649.3199999999999</ele>
        <time>2022-09-07T08:32:03Z</time>
      </trkpt>
      <trkpt lat="44.102312671020627" lon="10.233871517702937">
        <ele>1649.3900000000001</ele>
        <time>2022-09-07T08:32:20Z</time>
      </trkpt>
      <trkpt lat="44.10230990499258" lon="10.233855340629816">
        <ele>1649.4300000000001</ele>
        <time>2022-09-07T08:32:36Z</time>
      </trkpt>
      <trkpt lat="44.102282244712114" lon="10.23390487767756">
        <ele>1648.96</ele>
        <time>2022-09-07T08:32:49Z</time>
      </trkpt>
      <trkpt lat="44.102199599146843" lon="10.233960533514619">
        <ele>1650.0599999999999</ele>
        <time>2022-09-07T08:33:00Z</time>
      </trkpt>
      <trkpt lat="44.102119971066713" lon="10.234022559598088">
        <ele>1648.9100000000001</ele>
        <time>2022-09-07T08:33:12Z</time>
      </trkpt>
      <trkpt lat="44.10205434076488" lon="10.234111323952675">
        <ele>1646.6199999999999</ele>
        <time>2022-09-07T08:33:27Z</time>
      </trkpt>
      <trkpt lat="44.102023998275399" lon="10.234134793281555">
        <ele>1646.1600000000001</ele>
        <time>2022-09-07T08:33:40Z</time>
      </trkpt>
      <trkpt lat="44.101997511461377" lon="10.2341428399086">
        <ele>1645.6099999999999</ele>
        <time>2022-09-07T08:33:59Z</time>
      </trkpt>
      <trkpt lat="44.101946800947189" lon="10.234150551259518">
        <ele>1645.97</ele>
        <time>2022-09-07T08:34:09Z</time>
      </trkpt>
      <trkpt lat="44.101896090433002" lon="10.234173433855176">
        <ele>1643.49</ele>
        <time>2022-09-07T08:34:21Z</time>
      </trkpt>
      <trkpt lat="44.101855186745524" lon="10.234201848506927">
        <ele>1641.1500000000001</ele>
        <time>2022-09-07T08:34:34Z</time>
      </trkpt>
      <trkpt lat="44.101854851469398" lon="10.234216600656509">
        <ele>1640.4000000000001</ele>
        <time>2022-09-07T08:34:47Z</time>
      </trkpt>
      <trkpt lat="44.101849319413304" lon="10.234214421361685">
        <ele>1639.6900000000001</ele>
        <time>2022-09-07T08:34:56Z</time>
      </trkpt>
      <trkpt lat="44.101802716031671" lon="10.234211906790733">
        <ele>1638.74</ele>
        <time>2022-09-07T08:35:11Z</time>
      </trkpt>
      <trkpt lat="44.101753430441022" lon="10.234210649505258">
        <ele>1637.9000000000001</ele>
        <time>2022-09-07T08:35:17Z</time>
      </trkpt>
      <trkpt lat="44.101733732968569" lon="10.234219031408429">
        <ele>1637.5699999999999</ele>
        <time>2022-09-07T08:35:19Z</time>
      </trkpt>
      <trkpt lat="44.101724093779922" lon="10.234225569292903">
        <ele>1637.24</ele>
        <time>2022-09-07T08:35:20Z</time>
      </trkpt>
      <trkpt lat="44.101669527590275" lon="10.234252642840147">
        <ele>1635.9000000000001</ele>
        <time>2022-09-07T08:35:29Z</time>
      </trkpt>
      <trkpt lat="44.101660056039691" lon="10.23426110856235">
        <ele>1635.47</ele>
        <time>2022-09-07T08:35:30Z</time>
      </trkpt>
      <trkpt lat="44.101649494841695" lon="10.234267814084888">
        <ele>1635.2</ele>
        <time>2022-09-07T08:35:31Z</time>
      </trkpt>
      <trkpt lat="44.101564502343535" lon="10.23430997505784">
        <ele>1632.45</ele>
        <time>2022-09-07T08:35:41Z</time>
      </trkpt>
      <trkpt lat="44.101553102955222" lon="10.234308633953333">
        <ele>1632.1900000000001</ele>
        <time>2022-09-07T08:35:42Z</time>
      </trkpt>
      <trkpt lat="44.101512366905808" lon="10.234310310333967">
        <ele>1631.97</ele>
        <time>2022-09-07T08:35:46Z</time>
      </trkpt>
      <trkpt lat="44.101363336667418" lon="10.234296396374702">
        <ele>1630.5999999999999</ele>
        <time>2022-09-07T08:36:00Z</time>
      </trkpt>
      <trkpt lat="44.101338610053062" lon="10.23421224206686">
        <ele>1632.5699999999999</ele>
        <time>2022-09-07T08:36:14Z</time>
      </trkpt>
      <trkpt lat="44.101338526234031" lon="10.234202770516276">
        <ele>1632.6099999999999</ele>
        <time>2022-09-07T08:36:32Z</time>
      </trkpt>
      <trkpt lat="44.101336849853396" lon="10.234126327559352">
        <ele>1634.46</ele>
        <time>2022-09-07T08:36:43Z</time>
      </trkpt>
      <trkpt lat="44.101350344717503" lon="10.234053824096918">
        <ele>1634.6400000000001</ele>
        <time>2022-09-07T08:36:53Z</time>
      </trkpt>
      <trkpt lat="44.10135512240231" lon="10.234052315354347">
        <ele>1634.72</ele>
        <time>2022-09-07T08:37:09Z</time>
      </trkpt>
      <trkpt lat="44.10136098973453" lon="10.234060445800424">
        <ele>1634.05</ele>
        <time>2022-09-07T08:37:17Z</time>
      </trkpt>
      <trkpt lat="44.10135948099196" lon="10.234073102474213">
        <ele>1633.3599999999999</ele>
        <time>2022-09-07T08:38:07Z</time>
      </trkpt>
      <trkpt lat="44.101358223706484" lon="10.234072180464864">
        <ele>1633.6199999999999</ele>
        <time>2022-09-07T08:38:43Z</time>
      </trkpt>
      <trkpt lat="44.101351434364915" lon="10.234069330617785">
        <ele>1633.95</ele>
        <time>2022-09-07T08:39:08Z</time>
      </trkpt>
      <trkpt lat="44.101346991956234" lon="10.234063798561692">
        <ele>1634.52</ele>
        <time>2022-09-07T08:39:23Z</time>
      </trkpt>
      <trkpt lat="44.101352356374264" lon="10.234070252627134">
        <ele>1635</ele>
        <time>2022-09-07T08:39:41Z</time>
      </trkpt>
      <trkpt lat="44.101357217878103" lon="10.234078885987401">
        <ele>1634.96</ele>
        <time>2022-09-07T08:39:54Z</time>
      </trkpt>
      <trkpt lat="44.101347243413329" lon="10.234067235141993">
        <ele>1634.6900000000001</ele>
        <time>2022-09-07T08:40:20Z</time>
      </trkpt>
      <trkpt lat="44.10134824924171" lon="10.234073856845498">
        <ele>1634.72</ele>
        <time>2022-09-07T08:40:44Z</time>
      </trkpt>
      <trkpt lat="44.101350763812661" lon="10.234079724177718">
        <ele>1634.5599999999999</ele>
        <time>2022-09-07T08:41:10Z</time>
      </trkpt>
      <trkpt lat="44.101349422708154" lon="10.234085842967033">
        <ele>1634.54</ele>
        <time>2022-09-07T08:41:34Z</time>
      </trkpt>
      <trkpt lat="44.101346824318171" lon="10.234088022261858">
        <ele>1634.27</ele>
        <time>2022-09-07T08:41:51Z</time>
      </trkpt>
      <trkpt lat="44.101348668336868" lon="10.23408860899508">
        <ele>1634.52</ele>
        <time>2022-09-07T08:42:09Z</time>
      </trkpt>
      <trkpt lat="44.101348333060741" lon="10.234089195728302">
        <ele>1634.4400000000001</ele>
        <time>2022-09-07T08:42:26Z</time>
      </trkpt>
      <trkpt lat="44.101348081603646" lon="10.234087267890573">
        <ele>1634.3099999999999</ele>
        <time>2022-09-07T08:42:46Z</time>
      </trkpt>
      <trkpt lat="44.101349674165249" lon="10.234087603166699">
        <ele>1634.49</ele>
        <time>2022-09-07T08:43:04Z</time>
      </trkpt>
      <trkpt lat="44.101350344717503" lon="10.234081735834479">
        <ele>1634.54</ele>
        <time>2022-09-07T08:43:29Z</time>
      </trkpt>
      <trkpt lat="44.101309441030025" lon="10.233954666182399">
        <ele>1631.8499999999999</ele>
        <time>2022-09-07T08:43:43Z</time>
      </trkpt>
      <trkpt lat="44.10129108466208" lon="10.233902111649513">
        <ele>1630.74</ele>
        <time>2022-09-07T08:43:48Z</time>
      </trkpt>
      <trkpt lat="44.101239619776607" lon="10.233799014240503">
        <ele>1628.3800000000001</ele>
        <time>2022-09-07T08:44:00Z</time>
      </trkpt>
      <trkpt lat="44.10126325674355" lon="10.233754087239504">
        <ele>1626.75</ele>
        <time>2022-09-07T08:44:11Z</time>
      </trkpt>
      <trkpt lat="44.101370209828019" lon="10.233743777498603">
        <ele>1623.8</ele>
        <time>2022-09-07T08:44:25Z</time>
      </trkpt>
      <trkpt lat="44.101506248116493" lon="10.233681248500943">
        <ele>1620.6600000000001</ele>
        <time>2022-09-07T08:44:40Z</time>
      </trkpt>
      <trkpt lat="44.101564837619662" lon="10.233634645119309">
        <ele>1618.28</ele>
        <time>2022-09-07T08:44:48Z</time>
      </trkpt>
      <trkpt lat="44.101665085181594" lon="10.23350371979177">
        <ele>1616.1199999999999</ele>
        <time>2022-09-07T08:45:01Z</time>
      </trkpt>
      <trkpt lat="44.101681346073747" lon="10.233488297089934">
        <ele>1615.4200000000001</ele>
        <time>2022-09-07T08:45:03Z</time>
      </trkpt>
      <trkpt lat="44.101797686889768" lon="10.233426187187433">
        <ele>1612.23</ele>
        <time>2022-09-07T08:45:16Z</time>
      </trkpt>
      <trkpt lat="44.101892905309796" lon="10.233387462794781">
        <ele>1609.71</ele>
        <time>2022-09-07T08:45:28Z</time>
      </trkpt>
      <trkpt lat="44.1019082441926" lon="10.233354605734348">
        <ele>1608.9000000000001</ele>
        <time>2022-09-07T08:45:31Z</time>
      </trkpt>
      <trkpt lat="44.101913189515471" lon="10.233341949060559">
        <ele>1608.5999999999999</ele>
        <time>2022-09-07T08:45:32Z</time>
      </trkpt>
      <trkpt lat="44.101919559761882" lon="10.233329879119992">
        <ele>1608.3699999999999</ele>
        <time>2022-09-07T08:45:33Z</time>
      </trkpt>
      <trkpt lat="44.101995499804616" lon="10.233200881630182">
        <ele>1605.1600000000001</ele>
        <time>2022-09-07T08:45:47Z</time>
      </trkpt>
      <trkpt lat="44.102048808708787" lon="10.233072806149721">
        <ele>1602</ele>
        <time>2022-09-07T08:45:59Z</time>
      </trkpt>
      <trkpt lat="44.102075127884746" lon="10.232938611879945">
        <ele>1599.02</ele>
        <time>2022-09-07T08:46:12Z</time>
      </trkpt>
      <trkpt lat="44.102082923054695" lon="10.232803244143724">
        <ele>1596.5899999999999</ele>
        <time>2022-09-07T08:46:25Z</time>
      </trkpt>
      <trkpt lat="44.102107146754861" lon="10.232704924419522">
        <ele>1594.1400000000001</ele>
        <time>2022-09-07T08:46:37Z</time>
      </trkpt>
      <trkpt lat="44.102146541699767" lon="10.232593445107341">
        <ele>1591.5999999999999</ele>
        <time>2022-09-07T08:46:48Z</time>
      </trkpt>
      <trkpt lat="44.102174872532487" lon="10.23246637545526">
        <ele>1588.5799999999999</ele>
        <time>2022-09-07T08:46:59Z</time>
      </trkpt>
      <trkpt lat="44.102212591096759" lon="10.232304856181145">
        <ele>1585.8900000000001</ele>
        <time>2022-09-07T08:47:13Z</time>
      </trkpt>
      <trkpt lat="44.102235054597259" lon="10.23217024281621">
        <ele>1582.8399999999999</ele>
        <time>2022-09-07T08:47:25Z</time>
      </trkpt>
      <trkpt lat="44.102238574996591" lon="10.232028337195516">
        <ele>1579.5799999999999</ele>
        <time>2022-09-07T08:47:38Z</time>
      </trkpt>
      <trkpt lat="44.102250309661031" lon="10.231868075206876">
        <ele>1576.49</ele>
        <time>2022-09-07T08:47:51Z</time>
      </trkpt>
      <trkpt lat="44.102267408743501" lon="10.231730611994863">
        <ele>1574.1700000000001</ele>
        <time>2022-09-07T08:48:03Z</time>
      </trkpt>
      <trkpt lat="44.102278640493751" lon="10.231598513200879">
        <ele>1572.3199999999999</ele>
        <time>2022-09-07T08:48:15Z</time>
      </trkpt>
      <trkpt lat="44.10228400491178" lon="10.231464570388198">
        <ele>1570.1400000000001</ele>
        <time>2022-09-07T08:48:26Z</time>
      </trkpt>
      <trkpt lat="44.102266989648342" lon="10.231357868760824">
        <ele>1568.49</ele>
        <time>2022-09-07T08:48:35Z</time>
      </trkpt>
      <trkpt lat="44.102221056818962" lon="10.231391564011574">
        <ele>1566.8099999999999</ele>
        <time>2022-09-07T08:48:46Z</time>
      </trkpt>
      <trkpt lat="44.102222062647343" lon="10.231405980885029">
        <ele>1566.5999999999999</ele>
        <time>2022-09-07T08:48:47Z</time>
      </trkpt>
      <trkpt lat="44.102206723764539" lon="10.231555597856641">
        <ele>1565.25</ele>
        <time>2022-09-07T08:48:58Z</time>
      </trkpt>
      <trkpt lat="44.102135058492422" lon="10.231672693043947">
        <ele>1562.52</ele>
        <time>2022-09-07T08:49:12Z</time>
      </trkpt>
      <trkpt lat="44.102067416533828" lon="10.231778891757131">
        <ele>1560.0899999999999</ele>
        <time>2022-09-07T08:49:24Z</time>
      </trkpt>
      <trkpt lat="44.101997092366219" lon="10.231869332492352">
        <ele>1557.1900000000001</ele>
        <time>2022-09-07T08:49:37Z</time>
      </trkpt>
      <trkpt lat="44.101944537833333" lon="10.231978464871645">
        <ele>1554.71</ele>
        <time>2022-09-07T08:49:49Z</time>
      </trkpt>
      <trkpt lat="44.101925762370229" lon="10.232004784047604">
        <ele>1553.46</ele>
        <time>2022-09-07T08:50:01Z</time>
      </trkpt>
      <trkpt lat="44.101859210059047" lon="10.232077790424228">
        <ele>1551.8299999999999</ele>
        <time>2022-09-07T08:50:13Z</time>
      </trkpt>
      <trkpt lat="44.101784275844693" lon="10.232167895883322">
        <ele>1549.73</ele>
        <time>2022-09-07T08:50:25Z</time>
      </trkpt>
      <trkpt lat="44.101724596694112" lon="10.232244841754436">
        <ele>1546.53</ele>
        <time>2022-09-07T08:50:36Z</time>
      </trkpt>
      <trkpt lat="44.101646142080426" lon="10.232350034639239">
        <ele>1543.6600000000001</ele>
        <time>2022-09-07T08:50:50Z</time>
      </trkpt>
      <trkpt lat="44.101574225351214" lon="10.232408875599504">
        <ele>1542.0999999999999</ele>
        <time>2022-09-07T08:50:59Z</time>
      </trkpt>
      <trkpt lat="44.101516054943204" lon="10.232416754588485">
        <ele>1541.25</ele>
        <time>2022-09-07T08:51:08Z</time>
      </trkpt>
      <trkpt lat="44.101406671106815" lon="10.232432847842574">
        <ele>1538.5899999999999</ele>
        <time>2022-09-07T08:51:20Z</time>
      </trkpt>
      <trkpt lat="44.101309357210994" lon="10.232384651899338">
        <ele>1536.3699999999999</ele>
        <time>2022-09-07T08:51:31Z</time>
      </trkpt>
      <trkpt lat="44.101300807669759" lon="10.232374928891659">
        <ele>1536.1900000000001</ele>
        <time>2022-09-07T08:51:32Z</time>
      </trkpt>
      <trkpt lat="44.101212127134204" lon="10.232301503419876">
        <ele>1534.3599999999999</ele>
        <time>2022-09-07T08:51:44Z</time>
      </trkpt>
      <trkpt lat="44.101104754954576" lon="10.232243835926056">
        <ele>1532.1199999999999</ele>
        <time>2022-09-07T08:51:57Z</time>
      </trkpt>
      <trkpt lat="44.101012051105499" lon="10.232153395190835">
        <ele>1529.8199999999999</ele>
        <time>2022-09-07T08:52:11Z</time>
      </trkpt>
      <trkpt lat="44.100937200710177" lon="10.232052728533745">
        <ele>1527.1900000000001</ele>
        <time>2022-09-07T08:52:24Z</time>
      </trkpt>
      <trkpt lat="44.100895542651415" lon="10.232043508440256">
        <ele>1525.9400000000001</ele>
        <time>2022-09-07T08:52:35Z</time>
      </trkpt>
      <trkpt lat="44.100871402770281" lon="10.232017524540424">
        <ele>1524.4400000000001</ele>
        <time>2022-09-07T08:52:49Z</time>
      </trkpt>
      <trkpt lat="44.100855980068445" lon="10.232002940028906">
        <ele>1524.05</ele>
        <time>2022-09-07T08:52:51Z</time>
      </trkpt>
      <trkpt lat="44.100829409435391" lon="10.231991456821561">
        <ele>1523.52</ele>
        <time>2022-09-07T08:52:54Z</time>
      </trkpt>
      <trkpt lat="44.100746596232057" lon="10.231942841783166">
        <ele>1521.3800000000001</ele>
        <time>2022-09-07T08:53:04Z</time>
      </trkpt>
      <trkpt lat="44.100660346448421" lon="10.231975950300694">
        <ele>1519.23</ele>
        <time>2022-09-07T08:53:16Z</time>
      </trkpt>
      <trkpt lat="44.100599996745586" lon="10.23203931748867">
        <ele>1517.4400000000001</ele>
        <time>2022-09-07T08:53:25Z</time>
      </trkpt>
      <trkpt lat="44.100543754175305" lon="10.232035461813211">
        <ele>1515.51</ele>
        <time>2022-09-07T08:53:31Z</time>
      </trkpt>
      <trkpt lat="44.100519111379981" lon="10.232039233669639">
        <ele>1515.04</ele>
        <time>2022-09-07T08:53:34Z</time>
      </trkpt>
      <trkpt lat="44.100509220734239" lon="10.232043592259288">
        <ele>1514.8399999999999</ele>
        <time>2022-09-07T08:53:35Z</time>
      </trkpt>
      <trkpt lat="44.100462449714541" lon="10.232050130143762">
        <ele>1514.0999999999999</ele>
        <time>2022-09-07T08:53:40Z</time>
      </trkpt>
      <trkpt lat="44.100452223792672" lon="10.232052896171808">
        <ele>1514.02</ele>
        <time>2022-09-07T08:53:41Z</time>
      </trkpt>
      <trkpt lat="44.100331692025065" lon="10.232043508440256">
        <ele>1511.8900000000001</ele>
        <time>2022-09-07T08:53:55Z</time>
      </trkpt>
      <trkpt lat="44.100296488031745" lon="10.232060439884663">
        <ele>1511.4100000000001</ele>
        <time>2022-09-07T08:53:59Z</time>
      </trkpt>
      <trkpt lat="44.100267654284835" lon="10.232209805399179">
        <ele>1508.8299999999999</ele>
        <time>2022-09-07T08:54:13Z</time>
      </trkpt>
      <trkpt lat="44.100235467776656" lon="10.232256408780813">
        <ele>1506.8099999999999</ele>
        <time>2022-09-07T08:54:24Z</time>
      </trkpt>
      <trkpt lat="44.100182075053453" lon="10.232233693823218">
        <ele>1507.1500000000001</ele>
        <time>2022-09-07T08:54:33Z</time>
      </trkpt>
      <trkpt lat="44.100164221599698" lon="10.232197903096676">
        <ele>1506.1099999999999</ele>
        <time>2022-09-07T08:54:45Z</time>
      </trkpt>
      <trkpt lat="44.100143350660801" lon="10.23216144181788">
        <ele>1505.5999999999999</ele>
        <time>2022-09-07T08:55:04Z</time>
      </trkpt>
      <trkpt lat="44.100070763379335" lon="10.232103187590837">
        <ele>1502.8699999999999</ele>
        <time>2022-09-07T08:55:16Z</time>
      </trkpt>
      <trkpt lat="44.100002283230424" lon="10.232080137357116">
        <ele>1501.03</ele>
        <time>2022-09-07T08:55:25Z</time>
      </trkpt>
      <trkpt lat="44.09993807785213" lon="10.232003945857286">
        <ele>1498.3599999999999</ele>
        <time>2022-09-07T08:55:37Z</time>
      </trkpt>
      <trkpt lat="44.099910501390696" lon="10.231973100453615">
        <ele>1497.6600000000001</ele>
        <time>2022-09-07T08:55:41Z</time>
      </trkpt>
      <trkpt lat="44.099844032898545" lon="10.231953067705035">
        <ele>1495.5899999999999</ele>
        <time>2022-09-07T08:55:51Z</time>
      </trkpt>
      <trkpt lat="44.099788125604391" lon="10.231999922543764">
        <ele>1494.05</ele>
        <time>2022-09-07T08:56:02Z</time>
      </trkpt>
      <trkpt lat="44.099751748144627" lon="10.231961449608207">
        <ele>1492.98</ele>
        <time>2022-09-07T08:56:15Z</time>
      </trkpt>
      <trkpt lat="44.099733643233776" lon="10.231939069926739">
        <ele>1492.51</ele>
        <time>2022-09-07T08:56:29Z</time>
      </trkpt>
      <trkpt lat="44.099669940769672" lon="10.231825830414891">
        <ele>1490.54</ele>
        <time>2022-09-07T08:56:43Z</time>
      </trkpt>
      <trkpt lat="44.099626690149307" lon="10.2316855173558">
        <ele>1488.29</ele>
        <time>2022-09-07T08:56:55Z</time>
      </trkpt>
      <trkpt lat="44.09953691996634" lon="10.231619048863649">
        <ele>1485.6300000000001</ele>
        <time>2022-09-07T08:57:08Z</time>
      </trkpt>
      <trkpt lat="44.099471541121602" lon="10.231562471017241">
        <ele>1483.8399999999999</ele>
        <time>2022-09-07T08:57:17Z</time>
      </trkpt>
      <trkpt lat="44.099390907213092" lon="10.231476807966828">
        <ele>1480.6900000000001</ele>
        <time>2022-09-07T08:57:30Z</time>
      </trkpt>
      <trkpt lat="44.09930088557303" lon="10.231477478519082">
        <ele>1477.6900000000001</ele>
        <time>2022-09-07T08:57:43Z</time>
      </trkpt>
      <trkpt lat="44.099232740700245" lon="10.231509413570166">
        <ele>1475.0999999999999</ele>
        <time>2022-09-07T08:57:55Z</time>
      </trkpt>
      <trkpt lat="44.099191837012768" lon="10.231532882899046">
        <ele>1473.53</ele>
        <time>2022-09-07T08:58:03Z</time>
      </trkpt>
      <trkpt lat="44.099111957475543" lon="10.231559704989195">
        <ele>1471.26</ele>
        <time>2022-09-07T08:58:15Z</time>
      </trkpt>
      <trkpt lat="44.09901556558907" lon="10.231592310592532">
        <ele>1468.8399999999999</ele>
        <time>2022-09-07T08:58:27Z</time>
      </trkpt>
      <trkpt lat="44.099005339667201" lon="10.231592394411564">
        <ele>1468.77</ele>
        <time>2022-09-07T08:58:28Z</time>
      </trkpt>
      <trkpt lat="44.098938032984734" lon="10.231552496552467">
        <ele>1466.55</ele>
        <time>2022-09-07T08:58:41Z</time>
      </trkpt>
      <trkpt lat="44.098878018558025" lon="10.231529613956809">
        <ele>1464.76</ele>
        <time>2022-09-07T08:58:49Z</time>
      </trkpt>
      <trkpt lat="44.098800988867879" lon="10.231472868472338">
        <ele>1462.5899999999999</ele>
        <time>2022-09-07T08:59:02Z</time>
      </trkpt>
      <trkpt lat="44.098759079352021" lon="10.231462139636278">
        <ele>1461.3099999999999</ele>
        <time>2022-09-07T08:59:14Z</time>
      </trkpt>
      <trkpt lat="44.098711889237165" lon="10.231441771611571">
        <ele>1459.49</ele>
        <time>2022-09-07T08:59:28Z</time>
      </trkpt>
      <trkpt lat="44.0986134018749" lon="10.231433808803558">
        <ele>1456.8199999999999</ele>
        <time>2022-09-07T08:59:41Z</time>
      </trkpt>
      <trkpt lat="44.09855866804719" lon="10.231394162401557">
        <ele>1455.3599999999999</ele>
        <time>2022-09-07T08:59:48Z</time>
      </trkpt>
      <trkpt lat="44.098465042188764" lon="10.231329454109073">
        <ele>1453.0799999999999</ele>
        <time>2022-09-07T09:00:00Z</time>
      </trkpt>
      <trkpt lat="44.098406787961721" lon="10.231276899576187">
        <ele>1451.1500000000001</ele>
        <time>2022-09-07T09:00:08Z</time>
      </trkpt>
      <trkpt lat="44.098397819325328" lon="10.231267008930445">
        <ele>1450.8099999999999</ele>
        <time>2022-09-07T09:00:09Z</time>
      </trkpt>
      <trkpt lat="44.098331518471241" lon="10.231220489367843">
        <ele>1449.2</ele>
        <time>2022-09-07T09:00:17Z</time>
      </trkpt>
      <trkpt lat="44.098223308101296" lon="10.231113117188215">
        <ele>1446.3399999999999</ele>
        <time>2022-09-07T09:00:32Z</time>
      </trkpt>
      <trkpt lat="44.098111325874925" lon="10.231011025607586">
        <ele>1443.46</ele>
        <time>2022-09-07T09:00:47Z</time>
      </trkpt>
      <trkpt lat="44.098034882918" lon="10.23091153241694">
        <ele>1440.4200000000001</ele>
        <time>2022-09-07T09:01:02Z</time>
      </trkpt>
      <trkpt lat="44.09802901558578" lon="10.230896025896072">
        <ele>1440.27</ele>
        <time>2022-09-07T09:01:03Z</time>
      </trkpt>
      <trkpt lat="44.098024405539036" lon="10.230881189927459">
        <ele>1440.23</ele>
        <time>2022-09-07T09:01:04Z</time>
      </trkpt>
      <trkpt lat="44.098019292578101" lon="10.230865348130465">
        <ele>1440.1199999999999</ele>
        <time>2022-09-07T09:01:05Z</time>
      </trkpt>
      <trkpt lat="44.09801434725523" lon="10.230851350352168">
        <ele>1440.02</ele>
        <time>2022-09-07T09:01:06Z</time>
      </trkpt>
      <trkpt lat="44.097924409434199" lon="10.230664266273379">
        <ele>1437.73</ele>
        <time>2022-09-07T09:01:21Z</time>
      </trkpt>
      <trkpt lat="44.097847966477275" lon="10.23053434677422">
        <ele>1434.77</ele>
        <time>2022-09-07T09:01:35Z</time>
      </trkpt>
      <trkpt lat="44.097813684493303" lon="10.230514565482736">
        <ele>1433.95</ele>
        <time>2022-09-07T09:01:39Z</time>
      </trkpt>
      <trkpt lat="44.097714275121689" lon="10.230437871068716">
        <ele>1431.24</ele>
        <time>2022-09-07T09:01:52Z</time>
      </trkpt>
      <trkpt lat="44.097704803571105" lon="10.230432925745845">
        <ele>1431.04</ele>
        <time>2022-09-07T09:01:53Z</time>
      </trkpt>
      <trkpt lat="44.097584439441562" lon="10.230363188311458">
        <ele>1428.01</ele>
        <time>2022-09-07T09:02:06Z</time>
      </trkpt>
      <trkpt lat="44.097511600703001" lon="10.230267969891429">
        <ele>1425.8900000000001</ele>
        <time>2022-09-07T09:02:18Z</time>
      </trkpt>
      <trkpt lat="44.097478073090315" lon="10.230246596038342">
        <ele>1424.76</ele>
        <time>2022-09-07T09:02:32Z</time>
      </trkpt>
      <trkpt lat="44.097487041726708" lon="10.230245590209961">
        <ele>1424.3599999999999</ele>
        <time>2022-09-07T09:02:49Z</time>
      </trkpt>
      <trkpt lat="44.097490394487977" lon="10.230259839445353">
        <ele>1424.3199999999999</ele>
        <time>2022-09-07T09:03:27Z</time>
      </trkpt>
      <trkpt lat="44.097491316497326" lon="10.230251206085086">
        <ele>1424</ele>
        <time>2022-09-07T09:04:07Z</time>
      </trkpt>
      <trkpt lat="44.097483437508345" lon="10.230263024568558">
        <ele>1423.96</ele>
        <time>2022-09-07T09:04:31Z</time>
      </trkpt>
      <trkpt lat="44.097487209364772" lon="10.230259839445353">
        <ele>1423.99</ele>
        <time>2022-09-07T09:04:54Z</time>
      </trkpt>
      <trkpt lat="44.097485365346074" lon="10.230288757011294">
        <ele>1423.9300000000001</ele>
        <time>2022-09-07T09:05:18Z</time>
      </trkpt>
      <trkpt lat="44.097478576004505" lon="10.230314489454031">
        <ele>1423.8699999999999</ele>
        <time>2022-09-07T09:05:44Z</time>
      </trkpt>
      <trkpt lat="44.097472792491317" lon="10.230302587151527">
        <ele>1423.8499999999999</ele>
        <time>2022-09-07T09:06:07Z</time>
      </trkpt>
      <trkpt lat="44.097485616803169" lon="10.230287499725819">
        <ele>1423.3199999999999</ele>
        <time>2022-09-07T09:06:31Z</time>
      </trkpt>
      <trkpt lat="44.097513193264604" lon="10.230205021798611">
        <ele>1423.54</ele>
        <time>2022-09-07T09:06:57Z</time>
      </trkpt>
      <trkpt lat="44.097496178001165" lon="10.230233101174235">
        <ele>1423.4000000000001</ele>
        <time>2022-09-07T09:07:22Z</time>
      </trkpt>
      <trkpt lat="44.097457202151418" lon="10.230245422571898">
        <ele>1423.51</ele>
        <time>2022-09-07T09:07:48Z</time>
      </trkpt>
      <trkpt lat="44.097461979836226" lon="10.230213906615973">
        <ele>1423.5899999999999</ele>
        <time>2022-09-07T09:08:15Z</time>
      </trkpt>
      <trkpt lat="44.097460471093655" lon="10.230204183608294">
        <ele>1423.5599999999999</ele>
        <time>2022-09-07T09:08:18Z</time>
      </trkpt>
      <trkpt lat="44.097476731985807" lon="10.230183731764555">
        <ele>1423.6300000000001</ele>
        <time>2022-09-07T09:08:43Z</time>
      </trkpt>
      <trkpt lat="44.09748368896544" lon="10.230196304619312">
        <ele>1424.49</ele>
        <time>2022-09-07T09:08:56Z</time>
      </trkpt>
      <trkpt lat="44.097483605146408" lon="10.230221785604954">
        <ele>1424.71</ele>
        <time>2022-09-07T09:09:11Z</time>
      </trkpt>
      <trkpt lat="44.097483940422535" lon="10.230218768119812">
        <ele>1425.48</ele>
        <time>2022-09-07T09:09:24Z</time>
      </trkpt>
      <trkpt lat="44.097480839118361" lon="10.230218851938844">
        <ele>1424.54</ele>
        <time>2022-09-07T09:09:40Z</time>
      </trkpt>
      <trkpt lat="44.097477653995156" lon="10.230227569118142">
        <ele>1424.6300000000001</ele>
        <time>2022-09-07T09:09:59Z</time>
      </trkpt>
      <trkpt lat="44.097455106675625" lon="10.230205776169896">
        <ele>1423.98</ele>
        <time>2022-09-07T09:10:19Z</time>
      </trkpt>
      <trkpt lat="44.097445383667946" lon="10.230199573561549">
        <ele>1423.97</ele>
        <time>2022-09-07T09:10:20Z</time>
      </trkpt>
      <trkpt lat="44.097426105290651" lon="10.230184821411967">
        <ele>1423.6300000000001</ele>
        <time>2022-09-07T09:10:22Z</time>
      </trkpt>
      <trkpt lat="44.097417555749416" lon="10.230176188051701">
        <ele>1423.48</ele>
        <time>2022-09-07T09:10:23Z</time>
      </trkpt>
      <trkpt lat="44.097364163026214" lon="10.230014584958553">
        <ele>1420.8900000000001</ele>
        <time>2022-09-07T09:10:37Z</time>
      </trkpt>
      <trkpt lat="44.09735812805593" lon="10.229925569146872">
        <ele>1419.8099999999999</ele>
        <time>2022-09-07T09:10:44Z</time>
      </trkpt>
      <trkpt lat="44.097355110570788" lon="10.229911906644702">
        <ele>1419.7</ele>
        <time>2022-09-07T09:10:45Z</time>
      </trkpt>
      <trkpt lat="44.0973527636379" lon="10.229895729571581">
        <ele>1419.48</ele>
        <time>2022-09-07T09:10:46Z</time>
      </trkpt>
      <trkpt lat="44.097346058115363" lon="10.229726331308484">
        <ele>1417.6300000000001</ele>
        <time>2022-09-07T09:11:00Z</time>
      </trkpt>
      <trkpt lat="44.097389644011855" lon="10.229771006852388">
        <ele>1415.97</ele>
        <time>2022-09-07T09:11:08Z</time>
      </trkpt>
      <trkpt lat="44.097401211038232" lon="10.229795565828681">
        <ele>1415.6600000000001</ele>
        <time>2022-09-07T09:11:10Z</time>
      </trkpt>
      <trkpt lat="44.097485700622201" lon="10.229963455349207">
        <ele>1413.98</ele>
        <time>2022-09-07T09:11:23Z</time>
      </trkpt>
      <trkpt lat="44.097518306225538" lon="10.229991115629673">
        <ele>1413.3699999999999</ele>
        <time>2022-09-07T09:11:27Z</time>
      </trkpt>
      <trkpt lat="44.097647136077285" lon="10.230088178068399">
        <ele>1411.1300000000001</ele>
        <time>2022-09-07T09:11:43Z</time>
      </trkpt>
      <trkpt lat="44.097774373367429" lon="10.230113072320819">
        <ele>1409.24</ele>
        <time>2022-09-07T09:11:59Z</time>
      </trkpt>
      <trkpt lat="44.097829610109329" lon="10.23010628297925">
        <ele>1408.1300000000001</ele>
        <time>2022-09-07T09:12:06Z</time>
      </trkpt>
      <trkpt lat="44.097951566800475" lon="10.230098823085427">
        <ele>1406.46</ele>
        <time>2022-09-07T09:12:20Z</time>
      </trkpt>
      <trkpt lat="44.098058184608817" lon="10.230136960744858">
        <ele>1404.4200000000001</ele>
        <time>2022-09-07T09:12:34Z</time>
      </trkpt>
      <trkpt lat="44.098072685301304" lon="10.230150707066059">
        <ele>1404.3699999999999</ele>
        <time>2022-09-07T09:12:36Z</time>
      </trkpt>
      <trkpt lat="44.098155414685607" lon="10.230196639895439">
        <ele>1403.1500000000001</ele>
        <time>2022-09-07T09:12:47Z</time>
      </trkpt>
      <trkpt lat="44.098287597298622" lon="10.230270819738507">
        <ele>1400.1199999999999</ele>
        <time>2022-09-07T09:13:04Z</time>
      </trkpt>
      <trkpt lat="44.098366051912308" lon="10.230322955176234">
        <ele>1398.72</ele>
        <time>2022-09-07T09:13:15Z</time>
      </trkpt>
      <trkpt lat="44.09839304164052" lon="10.230319434776902">
        <ele>1398.2</ele>
        <time>2022-09-07T09:13:18Z</time>
      </trkpt>
      <trkpt lat="44.09851374104619" lon="10.23033007979393">
        <ele>1396.3299999999999</ele>
        <time>2022-09-07T09:13:31Z</time>
      </trkpt>
      <trkpt lat="44.098631590604782" lon="10.23034080862999">
        <ele>1394.45</ele>
        <time>2022-09-07T09:13:45Z</time>
      </trkpt>
      <trkpt lat="44.098733095452189" lon="10.230313064530492">
        <ele>1392.03</ele>
        <time>2022-09-07T09:13:59Z</time>
      </trkpt>
      <trkpt lat="44.098818339407444" lon="10.230300994589925">
        <ele>1389.97</ele>
        <time>2022-09-07T09:14:11Z</time>
      </trkpt>
      <trkpt lat="44.098907522857189" lon="10.230269813910127">
        <ele>1387.9200000000001</ele>
        <time>2022-09-07T09:14:24Z</time>
      </trkpt>
      <trkpt lat="44.098882880061865" lon="10.23023184388876">
        <ele>1386.25</ele>
        <time>2022-09-07T09:14:34Z</time>
      </trkpt>
      <trkpt lat="44.098804006353021" lon="10.230216085910797">
        <ele>1384.2</ele>
        <time>2022-09-07T09:14:46Z</time>
      </trkpt>
      <trkpt lat="44.0987204387784" lon="10.23019035346806">
        <ele>1382.8399999999999</ele>
        <time>2022-09-07T09:14:59Z</time>
      </trkpt>
      <trkpt lat="44.098647264763713" lon="10.230088261887431">
        <ele>1380.46</ele>
        <time>2022-09-07T09:15:13Z</time>
      </trkpt>
      <trkpt lat="44.098554812371731" lon="10.230001844465733">
        <ele>1377.75</ele>
        <time>2022-09-07T09:15:26Z</time>
      </trkpt>
      <trkpt lat="44.098488260060549" lon="10.229963455349207">
        <ele>1376.6600000000001</ele>
        <time>2022-09-07T09:15:34Z</time>
      </trkpt>
      <trkpt lat="44.098419612273574" lon="10.229872427880764">
        <ele>1374.6600000000001</ele>
        <time>2022-09-07T09:15:47Z</time>
      </trkpt>
      <trkpt lat="44.09835297614336" lon="10.229760529473424">
        <ele>1372.54</ele>
        <time>2022-09-07T09:16:01Z</time>
      </trkpt>
      <trkpt lat="44.098267061635852" lon="10.229664808139205">
        <ele>1370.27</ele>
        <time>2022-09-07T09:16:14Z</time>
      </trkpt>
      <trkpt lat="44.098212914541364" lon="10.229560201987624">
        <ele>1368.3499999999999</ele>
        <time>2022-09-07T09:16:26Z</time>
      </trkpt>
      <trkpt lat="44.098141165450215" lon="10.229438915848732">
        <ele>1365.72</ele>
        <time>2022-09-07T09:16:40Z</time>
      </trkpt>
      <trkpt lat="44.098059609532356" lon="10.22935283370316">
        <ele>1363.1700000000001</ele>
        <time>2022-09-07T09:16:53Z</time>
      </trkpt>
      <trkpt lat="44.097981993108988" lon="10.229296591132879">
        <ele>1360.6600000000001</ele>
        <time>2022-09-07T09:17:05Z</time>
      </trkpt>
      <trkpt lat="44.097942933440208" lon="10.229279408231378">
        <ele>1360.03</ele>
        <time>2022-09-07T09:17:10Z</time>
      </trkpt>
      <trkpt lat="44.097932875156403" lon="10.229273457080126">
        <ele>1359.8399999999999</ele>
        <time>2022-09-07T09:17:11Z</time>
      </trkpt>
      <trkpt lat="44.097923403605819" lon="10.229267003014684">
        <ele>1359.7</ele>
        <time>2022-09-07T09:17:12Z</time>
      </trkpt>
      <trkpt lat="44.097864730283618" lon="10.229184608906507">
        <ele>1357.26</ele>
        <time>2022-09-07T09:17:25Z</time>
      </trkpt>
      <trkpt lat="44.097806727513671" lon="10.229066759347916">
        <ele>1355.5599999999999</ele>
        <time>2022-09-07T09:17:36Z</time>
      </trkpt>
      <trkpt lat="44.097771188244224" lon="10.228941366076469">
        <ele>1353.6400000000001</ele>
        <time>2022-09-07T09:17:48Z</time>
      </trkpt>
      <trkpt lat="44.097691308706999" lon="10.228779846802354">
        <ele>1352.22</ele>
        <time>2022-09-07T09:18:03Z</time>
      </trkpt>
      <trkpt lat="44.097680244594812" lon="10.22867314517498">
        <ele>1350.0799999999999</ele>
        <time>2022-09-07T09:18:15Z</time>
      </trkpt>
      <trkpt lat="44.097667085006833" lon="10.228595277294517">
        <ele>1349.1700000000001</ele>
        <time>2022-09-07T09:18:21Z</time>
      </trkpt>
      <trkpt lat="44.097663899883628" lon="10.228582117706537">
        <ele>1348.9000000000001</ele>
        <time>2022-09-07T09:18:22Z</time>
      </trkpt>
      <trkpt lat="44.097622241824865" lon="10.228480361402035">
        <ele>1347.6800000000001</ele>
        <time>2022-09-07T09:18:31Z</time>
      </trkpt>
      <trkpt lat="44.097554096952081" lon="10.228374917060137">
        <ele>1345.51</ele>
        <time>2022-09-07T09:18:45Z</time>
      </trkpt>
      <trkpt lat="44.097541105002165" lon="10.228334181010723">
        <ele>1344.8900000000001</ele>
        <time>2022-09-07T09:18:49Z</time>
      </trkpt>
      <trkpt lat="44.097580667585135" lon="10.228321775794029">
        <ele>1342.71</ele>
        <time>2022-09-07T09:18:57Z</time>
      </trkpt>
      <trkpt lat="44.097625091671944" lon="10.228331247344613">
        <ele>1341.27</ele>
        <time>2022-09-07T09:19:08Z</time>
      </trkpt>
      <trkpt lat="44.097641184926033" lon="10.228327307850122">
        <ele>1340.6800000000001</ele>
        <time>2022-09-07T09:19:23Z</time>
      </trkpt>
      <trkpt lat="44.097656942903996" lon="10.22833401337266">
        <ele>1340.4100000000001</ele>
        <time>2022-09-07T09:19:25Z</time>
      </trkpt>
      <trkpt lat="44.09766691736877" lon="10.228339629247785">
        <ele>1340.23</ele>
        <time>2022-09-07T09:19:26Z</time>
      </trkpt>
      <trkpt lat="44.097705725580454" lon="10.228372318670154">
        <ele>1339.3900000000001</ele>
        <time>2022-09-07T09:19:31Z</time>
      </trkpt>
      <trkpt lat="44.097790466621518" lon="10.228522438555956">
        <ele>1338.4200000000001</ele>
        <time>2022-09-07T09:19:45Z</time>
      </trkpt>
      <trkpt lat="44.097796753048897" lon="10.228542303666472">
        <ele>1337.8900000000001</ele>
        <time>2022-09-07T09:19:47Z</time>
      </trkpt>
      <trkpt lat="44.097808068618178" lon="10.228556049987674">
        <ele>1337.8900000000001</ele>
        <time>2022-09-07T09:19:48Z</time>
      </trkpt>
      <trkpt lat="44.097821563482285" lon="10.228570634499192">
        <ele>1337.78</ele>
        <time>2022-09-07T09:19:49Z</time>
      </trkpt>
      <trkpt lat="44.097831957042217" lon="10.228582285344601">
        <ele>1337.4400000000001</ele>
        <time>2022-09-07T09:19:50Z</time>
      </trkpt>
      <trkpt lat="44.097843356430531" lon="10.228592762723565">
        <ele>1337.28</ele>
        <time>2022-09-07T09:19:51Z</time>
      </trkpt>
      <trkpt lat="44.097853749990463" lon="10.228603910654783">
        <ele>1337.2</ele>
        <time>2022-09-07T09:19:52Z</time>
      </trkpt>
      <trkpt lat="44.097863053902984" lon="10.228613801300526">
        <ele>1337.01</ele>
        <time>2022-09-07T09:19:53Z</time>
      </trkpt>
      <trkpt lat="44.097872693091631" lon="10.228621009737253">
        <ele>1336.8699999999999</ele>
        <time>2022-09-07T09:19:54Z</time>
      </trkpt>
      <trkpt lat="44.09794888459146" lon="10.228709438815713">
        <ele>1335.5899999999999</ele>
        <time>2022-09-07T09:20:05Z</time>
      </trkpt>
      <trkpt lat="44.097957098856568" lon="10.228719161823392">
        <ele>1335.52</ele>
        <time>2022-09-07T09:20:06Z</time>
      </trkpt>
      <trkpt lat="44.097966235131025" lon="10.228730142116547">
        <ele>1335.24</ele>
        <time>2022-09-07T09:20:07Z</time>
      </trkpt>
      <trkpt lat="44.098125407472253" lon="10.228808429092169">
        <ele>1333.3800000000001</ele>
        <time>2022-09-07T09:20:22Z</time>
      </trkpt>
      <trkpt lat="44.098255326971412" lon="10.228809686377645">
        <ele>1331.1800000000001</ele>
        <time>2022-09-07T09:20:36Z</time>
      </trkpt>
      <trkpt lat="44.098312072455883" lon="10.228824522346258">
        <ele>1330.4200000000001</ele>
        <time>2022-09-07T09:20:49Z</time>
      </trkpt>
      <trkpt lat="44.098323136568069" lon="10.228826450183988">
        <ele>1330.22</ele>
        <time>2022-09-07T09:20:50Z</time>
      </trkpt>
      <trkpt lat="44.098333781585097" lon="10.228828880935907">
        <ele>1329.8099999999999</ele>
        <time>2022-09-07T09:20:51Z</time>
      </trkpt>
      <trkpt lat="44.098493373021483" lon="10.228897444903851">
        <ele>1327.29</ele>
        <time>2022-09-07T09:21:07Z</time>
      </trkpt>
      <trkpt lat="44.098635111004114" lon="10.228934157639742">
        <ele>1325.1600000000001</ele>
        <time>2022-09-07T09:21:23Z</time>
      </trkpt>
      <trkpt lat="44.098715158179402" lon="10.228903396055102">
        <ele>1323.0699999999999</ele>
        <time>2022-09-07T09:21:35Z</time>
      </trkpt>
      <trkpt lat="44.09877659752965" lon="10.22885050624609">
        <ele>1321.22</ele>
        <time>2022-09-07T09:21:47Z</time>
      </trkpt>
      <trkpt lat="44.098802749067545" lon="10.22883927449584">
        <ele>1320.5</ele>
        <time>2022-09-07T09:22:00Z</time>
      </trkpt>
      <trkpt lat="44.098802329972386" lon="10.228846147656441">
        <ele>1320.1300000000001</ele>
        <time>2022-09-07T09:22:15Z</time>
      </trkpt>
      <trkpt lat="44.098794115707278" lon="10.228862073272467">
        <ele>1319.4400000000001</ele>
        <time>2022-09-07T09:22:32Z</time>
      </trkpt>
      <trkpt lat="44.098807610571384" lon="10.228821001946926">
        <ele>1318.8800000000001</ele>
        <time>2022-09-07T09:22:52Z</time>
      </trkpt>
      <trkpt lat="44.098801575601101" lon="10.228838855400681">
        <ele>1319.0799999999999</ele>
        <time>2022-09-07T09:23:10Z</time>
      </trkpt>
      <trkpt lat="44.098801072686911" lon="10.228834161534905">
        <ele>1318.6700000000001</ele>
        <time>2022-09-07T09:23:27Z</time>
      </trkpt>
      <trkpt lat="44.098804341629148" lon="10.228830389678478">
        <ele>1318.1400000000001</ele>
        <time>2022-09-07T09:23:38Z</time>
      </trkpt>
      <trkpt lat="44.098802749067545" lon="10.228830724954605">
        <ele>1317.74</ele>
        <time>2022-09-07T09:24:11Z</time>
      </trkpt>
      <trkpt lat="44.098804006353021" lon="10.228829635307193">
        <ele>1317.8499999999999</ele>
        <time>2022-09-07T09:25:05Z</time>
      </trkpt>
      <trkpt lat="44.098801575601101" lon="10.228840280324221">
        <ele>1317.8499999999999</ele>
        <time>2022-09-07T09:25:55Z</time>
      </trkpt>
      <trkpt lat="44.098795540630817" lon="10.228843465447426">
        <ele>1317.29</ele>
        <time>2022-09-07T09:26:41Z</time>
      </trkpt>
      <trkpt lat="44.098795792087913" lon="10.228843381628394">
        <ele>1316.79</ele>
        <time>2022-09-07T09:27:24Z</time>
      </trkpt>
      <trkpt lat="44.098796881735325" lon="10.228841286152601">
        <ele>1316.72</ele>
        <time>2022-09-07T09:28:14Z</time>
      </trkpt>
      <trkpt lat="44.098801910877228" lon="10.228837346658111">
        <ele>1316.54</ele>
        <time>2022-09-07T09:29:02Z</time>
      </trkpt>
      <trkpt lat="44.098797552287579" lon="10.228837598115206">
        <ele>1316.05</ele>
        <time>2022-09-07T09:29:38Z</time>
      </trkpt>
      <trkpt lat="44.098796714097261" lon="10.228842878714204">
        <ele>1315.73</ele>
        <time>2022-09-07T09:30:13Z</time>
      </trkpt>
      <trkpt lat="44.098797384649515" lon="10.228848997503519">
        <ele>1316.6199999999999</ele>
        <time>2022-09-07T09:30:31Z</time>
      </trkpt>
      <trkpt lat="44.09880006685853" lon="10.228850087150931">
        <ele>1316.51</ele>
        <time>2022-09-07T09:30:43Z</time>
      </trkpt>
      <trkpt lat="44.098786907270551" lon="10.228851428255439">
        <ele>1316.4200000000001</ele>
        <time>2022-09-07T09:31:01Z</time>
      </trkpt>
      <trkpt lat="44.098785482347012" lon="10.228822594508529">
        <ele>1316.0699999999999</ele>
        <time>2022-09-07T09:31:16Z</time>
      </trkpt>
      <trkpt lat="44.098731083795428" lon="10.228810273110867">
        <ele>1314.79</ele>
        <time>2022-09-07T09:31:28Z</time>
      </trkpt>
      <trkpt lat="44.098634356632829" lon="10.228821337223053">
        <ele>1312.27</ele>
        <time>2022-09-07T09:31:41Z</time>
      </trkpt>
      <trkpt lat="44.098625304177403" lon="10.228825528174639">
        <ele>1312.0799999999999</ele>
        <time>2022-09-07T09:31:42Z</time>
      </trkpt>
      <trkpt lat="44.098614826798439" lon="10.228826366364956">
        <ele>1311.77</ele>
        <time>2022-09-07T09:31:43Z</time>
      </trkpt>
      <trkpt lat="44.09860510379076" lon="10.228825528174639">
        <ele>1311.5899999999999</ele>
        <time>2022-09-07T09:31:44Z</time>
      </trkpt>
      <trkpt lat="44.09859579987824" lon="10.228819996118546">
        <ele>1311.6199999999999</ele>
        <time>2022-09-07T09:31:45Z</time>
      </trkpt>
      <trkpt lat="44.098588591441512" lon="10.228810356929898">
        <ele>1311.55</ele>
        <time>2022-09-07T09:31:46Z</time>
      </trkpt>
      <trkpt lat="44.098582053557038" lon="10.228799460455775">
        <ele>1311.46</ele>
        <time>2022-09-07T09:31:47Z</time>
      </trkpt>
      <trkpt lat="44.098481386899948" lon="10.228662583976984">
        <ele>1308.45</ele>
        <time>2022-09-07T09:32:03Z</time>
      </trkpt>
      <trkpt lat="44.098427407443523" lon="10.228558564558625">
        <ele>1305.3599999999999</ele>
        <time>2022-09-07T09:32:13Z</time>
      </trkpt>
      <trkpt lat="44.098331267014146" lon="10.228434596210718">
        <ele>1302.3</ele>
        <time>2022-09-07T09:32:28Z</time>
      </trkpt>
      <trkpt lat="44.098262451589108" lon="10.228333761915565">
        <ele>1299.21</ele>
        <time>2022-09-07T09:32:42Z</time>
      </trkpt>
      <trkpt lat="44.098243089392781" lon="10.228248434141278">
        <ele>1298.26</ele>
        <time>2022-09-07T09:32:51Z</time>
      </trkpt>
      <trkpt lat="44.09822884015739" lon="10.228199902921915">
        <ele>1297.3499999999999</ele>
        <time>2022-09-07T09:32:55Z</time>
      </trkpt>
      <trkpt lat="44.098183494061232" lon="10.228049950674176">
        <ele>1294.3</ele>
        <time>2022-09-07T09:33:09Z</time>
      </trkpt>
      <trkpt lat="44.098171424120665" lon="10.227957582101226">
        <ele>1294.1500000000001</ele>
        <time>2022-09-07T09:33:22Z</time>
      </trkpt>
      <trkpt lat="44.098170166835189" lon="10.227907039225101">
        <ele>1292.22</ele>
        <time>2022-09-07T09:33:26Z</time>
      </trkpt>
      <trkpt lat="44.098129514604807" lon="10.227758847177029">
        <ele>1289.1600000000001</ele>
        <time>2022-09-07T09:33:39Z</time>
      </trkpt>
      <trkpt lat="44.098064554855227" lon="10.227673519402742">
        <ele>1285.99</ele>
        <time>2022-09-07T09:33:49Z</time>
      </trkpt>
      <trkpt lat="44.09800655208528" lon="10.227589784190059">
        <ele>1282.73</ele>
        <time>2022-09-07T09:34:01Z</time>
      </trkpt>
      <trkpt lat="44.097931114956737" lon="10.227459110319614">
        <ele>1280.51</ele>
        <time>2022-09-07T09:34:17Z</time>
      </trkpt>
      <trkpt lat="44.097907394170761" lon="10.227393815293908">
        <ele>1277.8599999999999</ele>
        <time>2022-09-07T09:34:26Z</time>
      </trkpt>
      <trkpt lat="44.097895491868258" lon="10.227221231907606">
        <ele>1275.5899999999999</ele>
        <time>2022-09-07T09:34:40Z</time>
      </trkpt>
      <trkpt lat="44.097896749153733" lon="10.227124085649848">
        <ele>1273.6099999999999</ele>
        <time>2022-09-07T09:34:47Z</time>
      </trkpt>
      <trkpt lat="44.097878392785788" lon="10.227057617157698">
        <ele>1273.3900000000001</ele>
        <time>2022-09-07T09:34:51Z</time>
      </trkpt>
      <trkpt lat="44.097870597615838" lon="10.227041942998767">
        <ele>1273.1400000000001</ele>
        <time>2022-09-07T09:34:52Z</time>
      </trkpt>
      <trkpt lat="44.097824832424521" lon="10.226913532242179">
        <ele>1270.1099999999999</ele>
        <time>2022-09-07T09:35:03Z</time>
      </trkpt>
      <trkpt lat="44.097807314246893" lon="10.226739272475243">
        <ele>1267.22</ele>
        <time>2022-09-07T09:35:16Z</time>
      </trkpt>
      <trkpt lat="44.097790801897645" lon="10.226581273600459">
        <ele>1264.99</ele>
        <time>2022-09-07T09:35:28Z</time>
      </trkpt>
      <trkpt lat="44.097780827432871" lon="10.226521510630846">
        <ele>1263.71</ele>
        <time>2022-09-07T09:35:34Z</time>
      </trkpt>
      <trkpt lat="44.097755597904325" lon="10.226437607780099">
        <ele>1261.75</ele>
        <time>2022-09-07T09:35:41Z</time>
      </trkpt>
      <trkpt lat="44.097747132182121" lon="10.226253708824515">
        <ele>1259.54</ele>
        <time>2022-09-07T09:35:54Z</time>
      </trkpt>
      <trkpt lat="44.09771628677845" lon="10.226177936419845">
        <ele>1257.51</ele>
        <time>2022-09-07T09:36:04Z</time>
      </trkpt>
      <trkpt lat="44.097690721973777" lon="10.226161759346724">
        <ele>1256.8900000000001</ele>
        <time>2022-09-07T09:36:18Z</time>
      </trkpt>
      <trkpt lat="44.097630623728037" lon="10.226123034954071">
        <ele>1256.0999999999999</ele>
        <time>2022-09-07T09:36:26Z</time>
      </trkpt>
      <trkpt lat="44.097558371722698" lon="10.226123118773103">
        <ele>1254.55</ele>
        <time>2022-09-07T09:36:34Z</time>
      </trkpt>
      <trkpt lat="44.097494166344404" lon="10.226141894236207">
        <ele>1253.24</ele>
        <time>2022-09-07T09:36:41Z</time>
      </trkpt>
      <trkpt lat="44.097483018413186" lon="10.226142145693302">
        <ele>1253.01</ele>
        <time>2022-09-07T09:36:42Z</time>
      </trkpt>
      <trkpt lat="44.097471535205841" lon="10.226142648607492">
        <ele>1252.8499999999999</ele>
        <time>2022-09-07T09:36:43Z</time>
      </trkpt>
      <trkpt lat="44.09744119271636" lon="10.226126052439213">
        <ele>1252.29</ele>
        <time>2022-09-07T09:36:47Z</time>
      </trkpt>
      <trkpt lat="44.097415124997497" lon="10.226104762405157">
        <ele>1251.5899999999999</ele>
        <time>2022-09-07T09:36:50Z</time>
      </trkpt>
      <trkpt lat="44.097329210489988" lon="10.226010046899319">
        <ele>1249.5799999999999</ele>
        <time>2022-09-07T09:37:01Z</time>
      </trkpt>
      <trkpt lat="44.097312530502677" lon="10.22597836330533">
        <ele>1248.8599999999999</ele>
        <time>2022-09-07T09:37:04Z</time>
      </trkpt>
      <trkpt lat="44.097259640693665" lon="10.2258659619838">
        <ele>1246.3699999999999</ele>
        <time>2022-09-07T09:37:15Z</time>
      </trkpt>
      <trkpt lat="44.097160147503018" lon="10.225737215951085">
        <ele>1243.22</ele>
        <time>2022-09-07T09:37:30Z</time>
      </trkpt>
      <trkpt lat="44.097111700102687" lon="10.225663706660271">
        <ele>1241.3299999999999</ele>
        <time>2022-09-07T09:37:40Z</time>
      </trkpt>
      <trkpt lat="44.097060486674309" lon="10.225558346137404">
        <ele>1238.74</ele>
        <time>2022-09-07T09:37:51Z</time>
      </trkpt>
      <trkpt lat="44.097029222175479" lon="10.225458182394505">
        <ele>1237.28</ele>
        <time>2022-09-07T09:37:59Z</time>
      </trkpt>
      <trkpt lat="44.097027629613876" lon="10.225440580397844">
        <ele>1236.98</ele>
        <time>2022-09-07T09:38:00Z</time>
      </trkpt>
      <trkpt lat="44.097028132528067" lon="10.225422391667962">
        <ele>1236.8199999999999</ele>
        <time>2022-09-07T09:38:01Z</time>
      </trkpt>
      <trkpt lat="44.097051350399852" lon="10.225233379751444">
        <ele>1235.46</ele>
        <time>2022-09-07T09:38:15Z</time>
      </trkpt>
      <trkpt lat="44.09705420024693" lon="10.225129192695022">
        <ele>1233.77</ele>
        <time>2022-09-07T09:38:24Z</time>
      </trkpt>
      <trkpt lat="44.097054032608867" lon="10.224966164678335">
        <ele>1230.77</ele>
        <time>2022-09-07T09:38:37Z</time>
      </trkpt>
      <trkpt lat="44.09705663099885" lon="10.224953005090356">
        <ele>1230.5899999999999</ele>
        <time>2022-09-07T09:38:38Z</time>
      </trkpt>
      <trkpt lat="44.097084710374475" lon="10.224785450845957">
        <ele>1228.5599999999999</ele>
        <time>2022-09-07T09:38:50Z</time>
      </trkpt>
      <trkpt lat="44.097064509987831" lon="10.224662069231272">
        <ele>1226.76</ele>
        <time>2022-09-07T09:39:00Z</time>
      </trkpt>
      <trkpt lat="44.09706249833107" lon="10.22464781999588">
        <ele>1226.5599999999999</ele>
        <time>2022-09-07T09:39:01Z</time>
      </trkpt>
      <trkpt lat="44.09707716666162" lon="10.224483450874686">
        <ele>1223.4100000000001</ele>
        <time>2022-09-07T09:39:15Z</time>
      </trkpt>
      <trkpt lat="44.097078507766128" lon="10.224290583282709">
        <ele>1220.24</ele>
        <time>2022-09-07T09:39:31Z</time>
      </trkpt>
      <trkpt lat="44.09703953191638" lon="10.224181618541479">
        <ele>1218</ele>
        <time>2022-09-07T09:39:41Z</time>
      </trkpt>
      <trkpt lat="44.096956718713045" lon="10.224074749276042">
        <ele>1215.0899999999999</ele>
        <time>2022-09-07T09:39:55Z</time>
      </trkpt>
      <trkpt lat="44.096874576061964" lon="10.224076844751835">
        <ele>1212.3699999999999</ele>
        <time>2022-09-07T09:40:06Z</time>
      </trkpt>
      <trkpt lat="44.096802994608879" lon="10.224130991846323">
        <ele>1209.8099999999999</ele>
        <time>2022-09-07T09:40:18Z</time>
      </trkpt>
      <trkpt lat="44.096712302416563" lon="10.224175835028291">
        <ele>1208.04</ele>
        <time>2022-09-07T09:40:29Z</time>
      </trkpt>
      <trkpt lat="44.096572324633598" lon="10.224182121455669">
        <ele>1205.54</ele>
        <time>2022-09-07T09:40:45Z</time>
      </trkpt>
      <trkpt lat="44.096557404845953" lon="10.224219672381878">
        <ele>1204.98</ele>
        <time>2022-09-07T09:40:50Z</time>
      </trkpt>
      <trkpt lat="44.096553381532431" lon="10.224234340712428">
        <ele>1204.9000000000001</ele>
        <time>2022-09-07T09:40:51Z</time>
      </trkpt>
      <trkpt lat="44.096488673239946" lon="10.22437172010541">
        <ele>1202.01</ele>
        <time>2022-09-07T09:41:03Z</time>
      </trkpt>
      <trkpt lat="44.096385324373841" lon="10.224517481401563">
        <ele>1200.1400000000001</ele>
        <time>2022-09-07T09:41:17Z</time>
      </trkpt>
      <trkpt lat="44.096301756799221" lon="10.224541621282697">
        <ele>1199.0599999999999</ele>
        <time>2022-09-07T09:41:25Z</time>
      </trkpt>
      <trkpt lat="44.096290441229939" lon="10.224535251036286">
        <ele>1198.9400000000001</ele>
        <time>2022-09-07T09:41:26Z</time>
      </trkpt>
      <trkpt lat="44.096280131489038" lon="10.224528880789876">
        <ele>1198.78</ele>
        <time>2022-09-07T09:41:27Z</time>
      </trkpt>
      <trkpt lat="44.096204778179526" lon="10.22444405592978">
        <ele>1197.1600000000001</ele>
        <time>2022-09-07T09:41:36Z</time>
      </trkpt>
      <trkpt lat="44.096211399883032" lon="10.224418910220265">
        <ele>1196.77</ele>
        <time>2022-09-07T09:41:38Z</time>
      </trkpt>
      <trkpt lat="44.096220619976521" lon="10.224411701783538">
        <ele>1196.6800000000001</ele>
        <time>2022-09-07T09:41:39Z</time>
      </trkpt>
      <trkpt lat="44.096231181174517" lon="10.224411198869348">
        <ele>1196.5599999999999</ele>
        <time>2022-09-07T09:41:40Z</time>
      </trkpt>
      <trkpt lat="44.096309551969171" lon="10.22442108951509">
        <ele>1194.26</ele>
        <time>2022-09-07T09:41:50Z</time>
      </trkpt>
      <trkpt lat="44.096322292461991" lon="10.224406505003572">
        <ele>1194.01</ele>
        <time>2022-09-07T09:41:57Z</time>
      </trkpt>
      <trkpt lat="44.096332266926765" lon="10.224399548023939">
        <ele>1193.6900000000001</ele>
        <time>2022-09-07T09:41:58Z</time>
      </trkpt>
      <trkpt lat="44.096341906115413" lon="10.224391417577863">
        <ele>1193.3399999999999</ele>
        <time>2022-09-07T09:41:59Z</time>
      </trkpt>
      <trkpt lat="44.096351210027933" lon="10.224382700398564">
        <ele>1193.1800000000001</ele>
        <time>2022-09-07T09:42:00Z</time>
      </trkpt>
      <trkpt lat="44.096416169777513" lon="10.224208943545818">
        <ele>1190.5</ele>
        <time>2022-09-07T09:42:14Z</time>
      </trkpt>
      <trkpt lat="44.09643217921257" lon="10.224099140614271">
        <ele>1189.1099999999999</ele>
        <time>2022-09-07T09:42:22Z</time>
      </trkpt>
      <trkpt lat="44.096431760117412" lon="10.224083550274372">
        <ele>1188.8199999999999</ele>
        <time>2022-09-07T09:42:23Z</time>
      </trkpt>
      <trkpt lat="44.096439052373171" lon="10.223888168111444">
        <ele>1185.6199999999999</ele>
        <time>2022-09-07T09:42:38Z</time>
      </trkpt>
      <trkpt lat="44.096493953838944" lon="10.223773922771215">
        <ele>1182.4300000000001</ele>
        <time>2022-09-07T09:42:49Z</time>
      </trkpt>
      <trkpt lat="44.096609288826585" lon="10.223716674372554">
        <ele>1179.25</ele>
        <time>2022-09-07T09:43:03Z</time>
      </trkpt>
      <trkpt lat="44.096631081774831" lon="10.223689517006278">
        <ele>1178.6099999999999</ele>
        <time>2022-09-07T09:43:06Z</time>
      </trkpt>
      <trkpt lat="44.096639966592193" lon="10.223677530884743">
        <ele>1178.27</ele>
        <time>2022-09-07T09:43:07Z</time>
      </trkpt>
      <trkpt lat="44.096725126728415" lon="10.223532859236002">
        <ele>1175.03</ele>
        <time>2022-09-07T09:43:21Z</time>
      </trkpt>
      <trkpt lat="44.096796624362469" lon="10.223386511206627">
        <ele>1171.97</ele>
        <time>2022-09-07T09:43:34Z</time>
      </trkpt>
      <trkpt lat="44.096846748143435" lon="10.223251562565565">
        <ele>1168.76</ele>
        <time>2022-09-07T09:43:47Z</time>
      </trkpt>
      <trkpt lat="44.09689879976213" lon="10.223133126273751">
        <ele>1166.6400000000001</ele>
        <time>2022-09-07T09:43:59Z</time>
      </trkpt>
      <trkpt lat="44.096932159736753" lon="10.223062634468079">
        <ele>1164.97</ele>
        <time>2022-09-07T09:44:11Z</time>
      </trkpt>
      <trkpt lat="44.096927298232913" lon="10.22307151928544">
        <ele>1165.27</ele>
        <time>2022-09-07T09:44:24Z</time>
      </trkpt>
      <trkpt lat="44.096942469477654" lon="10.223078560084105">
        <ele>1165.0999999999999</ele>
        <time>2022-09-07T09:44:27Z</time>
      </trkpt>
      <trkpt lat="44.09702536650002" lon="10.223143603652716">
        <ele>1162.9200000000001</ele>
        <time>2022-09-07T09:44:39Z</time>
      </trkpt>
      <trkpt lat="44.097088985145092" lon="10.223228763788939">
        <ele>1159.95</ele>
        <time>2022-09-07T09:44:53Z</time>
      </trkpt>
      <trkpt lat="44.097200380638242" lon="10.223278217017651">
        <ele>1157.9100000000001</ele>
        <time>2022-09-07T09:45:06Z</time>
      </trkpt>
      <trkpt lat="44.09730389714241" lon="10.223342590034008">
        <ele>1155.24</ele>
        <time>2022-09-07T09:45:19Z</time>
      </trkpt>
      <trkpt lat="44.09736055880785" lon="10.223380895331502">
        <ele>1153.75</ele>
        <time>2022-09-07T09:45:30Z</time>
      </trkpt>
      <trkpt lat="44.097407581284642" lon="10.223476868122816">
        <ele>1152.22</ele>
        <time>2022-09-07T09:45:39Z</time>
      </trkpt>
      <trkpt lat="44.09747832454741" lon="10.223551299422979">
        <ele>1149.9400000000001</ele>
        <time>2022-09-07T09:45:50Z</time>
      </trkpt>
      <trkpt lat="44.097573291510344" lon="10.223584827035666">
        <ele>1147.52</ele>
        <time>2022-09-07T09:46:02Z</time>
      </trkpt>
      <trkpt lat="44.09762249328196" lon="10.223554987460375">
        <ele>1146.5799999999999</ele>
        <time>2022-09-07T09:46:08Z</time>
      </trkpt>
      <trkpt lat="44.097620062530041" lon="10.223500421270728">
        <ele>1144.78</ele>
        <time>2022-09-07T09:46:19Z</time>
      </trkpt>
      <trkpt lat="44.097601873800159" lon="10.223507545888424">
        <ele>1144.3900000000001</ele>
        <time>2022-09-07T09:46:21Z</time>
      </trkpt>
      <trkpt lat="44.097509924322367" lon="10.223463457077742">
        <ele>1141.3900000000001</ele>
        <time>2022-09-07T09:46:34Z</time>
      </trkpt>
      <trkpt lat="44.097475642338395" lon="10.223333118483424">
        <ele>1138.8599999999999</ele>
        <time>2022-09-07T09:46:45Z</time>
      </trkpt>
      <trkpt lat="44.097472792491317" lon="10.223175203427672">
        <ele>1136.8399999999999</ele>
        <time>2022-09-07T09:46:58Z</time>
      </trkpt>
      <trkpt lat="44.097487209364772" lon="10.223130192607641">
        <ele>1135.8900000000001</ele>
        <time>2022-09-07T09:47:11Z</time>
      </trkpt>
      <trkpt lat="44.097492573782802" lon="10.223109237849712">
        <ele>1136.1199999999999</ele>
        <time>2022-09-07T09:47:13Z</time>
      </trkpt>
      <trkpt lat="44.097514366731048" lon="10.223056767135859">
        <ele>1135.8299999999999</ele>
        <time>2022-09-07T09:47:24Z</time>
      </trkpt>
      <trkpt lat="44.097515037283301" lon="10.223033968359232">
        <ele>1135.8</ele>
        <time>2022-09-07T09:47:26Z</time>
      </trkpt>
      <trkpt lat="44.097539847716689" lon="10.222909161821008">
        <ele>1135.1700000000001</ele>
        <time>2022-09-07T09:47:41Z</time>
      </trkpt>
      <trkpt lat="44.097549570724368" lon="10.222922153770924">
        <ele>1135.21</ele>
        <time>2022-09-07T09:47:55Z</time>
      </trkpt>
      <trkpt lat="44.097540182992816" lon="10.222952160984278">
        <ele>1135.1400000000001</ele>
        <time>2022-09-07T09:48:16Z</time>
      </trkpt>
      <trkpt lat="44.097543284296989" lon="10.222951658070087">
        <ele>1135.28</ele>
        <time>2022-09-07T09:48:31Z</time>
      </trkpt>
      <trkpt lat="44.097606902942061" lon="10.222967248409986">
        <ele>1135.71</ele>
        <time>2022-09-07T09:48:43Z</time>
      </trkpt>
      <trkpt lat="44.097579577937722" lon="10.222975630313158">
        <ele>1135.4100000000001</ele>
        <time>2022-09-07T09:48:53Z</time>
      </trkpt>
      <trkpt lat="44.097561556845903" lon="10.222958028316498">
        <ele>1135.1500000000001</ele>
        <time>2022-09-07T09:49:03Z</time>
      </trkpt>
      <trkpt lat="44.097562646493316" lon="10.222952580079436">
        <ele>1134.5599999999999</ele>
        <time>2022-09-07T09:49:24Z</time>
      </trkpt>
      <trkpt lat="44.097519982606173" lon="10.223004966974258">
        <ele>1135.3099999999999</ele>
        <time>2022-09-07T09:49:36Z</time>
      </trkpt>
      <trkpt lat="44.097467763349414" lon="10.222931038588285">
        <ele>1133.3499999999999</ele>
        <time>2022-09-07T09:49:48Z</time>
      </trkpt>
      <trkpt lat="44.097392912954092" lon="10.222854595631361">
        <ele>1131.6099999999999</ele>
        <time>2022-09-07T09:49:59Z</time>
      </trkpt>
      <trkpt lat="44.097327450290322" lon="10.222785109654069">
        <ele>1129.27</ele>
        <time>2022-09-07T09:50:11Z</time>
      </trkpt>
      <trkpt lat="44.097316469997168" lon="10.222762646153569">
        <ele>1128.5</ele>
        <time>2022-09-07T09:50:24Z</time>
      </trkpt>
      <trkpt lat="44.097290569916368" lon="10.222746888175607">
        <ele>1128.3800000000001</ele>
        <time>2022-09-07T09:50:39Z</time>
      </trkpt>
      <trkpt lat="44.097292246297002" lon="10.222806986421347">
        <ele>1128.0699999999999</ele>
        <time>2022-09-07T09:51:10Z</time>
      </trkpt>
      <trkpt lat="44.097318230196834" lon="10.222761305049062">
        <ele>1127.98</ele>
        <time>2022-09-07T09:51:26Z</time>
      </trkpt>
      <trkpt lat="44.097276823595166" lon="10.222675055265427">
        <ele>1126.1099999999999</ele>
        <time>2022-09-07T09:51:41Z</time>
      </trkpt>
      <trkpt lat="44.097222257405519" lon="10.222597690299153">
        <ele>1123.5899999999999</ele>
        <time>2022-09-07T09:51:54Z</time>
      </trkpt>
      <trkpt lat="44.09718026407063" lon="10.222519319504499">
        <ele>1121.79</ele>
        <time>2022-09-07T09:52:05Z</time>
      </trkpt>
      <trkpt lat="44.097126284614205" lon="10.222455030307174">
        <ele>1119.3299999999999</ele>
        <time>2022-09-07T09:52:16Z</time>
      </trkpt>
      <trkpt lat="44.097052272409201" lon="10.222371630370617">
        <ele>1116.8399999999999</ele>
        <time>2022-09-07T09:52:30Z</time>
      </trkpt>
      <trkpt lat="44.096986642107368" lon="10.222323937341571">
        <ele>1114.5599999999999</ele>
        <time>2022-09-07T09:52:43Z</time>
      </trkpt>
      <trkpt lat="44.096992341801524" lon="10.222271298989654">
        <ele>1112.6400000000001</ele>
        <time>2022-09-07T09:52:54Z</time>
      </trkpt>
      <trkpt lat="44.097097618505359" lon="10.222275489941239">
        <ele>1110.8800000000001</ele>
        <time>2022-09-07T09:53:07Z</time>
      </trkpt>
      <trkpt lat="44.097133409231901" lon="10.222246572375298">
        <ele>1109</ele>
        <time>2022-09-07T09:53:20Z</time>
      </trkpt>
      <trkpt lat="44.097076077014208" lon="10.222163423895836">
        <ele>1106.6500000000001</ele>
        <time>2022-09-07T09:53:32Z</time>
      </trkpt>
      <trkpt lat="44.096968621015549" lon="10.222140289843082">
        <ele>1104.0699999999999</ele>
        <time>2022-09-07T09:53:46Z</time>
      </trkpt>
      <trkpt lat="44.096852531656623" lon="10.222136937081814">
        <ele>1100.8800000000001</ele>
        <time>2022-09-07T09:54:01Z</time>
      </trkpt>
      <trkpt lat="44.096898548305035" lon="10.222058817744255">
        <ele>1099.0699999999999</ele>
        <time>2022-09-07T09:54:11Z</time>
      </trkpt>
      <trkpt lat="44.096998544409871" lon="10.221976172178984">
        <ele>1096.4400000000001</ele>
        <time>2022-09-07T09:54:25Z</time>
      </trkpt>
      <trkpt lat="44.097089488059282" lon="10.221904423087835">
        <ele>1093.4000000000001</ele>
        <time>2022-09-07T09:54:38Z</time>
      </trkpt>
      <trkpt lat="44.097193172201514" lon="10.221908697858453">
        <ele>1090.6199999999999</ele>
        <time>2022-09-07T09:54:52Z</time>
      </trkpt>
      <trkpt lat="44.097311105579138" lon="10.221949853003025">
        <ele>1087.6900000000001</ele>
        <time>2022-09-07T09:55:08Z</time>
      </trkpt>
      <trkpt lat="44.097415879368782" lon="10.221957815811038">
        <ele>1084.6500000000001</ele>
        <time>2022-09-07T09:55:22Z</time>
      </trkpt>
      <trkpt lat="44.0975271910429" lon="10.221931161358953">
        <ele>1081.6400000000001</ele>
        <time>2022-09-07T09:55:38Z</time>
      </trkpt>
      <trkpt lat="44.097574381157756" lon="10.221834350377321">
        <ele>1079.6700000000001</ele>
        <time>2022-09-07T09:55:51Z</time>
      </trkpt>
      <trkpt lat="44.097503805533051" lon="10.221792021766305">
        <ele>1076.6500000000001</ele>
        <time>2022-09-07T09:56:04Z</time>
      </trkpt>
      <trkpt lat="44.09744412638247" lon="10.221720691770315">
        <ele>1074.05</ele>
        <time>2022-09-07T09:56:17Z</time>
      </trkpt>
      <trkpt lat="44.097374808043242" lon="10.221633352339268">
        <ele>1071.1600000000001</ele>
        <time>2022-09-07T09:56:32Z</time>
      </trkpt>
      <trkpt lat="44.097349997609854" lon="10.221566548570991">
        <ele>1069.4000000000001</ele>
        <time>2022-09-07T09:56:43Z</time>
      </trkpt>
      <trkpt lat="44.097271207720041" lon="10.221493290737271">
        <ele>1066.8499999999999</ele>
        <time>2022-09-07T09:56:54Z</time>
      </trkpt>
      <trkpt lat="44.097159476950765" lon="10.221399581059813">
        <ele>1063.79</ele>
        <time>2022-09-07T09:57:09Z</time>
      </trkpt>
      <trkpt lat="44.097074316814542" lon="10.221386924386024">
        <ele>1060.5899999999999</ele>
        <time>2022-09-07T09:57:21Z</time>
      </trkpt>
      <trkpt lat="44.096987312659621" lon="10.22139354608953">
        <ele>1057.5799999999999</ele>
        <time>2022-09-07T09:57:33Z</time>
      </trkpt>
      <trkpt lat="44.096894692629576" lon="10.221376279368997">
        <ele>1054.4000000000001</ele>
        <time>2022-09-07T09:57:46Z</time>
      </trkpt>
      <trkpt lat="44.096798049286008" lon="10.221338979899883">
        <ele>1051.3199999999999</ele>
        <time>2022-09-07T09:58:00Z</time>
      </trkpt>
      <trkpt lat="44.096696376800537" lon="10.221306290477514">
        <ele>1048.6400000000001</ele>
        <time>2022-09-07T09:58:13Z</time>
      </trkpt>
      <trkpt lat="44.096605768427253" lon="10.22124988026917">
        <ele>1045.8299999999999</ele>
        <time>2022-09-07T09:58:26Z</time>
      </trkpt>
      <trkpt lat="44.096533013507724" lon="10.22118492051959">
        <ele>1043.4400000000001</ele>
        <time>2022-09-07T09:58:38Z</time>
      </trkpt>
      <trkpt lat="44.096433604136109" lon="10.221210988238454">
        <ele>1040.3399999999999</ele>
        <time>2022-09-07T09:58:51Z</time>
      </trkpt>
      <trkpt lat="44.096395382657647" lon="10.221249461174011">
        <ele>1038.78</ele>
        <time>2022-09-07T09:59:03Z</time>
      </trkpt>
      <trkpt lat="44.09638817422092" lon="10.221235882490873">
        <ele>1038.6900000000001</ele>
        <time>2022-09-07T09:59:29Z</time>
      </trkpt>
      <trkpt lat="44.096366968005896" lon="10.221248958259821">
        <ele>1038.1600000000001</ele>
        <time>2022-09-07T09:59:50Z</time>
      </trkpt>
      <trkpt lat="44.096299493685365" lon="10.221252730116248">
        <ele>1036.78</ele>
        <time>2022-09-07T10:00:03Z</time>
      </trkpt>
      <trkpt lat="44.096192540600896" lon="10.221313582733274">
        <ele>1033.95</ele>
        <time>2022-09-07T10:00:17Z</time>
      </trkpt>
      <trkpt lat="44.096104698255658" lon="10.221363287419081">
        <ele>1031.76</ele>
        <time>2022-09-07T10:00:28Z</time>
      </trkpt>
      <trkpt lat="44.096005456522107" lon="10.221328921616077">
        <ele>1029.53</ele>
        <time>2022-09-07T10:00:40Z</time>
      </trkpt>
      <trkpt lat="44.095922308042645" lon="10.221247198060155">
        <ele>1027.01</ele>
        <time>2022-09-07T10:00:52Z</time>
      </trkpt>
      <trkpt lat="44.095897078514099" lon="10.221225405111909">
        <ele>1026.0799999999999</ele>
        <time>2022-09-07T10:00:55Z</time>
      </trkpt>
      <trkpt lat="44.0958331245929" lon="10.221149632707238">
        <ele>1023.99</ele>
        <time>2022-09-07T10:01:05Z</time>
      </trkpt>
      <trkpt lat="44.095749892294407" lon="10.221050977706909">
        <ele>1020.91</ele>
        <time>2022-09-07T10:01:19Z</time>
      </trkpt>
      <trkpt lat="44.095700522884727" lon="10.22094989195466">
        <ele>1018.37</ele>
        <time>2022-09-07T10:01:30Z</time>
      </trkpt>
      <trkpt lat="44.095671689137816" lon="10.220869844779372">
        <ele>1016.8099999999999</ele>
        <time>2022-09-07T10:01:42Z</time>
      </trkpt>
      <trkpt lat="44.095636652782559" lon="10.220762053504586">
        <ele>1014.42</ele>
        <time>2022-09-07T10:01:54Z</time>
      </trkpt>
      <trkpt lat="44.095574291422963" lon="10.220660213381052">
        <ele>1010.3200000000001</ele>
        <time>2022-09-07T10:02:06Z</time>
      </trkpt>
      <trkpt lat="44.095624750480056" lon="10.220574634149671">
        <ele>1009.1</ele>
        <time>2022-09-07T10:02:17Z</time>
      </trkpt>
      <trkpt lat="44.095678813755512" lon="10.220584105700254">
        <ele>1007.5</ele>
        <time>2022-09-07T10:02:27Z</time>
      </trkpt>
      <trkpt lat="44.095760369673371" lon="10.220687286928296">
        <ele>1005.16</ele>
        <time>2022-09-07T10:02:43Z</time>
      </trkpt>
      <trkpt lat="44.095851732417941" lon="10.22073682397604">
        <ele>1002.41</ele>
        <time>2022-09-07T10:02:58Z</time>
      </trkpt>
      <trkpt lat="44.095929516479373" lon="10.220750905573368">
        <ele>1000.48</ele>
        <time>2022-09-07T10:03:10Z</time>
      </trkpt>
      <trkpt lat="44.096023226156831" lon="10.220721568912268">
        <ele>997.89999999999998</ele>
        <time>2022-09-07T10:03:23Z</time>
      </trkpt>
      <trkpt lat="44.096109308302402" lon="10.220630206167698">
        <ele>995.36000000000001</ele>
        <time>2022-09-07T10:03:37Z</time>
      </trkpt>
      <trkpt lat="44.096175106242299" lon="10.220526689663529">
        <ele>992.75999999999999</ele>
        <time>2022-09-07T10:03:51Z</time>
      </trkpt>
      <trkpt lat="44.096207963302732" lon="10.220489725470543">
        <ele>991.61000000000001</ele>
        <time>2022-09-07T10:04:04Z</time>
      </trkpt>
      <trkpt lat="44.096295218914747" lon="10.220434572547674">
        <ele>989.24000000000001</ele>
        <time>2022-09-07T10:04:18Z</time>
      </trkpt>
      <trkpt lat="44.096400998532772" lon="10.220348406583071">
        <ele>986.11000000000001</ele>
        <time>2022-09-07T10:04:33Z</time>
      </trkpt>
      <trkpt lat="44.09647224470973" lon="10.220294008031487">
        <ele>983.54999999999995</ele>
        <time>2022-09-07T10:04:45Z</time>
      </trkpt>
      <trkpt lat="44.096572073176503" lon="10.220225611701608">
        <ele>980.80999999999995</ele>
        <time>2022-09-07T10:05:00Z</time>
      </trkpt>
      <trkpt lat="44.096709955483675" lon="10.220210775732994">
        <ele>977.66999999999996</ele>
        <time>2022-09-07T10:05:17Z</time>
      </trkpt>
      <trkpt lat="44.096833923831582" lon="10.220201890915632">
        <ele>974.98000000000002</ele>
        <time>2022-09-07T10:05:33Z</time>
      </trkpt>
      <trkpt lat="44.096932662650943" lon="10.220126286149025">
        <ele>972.11000000000001</ele>
        <time>2022-09-07T10:05:48Z</time>
      </trkpt>
      <trkpt lat="44.096979266032577" lon="10.220081862062216">
        <ele>970.66999999999996</ele>
        <time>2022-09-07T10:06:04Z</time>
      </trkpt>
      <trkpt lat="44.097008602693677" lon="10.22003517486155">
        <ele>969.62</ele>
        <time>2022-09-07T10:06:24Z</time>
      </trkpt>
      <trkpt lat="44.097046237438917" lon="10.220011286437511">
        <ele>968.80999999999995</ele>
        <time>2022-09-07T10:06:37Z</time>
      </trkpt>
      <trkpt lat="44.097101893275976" lon="10.219954373314977">
        <ele>967.83000000000004</ele>
        <time>2022-09-07T10:06:47Z</time>
      </trkpt>
      <trkpt lat="44.097187137231231" lon="10.219835937023163">
        <ele>964.92999999999995</ele>
        <time>2022-09-07T10:07:02Z</time>
      </trkpt>
      <trkpt lat="44.097189148887992" lon="10.219828309491277">
        <ele>964.48000000000002</ele>
        <time>2022-09-07T10:07:19Z</time>
      </trkpt>
      <trkpt lat="44.097195351496339" lon="10.219827387481928">
        <ele>964.61000000000001</ele>
        <time>2022-09-07T10:07:30Z</time>
      </trkpt>
      <trkpt lat="44.097192753106356" lon="10.219818251207471">
        <ele>964.37</ele>
        <time>2022-09-07T10:07:50Z</time>
      </trkpt>
      <trkpt lat="44.097202476114035" lon="10.21980257704854">
        <ele>963.85000000000002</ele>
        <time>2022-09-07T10:08:06Z</time>
      </trkpt>
      <trkpt lat="44.09721253439784" lon="10.219800733029842">
        <ele>964.63</ele>
        <time>2022-09-07T10:08:27Z</time>
      </trkpt>
      <trkpt lat="44.09725402481854" lon="10.219756979495287">
        <ele>963</ele>
        <time>2022-09-07T10:08:33Z</time>
      </trkpt>
      <trkpt lat="44.09726089797914" lon="10.219746753573418">
        <ele>962.72000000000003</ele>
        <time>2022-09-07T10:08:34Z</time>
      </trkpt>
      <trkpt lat="44.097267184406519" lon="10.219735270366073">
        <ele>962.62</ele>
        <time>2022-09-07T10:08:35Z</time>
      </trkpt>
      <trkpt lat="44.097336921840906" lon="10.219598896801472">
        <ele>960.54999999999995</ele>
        <time>2022-09-07T10:08:49Z</time>
      </trkpt>
      <trkpt lat="44.097354020923376" lon="10.219549192115664">
        <ele>959.65999999999997</ele>
        <time>2022-09-07T10:09:02Z</time>
      </trkpt>
      <trkpt lat="44.097349494695663" lon="10.219558998942375">
        <ele>959.78999999999996</ele>
        <time>2022-09-07T10:09:22Z</time>
      </trkpt>
      <trkpt lat="44.097347650676966" lon="10.219550281763077">
        <ele>959.61000000000001</ele>
        <time>2022-09-07T10:09:38Z</time>
      </trkpt>
      <trkpt lat="44.097317978739738" lon="10.21956947632134">
        <ele>959.20000000000005</ele>
        <time>2022-09-07T10:09:50Z</time>
      </trkpt>
      <trkpt lat="44.097280092537403" lon="10.219587162137032">
        <ele>958.58000000000004</ele>
        <time>2022-09-07T10:09:54Z</time>
      </trkpt>
      <trkpt lat="44.097152184695005" lon="10.219670394435525">
        <ele>955.98000000000002</ele>
        <time>2022-09-07T10:10:07Z</time>
      </trkpt>
      <trkpt lat="44.097087141126394" lon="10.219702497124672">
        <ele>951.73000000000002</ele>
        <time>2022-09-07T10:10:14Z</time>
      </trkpt>
      <trkpt lat="44.097078172490001" lon="10.219706688076258">
        <ele>952.70000000000005</ele>
        <time>2022-09-07T10:10:15Z</time>
      </trkpt>
      <trkpt lat="44.097069371491671" lon="10.219710543751717">
        <ele>956.49000000000001</ele>
        <time>2022-09-07T10:10:16Z</time>
      </trkpt>
      <trkpt lat="44.097059145569801" lon="10.219713393598795">
        <ele>955.16999999999996</ele>
        <time>2022-09-07T10:10:17Z</time>
      </trkpt>
      <trkpt lat="44.097029976546764" lon="10.219717416912317">
        <ele>953.32000000000005</ele>
        <time>2022-09-07T10:10:20Z</time>
      </trkpt>
      <trkpt lat="44.09691883251071" lon="10.219742814078927">
        <ele>950.27999999999997</ele>
        <time>2022-09-07T10:10:32Z</time>
      </trkpt>
      <trkpt lat="44.096805090084672" lon="10.219759745523334">
        <ele>947.24000000000001</ele>
        <time>2022-09-07T10:10:45Z</time>
      </trkpt>
      <trkpt lat="44.09667257219553" lon="10.219691768288612">
        <ele>944.19000000000005</ele>
        <time>2022-09-07T10:11:00Z</time>
      </trkpt>
      <trkpt lat="44.096637452021241" lon="10.219661761075258">
        <ele>943.38999999999999</ele>
        <time>2022-09-07T10:11:04Z</time>
      </trkpt>
      <trkpt lat="44.096547430381179" lon="10.219622449949384">
        <ele>940.32000000000005</ele>
        <time>2022-09-07T10:11:17Z</time>
      </trkpt>
      <trkpt lat="44.096460929140449" lon="10.219637285917997">
        <ele>937.71000000000004</ele>
        <time>2022-09-07T10:11:31Z</time>
      </trkpt>
      <trkpt lat="44.096392784267664" lon="10.219643069431186">
        <ele>935.52999999999997</ele>
        <time>2022-09-07T10:11:42Z</time>
      </trkpt>
      <trkpt lat="44.096308127045631" lon="10.219652960076928">
        <ele>932.33000000000004</ele>
        <time>2022-09-07T10:11:55Z</time>
      </trkpt>
      <trkpt lat="44.096201676875353" lon="10.219640219584107">
        <ele>929.78999999999996</ele>
        <time>2022-09-07T10:12:10Z</time>
      </trkpt>
      <trkpt lat="44.096106542274356" lon="10.219601998105645">
        <ele>927.17999999999995</ele>
        <time>2022-09-07T10:12:24Z</time>
      </trkpt>
      <trkpt lat="44.096090700477362" lon="10.219583474099636">
        <ele>926.90999999999997</ele>
        <time>2022-09-07T10:12:26Z</time>
      </trkpt>
      <trkpt lat="44.096095645800233" lon="10.219559585675597">
        <ele>926.39999999999998</ele>
        <time>2022-09-07T10:12:35Z</time>
      </trkpt>
      <trkpt lat="44.096155241131783" lon="10.219532595947385">
        <ele>924.97000000000003</ele>
        <time>2022-09-07T10:12:51Z</time>
      </trkpt>
      <trkpt lat="44.096245430409908" lon="10.219461601227522">
        <ele>922.46000000000004</ele>
        <time>2022-09-07T10:13:04Z</time>
      </trkpt>
      <trkpt lat="44.09633444622159" lon="10.219385996460915">
        <ele>919.41999999999996</ele>
        <time>2022-09-07T10:13:18Z</time>
      </trkpt>
      <trkpt lat="44.096394460648298" lon="10.219314666464925">
        <ele>916.99000000000001</ele>
        <time>2022-09-07T10:13:31Z</time>
      </trkpt>
      <trkpt lat="44.096442069858313" lon="10.219287425279617">
        <ele>915.62</ele>
        <time>2022-09-07T10:13:45Z</time>
      </trkpt>
      <trkpt lat="44.096524715423584" lon="10.219215005636215">
        <ele>913.37</ele>
        <time>2022-09-07T10:13:59Z</time>
      </trkpt>
      <trkpt lat="44.096579700708389" lon="10.219202013686299">
        <ele>911.84000000000003</ele>
        <time>2022-09-07T10:14:06Z</time>
      </trkpt>
      <trkpt lat="44.096654299646616" lon="10.21921525709331">
        <ele>910.36000000000001</ele>
        <time>2022-09-07T10:14:17Z</time>
      </trkpt>
      <trkpt lat="44.09668087027967" lon="10.219209222123027">
        <ele>909.91999999999996</ele>
        <time>2022-09-07T10:14:20Z</time>
      </trkpt>
      <trkpt lat="44.096777345985174" lon="10.219123810529709">
        <ele>907.44000000000005</ele>
        <time>2022-09-07T10:14:35Z</time>
      </trkpt>
      <trkpt lat="44.096822859719396" lon="10.218997411429882">
        <ele>905.16999999999996</ele>
        <time>2022-09-07T10:14:48Z</time>
      </trkpt>
      <trkpt lat="44.096827218309045" lon="10.218970589339733">
        <ele>904.95000000000005</ele>
        <time>2022-09-07T10:14:50Z</time>
      </trkpt>
      <trkpt lat="44.096872983500361" lon="10.218799849972129">
        <ele>902.24000000000001</ele>
        <time>2022-09-07T10:15:04Z</time>
      </trkpt>
      <trkpt lat="44.096962166950107" lon="10.218751654028893">
        <ele>900.88999999999999</ele>
        <time>2022-09-07T10:15:16Z</time>
      </trkpt>
      <trkpt lat="44.096993766725063" lon="10.218730196356773">
        <ele>900.28999999999996</ele>
        <time>2022-09-07T10:15:20Z</time>
      </trkpt>
      <trkpt lat="44.097103318199515" lon="10.21869239397347">
        <ele>898.44000000000005</ele>
        <time>2022-09-07T10:15:33Z</time>
      </trkpt>
      <trkpt lat="44.097206583246589" lon="10.218678899109364">
        <ele>896.71000000000004</ele>
        <time>2022-09-07T10:15:47Z</time>
      </trkpt>
      <trkpt lat="44.097301382571459" lon="10.218698931857944">
        <ele>894.79999999999995</ele>
        <time>2022-09-07T10:15:59Z</time>
      </trkpt>
      <trkpt lat="44.097424512729049" lon="10.218688454478979">
        <ele>893.23000000000002</ele>
        <time>2022-09-07T10:16:14Z</time>
      </trkpt>
      <trkpt lat="44.097442366182804" lon="10.218682335689664">
        <ele>893.14999999999998</ele>
        <time>2022-09-07T10:16:17Z</time>
      </trkpt>
      <trkpt lat="44.097490729764104" lon="10.218612933531404">
        <ele>892.27999999999997</ele>
        <time>2022-09-07T10:16:23Z</time>
      </trkpt>
      <trkpt lat="44.097505817189813" lon="10.21858979947865">
        <ele>892.01999999999998</ele>
        <time>2022-09-07T10:16:25Z</time>
      </trkpt>
      <trkpt lat="44.09751595929265" lon="10.218585943803191">
        <ele>891.80999999999995</ele>
        <time>2022-09-07T10:16:26Z</time>
      </trkpt>
      <trkpt lat="44.09756381995976" lon="10.218527186661959">
        <ele>891.21000000000004</ele>
        <time>2022-09-07T10:16:35Z</time>
      </trkpt>
      <trkpt lat="44.097579661756754" lon="10.218487037345767">
        <ele>890.00999999999999</ele>
        <time>2022-09-07T10:16:39Z</time>
      </trkpt>
      <trkpt lat="44.097598688676953" lon="10.218420065939426">
        <ele>888.77999999999997</ele>
        <time>2022-09-07T10:16:46Z</time>
      </trkpt>
      <trkpt lat="44.097614027559757" lon="10.218321578577161">
        <ele>887.25999999999999</ele>
        <time>2022-09-07T10:16:55Z</time>
      </trkpt>
      <trkpt lat="44.097577398642898" lon="10.218301713466644">
        <ele>886.55999999999995</ele>
        <time>2022-09-07T10:17:05Z</time>
      </trkpt>
      <trkpt lat="44.097559293732047" lon="10.218323087319732">
        <ele>886.36000000000001</ele>
        <time>2022-09-07T10:17:06Z</time>
      </trkpt>
      <trkpt lat="44.097545966506004" lon="10.218341778963804">
        <ele>886.24000000000001</ele>
        <time>2022-09-07T10:17:07Z</time>
      </trkpt>
      <trkpt lat="44.097501626238227" lon="10.218390729278326">
        <ele>884.63999999999999</ele>
        <time>2022-09-07T10:17:15Z</time>
      </trkpt>
      <trkpt lat="44.097465919330716" lon="10.21842953749001">
        <ele>883.37</ele>
        <time>2022-09-07T10:17:23Z</time>
      </trkpt>
      <trkpt lat="44.097402049228549" lon="10.21847203373909">
        <ele>881.82000000000005</ele>
        <time>2022-09-07T10:17:33Z</time>
      </trkpt>
      <trkpt lat="44.097393834963441" lon="10.218467675149441">
        <ele>881.88999999999999</ele>
        <time>2022-09-07T10:17:34Z</time>
      </trkpt>
      <trkpt lat="44.097378328442574" lon="10.218469351530075">
        <ele>881.40999999999997</ele>
        <time>2022-09-07T10:17:36Z</time>
      </trkpt>
      <trkpt lat="44.097307417541742" lon="10.218488546088338">
        <ele>880.97000000000003</ele>
        <time>2022-09-07T10:17:45Z</time>
      </trkpt>
      <trkpt lat="44.097293000668287" lon="10.218485360965133">
        <ele>880.08000000000004</ele>
        <time>2022-09-07T10:17:47Z</time>
      </trkpt>
      <trkpt lat="44.097230471670628" lon="10.218455772846937">
        <ele>878.96000000000004</ele>
        <time>2022-09-07T10:17:58Z</time>
      </trkpt>
      <trkpt lat="44.097243463620543" lon="10.218429453670979">
        <ele>878.33000000000004</ele>
        <time>2022-09-07T10:18:01Z</time>
      </trkpt>
      <trkpt lat="44.097283780574799" lon="10.218378156423569">
        <ele>876.75</ele>
        <time>2022-09-07T10:18:09Z</time>
      </trkpt>
      <trkpt lat="44.097354859113693" lon="10.218298947438598">
        <ele>874.75999999999999</ele>
        <time>2022-09-07T10:18:21Z</time>
      </trkpt>
      <trkpt lat="44.097402384504676" lon="10.218232478946447">
        <ele>873.71000000000004</ele>
        <time>2022-09-07T10:18:29Z</time>
      </trkpt>
      <trkpt lat="44.097469439730048" lon="10.218157712370157">
        <ele>872.33000000000004</ele>
        <time>2022-09-07T10:18:40Z</time>
      </trkpt>
      <trkpt lat="44.097557030618191" lon="10.218078838661313">
        <ele>870.13</ele>
        <time>2022-09-07T10:18:54Z</time>
      </trkpt>
      <trkpt lat="44.097661720588803" lon="10.217981860041618">
        <ele>867.59000000000003</ele>
        <time>2022-09-07T10:19:10Z</time>
      </trkpt>
      <trkpt lat="44.097726345062256" lon="10.217911703512073">
        <ele>865.38999999999999</ele>
        <time>2022-09-07T10:19:21Z</time>
      </trkpt>
      <trkpt lat="44.097763728350401" lon="10.217886390164495">
        <ele>864.34000000000003</ele>
        <time>2022-09-07T10:19:29Z</time>
      </trkpt>
      <trkpt lat="44.097769344225526" lon="10.21779335103929">
        <ele>862.25999999999999</ele>
        <time>2022-09-07T10:19:40Z</time>
      </trkpt>
      <trkpt lat="44.097731374204159" lon="10.217797039076686">
        <ele>861.08000000000004</ele>
        <time>2022-09-07T10:19:46Z</time>
      </trkpt>
      <trkpt lat="44.097718130797148" lon="10.217812713235617">
        <ele>860.90999999999997</ele>
        <time>2022-09-07T10:19:48Z</time>
      </trkpt>
      <trkpt lat="44.097655182704329" lon="10.217841882258654">
        <ele>859.19000000000005</ele>
        <time>2022-09-07T10:19:56Z</time>
      </trkpt>
      <trkpt lat="44.097634144127369" lon="10.217844480648637">
        <ele>858.63999999999999</ele>
        <time>2022-09-07T10:19:59Z</time>
      </trkpt>
      <trkpt lat="44.09761955961585" lon="10.217848587781191">
        <ele>858.35000000000002</ele>
        <time>2022-09-07T10:20:01Z</time>
      </trkpt>
      <trkpt lat="44.097570274025202" lon="10.217848252505064">
        <ele>857.27999999999997</ele>
        <time>2022-09-07T10:20:07Z</time>
      </trkpt>
      <trkpt lat="44.09752425737679" lon="10.217837356030941">
        <ele>856.01999999999998</ele>
        <time>2022-09-07T10:20:15Z</time>
      </trkpt>
      <trkpt lat="44.097514366731048" lon="10.217844480648637">
        <ele>855.85000000000002</ele>
        <time>2022-09-07T10:20:16Z</time>
      </trkpt>
      <trkpt lat="44.097487041726708" lon="10.21782754920423">
        <ele>854.83000000000004</ele>
        <time>2022-09-07T10:20:20Z</time>
      </trkpt>
      <trkpt lat="44.097478240728378" lon="10.217822855338454">
        <ele>854.48000000000002</ele>
        <time>2022-09-07T10:20:21Z</time>
      </trkpt>
      <trkpt lat="44.097415376454592" lon="10.217841966077685">
        <ele>853.11000000000001</ele>
        <time>2022-09-07T10:20:29Z</time>
      </trkpt>
      <trkpt lat="44.09738352522254" lon="10.217831321060658">
        <ele>852.29999999999995</ele>
        <time>2022-09-07T10:20:33Z</time>
      </trkpt>
      <trkpt lat="44.097331305965781" lon="10.217817239463329">
        <ele>850.63999999999999</ele>
        <time>2022-09-07T10:20:41Z</time>
      </trkpt>
      <trkpt lat="44.097284115850925" lon="10.217811288312078">
        <ele>849.5</ele>
        <time>2022-09-07T10:20:47Z</time>
      </trkpt>
      <trkpt lat="44.097247067838907" lon="10.2177928481251">
        <ele>848.25</ele>
        <time>2022-09-07T10:20:53Z</time>
      </trkpt>
      <trkpt lat="44.097294844686985" lon="10.217813886702061">
        <ele>847.50999999999999</ele>
        <time>2022-09-07T10:20:57Z</time>
      </trkpt>
      <trkpt lat="44.097227454185486" lon="10.217799553647637">
        <ele>846.29999999999995</ele>
        <time>2022-09-07T10:21:03Z</time>
      </trkpt>
      <trkpt lat="44.097159812226892" lon="10.217800224199891">
        <ele>844.40999999999997</ele>
        <time>2022-09-07T10:21:11Z</time>
      </trkpt>
      <trkpt lat="44.097138773649931" lon="10.217816736549139">
        <ele>843.96000000000004</ele>
        <time>2022-09-07T10:21:14Z</time>
      </trkpt>
      <trkpt lat="44.097080351784825" lon="10.217839619144797">
        <ele>842</ele>
        <time>2022-09-07T10:21:22Z</time>
      </trkpt>
      <trkpt lat="44.097032155841589" lon="10.217884462326765">
        <ele>840.29999999999995</ele>
        <time>2022-09-07T10:21:29Z</time>
      </trkpt>
      <trkpt lat="44.096993431448936" lon="10.21793307736516">
        <ele>839.41999999999996</ele>
        <time>2022-09-07T10:21:35Z</time>
      </trkpt>
      <trkpt lat="44.096934590488672" lon="10.217985128983855">
        <ele>837.71000000000004</ele>
        <time>2022-09-07T10:21:44Z</time>
      </trkpt>
      <trkpt lat="44.096902906894684" lon="10.218000635504723">
        <ele>837.29999999999995</ele>
        <time>2022-09-07T10:21:48Z</time>
      </trkpt>
      <trkpt lat="44.096869463101029" lon="10.218022344633937">
        <ele>836.61000000000001</ele>
        <time>2022-09-07T10:21:51Z</time>
      </trkpt>
      <trkpt lat="44.09683576785028" lon="10.218009436503053">
        <ele>836.02999999999997</ele>
        <time>2022-09-07T10:21:54Z</time>
      </trkpt>
      <trkpt lat="44.096787488088012" lon="10.218030139803886">
        <ele>835.05999999999995</ele>
        <time>2022-09-07T10:21:58Z</time>
      </trkpt>
      <trkpt lat="44.096757983788848" lon="10.218023601919413">
        <ele>834.62</ele>
        <time>2022-09-07T10:22:01Z</time>
      </trkpt>
      <trkpt lat="44.096673661842942" lon="10.218063248321414">
        <ele>833.19000000000005</ele>
        <time>2022-09-07T10:22:10Z</time>
      </trkpt>
      <trkpt lat="44.096611551940441" lon="10.218130806460977">
        <ele>831.38999999999999</ele>
        <time>2022-09-07T10:22:21Z</time>
      </trkpt>
      <trkpt lat="44.096581125631928" lon="10.218174559995532">
        <ele>830.08000000000004</ele>
        <time>2022-09-07T10:22:29Z</time>
      </trkpt>
      <trkpt lat="44.096563355997205" lon="10.218130638822913">
        <ele>828.83000000000004</ele>
        <time>2022-09-07T10:22:37Z</time>
      </trkpt>
      <trkpt lat="44.096574168652296" lon="10.218044389039278">
        <ele>826.98000000000002</ele>
        <time>2022-09-07T10:22:47Z</time>
      </trkpt>
      <trkpt lat="44.096587998792529" lon="10.217965431511402">
        <ele>824.73000000000002</ele>
        <time>2022-09-07T10:22:56Z</time>
      </trkpt>
      <trkpt lat="44.096637954935431" lon="10.217888569459319">
        <ele>822.52999999999997</ele>
        <time>2022-09-07T10:23:08Z</time>
      </trkpt>
      <trkpt lat="44.096689000725746" lon="10.217835763469338">
        <ele>820.28999999999996</ele>
        <time>2022-09-07T10:23:24Z</time>
      </trkpt>
      <trkpt lat="44.096769718453288" lon="10.217745993286371">
        <ele>817.36000000000001</ele>
        <time>2022-09-07T10:23:40Z</time>
      </trkpt>
      <trkpt lat="44.096803832799196" lon="10.217626132071018">
        <ele>814.59000000000003</ele>
        <time>2022-09-07T10:23:56Z</time>
      </trkpt>
      <trkpt lat="44.09681816585362" lon="10.217528901994228">
        <ele>812.59000000000003</ele>
        <time>2022-09-07T10:24:09Z</time>
      </trkpt>
      <trkpt lat="44.096837947145104" lon="10.217401497066021">
        <ele>809.59000000000003</ele>
        <time>2022-09-07T10:24:23Z</time>
      </trkpt>
      <trkpt lat="44.096853453665972" lon="10.217290939763188">
        <ele>807.11000000000001</ele>
        <time>2022-09-07T10:24:37Z</time>
      </trkpt>
      <trkpt lat="44.096866110339761" lon="10.217139646410942">
        <ele>804.05999999999995</ele>
        <time>2022-09-07T10:24:52Z</time>
      </trkpt>
      <trkpt lat="44.096902655437589" lon="10.216993046924472">
        <ele>801.88999999999999</ele>
        <time>2022-09-07T10:25:07Z</time>
      </trkpt>
      <trkpt lat="44.096986809745431" lon="10.216903863474727">
        <ele>799.50999999999999</ele>
        <time>2022-09-07T10:25:23Z</time>
      </trkpt>
      <trkpt lat="44.097056882455945" lon="10.216868743300438">
        <ele>797.88999999999999</ele>
        <time>2022-09-07T10:25:35Z</time>
      </trkpt>
      <trkpt lat="44.097147239372134" lon="10.216848710551858">
        <ele>795.42999999999995</ele>
        <time>2022-09-07T10:25:49Z</time>
      </trkpt>
      <trkpt lat="44.097241284325719" lon="10.21683705970645">
        <ele>793.38999999999999</ele>
        <time>2022-09-07T10:26:08Z</time>
      </trkpt>
      <trkpt lat="44.097289899364114" lon="10.216812416911125">
        <ele>791.96000000000004</ele>
        <time>2022-09-07T10:26:19Z</time>
      </trkpt>
      <trkpt lat="44.097354775294662" lon="10.216761035844684">
        <ele>790.25999999999999</ele>
        <time>2022-09-07T10:26:30Z</time>
      </trkpt>
      <trkpt lat="44.097381262108684" lon="10.216688867658377">
        <ele>788.34000000000003</ele>
        <time>2022-09-07T10:26:43Z</time>
      </trkpt>
      <trkpt lat="44.097276488319039" lon="10.21671200171113">
        <ele>785.96000000000004</ele>
        <time>2022-09-07T10:26:58Z</time>
      </trkpt>
      <trkpt lat="44.097213875502348" lon="10.216688616201282">
        <ele>784.75999999999999</ele>
        <time>2022-09-07T10:27:11Z</time>
      </trkpt>
      <trkpt lat="44.097108766436577" lon="10.216622482985258">
        <ele>782.70000000000005</ele>
        <time>2022-09-07T10:27:25Z</time>
      </trkpt>
      <trkpt lat="44.097030563279986" lon="10.21654880605638">
        <ele>780.74000000000001</ele>
        <time>2022-09-07T10:27:37Z</time>
      </trkpt>
      <trkpt lat="44.096972476691008" lon="10.216510165482759">
        <ele>779.28999999999996</ele>
        <time>2022-09-07T10:27:52Z</time>
      </trkpt>
      <trkpt lat="44.096968285739422" lon="10.216515781357884">
        <ele>779.25999999999999</ele>
        <time>2022-09-07T10:27:55Z</time>
      </trkpt>
      <trkpt lat="44.096934841945767" lon="10.216524247080088">
        <ele>779.14999999999998</ele>
        <time>2022-09-07T10:27:57Z</time>
      </trkpt>
      <trkpt lat="44.096913048997521" lon="10.216521313413978">
        <ele>778.86000000000001</ele>
        <time>2022-09-07T10:27:58Z</time>
      </trkpt>
      <trkpt lat="44.096900057047606" lon="10.216519720852375">
        <ele>778.54999999999995</ele>
        <time>2022-09-07T10:27:59Z</time>
      </trkpt>
      <trkpt lat="44.096900643780828" lon="10.216505387797952">
        <ele>777.85000000000002</ele>
        <time>2022-09-07T10:28:09Z</time>
      </trkpt>
      <trkpt lat="44.096874240785837" lon="10.216526510193944">
        <ele>777.49000000000001</ele>
        <time>2022-09-07T10:28:16Z</time>
      </trkpt>
      <trkpt lat="44.096842724829912" lon="10.216525420546532">
        <ele>777.16999999999996</ele>
        <time>2022-09-07T10:28:17Z</time>
      </trkpt>
      <trkpt lat="44.096821015700698" lon="10.216518882662058">
        <ele>777.11000000000001</ele>
        <time>2022-09-07T10:28:18Z</time>
      </trkpt>
      <trkpt lat="44.096809281036258" lon="10.216521983966231">
        <ele>776.98000000000002</ele>
        <time>2022-09-07T10:28:19Z</time>
      </trkpt>
      <trkpt lat="44.096748596057296" lon="10.216571018099785">
        <ele>774.44000000000005</ele>
        <time>2022-09-07T10:28:30Z</time>
      </trkpt>
      <trkpt lat="44.096664860844612" lon="10.216615693643689">
        <ele>771.58000000000004</ele>
        <time>2022-09-07T10:28:44Z</time>
      </trkpt>
      <trkpt lat="44.096603924408555" lon="10.216638576239347">
        <ele>769.51999999999998</ele>
        <time>2022-09-07T10:28:58Z</time>
      </trkpt>
      <trkpt lat="44.096638290211558" lon="10.216560121625662">
        <ele>768.46000000000004</ele>
        <time>2022-09-07T10:29:12Z</time>
      </trkpt>
      <trkpt lat="44.096647342666984" lon="10.216564144939184">
        <ele>768.25</ele>
        <time>2022-09-07T10:29:15Z</time>
      </trkpt>
      <trkpt lat="44.09668916836381" lon="10.216519217938185">
        <ele>767.27999999999997</ele>
        <time>2022-09-07T10:29:21Z</time>
      </trkpt>
      <trkpt lat="44.096733005717397" lon="10.216472111642361">
        <ele>766.16999999999996</ele>
        <time>2022-09-07T10:29:27Z</time>
      </trkpt>
      <trkpt lat="44.096740549430251" lon="10.216466244310141">
        <ele>766</ele>
        <time>2022-09-07T10:29:28Z</time>
      </trkpt>
      <trkpt lat="44.096813639625907" lon="10.216377396136522">
        <ele>764.25</ele>
        <time>2022-09-07T10:29:41Z</time>
      </trkpt>
      <trkpt lat="44.096862925216556" lon="10.216307658702135">
        <ele>762.57000000000005</ele>
        <time>2022-09-07T10:29:52Z</time>
      </trkpt>
      <trkpt lat="44.096885807812214" lon="10.216285446658731">
        <ele>762.21000000000004</ele>
        <time>2022-09-07T10:29:56Z</time>
      </trkpt>
      <trkpt lat="44.096895698457956" lon="10.216249153017998">
        <ele>761.90999999999997</ele>
        <time>2022-09-07T10:29:59Z</time>
      </trkpt>
      <trkpt lat="44.096919083967805" lon="10.216199951246381">
        <ele>761.13999999999999</ele>
        <time>2022-09-07T10:30:05Z</time>
      </trkpt>
      <trkpt lat="44.096985049545765" lon="10.216161562129855">
        <ele>759.39999999999998</ele>
        <time>2022-09-07T10:30:16Z</time>
      </trkpt>
      <trkpt lat="44.097073562443256" lon="10.216159299015999">
        <ele>756.25</ele>
        <time>2022-09-07T10:30:30Z</time>
      </trkpt>
      <trkpt lat="44.097178922966123" lon="10.21612367592752">
        <ele>754.50999999999999</ele>
        <time>2022-09-07T10:30:45Z</time>
      </trkpt>
      <trkpt lat="44.097262658178806" lon="10.216030133888125">
        <ele>751.96000000000004</ele>
        <time>2022-09-07T10:31:01Z</time>
      </trkpt>
      <trkpt lat="44.097307920455933" lon="10.215923767536879">
        <ele>750.07000000000005</ele>
        <time>2022-09-07T10:31:15Z</time>
      </trkpt>
      <trkpt lat="44.097337676212192" lon="10.215813210234046">
        <ele>747.96000000000004</ele>
        <time>2022-09-07T10:31:28Z</time>
      </trkpt>
      <trkpt lat="44.097351841628551" lon="10.215690918266773">
        <ele>745.59000000000003</ele>
        <time>2022-09-07T10:31:42Z</time>
      </trkpt>
      <trkpt lat="44.097356954589486" lon="10.215659402310848">
        <ele>745.07000000000005</ele>
        <time>2022-09-07T10:31:47Z</time>
      </trkpt>
      <trkpt lat="44.097356200218201" lon="10.215503498911858">
        <ele>742.16999999999996</ele>
        <time>2022-09-07T10:32:04Z</time>
      </trkpt>
      <trkpt lat="44.097381262108684" lon="10.215379782021046">
        <ele>739.66999999999996</ele>
        <time>2022-09-07T10:32:19Z</time>
      </trkpt>
      <trkpt lat="44.097449239343405" lon="10.21533309482038">
        <ele>738.02999999999997</ele>
        <time>2022-09-07T10:32:31Z</time>
      </trkpt>
      <trkpt lat="44.097449658438563" lon="10.215283557772636">
        <ele>735.78999999999996</ele>
        <time>2022-09-07T10:32:44Z</time>
      </trkpt>
      <trkpt lat="44.097340861335397" lon="10.215248940512538">
        <ele>733.50999999999999</ele>
        <time>2022-09-07T10:32:58Z</time>
      </trkpt>
      <trkpt lat="44.097252348437905" lon="10.215310882776976">
        <ele>731.48000000000002</ele>
        <time>2022-09-07T10:33:11Z</time>
      </trkpt>
      <trkpt lat="44.097222844138741" lon="10.215405514463782">
        <ele>729.57000000000005</ele>
        <time>2022-09-07T10:33:22Z</time>
      </trkpt>
      <trkpt lat="44.097184622660279" lon="10.215530740097165">
        <ele>727.63999999999999</ele>
        <time>2022-09-07T10:33:34Z</time>
      </trkpt>
      <trkpt lat="44.097140282392502" lon="10.215650517493486">
        <ele>725.73000000000002</ele>
        <time>2022-09-07T10:33:45Z</time>
      </trkpt>
      <trkpt lat="44.097133241593838" lon="10.215660156682134">
        <ele>725.54999999999995</ele>
        <time>2022-09-07T10:33:46Z</time>
      </trkpt>
      <trkpt lat="44.097097115591168" lon="10.215692594647408">
        <ele>725</ele>
        <time>2022-09-07T10:33:51Z</time>
      </trkpt>
      <trkpt lat="44.097086470574141" lon="10.215630065649748">
        <ele>723.50999999999999</ele>
        <time>2022-09-07T10:34:01Z</time>
      </trkpt>
      <trkpt lat="44.097112370654941" lon="10.215532667934895">
        <ele>721.71000000000004</ele>
        <time>2022-09-07T10:34:14Z</time>
      </trkpt>
      <trkpt lat="44.09711136482656" lon="10.21537559106946">
        <ele>720.03999999999996</ele>
        <time>2022-09-07T10:34:31Z</time>
      </trkpt>
      <trkpt lat="44.097119243815541" lon="10.215183226391673">
        <ele>717.95000000000005</ele>
        <time>2022-09-07T10:34:48Z</time>
      </trkpt>
      <trkpt lat="44.097131481394172" lon="10.215048529207706">
        <ele>716.00999999999999</ele>
        <time>2022-09-07T10:35:02Z</time>
      </trkpt>
      <trkpt lat="44.097187807783484" lon="10.214896900579333">
        <ele>713.66999999999996</ele>
        <time>2022-09-07T10:35:20Z</time>
      </trkpt>
      <trkpt lat="44.097245559096336" lon="10.214793803170323">
        <ele>711.25999999999999</ele>
        <time>2022-09-07T10:35:36Z</time>
      </trkpt>
      <trkpt lat="44.097285289317369" lon="10.214794725179672">
        <ele>709.98000000000002</ele>
        <time>2022-09-07T10:35:48Z</time>
      </trkpt>
      <trkpt lat="44.097296269610524" lon="10.214781146496534">
        <ele>710.30999999999995</ele>
        <time>2022-09-07T10:36:02Z</time>
      </trkpt>
      <trkpt lat="44.097299706190825" lon="10.214782571420074">
        <ele>710.38999999999999</ele>
        <time>2022-09-07T10:36:15Z</time>
      </trkpt>
      <trkpt lat="44.097319068387151" lon="10.214748289436102">
        <ele>710.15999999999997</ele>
        <time>2022-09-07T10:36:31Z</time>
      </trkpt>
      <trkpt lat="44.097356200218201" lon="10.214685089886189">
        <ele>710.22000000000003</ele>
        <time>2022-09-07T10:36:41Z</time>
      </trkpt>
      <trkpt lat="44.097357038408518" lon="10.214665727689862">
        <ele>710.46000000000004</ele>
        <time>2022-09-07T10:36:47Z</time>
      </trkpt>
      <trkpt lat="44.09735418856144" lon="10.214668242260814">
        <ele>710.42999999999995</ele>
        <time>2022-09-07T10:37:04Z</time>
      </trkpt>
      <trkpt lat="44.097337927669287" lon="10.214639073237777">
        <ele>711.16999999999996</ele>
        <time>2022-09-07T10:37:09Z</time>
      </trkpt>
      <trkpt lat="44.097302975133061" lon="10.214604958891869">
        <ele>712.14999999999998</ele>
        <time>2022-09-07T10:37:16Z</time>
      </trkpt>
      <trkpt lat="44.097295431420207" lon="10.214604288339615">
        <ele>712.16999999999996</ele>
        <time>2022-09-07T10:37:17Z</time>
      </trkpt>
      <trkpt lat="44.097252767533064" lon="10.214615352451801">
        <ele>712.48000000000002</ele>
        <time>2022-09-07T10:37:23Z</time>
      </trkpt>
      <trkpt lat="44.097228711470962" lon="10.214595319703221">
        <ele>712.67999999999995</ele>
        <time>2022-09-07T10:37:33Z</time>
      </trkpt>
      <trkpt lat="44.097225358709693" lon="10.214597331359982">
        <ele>711.67999999999995</ele>
        <time>2022-09-07T10:37:41Z</time>
      </trkpt>
      <trkpt lat="44.097234746441245" lon="10.214598085731268">
        <ele>711.33000000000004</ele>
        <time>2022-09-07T10:37:53Z</time>
      </trkpt>
      <trkpt lat="44.097247822210193" lon="10.214602863416076">
        <ele>712.23000000000002</ele>
        <time>2022-09-07T10:38:19Z</time>
      </trkpt>
      <trkpt lat="44.09723793156445" lon="10.214610239490867">
        <ele>712.29999999999995</ele>
        <time>2022-09-07T10:38:34Z</time>
      </trkpt>
      <trkpt lat="44.097209433093667" lon="10.214590039104223">
        <ele>712.02999999999997</ele>
        <time>2022-09-07T10:38:53Z</time>
      </trkpt>
      <trkpt lat="44.097209013998508" lon="10.214584590867162">
        <ele>712.25999999999999</ele>
        <time>2022-09-07T10:39:13Z</time>
      </trkpt>
      <trkpt lat="44.097215300425887" lon="10.214589117094874">
        <ele>711.63999999999999</ele>
        <time>2022-09-07T10:39:30Z</time>
      </trkpt>
      <trkpt lat="44.097235416993499" lon="10.214585512876511">
        <ele>711.87</ele>
        <time>2022-09-07T10:39:52Z</time>
      </trkpt>
      <trkpt lat="44.097233153879642" lon="10.214590206742287">
        <ele>711.38999999999999</ele>
        <time>2022-09-07T10:40:13Z</time>
      </trkpt>
      <trkpt lat="44.097215719521046" lon="10.214574616402388">
        <ele>711.29999999999995</ele>
        <time>2022-09-07T10:40:35Z</time>
      </trkpt>
      <trkpt lat="44.097172385081649" lon="10.214587692171335">
        <ele>710.86000000000001</ele>
        <time>2022-09-07T10:40:52Z</time>
      </trkpt>
      <trkpt lat="44.097068533301353" lon="10.214636474847794">
        <ele>709.99000000000001</ele>
        <time>2022-09-07T10:41:06Z</time>
      </trkpt>
      <trkpt lat="44.097043639048934" lon="10.214655585587025">
        <ele>709.55999999999995</ele>
        <time>2022-09-07T10:41:09Z</time>
      </trkpt>
      <trkpt lat="44.096995443105698" lon="10.214710822328925">
        <ele>708.57000000000005</ele>
        <time>2022-09-07T10:41:17Z</time>
      </trkpt>
      <trkpt lat="44.096899973228574" lon="10.214783241972327">
        <ele>706.98000000000002</ele>
        <time>2022-09-07T10:41:31Z</time>
      </trkpt>
      <trkpt lat="44.09682453610003" lon="10.214813584461808">
        <ele>706.50999999999999</ele>
        <time>2022-09-07T10:41:44Z</time>
      </trkpt>
      <trkpt lat="44.096745159476995" lon="10.214821379631758">
        <ele>705.53999999999996</ele>
        <time>2022-09-07T10:41:53Z</time>
      </trkpt>
      <trkpt lat="44.096673242747784" lon="10.214826660230756">
        <ele>704.58000000000004</ele>
        <time>2022-09-07T10:42:01Z</time>
      </trkpt>
      <trkpt lat="44.096662765368819" lon="10.214829510077834">
        <ele>704.47000000000003</ele>
        <time>2022-09-07T10:42:02Z</time>
      </trkpt>
      <trkpt lat="44.096513483673334" lon="10.214872676879168">
        <ele>702.88999999999999</ele>
        <time>2022-09-07T10:42:17Z</time>
      </trkpt>
      <trkpt lat="44.096377613022923" lon="10.214844597503543">
        <ele>700.84000000000003</ele>
        <time>2022-09-07T10:42:32Z</time>
      </trkpt>
      <trkpt lat="44.096282729879022" lon="10.214761113747954">
        <ele>698.37</ele>
        <time>2022-09-07T10:42:45Z</time>
      </trkpt>
      <trkpt lat="44.096167981624603" lon="10.21465533412993">
        <ele>696.07000000000005</ele>
        <time>2022-09-07T10:43:01Z</time>
      </trkpt>
      <trkpt lat="44.096126239746809" lon="10.214626919478178">
        <ele>695.10000000000002</ele>
        <time>2022-09-07T10:43:15Z</time>
      </trkpt>
      <trkpt lat="44.096097154542804" lon="10.214596576988697">
        <ele>694.67999999999995</ele>
        <time>2022-09-07T10:43:30Z</time>
      </trkpt>
      <trkpt lat="44.096062956377864" lon="10.214564055204391">
        <ele>693.59000000000003</ele>
        <time>2022-09-07T10:43:41Z</time>
      </trkpt>
      <trkpt lat="44.095997074618936" lon="10.214528599753976">
        <ele>692.88999999999999</ele>
        <time>2022-09-07T10:43:55Z</time>
      </trkpt>
      <trkpt lat="44.095897916704416" lon="10.214482834562659">
        <ele>691.32000000000005</ele>
        <time>2022-09-07T10:44:08Z</time>
      </trkpt>
      <trkpt lat="44.095763135701418" lon="10.214430782943964">
        <ele>689.22000000000003</ele>
        <time>2022-09-07T10:44:23Z</time>
      </trkpt>
      <trkpt lat="44.095653751865029" lon="10.214436734095216">
        <ele>687.48000000000002</ele>
        <time>2022-09-07T10:44:35Z</time>
      </trkpt>
      <trkpt lat="44.095544870942831" lon="10.214395076036453">
        <ele>686.44000000000005</ele>
        <time>2022-09-07T10:44:48Z</time>
      </trkpt>
      <trkpt lat="44.095428697764874" lon="10.214363476261497">
        <ele>684.78999999999996</ele>
        <time>2022-09-07T10:45:01Z</time>
      </trkpt>
      <trkpt lat="44.095359044149518" lon="10.21437588147819">
        <ele>683.69000000000005</ele>
        <time>2022-09-07T10:45:10Z</time>
      </trkpt>
      <trkpt lat="44.095295844599605" lon="10.214427597820759">
        <ele>681.99000000000001</ele>
        <time>2022-09-07T10:45:22Z</time>
      </trkpt>
      <trkpt lat="44.095262484624982" lon="10.214465232565999">
        <ele>680.76999999999998</ele>
        <time>2022-09-07T10:45:27Z</time>
      </trkpt>
      <trkpt lat="44.095203476026654" lon="10.214375043287873">
        <ele>679.55999999999995</ele>
        <time>2022-09-07T10:45:39Z</time>
      </trkpt>
      <trkpt lat="44.095217557623982" lon="10.214162394404411">
        <ele>676.91999999999996</ele>
        <time>2022-09-07T10:45:58Z</time>
      </trkpt>
      <trkpt lat="44.095224598422647" lon="10.214124172925949">
        <ele>675.71000000000004</ele>
        <time>2022-09-07T10:46:09Z</time>
      </trkpt>
      <trkpt lat="44.095227280631661" lon="10.214076982811093">
        <ele>674.75</ele>
        <time>2022-09-07T10:46:27Z</time>
      </trkpt>
      <trkpt lat="44.095225939527154" lon="10.213938597589731">
        <ele>671.60000000000002</ele>
        <time>2022-09-07T10:46:40Z</time>
      </trkpt>
      <trkpt lat="44.095218731090426" lon="10.213880427181721">
        <ele>670.37</ele>
        <time>2022-09-07T10:46:54Z</time>
      </trkpt>
      <trkpt lat="44.095201715826988" lon="10.213749250397086">
        <ele>667.35000000000002</ele>
        <time>2022-09-07T10:47:06Z</time>
      </trkpt>
      <trkpt lat="44.095173887908459" lon="10.2135896589607">
        <ele>664.76999999999998</ele>
        <time>2022-09-07T10:47:21Z</time>
      </trkpt>
      <trkpt lat="44.095146143808961" lon="10.213431240990758">
        <ele>661.48000000000002</ele>
        <time>2022-09-07T10:47:35Z</time>
      </trkpt>
      <trkpt lat="44.095099372789264" lon="10.213283970952034">
        <ele>658.34000000000003</ele>
        <time>2022-09-07T10:47:48Z</time>
      </trkpt>
      <trkpt lat="44.095128206536174" lon="10.213186740875244">
        <ele>656.78999999999996</ele>
        <time>2022-09-07T10:47:57Z</time>
      </trkpt>
      <trkpt lat="44.095265753567219" lon="10.213178694248199">
        <ele>653.73000000000002</ele>
        <time>2022-09-07T10:48:12Z</time>
      </trkpt>
      <trkpt lat="44.09534739330411" lon="10.213160673156381">
        <ele>651.63999999999999</ele>
        <time>2022-09-07T10:48:21Z</time>
      </trkpt>
      <trkpt lat="44.095383603125811" lon="10.213150028139353">
        <ele>650.83000000000004</ele>
        <time>2022-09-07T10:48:25Z</time>
      </trkpt>
      <trkpt lat="44.095436660572886" lon="10.213126139715314">
        <ele>649.34000000000003</ele>
        <time>2022-09-07T10:48:31Z</time>
      </trkpt>
      <trkpt lat="44.095542021095753" lon="10.21304776892066">
        <ele>646.23000000000002</ele>
        <time>2022-09-07T10:48:44Z</time>
      </trkpt>
      <trkpt lat="44.095579655840993" lon="10.212991274893284">
        <ele>644.82000000000005</ele>
        <time>2022-09-07T10:48:50Z</time>
      </trkpt>
      <trkpt lat="44.09561812877655" lon="10.212924219667912">
        <ele>643.20000000000005</ele>
        <time>2022-09-07T10:48:56Z</time>
      </trkpt>
      <trkpt lat="44.095684513449669" lon="10.212785331532359">
        <ele>640.08000000000004</ele>
        <time>2022-09-07T10:49:08Z</time>
      </trkpt>
      <trkpt lat="44.095731871202588" lon="10.212656669318676">
        <ele>637.00999999999999</ele>
        <time>2022-09-07T10:49:18Z</time>
      </trkpt>
      <trkpt lat="44.095733463764191" lon="10.212645186111331">
        <ele>636.61000000000001</ele>
        <time>2022-09-07T10:49:19Z</time>
      </trkpt>
      <trkpt lat="44.09574368968606" lon="10.212489450350404">
        <ele>633.45000000000005</ele>
        <time>2022-09-07T10:49:32Z</time>
      </trkpt>
      <trkpt lat="44.095787024125457" lon="10.212391633540392">
        <ele>631.08000000000004</ele>
        <time>2022-09-07T10:49:44Z</time>
      </trkpt>
      <trkpt lat="44.095747545361519" lon="10.212371433153749">
        <ele>630.05999999999995</ele>
        <time>2022-09-07T10:49:52Z</time>
      </trkpt>
      <trkpt lat="44.095607986673713" lon="10.212305299937725">
        <ele>628.14999999999998</ele>
        <time>2022-09-07T10:50:07Z</time>
      </trkpt>
      <trkpt lat="44.095497177913785" lon="10.212246458977461">
        <ele>626.89999999999998</ele>
        <time>2022-09-07T10:50:18Z</time>
      </trkpt>
      <trkpt lat="44.095460129901767" lon="10.212235897779465">
        <ele>625.78999999999996</ele>
        <time>2022-09-07T10:50:21Z</time>
      </trkpt>
      <trkpt lat="44.095392823219299" lon="10.212235730141401">
        <ele>624.54999999999995</ele>
        <time>2022-09-07T10:50:27Z</time>
      </trkpt>
      <trkpt lat="44.095248403027654" lon="10.212159622460604">
        <ele>622.03999999999996</ele>
        <time>2022-09-07T10:50:41Z</time>
      </trkpt>
      <trkpt lat="44.095186628401279" lon="10.212056022137403">
        <ele>618.88</ele>
        <time>2022-09-07T10:50:50Z</time>
      </trkpt>
      <trkpt lat="44.095079591497779" lon="10.211916966363788">
        <ele>615.79999999999995</ele>
        <time>2022-09-07T10:51:04Z</time>
      </trkpt>
      <trkpt lat="44.094939194619656" lon="10.211801379919052">
        <ele>612.88999999999999</ele>
        <time>2022-09-07T10:51:18Z</time>
      </trkpt>
      <trkpt lat="44.094756301492453" lon="10.211738096550107">
        <ele>610.37</ele>
        <time>2022-09-07T10:51:33Z</time>
      </trkpt>
      <trkpt lat="44.094739789143205" lon="10.211735917255282">
        <ele>610.28999999999996</ele>
        <time>2022-09-07T10:51:34Z</time>
      </trkpt>
      <trkpt lat="44.094663262367249" lon="10.211734659969807">
        <ele>609.30999999999995</ele>
        <time>2022-09-07T10:51:40Z</time>
      </trkpt>
      <trkpt lat="44.094651276245713" lon="10.211733989417553">
        <ele>609.19000000000005</ele>
        <time>2022-09-07T10:51:41Z</time>
      </trkpt>
      <trkpt lat="44.094564104452729" lon="10.211717141792178">
        <ele>608.19000000000005</ele>
        <time>2022-09-07T10:51:48Z</time>
      </trkpt>
      <trkpt lat="44.094547424465418" lon="10.211713872849941">
        <ele>607.88</ele>
        <time>2022-09-07T10:51:50Z</time>
      </trkpt>
      <trkpt lat="44.094534683972597" lon="10.211708005517721">
        <ele>607.67999999999995</ele>
        <time>2022-09-07T10:51:51Z</time>
      </trkpt>
      <trkpt lat="44.094504173845053" lon="10.211687050759792">
        <ele>607.24000000000001</ele>
        <time>2022-09-07T10:51:53Z</time>
      </trkpt>
      <trkpt lat="44.094493528828025" lon="10.211681267246604">
        <ele>607.15999999999997</ele>
        <time>2022-09-07T10:51:54Z</time>
      </trkpt>
      <trkpt lat="44.094483219087124" lon="10.211674561724067">
        <ele>606.88</ele>
        <time>2022-09-07T10:51:55Z</time>
      </trkpt>
      <trkpt lat="44.094382217153907" lon="10.21160926669836">
        <ele>605.09000000000003</ele>
        <time>2022-09-07T10:52:04Z</time>
      </trkpt>
      <trkpt lat="44.094300242140889" lon="10.211547743529081">
        <ele>603.64999999999998</ele>
        <time>2022-09-07T10:52:11Z</time>
      </trkpt>
      <trkpt lat="44.094256153330207" lon="10.21151932887733">
        <ele>602.61000000000001</ele>
        <time>2022-09-07T10:52:16Z</time>
      </trkpt>
      <trkpt lat="44.094245424494147" lon="10.21151153370738">
        <ele>602.37</ele>
        <time>2022-09-07T10:52:17Z</time>
      </trkpt>
      <trkpt lat="44.094231510534883" lon="10.211496949195862">
        <ele>602.30999999999995</ele>
        <time>2022-09-07T10:52:18Z</time>
      </trkpt>
      <trkpt lat="44.094220111146569" lon="10.211480688303709">
        <ele>602.23000000000002</ele>
        <time>2022-09-07T10:52:19Z</time>
      </trkpt>
      <trkpt lat="44.094211980700493" lon="10.211470630019903">
        <ele>601.96000000000004</ele>
        <time>2022-09-07T10:52:20Z</time>
      </trkpt>
      <trkpt lat="44.094202676787972" lon="10.211460571736097">
        <ele>601.82000000000005</ele>
        <time>2022-09-07T10:52:21Z</time>
      </trkpt>
      <trkpt lat="44.094119612127542" lon="10.211368706077337">
        <ele>599.62</ele>
        <time>2022-09-07T10:52:29Z</time>
      </trkpt>
      <trkpt lat="44.094085413962603" lon="10.211321683600545">
        <ele>598.12</ele>
        <time>2022-09-07T10:52:32Z</time>
      </trkpt>
      <trkpt lat="44.093976616859436" lon="10.211215149611235">
        <ele>596.63</ele>
        <time>2022-09-07T10:52:42Z</time>
      </trkpt>
      <trkpt lat="44.093904867768288" lon="10.211192183196545">
        <ele>595.60000000000002</ele>
        <time>2022-09-07T10:52:48Z</time>
      </trkpt>
      <trkpt lat="44.093858264386654" lon="10.211177850142121">
        <ele>595.19000000000005</ele>
        <time>2022-09-07T10:52:51Z</time>
      </trkpt>
      <trkpt lat="44.093767991289496" lon="10.211184304207563">
        <ele>594.34000000000003</ele>
        <time>2022-09-07T10:52:58Z</time>
      </trkpt>
      <trkpt lat="44.093759190291166" lon="10.211191764101386">
        <ele>594.13</ele>
        <time>2022-09-07T10:52:59Z</time>
      </trkpt>
      <trkpt lat="44.09374913200736" lon="10.211198553442955">
        <ele>593.76999999999998</ele>
        <time>2022-09-07T10:53:00Z</time>
      </trkpt>
      <trkpt lat="44.093735888600349" lon="10.211200146004558">
        <ele>593.46000000000004</ele>
        <time>2022-09-07T10:53:01Z</time>
      </trkpt>
      <trkpt lat="44.09372272901237" lon="10.211203582584858">
        <ele>593.34000000000003</ele>
        <time>2022-09-07T10:53:02Z</time>
      </trkpt>
      <trkpt lat="44.093705546110868" lon="10.211202744394541">
        <ele>593.07000000000005</ele>
        <time>2022-09-07T10:53:03Z</time>
      </trkpt>
      <trkpt lat="44.093689117580652" lon="10.211201151832938">
        <ele>592.94000000000005</ele>
        <time>2022-09-07T10:53:04Z</time>
      </trkpt>
      <trkpt lat="44.093680735677481" lon="10.211210288107395">
        <ele>592.84000000000003</ele>
        <time>2022-09-07T10:53:05Z</time>
      </trkpt>
      <trkpt lat="44.093671599403024" lon="10.211220933124423">
        <ele>592.63999999999999</ele>
        <time>2022-09-07T10:53:06Z</time>
      </trkpt>
      <trkpt lat="44.09365919418633" lon="10.211226129904389">
        <ele>592.47000000000003</ele>
        <time>2022-09-07T10:53:07Z</time>
      </trkpt>
      <trkpt lat="44.093533800914884" lon="10.211247755214572">
        <ele>591.73000000000002</ele>
        <time>2022-09-07T10:53:16Z</time>
      </trkpt>
      <trkpt lat="44.093462554737926" lon="10.211249012500048">
        <ele>590.48000000000002</ele>
        <time>2022-09-07T10:53:22Z</time>
      </trkpt>
      <trkpt lat="44.0934466291219" lon="10.211241217330098">
        <ele>590.35000000000002</ele>
        <time>2022-09-07T10:53:23Z</time>
      </trkpt>
      <trkpt lat="44.093430200591683" lon="10.211233086884022">
        <ele>590.07000000000005</ele>
        <time>2022-09-07T10:53:24Z</time>
      </trkpt>
      <trkpt lat="44.09341930411756" lon="10.211236607283354">
        <ele>589.88999999999999</ele>
        <time>2022-09-07T10:53:25Z</time>
      </trkpt>
      <trkpt lat="44.093407485634089" lon="10.211240211501718">
        <ele>589.62</ele>
        <time>2022-09-07T10:53:26Z</time>
      </trkpt>
      <trkpt lat="44.093392565846443" lon="10.211238199844956">
        <ele>589.5</ele>
        <time>2022-09-07T10:53:27Z</time>
      </trkpt>
      <trkpt lat="44.093345291912556" lon="10.211226716637611">
        <ele>589.05999999999995</ele>
        <time>2022-09-07T10:53:30Z</time>
      </trkpt>
      <trkpt lat="44.093252755701542" lon="10.211226046085358">
        <ele>588.25999999999999</ele>
        <time>2022-09-07T10:53:37Z</time>
      </trkpt>
      <trkpt lat="44.093171451240778" lon="10.211231661960483">
        <ele>587.30999999999995</ele>
        <time>2022-09-07T10:53:43Z</time>
      </trkpt>
      <trkpt lat="44.093064330518246" lon="10.211242977529764">
        <ele>586.01999999999998</ele>
        <time>2022-09-07T10:53:51Z</time>
      </trkpt>
      <trkpt lat="44.09292577765882" lon="10.211226465180516">
        <ele>583.15999999999997</ele>
        <time>2022-09-07T10:54:02Z</time>
      </trkpt>
      <trkpt lat="44.092906415462494" lon="10.211223950609565">
        <ele>582.47000000000003</ele>
        <time>2022-09-07T10:54:04Z</time>
      </trkpt>
      <trkpt lat="44.092894764617085" lon="10.211221100762486">
        <ele>582.32000000000005</ele>
        <time>2022-09-07T10:54:05Z</time>
      </trkpt>
      <trkpt lat="44.092883113771677" lon="10.211219927296042">
        <ele>582.12</ele>
        <time>2022-09-07T10:54:06Z</time>
      </trkpt>
      <trkpt lat="44.09287104383111" lon="10.211220094934106">
        <ele>581.88</ele>
        <time>2022-09-07T10:54:07Z</time>
      </trkpt>
      <trkpt lat="44.09285394474864" lon="10.211214479058981">
        <ele>581.86000000000001</ele>
        <time>2022-09-07T10:54:08Z</time>
      </trkpt>
      <trkpt lat="44.092837516218424" lon="10.21120953373611">
        <ele>581.55999999999995</ele>
        <time>2022-09-07T10:54:09Z</time>
      </trkpt>
      <trkpt lat="44.092764928936958" lon="10.211209952831268">
        <ele>579.88</ele>
        <time>2022-09-07T10:54:15Z</time>
      </trkpt>
      <trkpt lat="44.0927454829216" lon="10.211210120469332">
        <ele>579.20000000000005</ele>
        <time>2022-09-07T10:54:18Z</time>
      </trkpt>
      <trkpt lat="44.092711452394724" lon="10.211201990023255">
        <ele>578.50999999999999</ele>
        <time>2022-09-07T10:54:21Z</time>
      </trkpt>
      <trkpt lat="44.092697873711586" lon="10.211195200681686">
        <ele>578.30999999999995</ele>
        <time>2022-09-07T10:54:22Z</time>
      </trkpt>
      <trkpt lat="44.092682870104909" lon="10.21119637414813">
        <ele>577.49000000000001</ele>
        <time>2022-09-07T10:54:25Z</time>
      </trkpt>
      <trkpt lat="44.09264825284481" lon="10.211174162104726">
        <ele>576.75</ele>
        <time>2022-09-07T10:54:28Z</time>
      </trkpt>
      <trkpt lat="44.092619754374027" lon="10.211167205125093">
        <ele>575.73000000000002</ele>
        <time>2022-09-07T10:54:32Z</time>
      </trkpt>
      <trkpt lat="44.092609276995063" lon="10.211163181811571">
        <ele>575.36000000000001</ele>
        <time>2022-09-07T10:54:33Z</time>
      </trkpt>
      <trkpt lat="44.092596536502242" lon="10.211153877899051">
        <ele>574.89999999999998</ele>
        <time>2022-09-07T10:54:34Z</time>
      </trkpt>
      <trkpt lat="44.092579688876867" lon="10.211159158498049">
        <ele>573.5</ele>
        <time>2022-09-07T10:54:39Z</time>
      </trkpt>
      <trkpt lat="44.092518836259842" lon="10.21108346991241">
        <ele>571.77999999999997</ele>
        <time>2022-09-07T10:54:48Z</time>
      </trkpt>
      <trkpt lat="44.092488074675202" lon="10.211069472134113">
        <ele>571.21000000000004</ele>
        <time>2022-09-07T10:54:52Z</time>
      </trkpt>
      <trkpt lat="44.092470640316606" lon="10.211051618680358">
        <ele>570.87</ele>
        <time>2022-09-07T10:54:54Z</time>
      </trkpt>
      <trkpt lat="44.092464689165354" lon="10.211037117987871">
        <ele>570.48000000000002</ele>
        <time>2022-09-07T10:54:55Z</time>
      </trkpt>
      <trkpt lat="44.09245815128088" lon="10.211017085239291">
        <ele>570.02999999999997</ele>
        <time>2022-09-07T10:54:56Z</time>
      </trkpt>
      <trkpt lat="44.092410793527961" lon="10.210923878476024">
        <ele>568.60000000000002</ele>
        <time>2022-09-07T10:55:04Z</time>
      </trkpt>
      <trkpt lat="44.092379026114941" lon="10.21082254126668">
        <ele>566.78999999999996</ele>
        <time>2022-09-07T10:55:13Z</time>
      </trkpt>
      <trkpt lat="44.092363435775042" lon="10.210791025310755">
        <ele>566.27999999999997</ele>
        <time>2022-09-07T10:55:16Z</time>
      </trkpt>
      <trkpt lat="44.092364022508264" lon="10.210792953148484">
        <ele>566.26999999999998</ele>
        <time>2022-09-07T10:55:17Z</time>
      </trkpt>
      <trkpt lat="44.092356394976377" lon="10.210775434970856">
        <ele>566</ele>
        <time>2022-09-07T10:55:19Z</time>
      </trkpt>
      <trkpt lat="44.092347342520952" lon="10.210765125229955">
        <ele>565.83000000000004</ele>
        <time>2022-09-07T10:55:20Z</time>
      </trkpt>
      <trkpt lat="44.092338709160686" lon="10.210753222927451">
        <ele>565.55999999999995</ele>
        <time>2022-09-07T10:55:21Z</time>
      </trkpt>
      <trkpt lat="44.092329489067197" lon="10.210743080824614">
        <ele>565.30999999999995</ele>
        <time>2022-09-07T10:55:22Z</time>
      </trkpt>
      <trkpt lat="44.092319346964359" lon="10.210734196007252">
        <ele>565.10000000000002</ele>
        <time>2022-09-07T10:55:23Z</time>
      </trkpt>
      <trkpt lat="44.092312389984727" lon="10.210727322846651">
        <ele>564.90999999999997</ele>
        <time>2022-09-07T10:55:24Z</time>
      </trkpt>
      <trkpt lat="44.092299146577716" lon="10.210699662566185">
        <ele>564.51999999999998</ele>
        <time>2022-09-07T10:55:26Z</time>
      </trkpt>
      <trkpt lat="44.092265786603093" lon="10.210643671452999">
        <ele>563.65999999999997</ele>
        <time>2022-09-07T10:55:30Z</time>
      </trkpt>
      <trkpt lat="44.092256901785731" lon="10.2106315176934">
        <ele>563.53999999999996</ele>
        <time>2022-09-07T10:55:31Z</time>
      </trkpt>
      <trkpt lat="44.092248603701591" lon="10.210618274286389">
        <ele>563.22000000000003</ele>
        <time>2022-09-07T10:55:32Z</time>
      </trkpt>
      <trkpt lat="44.092218345031142" lon="10.210520541295409">
        <ele>561.44000000000005</ele>
        <time>2022-09-07T10:55:39Z</time>
      </trkpt>
      <trkpt lat="44.092223038896918" lon="10.210504112765193">
        <ele>561.24000000000001</ele>
        <time>2022-09-07T10:55:40Z</time>
      </trkpt>
      <trkpt lat="44.092260925099254" lon="10.210327338427305">
        <ele>558.29999999999995</ele>
        <time>2022-09-07T10:55:53Z</time>
      </trkpt>
      <trkpt lat="44.09227148629725" lon="10.210282076150179">
        <ele>557.39999999999998</ele>
        <time>2022-09-07T10:55:57Z</time>
      </trkpt>
      <trkpt lat="44.092282215133309" lon="10.210231617093086">
        <ele>556.48000000000002</ele>
        <time>2022-09-07T10:56:01Z</time>
      </trkpt>
      <trkpt lat="44.092292273417115" lon="10.210191551595926">
        <ele>556.21000000000004</ele>
        <time>2022-09-07T10:56:04Z</time>
      </trkpt>
      <trkpt lat="44.092295961454511" lon="10.210179481655359">
        <ele>556.05999999999995</ele>
        <time>2022-09-07T10:56:05Z</time>
      </trkpt>
      <trkpt lat="44.092299649491906" lon="10.210164561867714">
        <ele>555.92999999999995</ele>
        <time>2022-09-07T10:56:06Z</time>
      </trkpt>
      <trkpt lat="44.092297134920955" lon="10.209916960448027">
        <ele>553.70000000000005</ele>
        <time>2022-09-07T10:56:20Z</time>
      </trkpt>
      <trkpt lat="44.092225218191743" lon="10.209728619083762">
        <ele>551.88</ele>
        <time>2022-09-07T10:56:33Z</time>
      </trkpt>
      <trkpt lat="44.092178111895919" lon="10.209683189168572">
        <ele>551.32000000000005</ele>
        <time>2022-09-07T10:56:38Z</time>
      </trkpt>
      <trkpt lat="44.09216788597405" lon="10.20967916585505">
        <ele>551.13</ele>
        <time>2022-09-07T10:56:39Z</time>
      </trkpt>
      <trkpt lat="44.092102674767375" lon="10.209694337099791">
        <ele>550.32000000000005</ele>
        <time>2022-09-07T10:56:46Z</time>
      </trkpt>
      <trkpt lat="44.092093119397759" lon="10.209700623527169">
        <ele>550.02999999999997</ele>
        <time>2022-09-07T10:56:47Z</time>
      </trkpt>
      <trkpt lat="44.092070152983069" lon="10.209723925217986">
        <ele>549.73000000000002</ele>
        <time>2022-09-07T10:56:50Z</time>
      </trkpt>
      <trkpt lat="44.092063028365374" lon="10.209735156968236">
        <ele>549.62</ele>
        <time>2022-09-07T10:56:51Z</time>
      </trkpt>
      <trkpt lat="44.092052886262536" lon="10.209742365404963">
        <ele>549.47000000000003</ele>
        <time>2022-09-07T10:56:52Z</time>
      </trkpt>
      <trkpt lat="44.092042157426476" lon="10.209745550528169">
        <ele>549.32000000000005</ele>
        <time>2022-09-07T10:56:53Z</time>
      </trkpt>
      <trkpt lat="44.0919304266572" lon="10.209802882745862">
        <ele>547.54999999999995</ele>
        <time>2022-09-07T10:57:04Z</time>
      </trkpt>
      <trkpt lat="44.091879967600107" lon="10.20987655967474">
        <ele>546.40999999999997</ele>
        <time>2022-09-07T10:57:10Z</time>
      </trkpt>
      <trkpt lat="44.091868903487921" lon="10.209883181378245">
        <ele>546.35000000000002</ele>
        <time>2022-09-07T10:57:11Z</time>
      </trkpt>
      <trkpt lat="44.091865215450525" lon="10.209901453927159">
        <ele>546.32000000000005</ele>
        <time>2022-09-07T10:57:12Z</time>
      </trkpt>
      <trkpt lat="44.091860605403781" lon="10.209918385371566">
        <ele>546.13</ele>
        <time>2022-09-07T10:57:13Z</time>
      </trkpt>
      <trkpt lat="44.091844260692596" lon="10.209938585758209">
        <ele>545.88999999999999</ele>
        <time>2022-09-07T10:57:17Z</time>
      </trkpt>
      <trkpt lat="44.091826826334" lon="10.209957277402282">
        <ele>545.73000000000002</ele>
        <time>2022-09-07T10:57:19Z</time>
      </trkpt>
      <trkpt lat="44.091818779706955" lon="10.209967084228992">
        <ele>545.63</ele>
        <time>2022-09-07T10:57:20Z</time>
      </trkpt>
      <trkpt lat="44.091810062527657" lon="10.209977393969893">
        <ele>545.25</ele>
        <time>2022-09-07T10:57:21Z</time>
      </trkpt>
      <trkpt lat="44.091800004243851" lon="10.20998653024435">
        <ele>545.23000000000002</ele>
        <time>2022-09-07T10:57:22Z</time>
      </trkpt>
      <trkpt lat="44.091789778321981" lon="10.209995079785585">
        <ele>545.24000000000001</ele>
        <time>2022-09-07T10:57:23Z</time>
      </trkpt>
      <trkpt lat="44.091662960126996" lon="10.210049645975232">
        <ele>544.04999999999995</ele>
        <time>2022-09-07T10:57:35Z</time>
      </trkpt>
      <trkpt lat="44.09149850718677" lon="10.210047885775566">
        <ele>542.86000000000001</ele>
        <time>2022-09-07T10:57:49Z</time>
      </trkpt>
      <trkpt lat="44.091291138902307" lon="10.210037240758538">
        <ele>540.34000000000003</ele>
        <time>2022-09-07T10:58:05Z</time>
      </trkpt>
      <trkpt lat="44.091193908825517" lon="10.210050148889422">
        <ele>539.30999999999995</ele>
        <time>2022-09-07T10:58:14Z</time>
      </trkpt>
      <trkpt lat="44.091162560507655" lon="10.210055261850357">
        <ele>539.13</ele>
        <time>2022-09-07T10:58:17Z</time>
      </trkpt>
      <trkpt lat="44.091067677363753" lon="10.210138158872724">
        <ele>537.50999999999999</ele>
        <time>2022-09-07T10:58:27Z</time>
      </trkpt>
      <trkpt lat="44.091056529432535" lon="10.210150480270386">
        <ele>537.39999999999998</ele>
        <time>2022-09-07T10:58:28Z</time>
      </trkpt>
      <trkpt lat="44.091013614088297" lon="10.210171854123473">
        <ele>536.63</ele>
        <time>2022-09-07T10:58:39Z</time>
      </trkpt>
      <trkpt lat="44.091008920222521" lon="10.210191132500768">
        <ele>536.25</ele>
        <time>2022-09-07T10:58:49Z</time>
      </trkpt>
      <trkpt lat="44.090993581339717" lon="10.210204795002937">
        <ele>536.00999999999999</ele>
        <time>2022-09-07T10:59:00Z</time>
      </trkpt>
      <trkpt lat="44.090938679873943" lon="10.210244776681066">
        <ele>535.03999999999996</ele>
        <time>2022-09-07T10:59:12Z</time>
      </trkpt>
      <trkpt lat="44.090887885540724" lon="10.210294732823968">
        <ele>533.97000000000003</ele>
        <time>2022-09-07T10:59:23Z</time>
      </trkpt>
      <trkpt lat="44.090858045965433" lon="10.21030068397522">
        <ele>533.54999999999995</ele>
        <time>2022-09-07T10:59:26Z</time>
      </trkpt>
      <trkpt lat="44.090794259682298" lon="10.210311831906438">
        <ele>532.77999999999997</ele>
        <time>2022-09-07T10:59:40Z</time>
      </trkpt>
      <trkpt lat="44.090691078454256" lon="10.210294649004936">
        <ele>531.83000000000004</ele>
        <time>2022-09-07T10:59:52Z</time>
      </trkpt>
      <trkpt lat="44.090573396533728" lon="10.210263635963202">
        <ele>529.90999999999997</ele>
        <time>2022-09-07T11:00:04Z</time>
      </trkpt>
      <trkpt lat="44.090490331873298" lon="10.210227007046342">
        <ele>528.38999999999999</ele>
        <time>2022-09-07T11:00:13Z</time>
      </trkpt>
      <trkpt lat="44.090476334095001" lon="10.210211919620633">
        <ele>527.99000000000001</ele>
        <time>2022-09-07T11:00:15Z</time>
      </trkpt>
      <trkpt lat="44.09040592610836" lon="10.210093148052692">
        <ele>525.5</ele>
        <time>2022-09-07T11:00:28Z</time>
      </trkpt>
      <trkpt lat="44.090395448729396" lon="10.209971107542515">
        <ele>523.50999999999999</ele>
        <time>2022-09-07T11:00:37Z</time>
      </trkpt>
      <trkpt lat="44.090392347425222" lon="10.209951577708125">
        <ele>523.37</ele>
        <time>2022-09-07T11:00:38Z</time>
      </trkpt>
      <trkpt lat="44.090379187837243" lon="10.209866333752871">
        <ele>522.21000000000004</ele>
        <time>2022-09-07T11:00:44Z</time>
      </trkpt>
      <trkpt lat="44.090369883924723" lon="10.209847223013639">
        <ele>522.00999999999999</ele>
        <time>2022-09-07T11:00:45Z</time>
      </trkpt>
      <trkpt lat="44.090362256392837" lon="10.20983456633985">
        <ele>521.90999999999997</ele>
        <time>2022-09-07T11:00:46Z</time>
      </trkpt>
      <trkpt lat="44.090354377403855" lon="10.209823921322823">
        <ele>521.73000000000002</ele>
        <time>2022-09-07T11:00:47Z</time>
      </trkpt>
      <trkpt lat="44.090291513130069" lon="10.20979299210012">
        <ele>521.32000000000005</ele>
        <time>2022-09-07T11:00:53Z</time>
      </trkpt>
      <trkpt lat="44.090220602229238" lon="10.209844959899783">
        <ele>520.36000000000001</ele>
        <time>2022-09-07T11:01:01Z</time>
      </trkpt>
      <trkpt lat="44.090168969705701" lon="10.209914948791265">
        <ele>519.25</ele>
        <time>2022-09-07T11:01:09Z</time>
      </trkpt>
      <trkpt lat="44.090170729905367" lon="10.209930120036006">
        <ele>519.23000000000002</ele>
        <time>2022-09-07T11:01:10Z</time>
      </trkpt>
      <trkpt lat="44.090177519246936" lon="10.209944201633334">
        <ele>519.10000000000002</ele>
        <time>2022-09-07T11:01:11Z</time>
      </trkpt>
      <trkpt lat="44.090246250852942" lon="10.210073282942176">
        <ele>519.10000000000002</ele>
        <time>2022-09-07T11:01:22Z</time>
      </trkpt>
      <trkpt lat="44.090286567807198" lon="10.210135309025645">
        <ele>518.88</ele>
        <time>2022-09-07T11:01:33Z</time>
      </trkpt>
      <trkpt lat="44.090294698253274" lon="10.21013556048274">
        <ele>517.5</ele>
        <time>2022-09-07T11:01:40Z</time>
      </trkpt>
      <trkpt lat="44.090294362977147" lon="10.21014578640461">
        <ele>517.47000000000003</ele>
        <time>2022-09-07T11:01:52Z</time>
      </trkpt>
      <trkpt lat="44.090276258066297" lon="10.210147462785244">
        <ele>517.01999999999998</ele>
        <time>2022-09-07T11:02:30Z</time>
      </trkpt>
      <trkpt lat="44.090274246409535" lon="10.210152072831988">
        <ele>516.99000000000001</ele>
        <time>2022-09-07T11:03:10Z</time>
      </trkpt>
      <trkpt lat="44.090283047407866" lon="10.210158945992589">
        <ele>516.41999999999996</ele>
        <time>2022-09-07T11:03:53Z</time>
      </trkpt>
      <trkpt lat="44.09027986228466" lon="10.210152491927147">
        <ele>516.67999999999995</ele>
        <time>2022-09-07T11:04:23Z</time>
      </trkpt>
      <trkpt lat="44.090281454846263" lon="10.210157604888082">
        <ele>516.51999999999998</ele>
        <time>2022-09-07T11:04:57Z</time>
      </trkpt>
      <trkpt lat="44.090286148712039" lon="10.210166657343507">
        <ele>516.27999999999997</ele>
        <time>2022-09-07T11:05:41Z</time>
      </trkpt>
      <trkpt lat="44.090293943881989" lon="10.210186187177896">
        <ele>515.54999999999995</ele>
        <time>2022-09-07T11:06:16Z</time>
      </trkpt>
      <trkpt lat="44.090297045186162" lon="10.210206639021635">
        <ele>514.91999999999996</ele>
        <time>2022-09-07T11:06:52Z</time>
      </trkpt>
      <trkpt lat="44.090287825092673" lon="10.210171435028315">
        <ele>515.97000000000003</ele>
        <time>2022-09-07T11:07:13Z</time>
      </trkpt>
    </trkseg>
  </trk>

</gpx>